# Wetter Temperatur Luftdruck Luftfeuchtigkeit Sichtweite Windgeschwindigkeit Windrichtung Zeit
1 Clouds 24 1015 88 10000 2.06 360 12:54 22.04.2021
2 Clouds 23 1015 88 10000 2.06 360 12:36 22.04.2021
3 Clouds 23 1015 88 10000 2.06 360 12:18 22.04.2021
4 Clouds 23 1014 88 10000 2.06 10 11:40 22.04.2021
5 Clouds 23 1014 88 10000 2.06 10 11:19 22.04.2021
6 Clouds 23 1015 94 10000 2.06 40 10:40 22.04.2021
7 Clouds 22 1015 94 10000 2.06 40 10:19 22.04.2021
8 Clouds 23 1015 94 10000 2.06 20 09:36 22.04.2021
9 Clouds 23 1016 94 10000 2.05 336 08:52 22.04.2021
10 Clouds 23 1016 94 10000 1.72 333 08:23 22.04.2021
11 Clouds 23 1016 94 10000 1.72 333 07:54 22.04.2021
12 Clouds 23 1016 94 10000 1.68 333 07:31 22.04.2021
13 Clouds 23 1017 94 10000 1.73 335 06:46 22.04.2021
14 Clouds 23 1017 94 10000 1.32 347 06:18 22.04.2021
15 Clouds 24 1017 94 10000 0.6 17 05:23 22.04.2021
16 Clouds 26 1015 78 10000 4.12 140 02:25 22.04.2021
17 Clouds 29 1014 55 10000 6.17 180 23:59 21.04.2021
18 Clouds 29 1014 55 10000 6.17 180 23:39 21.04.2021
19 Clouds 30 1014 55 10000 6.17 180 23:19 21.04.2021
20 Clouds 30 1015 55 10000 6.17 190 22:40 21.04.2021
21 Clouds 30 1015 55 10000 6.17 190 22:19 21.04.2021
22 Clouds 31 1015 52 10000 5.14 180 21:41 21.04.2021
23 Clouds 31 1015 52 10000 5.14 180 21:19 21.04.2021
24 Clouds 30 1017 58 10000 2.57 180 20:32 21.04.2021
25 Clouds 30 1017 58 10000 2.57 180 19:50 21.04.2021
26 Clouds 30 1017 58 10000 2.57 180 19:28 21.04.2021
27 Clouds 30 1019 62 10000 5.89 152 18:52 21.04.2021
28 Clouds 30 1019 62 10000 5.89 152 18:52 21.04.2021
29 Clouds 30 1019 62 10000 5.89 152 18:34 21.04.2021
30 Clouds 30 1019 62 10000 4.51 143 17:59 21.04.2021
31 Clouds 30 1019 62 10000 4.51 143 17:40 21.04.2021
32 Clouds 30 1019 62 10000 3.13 122 17:21 21.04.2021
33 Clouds 29 1019 74 10000 3.13 122 16:38 21.04.2021
34 Clouds 28 1019 78 10000 2.5 87 15:47 21.04.2021
35 Clouds 27 1019 78 10000 1.95 39 15:21 21.04.2021
36 Clouds 24 1017 94 10000 1.95 39 14:45 21.04.2021
37 Clouds 24 1017 94 10000 2 356 14:25 21.04.2021
38 Clouds 24 1017 100 10000 2.06 30 13:50 21.04.2021
39 Clouds 23 1017 100 10000 2.06 30 13:22 21.04.2021
40 Clouds 23 1016 94 10000 2.06 10 12:46 21.04.2021
41 Clouds 22 1016 94 10000 2.06 10 12:18 21.04.2021
42 Clouds 22 1016 94 10000 2.06 10 11:43 21.04.2021
43 Clouds 22 1016 94 10000 2.06 10 11:22 21.04.2021
44 Clouds 22 1015 100 10000 2.06 40 10:39 21.04.2021
45 Clouds 23 1016 100 10000 2.06 60 09:56 21.04.2021
46 Clouds 23 1016 100 10000 2.06 60 09:21 21.04.2021
47 Clouds 23 1016 28 10000 3.09 30 08:44 21.04.2021
48 Clouds 21 1017 28 10000 3.09 30 08:23 21.04.2021
49 Clouds 22 1017 94 10000 3.09 50 07:50 21.04.2021
50 Clouds 24 1017 94 10000 3.09 50 07:26 21.04.2021
51 Clouds 25 1018 88 10000 3.09 110 05:57 21.04.2021
52 Clouds 27 1016 78 10000 3.09 120 01:51 21.04.2021
53 Clouds 29 1016 62 10000 6.17 180 00:20 21.04.2021
54 Clouds 29 1016 62 10000 6.17 180 23:38 20.04.2021
55 Clouds 30 1017 58 10000 6.17 180 22:46 20.04.2021
56 Clouds 30 1017 58 10000 6.17 180 22:23 20.04.2021
57 Clouds 30 1017 55 10000 6.17 180 21:56 20.04.2021
58 Clouds 30 1017 55 10000 6.17 180 21:29 20.04.2021
59 Clouds 31 1018 55 10000 6.17 180 20:59 20.04.2021
60 Clouds 30 1018 55 10000 6.17 180 20:38 20.04.2021
61 Clouds 30 1018 55 10000 6.17 180 20:18 20.04.2021
62 Clouds 30 1018 58 10000 5.66 180 19:45 20.04.2021
63 Clouds 30 1018 58 10000 5.66 180 19:45 20.04.2021
64 Clouds 30 1018 58 10000 5.66 180 19:27 20.04.2021
65 Clouds 30 1019 58 10000 5.14 180 18:42 20.04.2021
66 Clouds 30 1019 58 10000 5.14 180 18:22 20.04.2021
67 Clouds 29 1019 58 10000 5.14 160 17:40 20.04.2021
68 Clouds 29 1018 65 10000 3.09 130 16:50 20.04.2021
69 Clouds 28 1018 65 10000 3.09 130 16:18 20.04.2021
70 Clouds 27 1018 78 10000 3.31 137 15:30 20.04.2021
71 Clouds 25 1017 94 10000 1.84 121 14:59 20.04.2021
72 Clouds 25 1017 94 10000 1.84 121 14:35 20.04.2021
73 Clouds 24 1017 100 10000 2.06 60 13:55 20.04.2021
74 Clouds 24 1017 100 10000 2.06 60 13:26 20.04.2021
75 Clouds 24 1016 100 10000 0.71 338 12:48 20.04.2021
76 Clouds 22 1016 100 10000 0.36 6 12:23 20.04.2021
77 Clouds 23 1016 94 10000 0.36 6 11:46 20.04.2021
78 Clouds 23 1016 94 10000 0.36 331 11:24 20.04.2021
79 Clouds 23 1016 94 10000 2.06 60 10:45 20.04.2021
80 Clouds 23 1016 94 10000 2.06 60 10:23 20.04.2021
81 Clouds 23 1016 94 10000 0.48 309 09:44 20.04.2021
82 Clouds 24 1016 94 10000 0.74 262 08:56 20.04.2021
83 Clouds 24 1016 94 10000 0.82 250 08:29 20.04.2021
84 Clouds 24 1017 94 10000 0.65 232 07:49 20.04.2021
85 Clouds 24 1018 94 10000 0.56 237 06:54 20.04.2021
86 Clouds 23 1018 88 10000 0.53 199 05:40 20.04.2021
87 Clouds 24 1017 83 10000 0.82 169 04:42 20.04.2021
88 Clouds 27 1016 74 10000 2.06 150 01:58 20.04.2021
89 Clouds 28 1016 70 10000 3.09 180 00:41 20.04.2021
90 Clouds 30 1015 66 10000 6.17 180 23:38 19.04.2021
91 Clouds 30 1016 62 10000 5.14 180 22:58 19.04.2021
92 Clouds 30 1016 62 10000 5.14 180 22:36 19.04.2021
93 Clouds 31 1016 62 10000 5.14 180 21:52 19.04.2021
94 Clouds 31 1016 62 10000 5.14 180 21:34 19.04.2021
95 Clouds 31 1016 58 10000 6.17 180 20:56 19.04.2021
96 Clouds 31 1016 58 10000 6.17 180 20:38 19.04.2021
97 Clouds 31 1016 58 10000 6.17 180 20:19 19.04.2021
98 Clouds 30 1017 66 10000 5.14 180 19:41 19.04.2021
99 Clouds 30 1017 66 10000 5.14 180 19:23 19.04.2021
100 Clouds 30 1018 74 10000 5.14 180 18:47 19.04.2021
101 Clouds 30 1018 74 10000 5.14 180 18:22 19.04.2021
102 Clouds 30 1018 74 10000 5.14 180 18:22 19.04.2021
103 Clouds 29 1019 74 10000 3.09 160 17:54 19.04.2021
104 Clouds 29 1019 74 10000 3.09 160 17:29 19.04.2021
105 Clouds 28 1019 78 10000 3.09 180 16:53 19.04.2021
106 Clouds 28 1019 78 10000 3.09 180 16:34 19.04.2021
107 Clouds 26 1018 83 10000 3.66 138 15:55 19.04.2021
108 Clouds 26 1018 83 10000 3.66 138 15:30 19.04.2021
109 Clouds 25 1018 94 10000 1.5 134 14:55 19.04.2021
110 Clouds 25 1018 94 10000 1.5 134 14:36 19.04.2021
111 Clouds 23 1018 100 10000 0.74 307 13:54 19.04.2021
112 Clouds 23 1018 100 10000 0.66 344 13:54 19.04.2021
113 Clouds 23 1018 100 10000 0.74 307 13:30 19.04.2021
114 Clouds 23 1017 94 10000 0.58 312 12:56 19.04.2021
115 Clouds 23 1017 94 10000 0.58 312 12:36 19.04.2021
116 Clouds 23 1017 94 10000 0.33 358 12:18 19.04.2021
117 Clouds 24 1017 94 10000 0.33 358 11:49 19.04.2021
118 Clouds 24 1017 94 10000 0.55 18 11:20 19.04.2021
119 Clouds 24 1017 94 10000 0.55 18 10:44 19.04.2021
120 Clouds 24 1017 94 10000 0.44 64 10:20 19.04.2021
121 Clouds 24 1017 100 10000 0.44 64 09:43 19.04.2021
122 Clouds 24 1017 100 10000 0.23 111 09:24 19.04.2021
123 Clouds 24 1017 94 10000 0.23 111 08:41 19.04.2021
124 Clouds 24 1016 88 10000 0.25 220 07:50 19.04.2021
125 Clouds 25 1016 88 10000 0.5 227 07:24 19.04.2021
126 Clouds 24 1017 88 10000 2.06 140 06:52 19.04.2021
127 Clouds 24 1017 88 10000 0.89 207 05:30 19.04.2021
128 Clouds 27 1015 78 10000 2.06 140 01:50 19.04.2021
129 Clouds 29 1014 62 10000 2.06 140 00:42 19.04.2021
130 Clouds 29 1015 70 10000 3.09 180 23:22 18.04.2021
131 Clouds 30 1014 58 10000 5.14 180 22:58 18.04.2021
132 Clouds 30 1014 58 10000 5.14 180 22:34 18.04.2021
133 Clouds 30 1014 58 10000 5.14 180 22:34 18.04.2021
134 Clouds 30 1015 58 10000 6.17 180 21:57 18.04.2021
135 Clouds 30 1015 58 10000 6.17 180 21:28 18.04.2021
136 Clouds 31 1015 58 10000 5.14 180 20:55 18.04.2021
137 Clouds 31 1015 58 10000 5.14 180 20:37 18.04.2021
138 Clouds 30 1015 58 10000 5.14 180 20:18 18.04.2021
139 Clouds 30 1016 62 10000 5.14 180 19:39 18.04.2021
140 Clouds 30 1016 62 10000 5.14 180 19:19 18.04.2021
141 Clouds 29 1017 66 10000 5.14 180 18:45 18.04.2021
142 Clouds 30 1017 66 10000 5.14 180 18:25 18.04.2021
143 Clouds 29 1017 66 10000 4.12 90 17:46 18.04.2021
144 Clouds 29 1017 66 10000 4.12 90 17:27 18.04.2021
145 Clouds 29 1016 78 10000 4.27 154 16:47 18.04.2021
146 Clouds 28 1016 78 10000 3.39 145 16:29 18.04.2021
147 Clouds 28 1015 83 10000 3.39 145 15:46 18.04.2021
148 Clouds 28 1015 83 10000 2.8 140 15:27 18.04.2021
149 Clouds 27 1016 94 10000 2.06 70 14:52 18.04.2021
150 Clouds 26 1016 94 10000 2.06 70 14:23 18.04.2021
151 Clouds 25 1015 94 10000 2.06 30 13:55 18.04.2021
152 Clouds 24 1015 94 10000 2.06 30 13:34 18.04.2021
153 Clouds 24 1015 100 10000 1.37 171 12:50 18.04.2021
154 Clouds 24 1015 100 10000 1.21 187 12:26 18.04.2021
155 Clouds 25 1014 94 10000 1.21 187 11:42 18.04.2021
156 Clouds 25 1014 94 10000 1.35 181 11:21 18.04.2021
157 Clouds 25 1014 94 10000 2.06 150 10:47 18.04.2021
158 Clouds 25 1014 94 10000 2.06 150 10:22 18.04.2021
159 Clouds 25 1014 94 10000 2.06 150 09:53 18.04.2021
160 Clouds 25 1014 94 10000 2.06 130 09:34 18.04.2021
161 Clouds 25 1015 94 10000 2.57 110 08:57 18.04.2021
162 Clouds 25 1015 94 10000 2.57 110 08:35 18.04.2021
163 Clouds 25 1015 94 10000 0.34 204 07:58 18.04.2021
164 Clouds 25 1015 94 10000 0.34 204 07:37 18.04.2021
165 Clouds 24 1016 94 10000 2.06 130 05:42 18.04.2021
166 Clouds 26 1016 94 10000 2.06 130 05:24 18.04.2021
167 Clouds 27 1015 83 10000 2.57 160 02:39 18.04.2021
168 Clouds 27 1015 83 10000 2.57 160 02:20 18.04.2021
169 Clouds 29 1014 66 10000 3.09 150 00:37 18.04.2021
170 Clouds 29 1014 66 10000 3.09 150 23:37 17.04.2021
171 Clouds 29 1014 62 10000 5.14 150 22:51 17.04.2021
172 Clouds 30 1014 62 10000 5.14 150 22:30 17.04.2021
173 Clouds 31 1014 58 10000 8.23 180 21:50 17.04.2021
174 Clouds 31 1014 58 10000 8.23 180 21:28 17.04.2021
175 Clouds 30 1015 58 10000 5.14 180 20:47 17.04.2021
176 Clouds 30 1015 58 10000 5.14 180 20:27 17.04.2021
177 Clouds 31 1016 62 10000 6.17 180 19:44 17.04.2021
178 Clouds 30 1016 62 10000 6.17 180 19:21 17.04.2021
179 Clouds 30 1016 66 10000 7.2 180 18:55 17.04.2021
180 Clouds 30 1016 66 10000 7.2 180 18:28 17.04.2021
181 Clouds 29 1017 70 10000 4.12 150 17:56 17.04.2021
182 Clouds 29 1017 70 10000 4.12 150 17:38 17.04.2021
183 Clouds 29 1017 69 10000 3.78 149 16:42 17.04.2021
184 Clouds 28 1017 69 10000 2.81 140 16:24 17.04.2021
185 Clouds 28 1016 78 10000 2.81 140 15:38 17.04.2021
186 Clouds 27 1015 94 10000 1.47 102 14:49 17.04.2021
187 Clouds 26 1015 94 10000 1.07 352 14:29 17.04.2021
188 Clouds 25 1015 94 10000 1.07 352 13:45 17.04.2021
189 Clouds 24 1015 94 10000 1.5 344 13:18 17.04.2021
190 Clouds 24 1014 88 10000 2.06 50 12:35 17.04.2021
191 Clouds 23 1014 88 10000 2.06 60 11:58 17.04.2021
192 Clouds 23 1014 88 10000 2.06 60 11:38 17.04.2021
193 Clouds 23 1014 88 10000 2.06 60 11:19 17.04.2021
194 Clouds 23 1014 94 10000 2.06 30 10:39 17.04.2021
195 Clouds 24 1014 94 10000 2.06 40 09:51 17.04.2021
196 Clouds 24 1014 94 10000 2.06 40 08:55 17.04.2021
197 Clouds 25 1014 94 10000 3.09 70 08:33 17.04.2021
198 Clouds 25 1014 94 10000 3.09 70 08:33 17.04.2021
199 Clouds 25 1014 83 10000 0.89 94 07:54 17.04.2021
200 Clouds 25 1015 94 10000 2.06 20 06:34 17.04.2021
201 Clouds 26 1014 94 10000 2.06 120 03:48 17.04.2021
202 Clouds 27 1013 83 10000 1.61 174 01:35 17.04.2021
203 Clouds 28 1012 74 10000 2.06 170 00:40 17.04.2021
204 Clouds 29 1013 62 10000 5.14 150 00:19 17.04.2021
205 Clouds 29 1013 62 10000 5.14 150 23:35 16.04.2021
206 Clouds 30 1013 58 10000 5.14 180 22:52 16.04.2021
207 Clouds 30 1013 58 10000 5.14 180 22:25 16.04.2021
208 Clouds 30 1013 58 10000 5.14 180 21:57 16.04.2021
209 Clouds 29 1013 58 10000 5.14 180 21:39 16.04.2021
210 Clouds 29 1014 58 10000 5.14 180 20:57 16.04.2021
211 Clouds 30 1014 58 10000 5.14 180 20:38 16.04.2021
212 Clouds 30 1014 58 10000 5.14 180 20:18 16.04.2021
213 Clouds 29 1014 58 10000 2.06 160 19:43 16.04.2021
214 Clouds 29 1015 65 10000 4.12 180 19:19 16.04.2021
215 Clouds 29 1015 65 10000 4.12 180 18:27 16.04.2021
216 Clouds 28 1015 69 10000 2.57 180 17:51 16.04.2021
217 Clouds 28 1015 69 10000 2.57 180 17:20 16.04.2021
218 Clouds 27 1016 69 10000 3.26 143 16:45 16.04.2021
219 Clouds 27 1016 69 10000 2.22 113 16:26 16.04.2021
220 Clouds 27 1015 78 10000 2.06 50 15:56 16.04.2021
221 Clouds 25 1015 94 10000 2.22 113 15:36 16.04.2021
222 Clouds 24 1015 94 10000 1.63 72 14:46 16.04.2021
223 Clouds 23 1015 94 10000 1.47 22 14:28 16.04.2021
224 Clouds 23 1014 88 10000 2.06 30 13:56 16.04.2021
225 Clouds 21 1014 88 10000 2.06 30 13:23 16.04.2021
226 Clouds 22 1013 94 10000 2.06 30 12:54 16.04.2021
227 Clouds 22 1013 94 10000 2.06 30 12:36 16.04.2021
228 Clouds 19 1013 94 10000 2.06 30 11:59 16.04.2021
229 Clouds 19 1013 88 10000 2.06 40 11:41 16.04.2021
230 Clouds 19 1013 88 10000 2.06 40 11:20 16.04.2021
231 Clouds 19 1013 88 10000 2.06 30 10:41 16.04.2021
232 Clouds 19 1013 88 10000 2.06 30 10:20 16.04.2021
233 Clouds 19 1013 94 10000 2.06 40 09:44 16.04.2021
234 Clouds 21 1013 94 10000 2.06 40 09:21 16.04.2021
235 Clouds 19 1013 88 10000 2.06 60 08:44 16.04.2021
236 Clouds 19 1013 88 10000 2.06 60 08:19 16.04.2021
237 Clouds 19 1014 88 10000 1.34 10 07:42 16.04.2021
238 Clouds 23 1014 88 10000 1.27 34 07:18 16.04.2021
239 Clouds 23 1014 88 10000 1.27 34 06:35 16.04.2021
240 Clouds 24 1014 88 10000 2.57 70 05:31 16.04.2021
241 Clouds 27 1012 78 10000 4.12 140 01:40 16.04.2021
242 Clouds 27 1011 74 10000 4.12 140 00:44 16.04.2021
243 Clouds 28 1011 74 10000 5.14 90 00:20 16.04.2021
244 Clouds 28 1011 74 10000 5.14 90 23:51 15.04.2021
245 Clouds 28 1011 74 10000 5.14 90 23:27 15.04.2021
246 Clouds 29 1012 62 10000 5.55 144 22:47 15.04.2021
247 Clouds 29 1012 62 10000 4.47 130 22:23 15.04.2021
248 Clouds 29 1012 62 10000 4.47 130 22:23 15.04.2021
249 Clouds 29 1013 62 10000 2.57 40 21:43 15.04.2021
250 Clouds 30 1013 62 10000 2.57 40 21:24 15.04.2021
251 Clouds 31 1014 58 10000 5.14 360 20:48 15.04.2021
252 Clouds 31 1014 58 10000 5.14 360 20:25 15.04.2021
253 Clouds 30 1017 58 10000 5.14 360 19:47 15.04.2021
254 Clouds 30 1017 58 10000 5.14 360 19:28 15.04.2021
255 Clouds 30 1017 54 10000 4.12 30 18:59 15.04.2021
256 Clouds 30 1017 54 10000 4.12 30 18:37 15.04.2021
257 Clouds 29 1017 54 10000 4.12 30 18:18 15.04.2021
258 Clouds 28 1016 65 10000 4.12 30 17:44 15.04.2021
259 Clouds 28 1016 65 10000 4.12 30 17:24 15.04.2021
260 Clouds 26 1015 73 10000 6.17 360 16:43 15.04.2021
261 Clouds 26 1015 73 10000 6.17 360 16:24 15.04.2021
262 Clouds 25 1014 78 10000 4.12 360 15:47 15.04.2021
263 Clouds 25 1014 78 10000 4.12 360 15:27 15.04.2021
264 Clouds 23 1014 94 10000 5.11 7 14:43 15.04.2021
265 Clouds 22 1014 94 10000 4.32 354 14:25 15.04.2021
266 Clouds 21 1015 88 10000 4.32 352 13:48 15.04.2021
267 Clouds 20 1015 88 10000 3.46 350 13:23 15.04.2021
268 Clouds 20 1014 88 10000 3.46 350 12:47 15.04.2021
269 Clouds 20 1014 88 10000 3.35 351 12:26 15.04.2021
270 Clouds 20 1014 88 10000 3.35 351 12:26 15.04.2021
271 Clouds 19 1013 94 10000 3.35 351 11:48 15.04.2021
272 Clouds 19 1013 94 10000 3.19 352 11:26 15.04.2021
273 Clouds 19 1013 94 10000 3.19 352 10:58 15.04.2021
274 Clouds 19 1013 94 10000 3.19 352 10:34 15.04.2021
275 Clouds 20 1013 94 10000 3.27 351 09:56 15.04.2021
276 Clouds 20 1013 88 10000 3.12 354 09:29 15.04.2021
277 Clouds 20 1014 94 10000 3.12 354 08:52 15.04.2021
278 Clouds 20 1014 94 10000 2.83 355 08:24 15.04.2021
279 Clouds 20 1015 88 10000 2.83 355 07:33 15.04.2021
280 Clouds 22 1015 88 10000 2.85 358 06:56 15.04.2021
281 Clouds 22 1015 88 10000 2.85 358 06:33 15.04.2021
282 Clouds 22 1015 88 10000 2.85 358 06:33 15.04.2021
283 Clouds 23 1015 78 10000 2.06 20 04:54 15.04.2021
284 Clouds 25 1013 78 10000 3.09 40 02:58 15.04.2021
285 Clouds 29 1012 65 10000 6.17 360 23:49 14.04.2021
286 Clouds 29 1012 65 10000 6.17 360 23:29 14.04.2021
287 Clouds 30 1012 58 10000 3.13 61 22:47 14.04.2021
288 Clouds 30 1013 58 10000 5.14 360 22:28 14.04.2021
289 Clouds 31 1013 58 10000 5.14 360 21:56 14.04.2021
290 Clouds 31 1013 58 10000 5.14 360 21:37 14.04.2021
291 Clouds 31 1013 58 10000 5.14 360 21:18 14.04.2021
292 Clouds 31 1013 62 10000 5.14 360 20:36 14.04.2021
293 Clouds 30 1013 62 10000 5.14 360 20:18 14.04.2021
294 Clouds 31 1014 62 10000 4.12 360 19:38 14.04.2021
295 Clouds 30 1014 62 10000 4.12 360 19:18 14.04.2021
296 Clouds 30 1015 66 10000 5.14 360 18:49 14.04.2021
297 Clouds 29 1015 66 10000 5.14 360 18:19 14.04.2021
298 Clouds 29 1015 70 10000 5.14 360 17:51 14.04.2021
299 Clouds 29 1015 70 10000 5.14 360 17:23 14.04.2021
300 Clouds 28 1014 74 10000 5.14 360 16:43 14.04.2021
301 Clouds 28 1014 74 10000 5.14 360 16:22 14.04.2021
302 Clouds 26 1014 83 10000 3.09 30 15:40 14.04.2021
303 Clouds 26 1014 83 10000 3.09 30 15:18 14.04.2021
304 Clouds 25 1013 88 10000 4.85 10 14:42 14.04.2021
305 Clouds 24 1013 88 10000 3.8 4 14:21 14.04.2021
306 Clouds 23 1013 94 10000 2.06 10 13:47 14.04.2021
307 Clouds 23 1013 94 10000 2.9 356 12:47 14.04.2021
308 Clouds 23 1013 94 10000 2.59 358 12:24 14.04.2021
309 Clouds 23 1012 94 10000 2.59 358 11:42 14.04.2021
310 Clouds 23 1012 94 10000 2.45 0 11:23 14.04.2021
311 Clouds 24 1012 94 10000 2.45 0 10:34 14.04.2021
312 Clouds 24 1012 88 10000 2.66 355 09:46 14.04.2021
313 Clouds 24 1012 88 10000 2.74 358 09:27 14.04.2021
314 Clouds 24 1013 100 10000 2.74 358 08:56 14.04.2021
315 Clouds 24 1013 100 10000 2.8 359 08:32 14.04.2021
316 Clouds 24 1014 94 10000 2.06 60 07:51 14.04.2021
317 Clouds 24 1014 88 10000 2.06 70 06:35 14.04.2021
318 Clouds 25 1014 88 10000 2.06 60 05:50 14.04.2021
319 Clouds 26 1012 88 10000 3.8 19 02:40 14.04.2021
320 Clouds 27 1011 83 10000 1.46 118 01:19 14.04.2021
321 Clouds 28 1011 62 10000 5.14 180 00:32 14.04.2021
322 Clouds 29 1011 62 10000 5.14 180 23:34 13.04.2021
323 Clouds 30 1011 55 10000 4.12 180 22:45 13.04.2021
324 Clouds 30 1011 55 10000 4.12 180 22:22 13.04.2021
325 Clouds 31 1011 55 10000 2.57 180 21:50 13.04.2021
326 Clouds 31 1011 55 10000 2.57 180 21:32 13.04.2021
327 Clouds 30 1012 58 10000 5.14 180 20:52 13.04.2021
328 Clouds 31 1012 58 10000 5.14 180 20:25 13.04.2021
329 Clouds 30 1013 62 10000 5.14 180 19:59 13.04.2021
330 Clouds 30 1013 62 10000 5.14 180 19:26 13.04.2021
331 Clouds 30 1014 62 10000 2.95 144 18:57 13.04.2021
332 Clouds 30 1014 62 10000 2.95 144 18:32 13.04.2021
333 Clouds 29 1015 65 10000 2.37 133 17:41 13.04.2021
334 Clouds 29 1015 65 10000 1.69 116 17:22 13.04.2021
335 Clouds 28 1014 69 10000 1.69 116 16:50 13.04.2021
336 Clouds 28 1014 69 10000 1.69 116 16:31 13.04.2021
337 Clouds 27 1014 83 10000 1.04 90 15:56 13.04.2021
338 Clouds 27 1014 83 10000 1.04 90 15:38 13.04.2021
339 Clouds 25 1013 88 10000 1.09 29 14:58 13.04.2021
340 Clouds 25 1013 88 10000 1.4 343 14:25 13.04.2021
341 Clouds 23 1013 94 10000 2.06 30 13:57 13.04.2021
342 Clouds 23 1013 94 10000 2.06 30 13:39 13.04.2021
343 Clouds 23 1013 94 10000 2.06 30 13:20 13.04.2021
344 Clouds 23 1012 94 10000 2.57 50 12:46 13.04.2021
345 Clouds 23 1012 94 10000 2.57 50 12:22 13.04.2021
346 Clouds 23 1011 94 10000 3.09 50 11:37 13.04.2021
347 Clouds 23 1011 88 10000 2.57 60 10:58 13.04.2021
348 Clouds 23 1011 88 10000 2.57 60 10:58 13.04.2021
349 Clouds 23 1011 88 10000 2.57 60 10:40 13.04.2021
350 Clouds 23 1011 88 10000 2.57 60 10:19 13.04.2021
351 Clouds 22 1011 88 10000 2.57 60 09:49 13.04.2021
352 Clouds 23 1011 88 10000 2.57 60 09:23 13.04.2021
353 Clouds 21 1012 88 10000 1.03 285 08:44 13.04.2021
354 Clouds 21 1012 88 10000 1.16 290 08:22 13.04.2021
355 Clouds 22 1013 83 10000 1.16 290 07:43 13.04.2021
356 Clouds 24 1013 83 10000 1.07 267 07:23 13.04.2021
357 Clouds 22 1013 83 10000 0.87 247 06:22 13.04.2021
358 Clouds 24 1012 88 10000 1.28 198 03:41 13.04.2021
359 Clouds 27 1011 74 10000 2.57 170 01:31 13.04.2021
360 Clouds 28 1011 65 10000 5.14 180 23:51 12.04.2021
361 Clouds 28 1011 65 10000 5.14 180 23:32 12.04.2021
362 Clouds 28 1011 65 10000 5.14 180 22:50 12.04.2021
363 Clouds 28 1011 65 10000 5.14 180 22:31 12.04.2021
364 Clouds 28 1012 65 10000 5.14 180 21:48 12.04.2021
365 Clouds 29 1012 65 10000 5.14 180 21:25 12.04.2021
366 Clouds 29 1012 61 10000 5.14 180 20:46 12.04.2021
367 Clouds 29 1012 61 10000 5.14 180 20:26 12.04.2021
368 Clouds 28 1013 62 10000 5.14 180 19:59 12.04.2021
369 Clouds 29 1013 62 10000 5.14 180 19:39 12.04.2021
370 Clouds 29 1013 62 10000 5.14 180 19:20 12.04.2021
371 Clouds 29 1014 62 10000 5.14 180 18:48 12.04.2021
372 Clouds 28 1014 62 10000 5.14 180 18:30 12.04.2021
373 Clouds 28 1015 61 10000 2.06 130 17:47 12.04.2021
374 Clouds 28 1015 61 10000 2.06 130 17:25 12.04.2021
375 Clouds 27 1015 69 10000 3.02 156 16:49 12.04.2021
376 Clouds 27 1015 69 10000 3.02 156 16:31 12.04.2021
377 Clouds 27 1015 69 10000 3.02 156 16:30 12.04.2021
378 Clouds 25 1014 88 10000 1.86 142 15:56 12.04.2021
379 Clouds 24 1014 88 10000 1.86 142 15:33 12.04.2021
380 Clouds 23 1014 94 10000 0.51 93 14:55 12.04.2021
381 Clouds 22 1014 94 10000 0.72 125 14:37 12.04.2021
382 Clouds 22 1013 94 10000 2.06 280 13:59 12.04.2021
383 Clouds 21 1013 94 10000 2.06 280 13:39 12.04.2021
384 Clouds 21 1013 94 10000 2.06 280 13:18 12.04.2021
385 Clouds 21 1013 94 10000 2.06 290 12:38 12.04.2021
386 Clouds 21 1013 94 10000 2.06 290 12:20 12.04.2021
387 Clouds 21 1012 94 10000 2.06 320 11:27 12.04.2021
388 Clouds 21 1012 94 10000 3.09 330 10:51 12.04.2021
389 Clouds 21 1012 94 10000 3.09 330 10:28 12.04.2021
390 Clouds 21 1012 94 10000 2.06 330 09:52 12.04.2021
391 Clouds 21 1012 94 10000 2.06 330 09:23 12.04.2021
392 Clouds 22 1012 94 10000 3.09 320 08:49 12.04.2021
393 Clouds 22 1013 94 10000 3.09 340 07:53 12.04.2021
394 Clouds 22 1013 94 10000 3.09 340 07:29 12.04.2021
395 Clouds 23 1013 94 10000 3.09 260 06:29 12.04.2021
396 Clouds 23 1013 94 10000 3.09 300 05:47 12.04.2021
397 Clouds 24 1011 83 10000 2.06 100 02:26 12.04.2021
398 Clouds 27 1011 74 10000 3.09 90 00:27 12.04.2021
399 Clouds 27 1011 64 10000 1.34 148 23:54 11.04.2021
400 Clouds 28 1011 69 10000 5.14 180 23:32 11.04.2021
401 Clouds 28 1011 69 10000 5.14 180 22:50 11.04.2021
402 Clouds 28 1011 69 10000 5.14 180 22:28 11.04.2021
403 Clouds 29 1012 65 10000 5.14 150 21:59 11.04.2021
404 Clouds 28 1012 65 10000 5.14 150 21:39 11.04.2021
405 Clouds 28 1012 65 10000 5.14 150 21:20 11.04.2021
406 Clouds 28 1013 61 10000 2.06 80 20:39 11.04.2021
407 Clouds 28 1013 61 10000 2.06 80 20:20 11.04.2021
408 Clouds 28 1014 65 10000 6.17 60 19:41 11.04.2021
409 Clouds 28 1015 69 10000 3.09 70 19:20 11.04.2021
410 Clouds 28 1015 69 10000 3.09 70 18:55 11.04.2021
411 Clouds 28 1015 69 10000 3.09 70 18:55 11.04.2021
412 Clouds 28 1015 69 10000 3.09 70 18:37 11.04.2021
413 Clouds 27 1015 69 10000 3.09 70 18:18 11.04.2021
414 Clouds 27 1015 69 10000 3.09 70 18:18 11.04.2021
415 Clouds 27 1015 74 10000 3 108 17:37 11.04.2021
416 Clouds 27 1015 74 10000 2.86 74 17:18 11.04.2021
417 Clouds 27 1015 78 10000 2.86 74 16:40 11.04.2021
418 Clouds 27 1015 78 10000 2.86 74 16:40 11.04.2021
419 Clouds 26 1015 78 10000 3.19 58 16:20 11.04.2021
420 Clouds 25 1015 83 10000 3.09 30 15:43 11.04.2021
421 Clouds 25 1015 83 10000 3.09 30 15:22 11.04.2021
422 Clouds 24 1015 94 10000 2.9 44 14:49 11.04.2021
423 Clouds 23 1015 94 10000 2.22 15 14:21 11.04.2021
424 Clouds 22 1014 88 10000 2.06 20 13:40 11.04.2021
425 Clouds 20 1014 88 10000 2.06 20 13:22 11.04.2021
426 Clouds 21 1013 88 10000 2.08 357 12:26 11.04.2021
427 Clouds 21 1013 88 10000 2.06 20 11:56 11.04.2021
428 Clouds 21 1013 88 10000 2.06 20 11:38 11.04.2021
429 Clouds 21 1013 88 10000 2.06 20 11:19 11.04.2021
430 Clouds 21 1012 88 10000 2.06 20 10:40 11.04.2021
431 Clouds 21 1012 88 10000 2.06 20 10:20 11.04.2021
432 Clouds 22 1013 83 10000 2.06 30 09:43 11.04.2021
433 Clouds 22 1013 83 10000 2.06 30 09:43 11.04.2021
434 Clouds 22 1013 83 10000 2.06 30 09:25 11.04.2021
435 Clouds 22 1014 88 10000 2.06 30 08:39 11.04.2021
436 Clouds 23 1015 83 10000 2.06 80 07:38 11.04.2021
437 Clouds 24 1015 83 10000 2.06 80 07:19 11.04.2021
438 Clouds 24 1015 78 10000 2.06 50 05:47 11.04.2021
439 Clouds 24 1015 78 10000 2.06 50 05:22 11.04.2021
440 Clouds 24 1014 78 10000 2.06 60 04:35 11.04.2021
441 Clouds 25 1013 73 10000 2.06 10 03:35 11.04.2021
442 Clouds 27 1013 65 10000 2.06 140 00:51 11.04.2021
443 Clouds 27 1012 61 10000 5.14 180 00:25 11.04.2021
444 Clouds 28 1012 61 10000 5.14 180 23:33 10.04.2021
445 Clouds 28 1012 61 10000 5.14 180 22:55 10.04.2021
446 Clouds 28 1013 65 10000 2.57 70 22:26 10.04.2021
447 Clouds 29 1014 62 10000 4.12 170 21:52 10.04.2021
448 Clouds 29 1015 62 10000 4.12 30 21:24 10.04.2021
449 Clouds 29 1015 62 10000 4.12 30 20:53 10.04.2021
450 Clouds 29 1015 62 10000 4.12 30 20:32 10.04.2021
451 Clouds 28 1015 69 10000 1.35 132 19:49 10.04.2021
452 Clouds 28 1015 69 10000 1.35 132 19:30 10.04.2021
453 Clouds 28 1017 65 10000 2.57 360 18:57 10.04.2021
454 Clouds 28 1017 65 10000 2.57 360 18:39 10.04.2021
455 Clouds 28 1017 65 10000 2.57 360 18:20 10.04.2021
456 Clouds 27 1017 69 10000 2.27 49 17:34 10.04.2021
457 Clouds 27 1017 65 10000 2.57 360 16:32 10.04.2021
458 Clouds 26 1017 73 10000 3.6 20 15:56 10.04.2021
459 Clouds 25 1017 73 10000 3.6 20 15:36 10.04.2021
460 Clouds 24 1016 94 10000 3.11 24 14:51 10.04.2021
461 Clouds 23 1016 94 10000 2.64 2 14:28 10.04.2021
462 Clouds 23 1016 88 10000 2.66 5 13:49 10.04.2021
463 Clouds 21 1016 88 10000 2.39 353 13:28 10.04.2021
464 Clouds 22 1016 88 10000 2.39 353 12:38 10.04.2021
465 Clouds 22 1015 79 10000 1.34 354 11:59 10.04.2021
466 Clouds 22 1015 79 10000 1.34 355 11:41 10.04.2021
467 Clouds 22 1015 86 10000 0.45 44 11:18 10.04.2021
468 Clouds 22 1015 86 10000 0.45 342 10:42 10.04.2021
469 Clouds 23 1014 79 10000 1.34 357 10:23 10.04.2021
470 Clouds 23 1014 78 10000 1.34 352 09:29 10.04.2021
471 Clouds 23 1015 79 10000 0.89 4 08:58 10.04.2021
472 Clouds 23 1015 79 10000 0.89 340 08:31 10.04.2021
473 Clouds 24 1015 76 10000 0.89 359 07:52 10.04.2021
474 Clouds 24 1016 75 10000 1.34 31 07:25 10.04.2021
475 Clouds 24 1017 75 10000 1.34 43 06:27 10.04.2021
476 Clouds 24 1017 76 10000 1.79 26 04:49 10.04.2021
477 Clouds 24 1015 78 10000 2.06 60 02:57 10.04.2021
478 Clouds 24 1015 78 10000 2.06 60 02:35 10.04.2021
479 Clouds 27 1014 74 10000 3.09 130 00:53 10.04.2021
480 Clouds 27 1014 74 10000 3.09 90 00:29 10.04.2021
481 Clouds 27 1014 74 10000 3.09 90 23:44 09.04.2021
482 Clouds 27 1014 74 10000 3.09 90 23:19 09.04.2021
483 Clouds 28 1014 70 10000 3.09 360 22:42 09.04.2021
484 Clouds 28 1014 70 10000 3.09 360 22:24 09.04.2021
485 Clouds 29 1015 66 10000 3.09 30 21:39 09.04.2021
486 Clouds 29 1015 66 10000 3.09 30 21:19 09.04.2021
487 Clouds 29 1016 66 10000 4.12 30 20:45 09.04.2021
488 Clouds 29 1016 66 10000 4.12 30 20:23 09.04.2021
489 Clouds 29 1016 70 10000 5.14 30 19:57 09.04.2021
490 Clouds 29 1016 70 10000 5.14 30 19:38 09.04.2021
491 Clouds 28 1016 70 10000 5.14 30 19:20 09.04.2021
492 Clouds 28 1017 69 10000 4.12 30 18:41 09.04.2021
493 Clouds 28 1017 69 10000 4.12 30 18:19 09.04.2021
494 Clouds 27 1017 74 10000 3.09 30 17:41 09.04.2021
495 Clouds 26 1017 83 10000 3.09 360 16:57 09.04.2021
496 Clouds 26 1017 83 10000 3.09 360 16:57 09.04.2021
497 Clouds 25 1017 83 10000 3.09 360 16:38 09.04.2021
498 Clouds 24 1016 88 10000 3.35 39 15:57 09.04.2021
499 Clouds 24 1016 88 10000 3.35 39 15:38 09.04.2021
500 Clouds 24 1016 88 10000 3.63 27 15:19 09.04.2021
501 Clouds 23 1016 88 10000 2.06 10 14:41 09.04.2021
502 Clouds 22 1015 94 10000 2.06 360 13:54 09.04.2021
503 Clouds 22 1015 94 10000 2.06 360 13:26 09.04.2021
504 Clouds 22 1014 94 10000 2.06 10 12:58 09.04.2021
505 Clouds 22 1014 94 10000 2.06 10 12:38 09.04.2021
506 Clouds 22 1014 88 10000 2.06 360 11:47 09.04.2021
507 Clouds 22 1014 88 10000 2.06 360 11:23 09.04.2021
508 Clouds 22 1014 88 10000 2.06 360 10:48 09.04.2021
509 Clouds 22 1014 88 10000 2.06 360 10:30 09.04.2021
510 Clouds 22 1014 94 10000 2.71 349 09:50 09.04.2021
511 Clouds 22 1014 94 10000 2.78 350 09:24 09.04.2021
512 Clouds 22 1014 94 10000 2.78 350 08:52 09.04.2021
513 Clouds 23 1016 88 10000 2.77 355 07:39 09.04.2021
514 Clouds 23 1016 88 10000 2.86 353 07:18 09.04.2021
515 Clouds 22 1016 94 10000 2.06 20 06:21 09.04.2021
516 Clouds 22 1015 88 10000 2.06 20 03:53 09.04.2021
517 Clouds 22 1014 94 10000 3.09 10 01:48 09.04.2021
518 Clouds 23 1013 88 8000 5.14 360 00:38 09.04.2021
519 Clouds 23 1013 88 8000 5.14 360 00:19 09.04.2021
520 Clouds 24 1013 88 8000 5.14 360 23:29 08.04.2021
521 Clouds 25 1013 83 10000 5.14 360 22:45 08.04.2021
522 Clouds 25 1013 83 10000 5.14 360 22:22 08.04.2021
523 Clouds 26 1014 78 10000 5.14 360 21:56 08.04.2021
524 Clouds 26 1014 78 10000 5.14 360 21:56 08.04.2021
525 Clouds 26 1014 78 10000 5.14 360 21:37 08.04.2021
526 Clouds 28 1014 78 10000 5.14 360 21:18 08.04.2021
527 Clouds 27 1014 70 8000 5.14 360 20:52 08.04.2021
528 Clouds 27 1014 70 8000 5.14 360 20:30 08.04.2021
529 Clouds 27 1015 78 10000 2.57 360 19:46 08.04.2021
530 Clouds 27 1015 78 10000 2.57 360 19:20 08.04.2021
531 Clouds 27 1016 83 6000 5.14 360 18:46 08.04.2021
532 Clouds 27 1016 83 6000 5.14 360 18:21 08.04.2021
533 Clouds 27 1016 78 10000 5.14 40 17:49 08.04.2021
534 Clouds 27 1016 78 10000 5.14 40 17:25 08.04.2021
535 Clouds 27 1016 78 10000 4.12 360 16:51 08.04.2021
536 Clouds 26 1016 78 10000 4.12 360 16:31 08.04.2021
537 Clouds 26 1015 83 10000 3.71 25 15:48 08.04.2021
538 Clouds 25 1015 83 10000 3.6 25 15:28 08.04.2021
539 Clouds 24 1015 88 10000 3.09 30 14:46 08.04.2021
540 Clouds 24 1015 88 10000 3.09 30 14:27 08.04.2021
541 Clouds 23 1014 94 10000 2.06 20 13:57 08.04.2021
542 Clouds 23 1014 94 10000 2.06 20 13:39 08.04.2021
543 Clouds 23 1014 94 10000 2.06 20 13:21 08.04.2021
544 Clouds 22 1013 94 10000 2.06 20 12:38 08.04.2021
545 Clouds 22 1013 94 10000 2.06 20 12:18 08.04.2021
546 Clouds 23 1013 94 10000 2.06 10 11:42 08.04.2021
547 Clouds 23 1013 94 10000 2.1 358 10:58 08.04.2021
548 Clouds 23 1013 94 10000 2.1 358 10:32 08.04.2021
549 Clouds 23 1013 85 10000 1.34 9 09:59 08.04.2021
550 Clouds 23 1013 85 10000 1.34 356 09:40 08.04.2021
551 Clouds 23 1014 94 10000 2.06 10 08:46 08.04.2021
552 Clouds 23 1014 94 10000 2.06 10 08:27 08.04.2021
553 Clouds 23 1014 100 10000 2.36 348 07:57 08.04.2021
554 Clouds 23 1014 100 10000 2.36 348 07:35 08.04.2021
555 Clouds 24 1014 94 10000 2.95 10 03:48 08.04.2021
556 Clouds 25 1013 88 8000 4.12 50 00:54 08.04.2021
557 Clouds 26 1013 74 10000 5.14 360 23:57 07.04.2021
558 Clouds 26 1013 74 10000 5.14 360 23:38 07.04.2021
559 Clouds 26 1013 74 10000 5.14 360 23:19 07.04.2021
560 Clouds 27 1014 74 10000 5.14 10 22:47 07.04.2021
561 Clouds 27 1014 74 10000 5.14 10 22:29 07.04.2021
562 Clouds 27 1014 74 10000 5.14 360 21:44 07.04.2021
563 Clouds 28 1014 74 10000 5.14 360 21:22 07.04.2021
564 Clouds 28 1015 74 10000 3.09 40 20:43 07.04.2021
565 Clouds 29 1015 74 10000 3.09 40 20:21 07.04.2021
566 Clouds 28 1015 74 10000 3.09 40 19:43 07.04.2021
567 Clouds 28 1015 74 10000 3.09 40 19:25 07.04.2021
568 Clouds 28 1016 78 10000 3.09 10 18:47 07.04.2021
569 Clouds 28 1016 78 10000 3.09 10 18:19 07.04.2021
570 Clouds 27 1016 78 10000 4.12 10 17:54 07.04.2021
571 Clouds 28 1016 78 10000 4.12 10 17:36 07.04.2021
572 Clouds 27 1016 78 10000 3.09 360 16:49 07.04.2021
573 Clouds 26 1016 78 10000 3.09 360 16:23 07.04.2021
574 Clouds 25 1016 88 10000 3.68 22 15:57 07.04.2021
575 Clouds 25 1016 88 10000 3.68 22 15:38 07.04.2021
576 Clouds 25 1016 88 10000 3.68 22 15:38 07.04.2021
577 Clouds 23 1015 94 10000 4.03 16 14:57 07.04.2021
578 Clouds 23 1015 94 10000 3.82 13 14:31 07.04.2021
579 Clouds 23 1014 94 10000 2.06 260 13:52 07.04.2021
580 Clouds 22 1014 94 10000 2.06 260 13:23 07.04.2021
581 Clouds 22 1014 94 10000 2.06 270 12:51 07.04.2021
582 Clouds 22 1014 94 10000 2.06 270 12:24 07.04.2021
583 Clouds 22 1014 94 10000 2.06 260 11:54 07.04.2021
584 Clouds 22 1014 94 10000 2.06 260 11:26 07.04.2021
585 Clouds 22 1014 94 10000 2.06 360 10:52 07.04.2021
586 Clouds 22 1014 94 10000 2.06 360 10:19 07.04.2021
587 Clouds 22 1014 94 10000 2.06 360 09:40 07.04.2021
588 Clouds 22 1014 94 10000 2.06 360 09:21 07.04.2021
589 Clouds 23 1014 100 10000 4.12 270 08:34 07.04.2021
590 Clouds 22 1014 87 10000 2.24 343 07:59 07.04.2021
591 Clouds 22 1015 94 10000 2.58 352 07:37 07.04.2021
592 Clouds 22 1015 94 10000 2.71 355 07:19 07.04.2021
593 Clouds 22 1015 94 10000 2.98 357 06:22 07.04.2021
594 Clouds 22 1015 100 10000 2.06 20 04:22 07.04.2021
595 Clouds 23 1014 94 8000 3.09 20 00:19 07.04.2021
596 Clouds 23 1014 94 8000 3.09 20 23:42 06.04.2021
597 Clouds 24 1014 94 8000 3.09 20 23:18 06.04.2021
598 Clouds 24 1014 94 8000 5.14 360 22:22 06.04.2021
599 Clouds 25 1014 94 7000 5.14 30 21:59 06.04.2021
600 Clouds 25 1014 94 7000 5.14 30 21:39 06.04.2021
601 Clouds 25 1014 94 7000 5.14 30 21:21 06.04.2021
602 Clouds 26 1015 74 8000 5.14 30 20:51 06.04.2021
603 Clouds 27 1015 74 8000 5.14 30 20:21 06.04.2021
604 Clouds 27 1015 74 10000 2.06 60 19:51 06.04.2021
605 Clouds 27 1016 78 10000 4.12 40 19:33 06.04.2021
606 Clouds 27 1016 78 10000 4.12 40 18:49 06.04.2021
607 Clouds 27 1016 78 10000 4.12 40 18:31 06.04.2021
608 Clouds 26 1016 83 10000 5.14 340 17:53 06.04.2021
609 Clouds 26 1016 83 10000 5.14 340 17:30 06.04.2021
610 Clouds 26 1016 88 10000 3.09 340 16:59 06.04.2021
611 Clouds 25 1016 88 10000 3.09 340 16:39 06.04.2021
612 Clouds 24 1016 94 10000 5.14 360 15:44 06.04.2021
613 Clouds 24 1016 94 10000 5.14 360 15:22 06.04.2021
614 Clouds 23 1015 94 8000 3.09 360 14:39 06.04.2021
615 Clouds 23 1015 94 8000 3.09 360 14:19 06.04.2021
616 Clouds 23 1014 94 8000 2.06 340 13:44 06.04.2021
617 Clouds 22 1014 94 8000 2.06 340 13:25 06.04.2021
618 Clouds 22 1014 94 10000 2.06 10 12:42 06.04.2021
619 Clouds 22 1014 94 10000 2.06 10 12:22 06.04.2021
620 Clouds 22 1013 94 10000 2.06 30 11:52 06.04.2021
621 Clouds 22 1013 94 10000 2.06 30 11:21 06.04.2021
622 Clouds 22 1013 100 10000 2.06 30 10:48 06.04.2021
623 Clouds 22 1013 100 10000 2.06 30 10:29 06.04.2021
624 Clouds 22 1013 100 10000 2.06 30 09:57 06.04.2021
625 Clouds 22 1013 100 10000 2.06 10 09:36 06.04.2021
626 Clouds 23 1013 94 10000 3.44 347 08:45 06.04.2021
627 Clouds 23 1013 94 10000 3.59 349 08:19 06.04.2021
628 Clouds 23 1015 94 10000 3.36 346 06:55 06.04.2021
629 Clouds 23 1015 100 8000 3.55 345 05:41 06.04.2021
630 Clouds 23 1014 94 8000 2.06 90 02:58 06.04.2021
631 Clouds 25 1013 94 8000 1.54 0 00:45 06.04.2021
632 Clouds 26 1013 78 8000 5.14 360 00:21 06.04.2021
633 Clouds 27 1013 78 8000 5.14 360 23:43 05.04.2021
634 Clouds 27 1013 78 8000 5.14 360 23:20 05.04.2021
635 Clouds 27 1013 74 10000 6.17 360 22:48 05.04.2021
636 Clouds 28 1013 74 10000 6.17 360 22:26 05.04.2021
637 Clouds 28 1013 74 10000 6.17 60 21:44 05.04.2021
638 Clouds 28 1013 74 10000 6.17 60 21:22 05.04.2021
639 Clouds 28 1014 70 10000 5.14 10 20:45 05.04.2021
640 Clouds 28 1014 70 10000 5.14 10 20:26 05.04.2021
641 Clouds 28 1014 70 10000 5.14 360 19:43 05.04.2021
642 Clouds 28 1014 70 10000 5.14 360 19:23 05.04.2021
643 Clouds 27 1014 69 10000 5.14 360 18:54 05.04.2021
644 Clouds 27 1014 69 10000 5.14 360 18:36 05.04.2021
645 Clouds 28 1014 69 10000 5.14 360 18:18 05.04.2021
646 Clouds 27 1015 78 10000 7.72 330 17:42 05.04.2021
647 Clouds 27 1015 78 10000 7.72 330 17:20 05.04.2021
648 Clouds 26 1015 78 10000 5.14 360 16:43 05.04.2021
649 Clouds 26 1015 78 10000 5.14 360 16:20 05.04.2021
650 Clouds 25 1015 83 8000 2.57 360 15:52 05.04.2021
651 Clouds 25 1015 83 8000 2.57 360 15:29 05.04.2021
652 Clouds 24 1014 94 10000 2.57 360 14:50 05.04.2021
653 Clouds 24 1014 94 10000 2.57 360 14:28 05.04.2021
654 Clouds 23 1013 100 10000 2.06 260 13:31 05.04.2021
655 Clouds 23 1013 94 10000 2.06 360 12:50 05.04.2021
656 Clouds 22 1013 94 10000 2.06 360 12:26 05.04.2021
657 Clouds 22 1012 100 10000 2.06 10 11:55 05.04.2021
658 Clouds 22 1012 100 10000 2.06 10 11:33 05.04.2021
659 Clouds 23 1012 94 10000 2.06 30 10:59 05.04.2021
660 Clouds 23 1012 94 10000 2.06 30 10:59 05.04.2021
661 Clouds 23 1012 94 10000 2.06 30 10:59 05.04.2021
662 Clouds 23 1012 94 10000 2.06 30 10:40 05.04.2021
663 Clouds 23 1012 94 10000 2.06 30 10:22 05.04.2021
664 Clouds 22 1012 100 10000 2.06 40 09:47 05.04.2021
665 Clouds 22 1012 100 10000 2.06 40 09:22 05.04.2021
666 Clouds 22 1013 94 10000 2.06 20 08:42 05.04.2021
667 Clouds 22 1013 94 10000 2.06 20 08:24 05.04.2021
668 Clouds 23 1014 94 10000 3.09 10 07:35 05.04.2021
669 Clouds 23 1014 94 10000 2.06 30 04:25 05.04.2021
670 Clouds 23 1012 83 10000 3.09 80 01:35 05.04.2021
671 Clouds 25 1012 70 10000 5.14 180 00:36 05.04.2021
672 Clouds 27 1012 70 10000 5.14 180 23:43 04.04.2021
673 Clouds 27 1012 70 10000 5.14 180 23:23 04.04.2021
674 Clouds 30 1012 66 10000 5.14 180 22:50 04.04.2021
675 Clouds 29 1012 66 10000 5.14 180 22:28 04.04.2021
676 Clouds 30 1013 62 10000 5.14 160 21:26 04.04.2021
677 Clouds 29 1013 62 10000 4.82 146 20:56 04.04.2021
678 Clouds 30 1013 62 10000 4.47 130 20:29 04.04.2021
679 Clouds 29 1014 66 10000 3.09 90 19:44 04.04.2021
680 Clouds 29 1014 66 10000 3.09 90 19:23 04.04.2021
681 Clouds 29 1015 70 10000 3.06 112 18:59 04.04.2021
682 Clouds 29 1015 70 10000 3.06 112 18:40 04.04.2021
683 Clouds 29 1015 70 10000 3.06 112 18:40 04.04.2021
684 Clouds 29 1015 70 10000 2.25 62 18:20 04.04.2021
685 Clouds 29 1015 65 10000 3.09 90 17:41 04.04.2021
686 Clouds 29 1015 65 10000 3.09 90 17:41 04.04.2021
687 Clouds 29 1015 65 10000 3.09 90 17:22 04.04.2021
688 Clouds 27 1015 74 10000 2.56 32 16:42 04.04.2021
689 Clouds 27 1015 74 10000 3.2 14 16:18 04.04.2021
690 Clouds 25 1014 83 10000 3.2 14 15:34 04.04.2021
691 Clouds 24 1014 88 10000 3.4 4 14:45 04.04.2021
692 Clouds 24 1014 88 10000 2.93 359 14:27 04.04.2021
693 Clouds 23 1014 94 10000 2.06 30 13:30 04.04.2021
694 Clouds 23 1014 94 10000 2.06 20 12:57 04.04.2021
695 Clouds 23 1014 94 10000 2.06 20 12:33 04.04.2021
696 Clouds 23 1013 94 10000 2.06 10 11:59 04.04.2021
697 Clouds 23 1013 94 10000 2.06 10 11:39 04.04.2021
698 Clouds 23 1013 94 10000 2.06 10 11:20 04.04.2021
699 Clouds 23 1013 94 10000 2.06 30 10:40 04.04.2021
700 Clouds 23 1013 94 10000 2.06 40 09:53 04.04.2021
701 Clouds 23 1013 94 10000 2.06 40 09:25 04.04.2021
702 Clouds 23 1013 94 10000 2.06 40 08:53 04.04.2021
703 Clouds 23 1013 94 10000 2.06 40 08:35 04.04.2021
704 Clouds 24 1014 88 10000 2.06 40 07:50 04.04.2021
705 Clouds 24 1014 88 10000 2.06 40 06:36 04.04.2021
706 Clouds 24 1015 88 10000 2.06 30 05:33 04.04.2021
707 Clouds 27 1013 74 10000 2.06 150 01:28 04.04.2021
708 Clouds 28 1012 66 10000 4.12 180 00:20 04.04.2021
709 Clouds 29 1012 66 10000 4.12 180 23:47 03.04.2021
710 Clouds 29 1012 66 10000 4.12 180 23:23 03.04.2021
711 Clouds 29 1012 58 10000 3.6 150 22:51 03.04.2021
712 Clouds 30 1012 58 10000 3.6 150 22:21 03.04.2021
713 Clouds 30 1013 58 10000 2.57 160 21:47 03.04.2021
714 Clouds 30 1013 58 10000 2.57 160 21:24 03.04.2021
715 Clouds 30 1014 58 10000 5.14 180 20:51 03.04.2021
716 Clouds 30 1014 58 10000 5.14 180 20:28 03.04.2021
717 Clouds 30 1014 58 10000 4.12 150 19:51 03.04.2021
718 Clouds 30 1014 58 10000 4.12 150 19:25 03.04.2021
719 Clouds 29 1015 62 10000 5.14 180 18:51 03.04.2021
720 Clouds 29 1015 62 10000 5.14 180 18:32 03.04.2021
721 Clouds 29 1016 65 10000 3.09 110 17:53 03.04.2021
722 Clouds 29 1016 65 10000 3.09 110 17:26 03.04.2021
723 Clouds 28 1016 74 10000 3.05 142 16:52 03.04.2021
724 Clouds 28 1016 74 10000 2.06 123 16:25 03.04.2021
725 Clouds 26 1015 83 10000 2.06 123 15:50 03.04.2021
726 Clouds 26 1015 83 10000 1.21 45 15:23 03.04.2021
727 Clouds 24 1015 88 10000 1.21 45 14:44 03.04.2021
728 Clouds 24 1015 88 10000 1.54 353 14:25 03.04.2021
729 Clouds 23 1014 100 10000 3.6 40 13:53 03.04.2021
730 Clouds 22 1014 100 10000 3.6 40 13:25 03.04.2021
731 Clouds 22 1014 100 10000 3.6 60 12:57 03.04.2021
732 Clouds 22 1014 100 10000 3.6 60 12:32 03.04.2021
733 Clouds 22 1014 100 10000 2.57 70 11:40 03.04.2021
734 Clouds 22 1014 100 10000 2.57 70 11:19 03.04.2021
735 Clouds 22 1013 100 10000 2.06 60 10:43 03.04.2021
736 Clouds 23 1014 94 10000 2.06 60 10:25 03.04.2021
737 Clouds 23 1014 94 10000 2.06 60 09:29 03.04.2021
738 Clouds 23 1014 94 10000 2.06 60 08:59 03.04.2021
739 Clouds 23 1014 88 10000 2.06 60 08:31 03.04.2021
740 Clouds 23 1015 88 10000 2.06 60 07:30 03.04.2021
741 Clouds 24 1015 100 10000 0.83 311 06:50 03.04.2021
742 Clouds 26 1014 83 10000 2.06 130 03:53 03.04.2021
743 Clouds 26 1013 83 10000 2.06 140 02:53 03.04.2021
744 Clouds 26 1013 83 10000 2.06 140 02:27 03.04.2021
745 Clouds 28 1015 74 10000 4.12 180 00:31 03.04.2021
746 Clouds 28 1015 74 10000 4.12 180 00:31 03.04.2021
747 Clouds 28 1015 74 10000 4.12 180 23:55 02.04.2021
748 Clouds 29 1015 74 10000 4.12 180 23:27 02.04.2021
749 Clouds 29 1013 66 10000 5.14 150 22:56 02.04.2021
750 Clouds 29 1013 66 10000 5.14 150 22:37 02.04.2021
751 Clouds 29 1013 62 10000 5.14 150 21:54 02.04.2021
752 Clouds 29 1013 62 10000 5.14 150 21:36 02.04.2021
753 Clouds 29 1013 62 10000 5.14 150 21:18 02.04.2021
754 Clouds 29 1013 62 10000 5.14 150 21:18 02.04.2021
755 Clouds 29 1014 62 10000 6.17 180 20:36 02.04.2021
756 Clouds 29 1014 62 10000 6.17 180 20:18 02.04.2021
757 Clouds 29 1015 62 10000 6.17 180 19:40 02.04.2021
758 Clouds 29 1015 62 10000 6.17 180 19:21 02.04.2021
759 Clouds 29 1015 61 10000 5.14 180 18:42 02.04.2021
760 Clouds 29 1015 61 10000 5.14 180 18:23 02.04.2021
761 Clouds 29 1016 61 10000 4.12 130 17:45 02.04.2021
762 Clouds 28 1016 61 10000 4.12 130 17:18 02.04.2021
763 Clouds 28 1016 65 10000 2.73 124 16:23 02.04.2021
764 Clouds 26 1015 83 10000 2.73 124 15:42 02.04.2021
765 Clouds 23 1014 94 10000 1.33 83 14:57 02.04.2021
766 Clouds 23 1014 94 10000 1.33 83 14:33 02.04.2021
767 Clouds 22 1013 94 10000 2.06 50 13:46 02.04.2021
768 Clouds 22 1013 94 10000 2.06 50 13:26 02.04.2021
769 Clouds 22 1013 94 10000 2.06 40 12:42 02.04.2021
770 Clouds 22 1013 94 10000 2.06 40 12:20 02.04.2021
771 Clouds 22 1013 94 10000 2.06 40 12:20 02.04.2021
772 Clouds 22 1013 94 10000 2.06 40 11:57 02.04.2021
773 Clouds 22 1013 94 10000 2.06 40 11:21 02.04.2021
774 Clouds 22 1012 94 10000 2.06 40 10:51 02.04.2021
775 Clouds 22 1012 94 10000 2.06 40 10:32 02.04.2021
776 Clouds 23 1012 79 10000 0.89 338 09:55 02.04.2021
777 Clouds 21 1013 94 10000 2.06 310 09:37 02.04.2021
778 Clouds 22 1013 94 10000 2.06 310 09:18 02.04.2021
779 Clouds 22 1013 94 10000 2.06 310 08:34 02.04.2021
780 Clouds 22 1014 94 10000 2.06 280 07:42 02.04.2021
781 Clear 23 1014 77 10000 1.35 338 06:58 02.04.2021
782 Clear 24 1014 76 10000 1.66 343 05:59 02.04.2021
783 Clear 24 1014 76 10000 1.66 343 05:59 02.04.2021
784 Clouds 26 1012 83 10000 4.12 130 02:51 02.04.2021
785 Clouds 27 1012 65 10000 2.06 80 00:54 02.04.2021
786 Clouds 27 1013 69 10000 5.14 160 00:24 02.04.2021
787 Clouds 27 1013 69 10000 5.14 160 23:41 01.04.2021
788 Clouds 28 1013 69 10000 5.14 160 23:18 01.04.2021
789 Clouds 29 1013 69 10000 4.12 90 22:21 01.04.2021
790 Clouds 29 1014 69 10000 5.14 90 21:51 01.04.2021
791 Clouds 29 1014 69 10000 5.14 90 21:29 01.04.2021
792 Clouds 29 1015 65 8000 5.14 30 20:54 01.04.2021
793 Clouds 29 1015 65 8000 5.14 30 20:28 01.04.2021
794 Clouds 29 1015 66 10000 5.14 30 19:57 01.04.2021
795 Clouds 28 1015 66 10000 5.14 30 19:36 01.04.2021
796 Clouds 28 1016 74 10000 5.14 30 18:47 01.04.2021
797 Clouds 28 1016 74 10000 5.14 30 18:19 01.04.2021
798 Clouds 27 1016 78 10000 3.09 100 17:54 01.04.2021
799 Clouds 28 1016 69 10000 4.12 90 17:33 01.04.2021
800 Clouds 28 1016 69 10000 4.12 90 16:54 01.04.2021
801 Clouds 27 1016 69 10000 4.12 90 16:34 01.04.2021
802 Clouds 26 1016 78 10000 5.14 30 15:49 01.04.2021
803 Clouds 25 1016 78 10000 5.14 30 15:20 01.04.2021
804 Clouds 24 1015 83 10000 2.06 30 14:47 01.04.2021
805 Clouds 24 1015 83 10000 2.06 30 14:27 01.04.2021
806 Clouds 23 1015 94 10000 2.06 10 13:58 01.04.2021
807 Clouds 22 1015 94 10000 2.06 10 13:31 01.04.2021
808 Clouds 22 1015 94 10000 2.06 10 12:55 01.04.2021
809 Clouds 22 1015 94 10000 2.06 10 12:33 01.04.2021
810 Clouds 22 1016 94 10000 2.06 10 11:57 01.04.2021
811 Clouds 22 1016 94 10000 2.06 10 11:38 01.04.2021
812 Clouds 22 1016 94 10000 2.06 10 11:18 01.04.2021
813 Clouds 22 1016 94 10000 2.57 10 10:45 01.04.2021
814 Clouds 22 1016 94 10000 2.57 10 10:22 01.04.2021
815 Clouds 23 1016 94 10000 2.06 10 09:31 01.04.2021
816 Clouds 23 1013 94 10000 2.06 30 08:43 01.04.2021
817 Clouds 23 1013 94 10000 2.06 30 08:24 01.04.2021
818 Clouds 23 1016 88 10000 2.06 30 07:21 01.04.2021
819 Clouds 23 1016 88 10000 2.06 30 06:55 01.04.2021
820 Clouds 23 1017 83 10000 2.06 20 05:33 01.04.2021
821 Clouds 24 1016 88 10000 2.06 60 03:18 01.04.2021
822 Clouds 27 1014 94 8000 3.09 270 23:52 31.03.2021
823 Clouds 27 1014 94 8000 3.09 270 23:34 31.03.2021
824 Clouds 27 1015 94 8000 2.57 360 22:43 31.03.2021
825 Clouds 27 1015 94 8000 2.57 360 22:22 31.03.2021
826 Clouds 27 1015 94 8000 3.95 128 21:48 31.03.2021
827 Clouds 27 1015 94 8000 4.27 126 21:24 31.03.2021
828 Clouds 28 1016 78 7000 4.12 180 20:59 31.03.2021
829 Clouds 28 1016 78 7000 4.12 180 20:40 31.03.2021
830 Clouds 28 1016 78 7000 4.12 180 20:19 31.03.2021
831 Clouds 28 1017 66 10000 5.14 360 19:42 31.03.2021
832 Clouds 29 1017 66 10000 5.14 360 19:19 31.03.2021
833 Clouds 28 1018 70 10000 6.21 128 18:53 31.03.2021
834 Clouds 29 1018 70 10000 6.21 128 18:34 31.03.2021
835 Clouds 29 1019 78 10000 3.53 97 17:38 31.03.2021
836 Clouds 29 1019 78 10000 3.29 63 17:19 31.03.2021
837 Clouds 29 1019 65 10000 3.09 30 16:50 31.03.2021
838 Clouds 29 1019 65 10000 3.09 30 16:50 31.03.2021
839 Clouds 29 1019 65 10000 3.09 30 16:31 31.03.2021
840 Clouds 26 1019 74 10000 5.14 360 15:53 31.03.2021
841 Clouds 26 1019 74 10000 5.14 360 15:20 31.03.2021
842 Clouds 23 1018 94 10000 5.14 360 14:49 31.03.2021
843 Clouds 23 1018 94 10000 5.14 360 14:24 31.03.2021
844 Clouds 23 1018 94 10000 5.14 360 14:24 31.03.2021
845 Clouds 22 1017 94 10000 3.5 351 13:54 31.03.2021
846 Clouds 22 1017 94 10000 3.26 346 13:22 31.03.2021
847 Clouds 22 1017 94 10000 3.26 346 12:40 31.03.2021
848 Clouds 22 1017 94 10000 3.26 346 12:40 31.03.2021
849 Clouds 22 1017 94 10000 3.46 346 12:18 31.03.2021
850 Clouds 22 1018 94 10000 3.43 343 11:22 31.03.2021
851 Clouds 22 1018 94 10000 3.43 343 11:22 31.03.2021
852 Clouds 22 1016 88 10000 3.43 343 10:50 31.03.2021
853 Clouds 22 1016 88 10000 3.48 346 10:27 31.03.2021
854 Clouds 22 1016 88 10000 3.48 346 09:54 31.03.2021
855 Clouds 22 1017 88 10000 3.6 350 09:29 31.03.2021
856 Clouds 23 1018 88 10000 3.6 350 08:46 31.03.2021
857 Clouds 23 1018 88 10000 3.29 349 08:26 31.03.2021
858 Clouds 23 1018 88 10000 3.29 349 07:36 31.03.2021
859 Clouds 24 1018 83 10000 3.55 2 04:46 31.03.2021
860 Clouds 27 1017 74 10000 3.09 60 02:37 31.03.2021
861 Clouds 29 1015 70 10000 4.12 60 00:54 31.03.2021
862 Clouds 29 1016 70 10000 4.12 30 00:25 31.03.2021
863 Clouds 29 1016 70 10000 4.12 30 23:55 30.03.2021
864 Clouds 29 1016 70 10000 4.12 30 23:24 30.03.2021
865 Clouds 30 1016 66 10000 5.14 70 22:49 30.03.2021
866 Clouds 29 1016 66 10000 5.14 70 22:30 30.03.2021
867 Clouds 30 1017 62 10000 3.09 120 21:56 30.03.2021
868 Clouds 30 1017 62 10000 3.09 120 21:29 30.03.2021
869 Clouds 30 1018 58 10000 4.12 30 20:59 30.03.2021
870 Clouds 30 1018 58 10000 4.12 30 20:31 30.03.2021
871 Clouds 30 1019 62 10000 5.73 128 19:56 30.03.2021
872 Clouds 30 1019 62 10000 5.73 128 19:37 30.03.2021
873 Clouds 30 1020 70 10000 5.14 30 18:55 30.03.2021
874 Clouds 30 1020 70 10000 5.14 30 18:26 30.03.2021
875 Clouds 29 1020 69 10000 3.09 30 17:45 30.03.2021
876 Clouds 29 1020 69 10000 3.09 30 17:26 30.03.2021
877 Clouds 27 1020 78 10000 5.14 50 16:47 30.03.2021
878 Clouds 27 1020 78 10000 5.14 50 16:27 30.03.2021
879 Clouds 26 1020 83 10000 3.09 60 15:37 30.03.2021
880 Clouds 26 1020 83 10000 3.09 60 15:18 30.03.2021
881 Clouds 24 1019 94 10000 3.09 360 14:45 30.03.2021
882 Clouds 24 1019 94 10000 3.09 360 14:20 30.03.2021
883 Clouds 23 1018 94 10000 1.54 0 13:47 30.03.2021
884 Clouds 23 1018 94 10000 1.54 0 13:24 30.03.2021
885 Clouds 22 1017 94 10000 2.06 320 12:41 30.03.2021
886 Clouds 22 1017 94 10000 2.06 320 12:20 30.03.2021
887 Clouds 23 1017 88 10000 2.06 40 11:41 30.03.2021
888 Clouds 23 1017 88 10000 2.06 40 11:18 30.03.2021
889 Clouds 23 1016 88 10000 2.06 50 10:41 30.03.2021
890 Clouds 23 1016 88 10000 2.06 50 10:19 30.03.2021
891 Clouds 23 1017 88 10000 2.06 40 09:40 30.03.2021
892 Clouds 23 1017 88 10000 2.06 40 09:20 30.03.2021
893 Clouds 23 1017 88 10000 2.06 30 08:41 30.03.2021
894 Clouds 24 1018 83 10000 2.06 60 07:55 30.03.2021
895 Clouds 24 1018 83 10000 2.06 60 07:28 30.03.2021
896 Clouds 24 1018 83 10000 2.06 40 06:23 30.03.2021
897 Clouds 24 1018 83 10000 2.06 30 05:24 30.03.2021
898 Clouds 27 1015 65 10000 2.06 130 01:37 30.03.2021
899 Clouds 29 1015 70 10000 5.14 180 23:52 29.03.2021
900 Clouds 29 1015 70 10000 5.14 180 23:18 29.03.2021
901 Clouds 30 1016 66 10000 5.14 180 22:36 29.03.2021
902 Clouds 30 1016 66 10000 5.14 180 21:55 29.03.2021
903 Clouds 30 1016 66 10000 5.14 180 21:33 29.03.2021
904 Clouds 31 1017 66 10000 5.14 180 20:50 29.03.2021
905 Clouds 31 1017 66 10000 5.14 180 20:29 29.03.2021
906 Clouds 30 1018 66 10000 5.14 30 19:52 29.03.2021
907 Clouds 30 1018 66 10000 5.14 30 19:27 29.03.2021
908 Clouds 30 1019 66 10000 5.14 10 18:51 29.03.2021
909 Clouds 30 1019 66 10000 5.14 10 18:27 29.03.2021
910 Clouds 28 1019 70 10000 5.14 360 17:55 29.03.2021
911 Clouds 29 1019 70 10000 5.14 360 17:33 29.03.2021
912 Clouds 28 1019 69 10000 5.14 360 16:52 29.03.2021
913 Clouds 27 1019 69 10000 5.14 360 16:25 29.03.2021
914 Clouds 26 1018 73 10000 3.09 40 15:40 29.03.2021
915 Clouds 25 1018 94 8000 3.09 360 15:22 29.03.2021
916 Clouds 23 1018 94 8000 3.09 360 14:47 29.03.2021
917 Clouds 22 1017 88 10000 2.06 20 13:56 29.03.2021
918 Clouds 22 1017 88 10000 2.06 20 13:37 29.03.2021
919 Clouds 22 1016 94 10000 2.06 10 12:59 29.03.2021
920 Clouds 22 1016 94 10000 2.06 10 12:40 29.03.2021
921 Clouds 22 1016 94 10000 2.06 10 11:45 29.03.2021
922 Clouds 22 1016 94 10000 2.06 10 11:27 29.03.2021
923 Clouds 22 1016 94 10000 2.06 10 11:27 29.03.2021
924 Clouds 22 1016 88 10000 2.06 10 10:45 29.03.2021
925 Clouds 22 1016 88 10000 2.06 10 10:19 29.03.2021
926 Clouds 22 1016 94 10000 2.06 20 09:32 29.03.2021
927 Clouds 23 1017 88 10000 2.06 20 08:35 29.03.2021
928 Rain 23 1017 88 10000 2.06 20 07:54 29.03.2021
929 Rain 23 1018 88 10000 2.06 40 06:57 29.03.2021
930 Rain 23 1018 88 10000 2.06 40 06:23 29.03.2021
931 Clouds 26 1016 74 10000 3.09 70 02:33 29.03.2021
932 Clouds 25 1016 94 10000 3.09 130 00:30 29.03.2021
933 Clouds 26 1016 94 10000 3.09 130 23:58 28.03.2021
934 Clouds 26 1016 94 10000 3.09 130 23:25 28.03.2021
935 Clouds 27 1016 74 8000 2.62 112 22:48 28.03.2021
936 Clouds 27 1016 74 8000 3.7 114 22:28 28.03.2021
937 Clouds 29 1017 62 10000 4.12 180 21:47 28.03.2021
938 Clouds 29 1017 62 10000 4.12 180 21:25 28.03.2021
939 Clouds 29 1017 55 10000 5.14 180 20:54 28.03.2021
940 Clouds 29 1017 55 10000 5.14 180 20:35 28.03.2021
941 Clouds 29 1018 65 10000 5.14 20 20:00 28.03.2021
942 Clouds 29 1018 65 10000 5.14 20 19:41 28.03.2021
943 Clouds 29 1018 65 10000 5.14 20 19:20 28.03.2021
944 Clouds 28 1018 69 10000 3.09 90 18:49 28.03.2021
945 Clouds 28 1018 69 10000 3.09 90 18:19 28.03.2021
946 Clouds 28 1019 74 10000 5.14 40 17:37 28.03.2021
947 Clouds 28 1019 69 10000 3.49 56 16:57 28.03.2021
948 Clouds 27 1019 69 10000 4.11 42 16:29 28.03.2021
949 Clouds 27 1019 78 10000 2.06 40 15:58 28.03.2021
950 Clouds 26 1019 78 10000 2.06 40 15:24 28.03.2021
951 Clouds 24 1019 94 10000 4.12 360 14:47 28.03.2021
952 Clouds 24 1019 94 10000 4.12 360 14:18 28.03.2021
953 Clouds 23 1017 94 10000 2.57 10 13:35 28.03.2021
954 Clouds 22 1017 100 10000 3.09 10 12:57 28.03.2021
955 Clouds 22 1017 100 10000 3.09 10 12:34 28.03.2021
956 Clouds 22 1016 94 10000 3.09 20 11:55 28.03.2021
957 Clouds 22 1016 94 10000 3.09 20 11:37 28.03.2021
958 Clouds 22 1016 94 10000 2.06 10 10:49 28.03.2021
959 Clouds 22 1016 94 10000 2.06 10 10:31 28.03.2021
960 Clouds 22 1017 94 10000 2.06 20 09:51 28.03.2021
961 Clouds 22 1017 94 10000 2.06 20 09:28 28.03.2021
962 Clouds 23 1018 94 10000 3.27 346 08:51 28.03.2021
963 Clouds 23 1018 94 10000 3.27 346 08:33 28.03.2021
964 Clouds 23 1018 88 10000 2.06 30 07:41 28.03.2021
965 Clouds 22 1019 88 10000 2.06 20 06:21 28.03.2021
966 Clouds 24 1018 83 10000 2.06 60 03:50 28.03.2021
967 Clouds 27 1016 65 10000 3.09 50 00:36 28.03.2021
968 Clouds 28 1015 65 10000 3.6 70 23:53 27.03.2021
969 Clouds 28 1015 65 10000 3.6 70 23:53 27.03.2021
970 Clouds 28 1016 83 8000 2.06 270 23:34 27.03.2021
971 Clouds 27 1016 83 8000 2.06 270 22:40 27.03.2021
972 Clouds 27 1016 83 8000 2.06 270 22:21 27.03.2021
973 Clouds 28 1016 66 6000 8.23 120 21:42 27.03.2021
974 Clouds 30 1016 66 6000 8.23 120 21:21 27.03.2021
975 Clouds 29 1016 62 10000 3.09 150 20:56 27.03.2021
976 Clouds 29 1016 62 10000 3.09 150 20:37 27.03.2021
977 Clouds 29 1016 62 10000 3.09 150 20:37 27.03.2021
978 Clouds 30 1017 62 10000 3.09 90 19:47 27.03.2021
979 Clouds 30 1017 62 10000 3.09 90 19:27 27.03.2021
980 Clouds 29 1018 62 10000 5.14 60 18:58 27.03.2021
981 Clouds 29 1018 62 10000 5.14 60 18:39 27.03.2021
982 Clouds 29 1018 62 10000 5.14 60 18:20 27.03.2021
983 Clouds 29 1019 65 10000 3.09 40 17:29 27.03.2021
984 Clouds 29 1020 65 10000 3.09 120 16:57 27.03.2021
985 Clouds 29 1020 65 10000 3.09 120 16:38 27.03.2021
986 Clouds 29 1020 65 10000 3.09 120 16:19 27.03.2021
987 Clouds 27 1020 78 10000 2.06 90 15:38 27.03.2021
988 Clouds 26 1020 83 10000 3.09 60 14:55 27.03.2021
989 Clouds 26 1020 83 10000 3.09 60 14:23 27.03.2021
990 Clouds 24 1019 94 10000 4.25 32 13:37 27.03.2021
991 Clouds 23 1019 94 10000 3.46 1 13:19 27.03.2021
992 Clouds 22 1019 94 10000 2.06 30 12:39 27.03.2021
993 Clouds 22 1018 94 10000 2.06 20 11:48 27.03.2021
994 Clouds 22 1018 94 10000 2.06 20 11:30 27.03.2021
995 Clouds 22 1017 94 10000 2.06 10 10:48 27.03.2021
996 Clouds 22 1017 94 10000 2.06 10 10:29 27.03.2021
997 Clear 23 1017 83 10000 1.34 10 09:42 27.03.2021
998 Clouds 22 1017 94 10000 2.06 360 09:18 27.03.2021
999 Clouds 22 1017 94 10000 2.06 360 09:18 27.03.2021
1000 Clouds 22 1017 94 10000 2.06 360 09:18 27.03.2021
1001 Clouds 22 1017 94 10000 2.06 360 08:36 27.03.2021
1002 Clouds 23 1018 94 10000 2.06 20 07:48 27.03.2021
1003 Clouds 23 1019 88 10000 2.06 20 06:59 27.03.2021
1004 Clouds 23 1019 88 10000 2.06 20 06:39 27.03.2021
1005 Clouds 24 1019 88 10000 2.06 20 04:41 27.03.2021
1006 Clouds 25 1017 78 10000 3.09 70 01:36 27.03.2021
1007 Clouds 25 1017 74 10000 3.09 10 00:32 27.03.2021
1008 Clouds 26 1016 65 10000 3.09 350 23:59 26.03.2021
1009 Clouds 27 1016 70 7000 3.09 180 23:23 26.03.2021
1010 Clouds 27 1016 70 7000 3.09 180 22:37 26.03.2021
1011 Clouds 28 1017 62 10000 3.09 120 21:42 26.03.2021
1012 Clouds 28 1017 74 10000 6.17 180 21:22 26.03.2021
1013 Clouds 28 1017 74 10000 6.17 180 20:49 26.03.2021
1014 Clouds 27 1017 74 10000 6.17 180 20:31 26.03.2021
1015 Clouds 28 1018 83 8000 4.12 160 19:51 26.03.2021
1016 Clouds 28 1018 83 8000 4.12 160 19:32 26.03.2021
1017 Clouds 29 1019 58 10000 5.14 360 18:49 26.03.2021
1018 Clouds 29 1019 58 10000 5.14 360 18:30 26.03.2021
1019 Clouds 29 1020 66 10000 4.76 125 17:50 26.03.2021
1020 Clouds 28 1020 66 10000 2.92 78 17:22 26.03.2021
1021 Clouds 29 1020 70 10000 4.12 80 16:34 26.03.2021
1022 Clouds 27 1020 69 10000 4.12 10 15:59 26.03.2021
1023 Clouds 28 1020 69 10000 4.12 10 15:28 26.03.2021
1024 Clouds 26 1020 78 10000 5.14 40 14:43 26.03.2021
1025 Clouds 24 1019 94 10000 3.42 23 13:46 26.03.2021
1026 Clouds 24 1019 94 10000 3.42 23 13:46 26.03.2021
1027 Clouds 24 1019 94 10000 2.86 357 13:22 26.03.2021
1028 Clouds 23 1019 94 10000 2.06 20 12:35 26.03.2021
1029 Clouds 22 1018 100 10000 2.06 10 11:47 26.03.2021
1030 Clouds 22 1018 100 10000 2.06 10 11:27 26.03.2021
1031 Clouds 23 1017 94 10000 2.06 30 10:42 26.03.2021
1032 Clouds 23 1017 94 10000 2.06 30 10:19 26.03.2021
1033 Clouds 22 1018 94 10000 2.06 20 09:41 26.03.2021
1034 Clouds 22 1018 94 10000 2.06 10 08:48 26.03.2021
1035 Clouds 22 1018 94 10000 2.06 10 08:26 26.03.2021
1036 Clouds 23 1018 94 10000 2.06 20 07:43 26.03.2021
1037 Clouds 23 1018 94 10000 2.06 20 07:21 26.03.2021
1038 Clouds 23 1019 94 10000 2.06 10 06:55 26.03.2021
1039 Clouds 24 1019 88 10000 1.54 40 05:32 26.03.2021
1040 Clouds 25 1018 83 10000 2.06 60 03:28 26.03.2021
1041 Clouds 27 1016 69 10000 1.03 140 00:50 26.03.2021
1042 Clouds 27 1016 65 10000 2.06 150 23:49 25.03.2021
1043 Clouds 28 1016 70 10000 5.14 160 23:30 25.03.2021
1044 Clouds 28 1016 70 10000 5.14 160 22:40 25.03.2021
1045 Clouds 28 1016 70 10000 5.14 160 21:55 25.03.2021
1046 Clouds 29 1016 66 10000 5.14 180 21:35 25.03.2021
1047 Clouds 29 1016 66 10000 5.14 160 20:59 25.03.2021
1048 Clouds 30 1016 66 10000 5.14 160 20:37 25.03.2021
1049 Clouds 30 1016 66 10000 5.14 160 20:18 25.03.2021
1050 Clouds 30 1017 62 10000 5.14 180 19:39 25.03.2021
1051 Clouds 30 1017 62 10000 5.14 180 19:21 25.03.2021
1052 Clouds 30 1017 66 10000 5.14 180 18:40 25.03.2021
1053 Clouds 30 1017 66 10000 5.14 180 18:22 25.03.2021
1054 Clouds 29 1018 65 10000 3.09 90 17:38 25.03.2021
1055 Clouds 28 1018 69 10000 3.09 90 16:58 25.03.2021
1056 Clouds 28 1018 69 10000 3.09 90 16:35 25.03.2021
1057 Clouds 27 1018 78 10000 4.12 30 15:49 25.03.2021
1058 Clouds 27 1018 78 10000 4.12 30 15:27 25.03.2021
1059 Clouds 26 1018 83 10000 3.2 53 14:58 25.03.2021
1060 Clouds 26 1018 83 10000 3.2 53 14:38 25.03.2021
1061 Clouds 23 1017 88 10000 2.91 350 13:29 25.03.2021
1062 Clouds 22 1017 94 10000 2.06 30 12:56 25.03.2021
1063 Clouds 22 1017 94 10000 2.06 30 12:36 25.03.2021
1064 Clouds 22 1017 94 10000 2.06 30 12:18 25.03.2021
1065 Clouds 22 1017 88 10000 2.06 20 11:44 25.03.2021
1066 Clouds 22 1017 88 10000 2.06 20 11:25 25.03.2021
1067 Clouds 22 1016 94 10000 3.09 360 10:49 25.03.2021
1068 Clouds 22 1016 94 10000 3.09 360 10:21 25.03.2021
1069 Clouds 22 1016 88 10000 2.57 20 09:50 25.03.2021
1070 Clouds 22 1016 88 10000 2.57 20 09:31 25.03.2021
1071 Clouds 22 1016 94 10000 2.06 10 08:37 25.03.2021
1072 Clouds 22 1017 94 10000 2.06 40 07:50 25.03.2021
1073 Clouds 23 1018 88 10000 2.06 310 06:48 25.03.2021
1074 Clouds 23 1018 88 10000 2.06 310 06:24 25.03.2021
1075 Clouds 24 1018 83 10000 2.06 80 04:52 25.03.2021
1076 Clouds 25 1017 88 10000 1.88 50 02:28 25.03.2021
1077 Clouds 27 1016 78 10000 2.06 140 00:20 25.03.2021
1078 Clouds 28 1015 65 10000 1.03 0 23:40 24.03.2021
1079 Clouds 28 1014 62 10000 5.14 180 23:20 24.03.2021
1080 Clouds 29 1014 62 10000 5.14 180 22:40 24.03.2021
1081 Clouds 29 1015 62 10000 5.14 180 21:57 24.03.2021
1082 Clouds 29 1015 62 10000 5.14 180 21:39 24.03.2021
1083 Clouds 29 1015 62 10000 5.14 180 21:19 24.03.2021
1084 Clouds 30 1015 66 10000 2.57 90 20:41 24.03.2021
1085 Clouds 30 1015 66 10000 2.57 90 20:18 24.03.2021
1086 Clouds 31 1016 62 10000 5.14 150 19:34 24.03.2021
1087 Clouds 30 1017 66 10000 2.06 360 18:56 24.03.2021
1088 Clouds 31 1017 66 10000 2.06 360 18:37 24.03.2021
1089 Clouds 31 1017 66 10000 2.06 360 18:19 24.03.2021
1090 Clouds 29 1018 66 10000 3.09 360 17:33 24.03.2021
1091 Clouds 30 1018 66 10000 2.72 90 16:59 24.03.2021
1092 Clouds 29 1018 66 10000 2.72 90 16:40 24.03.2021
1093 Clouds 29 1018 66 10000 2.68 75 16:19 24.03.2021
1094 Clouds 28 1018 74 10000 2.57 90 15:41 24.03.2021
1095 Clouds 28 1018 74 10000 2.57 90 15:20 24.03.2021
1096 Clouds 25 1017 83 10000 2.46 59 14:30 24.03.2021
1097 Clouds 23 1016 94 10000 2.07 28 13:58 24.03.2021
1098 Clouds 22 1016 94 10000 1.66 359 13:28 24.03.2021
1099 Clouds 22 1016 94 10000 1.62 356 13:28 24.03.2021
1100 Clouds 22 1015 94 10000 1.54 0 12:50 24.03.2021
1101 Clouds 21 1015 94 10000 1.54 0 12:30 24.03.2021
1102 Clear 22 1016 89 10000 0.45 13 11:54 24.03.2021
1103 Clouds 21 1014 94 10000 1.55 354 11:36 24.03.2021
1104 Clouds 22 1014 94 10000 1.43 11 10:49 24.03.2021
1105 Clouds 21 1014 94 10000 1.48 6 10:28 24.03.2021
1106 Clouds 22 1014 94 10000 1.48 6 09:54 24.03.2021
1107 Clouds 22 1014 94 10000 1.33 8 09:29 24.03.2021
1108 Clouds 22 1015 100 10000 1.33 8 08:57 24.03.2021
1109 Clouds 22 1015 100 10000 1.33 8 08:34 24.03.2021
1110 Clouds 22 1015 94 10000 2.06 60 07:48 24.03.2021
1111 Clouds 22 1015 94 10000 2.06 60 07:18 24.03.2021
1112 Clouds 23 1016 94 10000 2.06 40 06:41 24.03.2021
1113 Clouds 25 1018 83 10000 2.06 20 02:18 24.03.2021
1114 Clouds 26 1014 73 10000 1.58 182 00:40 24.03.2021
1115 Clouds 28 1013 69 10000 2.06 140 23:46 23.03.2021
1116 Clouds 28 1014 65 10000 5.14 180 23:19 23.03.2021
1117 Clouds 28 1014 65 10000 5.14 180 22:47 23.03.2021
1118 Clouds 28 1014 65 10000 5.14 180 22:24 23.03.2021
1119 Clouds 29 1015 61 10000 5.14 180 21:45 23.03.2021
1120 Clouds 29 1015 61 10000 5.14 180 21:25 23.03.2021
1121 Clouds 29 1015 58 10000 5.14 180 20:44 23.03.2021
1122 Clouds 29 1015 58 10000 5.14 180 20:25 23.03.2021
1123 Clouds 30 1016 58 10000 5.14 180 19:47 23.03.2021
1124 Clouds 29 1016 58 10000 5.14 180 19:25 23.03.2021
1125 Clouds 30 1016 58 10000 5.14 180 18:43 23.03.2021
1126 Clouds 30 1016 58 10000 5.14 180 18:22 23.03.2021
1127 Clouds 30 1017 58 10000 4.12 180 17:45 23.03.2021
1128 Clouds 30 1017 58 10000 4.12 180 17:21 23.03.2021
1129 Clouds 29 1017 65 10000 3.99 149 16:39 23.03.2021
1130 Clouds 29 1017 65 10000 2.84 129 16:19 23.03.2021
1131 Clouds 28 1017 69 10000 2.06 140 15:38 23.03.2021
1132 Clouds 25 1016 78 10000 1.96 102 14:52 23.03.2021
1133 Clouds 25 1016 78 10000 0.71 71 14:21 23.03.2021
1134 Clouds 22 1015 94 10000 0.71 71 13:50 23.03.2021
1135 Clouds 22 1015 94 10000 0.8 345 13:27 23.03.2021
1136 Clouds 22 1015 100 10000 2.06 50 12:59 23.03.2021
1137 Clouds 21 1015 100 10000 2.06 50 12:39 23.03.2021
1138 Clouds 21 1015 100 10000 2.06 50 12:19 23.03.2021
1139 Clouds 22 1014 100 10000 2.06 70 11:42 23.03.2021
1140 Clouds 22 1014 100 10000 2.57 60 10:44 23.03.2021
1141 Clouds 22 1014 100 10000 2.57 60 10:23 23.03.2021
1142 Clouds 22 1014 100 10000 2.57 60 09:58 23.03.2021
1143 Clouds 23 1014 100 10000 2.57 60 09:36 23.03.2021
1144 Clouds 22 1014 100 10000 2.57 60 09:18 23.03.2021
1145 Clouds 23 1014 94 10000 2.57 60 08:39 23.03.2021
1146 Clouds 23 1014 94 10000 2.57 60 08:20 23.03.2021
1147 Clouds 23 1015 94 10000 2.06 320 07:28 23.03.2021
1148 Clouds 23 1015 94 10000 2.06 310 06:59 23.03.2021
1149 Clouds 23 1015 94 10000 2.06 310 06:23 23.03.2021
1150 Clouds 25 1015 94 10000 2.06 10 03:21 23.03.2021
1151 Clouds 25 1013 83 10000 3.09 90 00:56 23.03.2021
1152 Clouds 26 1013 83 10000 2.9 153 23:33 22.03.2021
1153 Clouds 26 1013 83 10000 3.92 155 22:46 22.03.2021
1154 Clouds 26 1013 83 10000 4.41 156 22:23 22.03.2021
1155 Clouds 26 1013 78 10000 4.41 156 21:52 22.03.2021
1156 Clouds 26 1013 78 10000 5.01 158 21:29 22.03.2021
1157 Clouds 27 1014 78 8000 4.12 220 20:57 22.03.2021
1158 Clouds 27 1014 78 8000 4.12 220 20:37 22.03.2021
1159 Clouds 27 1014 78 8000 4.12 220 20:18 22.03.2021
1160 Clouds 26 1015 78 8000 5.14 180 19:40 22.03.2021
1161 Clouds 26 1015 78 8000 5.14 180 19:21 22.03.2021
1162 Clouds 25 1015 83 8000 7.2 180 18:42 22.03.2021
1163 Clouds 25 1015 83 8000 7.2 180 18:23 22.03.2021
1164 Clouds 25 1016 83 8000 4.12 140 17:51 22.03.2021
1165 Clouds 26 1016 83 8000 4.12 140 17:23 22.03.2021
1166 Clouds 27 1016 78 10000 4.27 147 16:58 22.03.2021
1167 Clouds 26 1016 78 10000 4.27 147 16:39 22.03.2021
1168 Clouds 26 1016 78 10000 2.66 137 15:55 22.03.2021
1169 Clouds 27 1016 78 10000 2.66 137 15:37 22.03.2021
1170 Clouds 27 1016 78 10000 1.59 87 15:18 22.03.2021
1171 Clouds 27 1016 78 10000 1.59 87 15:18 22.03.2021
1172 Clouds 26 1016 83 10000 1.59 87 14:44 22.03.2021
1173 Clouds 26 1016 83 10000 1.66 16 14:24 22.03.2021
1174 Clouds 24 1016 94 10000 1.66 16 13:38 22.03.2021
1175 Clouds 24 1016 94 10000 1.76 348 13:18 22.03.2021
1176 Clouds 23 1015 94 8000 2.06 40 12:41 22.03.2021
1177 Clouds 23 1015 94 8000 2.06 40 12:19 22.03.2021
1178 Clouds 23 1014 94 10000 2.06 30 11:44 22.03.2021
1179 Clouds 23 1014 94 10000 2.06 30 11:21 22.03.2021
1180 Clouds 23 1014 94 10000 2.06 40 10:43 22.03.2021
1181 Clouds 23 1014 94 10000 2.06 40 10:24 22.03.2021
1182 Clouds 23 1014 94 8000 2.06 40 09:39 22.03.2021
1183 Clouds 23 1014 94 8000 2.06 40 09:21 22.03.2021
1184 Clouds 23 1015 94 8000 2.06 60 08:42 22.03.2021
1185 Clouds 23 1015 94 8000 2.06 60 08:24 22.03.2021
1186 Clouds 24 1015 94 10000 2.06 40 07:44 22.03.2021
1187 Clouds 24 1016 94 10000 1.59 348 06:52 22.03.2021
1188 Clouds 25 1016 88 10000 2.06 80 05:43 22.03.2021
1189 Clouds 26 1015 83 10000 3.09 120 01:58 22.03.2021
1190 Clouds 26 1015 78 10000 3.09 130 00:29 22.03.2021
1191 Clouds 27 1014 69 10000 2.06 130 23:53 21.03.2021
1192 Clouds 27 1014 69 10000 2.06 130 23:53 21.03.2021
1193 Clouds 28 1014 70 10000 5.14 130 23:19 21.03.2021
1194 Clouds 28 1014 70 10000 5.14 130 22:55 21.03.2021
1195 Clouds 29 1014 70 10000 5.14 150 21:58 21.03.2021
1196 Clouds 29 1014 70 10000 5.14 150 21:39 21.03.2021
1197 Clouds 29 1014 70 10000 5.14 150 21:21 21.03.2021
1198 Clouds 29 1014 62 10000 7.2 180 20:41 21.03.2021
1199 Clouds 29 1014 62 10000 7.2 180 20:23 21.03.2021
1200 Clouds 29 1015 66 10000 4.72 145 19:52 21.03.2021
1201 Clouds 29 1015 66 10000 4.49 142 19:21 21.03.2021
1202 Clouds 29 1016 62 10000 3.09 210 18:46 21.03.2021
1203 Clouds 29 1016 62 10000 3.09 210 18:27 21.03.2021
1204 Clouds 29 1017 66 10000 3.69 139 17:45 21.03.2021
1205 Clouds 29 1017 66 10000 2.58 120 17:20 21.03.2021
1206 Clouds 28 1017 61 10000 2.06 130 16:54 21.03.2021
1207 Clouds 28 1018 74 10000 4.12 60 16:30 21.03.2021
1208 Clouds 28 1018 74 10000 4.12 60 15:55 21.03.2021
1209 Clouds 27 1018 74 10000 4.12 60 15:36 21.03.2021
1210 Clouds 27 1018 74 10000 4.12 60 15:18 21.03.2021
1211 Clouds 26 1017 83 10000 4.12 30 14:41 21.03.2021
1212 Clouds 25 1017 83 10000 4.12 30 14:23 21.03.2021
1213 Clouds 23 1017 94 10000 2.56 2 13:52 21.03.2021
1214 Clouds 23 1016 94 10000 2.06 20 12:46 21.03.2021
1215 Clouds 22 1016 94 10000 2.06 20 12:27 21.03.2021
1216 Clouds 22 1016 94 10000 2.06 20 12:27 21.03.2021
1217 Clouds 22 1015 94 10000 2.53 331 11:51 21.03.2021
1218 Clouds 22 1015 94 10000 2.59 328 11:27 21.03.2021
1219 Clouds 22 1015 94 10000 2.06 280 10:55 21.03.2021
1220 Clouds 22 1015 94 10000 2.06 280 10:35 21.03.2021
1221 Clouds 22 1015 94 10000 2.06 270 09:58 21.03.2021
1222 Clouds 22 1015 94 10000 2.06 270 09:38 21.03.2021
1223 Clouds 22 1015 94 10000 2.06 270 09:19 21.03.2021
1224 Clouds 23 1015 94 10000 2.18 333 08:39 21.03.2021
1225 Clouds 23 1015 94 10000 1.97 346 08:20 21.03.2021
1226 Clouds 23 1016 94 10000 2.57 320 07:37 21.03.2021
1227 Clouds 23 1016 88 10000 2.06 330 06:50 21.03.2021
1228 Clouds 24 1017 78 10000 3.6 350 04:59 21.03.2021
1229 Clouds 25 1015 73 10000 2.06 60 01:54 21.03.2021
1230 Clouds 26 1015 69 10000 2.06 150 00:40 21.03.2021
1231 Clouds 26 1015 69 10000 2.06 150 00:21 21.03.2021
1232 Clouds 27 1014 61 10000 3.09 170 23:47 20.03.2021
1233 Clouds 28 1015 70 10000 5.14 160 23:20 20.03.2021
1234 Clouds 28 1015 70 10000 5.14 160 22:50 20.03.2021
1235 Clouds 29 1015 70 10000 5.14 160 22:21 20.03.2021
1236 Clouds 30 1015 66 10000 4.12 180 21:45 20.03.2021
1237 Clouds 30 1015 66 10000 4.12 180 21:24 20.03.2021
1238 Clouds 30 1015 62 10000 4.12 160 20:44 20.03.2021
1239 Clouds 30 1015 62 10000 4.12 160 20:22 20.03.2021
1240 Clouds 30 1016 62 10000 4.12 160 19:48 20.03.2021
1241 Clouds 30 1016 62 10000 4.12 160 19:26 20.03.2021
1242 Clouds 30 1017 66 10000 3.09 90 18:49 20.03.2021
1243 Clouds 30 1017 66 10000 3.09 90 18:26 20.03.2021
1244 Clouds 29 1018 70 10000 2.47 103 17:54 20.03.2021
1245 Clouds 29 1018 70 10000 2.47 103 17:32 20.03.2021
1246 Clouds 28 1018 74 10000 5.14 90 16:46 20.03.2021
1247 Clouds 28 1018 74 10000 5.14 90 16:21 20.03.2021
1248 Clouds 28 1017 78 10000 3.09 90 15:59 20.03.2021
1249 Clouds 28 1017 78 10000 3.09 90 15:39 20.03.2021
1250 Clouds 25 1017 83 10000 2.75 39 14:46 20.03.2021
1251 Clouds 25 1017 83 10000 2.6 10 14:28 20.03.2021
1252 Clouds 22 1016 88 10000 2.6 10 13:40 20.03.2021
1253 Clouds 22 1016 94 10000 2.06 30 12:52 20.03.2021
1254 Clouds 22 1016 94 10000 2.06 30 12:26 20.03.2021
1255 Clouds 21 1016 94 10000 2.06 30 11:46 20.03.2021
1256 Clouds 21 1016 94 10000 2.06 30 11:28 20.03.2021
1257 Clouds 21 1016 94 10000 2.06 30 10:55 20.03.2021
1258 Clear 22 1016 84 10000 0.45 27 10:28 20.03.2021
1259 Clear 22 1016 84 10000 0.89 1 09:56 20.03.2021
1260 Clouds 22 1016 94 10000 2.06 40 09:27 20.03.2021
1261 Clouds 22 1016 94 10000 2.06 40 08:56 20.03.2021
1262 Clouds 22 1016 94 10000 2.06 40 08:30 20.03.2021
1263 Clouds 22 1016 94 10000 2.06 40 07:52 20.03.2021
1264 Clouds 22 1017 88 10000 2.06 30 07:32 20.03.2021
1265 Clouds 22 1017 88 10000 2.06 30 06:52 20.03.2021
1266 Clouds 22 1017 88 10000 2.06 30 06:19 20.03.2021
1267 Clouds 25 1017 83 10000 2.06 80 03:59 20.03.2021
1268 Clouds 25 1017 83 10000 2.06 80 03:41 20.03.2021
1269 Clouds 26 1015 73 10000 3.09 150 23:58 19.03.2021
1270 Clouds 27 1015 69 10000 5.14 180 23:30 19.03.2021
1271 Clouds 28 1015 69 10000 5.14 180 22:49 19.03.2021
1272 Clouds 28 1015 69 10000 5.14 180 22:28 19.03.2021
1273 Clouds 28 1015 65 10000 5.14 180 21:56 19.03.2021
1274 Clouds 29 1015 65 10000 5.14 180 21:22 19.03.2021
1275 Clouds 29 1016 66 10000 5.14 150 20:59 19.03.2021
1276 Clouds 29 1016 66 10000 5.14 150 20:39 19.03.2021
1277 Clouds 29 1016 66 10000 5.14 150 20:21 19.03.2021
1278 Clouds 29 1016 66 10000 5.14 180 19:45 19.03.2021
1279 Clouds 29 1016 66 10000 5.14 180 19:20 19.03.2021
1280 Clouds 29 1016 66 10000 5.14 180 19:20 19.03.2021
1281 Clouds 29 1017 70 10000 5.14 160 18:40 19.03.2021
1282 Clouds 29 1017 70 10000 5.14 160 18:19 19.03.2021
1283 Clouds 29 1017 70 10000 5.14 110 17:52 19.03.2021
1284 Clouds 29 1017 70 10000 5.14 110 17:28 19.03.2021
1285 Clouds 28 1018 69 10000 5.14 90 16:52 19.03.2021
1286 Clouds 28 1018 69 10000 5.14 90 16:27 19.03.2021
1287 Clouds 27 1018 78 10000 5.14 90 15:47 19.03.2021
1288 Clouds 26 1018 78 10000 5.14 90 15:22 19.03.2021
1289 Clouds 25 1017 78 10000 2.57 49 14:46 19.03.2021
1290 Clouds 25 1017 78 10000 2.25 22 14:26 19.03.2021
1291 Clouds 23 1017 94 10000 2.25 22 13:40 19.03.2021
1292 Clouds 22 1016 94 10000 3.09 20 12:51 19.03.2021
1293 Clouds 22 1016 94 10000 3.09 20 12:33 19.03.2021
1294 Clouds 21 1016 94 10000 3.09 10 11:42 19.03.2021
1295 Clouds 21 1015 100 10000 2.06 30 10:54 19.03.2021
1296 Clouds 21 1015 100 10000 2.06 30 10:30 19.03.2021
1297 Clouds 22 1015 94 10000 4.12 10 09:49 19.03.2021
1298 Clouds 22 1015 94 10000 4.12 10 09:30 19.03.2021
1299 Clouds 22 1016 94 10000 2.57 20 08:55 19.03.2021
1300 Clouds 22 1016 94 10000 2.57 20 08:37 19.03.2021
1301 Clouds 22 1016 94 10000 2.06 20 07:58 19.03.2021
1302 Clouds 22 1016 94 10000 2.06 20 07:36 19.03.2021
1303 Clouds 22 1016 94 10000 2.06 40 06:48 19.03.2021
1304 Clouds 24 1017 88 10000 3.09 40 02:45 19.03.2021
1305 Clouds 26 1016 78 10000 2.57 120 00:58 19.03.2021
1306 Clouds 27 1016 58 10000 4.12 180 23:30 18.03.2021
1307 Clouds 27 1016 58 10000 4.12 180 23:30 18.03.2021
1308 Clouds 28 1016 58 10000 4.12 180 22:58 18.03.2021
1309 Clouds 28 1016 58 10000 4.12 180 22:38 18.03.2021
1310 Clouds 28 1016 58 10000 4.12 180 22:18 18.03.2021
1311 Clouds 28 1016 54 10000 5.14 170 21:39 18.03.2021
1312 Clouds 29 1017 54 10000 3.09 130 20:47 18.03.2021
1313 Clouds 29 1017 54 10000 3.09 130 20:27 18.03.2021
1314 Clouds 29 1016 66 10000 9.26 140 19:45 18.03.2021
1315 Clouds 29 1018 65 10000 4.12 30 19:27 18.03.2021
1316 Clouds 29 1018 65 10000 4.12 30 18:57 18.03.2021
1317 Clouds 29 1018 65 10000 4.12 30 18:33 18.03.2021
1318 Clouds 29 1018 65 10000 6.17 80 17:50 18.03.2021
1319 Clouds 28 1019 65 10000 5.14 10 17:25 18.03.2021
1320 Clouds 28 1019 65 10000 5.14 10 16:48 18.03.2021
1321 Clouds 27 1019 65 10000 5.14 10 16:29 18.03.2021
1322 Clouds 26 1019 69 10000 4.12 30 15:47 18.03.2021
1323 Clouds 26 1019 69 10000 4.12 30 15:26 18.03.2021
1324 Clouds 25 1019 83 10000 3.09 10 14:55 18.03.2021
1325 Clouds 25 1019 83 10000 3.09 10 14:32 18.03.2021
1326 Clouds 23 1018 100 10000 3.73 35 13:53 18.03.2021
1327 Clouds 21 1018 100 10000 3.22 8 13:26 18.03.2021
1328 Clouds 21 1017 94 10000 2.06 40 12:44 18.03.2021
1329 Clouds 21 1017 94 10000 2.06 40 12:44 18.03.2021
1330 Clouds 21 1017 94 10000 2.06 40 12:25 18.03.2021
1331 Clouds 21 1017 94 10000 2.57 10 11:53 18.03.2021
1332 Clouds 21 1017 94 10000 2.57 10 11:32 18.03.2021
1333 Clouds 21 1016 94 10000 2.06 30 10:46 18.03.2021
1334 Clouds 21 1016 94 10000 2.06 30 10:27 18.03.2021
1335 Clouds 21 1016 94 10000 2.06 10 09:54 18.03.2021
1336 Clouds 21 1016 94 10000 2.06 10 09:29 18.03.2021
1337 Clouds 21 1016 94 10000 2.06 20 08:50 18.03.2021
1338 Clouds 21 1016 94 10000 2.06 20 08:31 18.03.2021
1339 Clouds 22 1017 88 10000 3.09 20 07:53 18.03.2021
1340 Clouds 22 1017 88 10000 3.09 20 07:25 18.03.2021
1341 Clouds 22 1017 94 10000 2.06 20 06:29 18.03.2021
1342 Clouds 22 1018 94 10000 2.06 30 05:54 18.03.2021
1343 Clouds 24 1016 94 10000 2.06 60 02:29 18.03.2021
1344 Clouds 28 1015 74 10000 5.14 70 23:59 17.03.2021
1345 Clouds 29 1015 65 10000 5.14 360 22:56 17.03.2021
1346 Clouds 29 1015 65 10000 5.14 360 22:27 17.03.2021
1347 Clouds 29 1016 62 10000 4.12 90 21:57 17.03.2021
1348 Clouds 29 1016 62 10000 4.12 90 21:39 17.03.2021
1349 Clouds 29 1016 62 10000 4.12 90 21:19 17.03.2021
1350 Clouds 29 1016 62 10000 5.14 30 20:43 17.03.2021
1351 Clouds 29 1016 62 10000 5.14 30 20:24 17.03.2021
1352 Clouds 27 1016 77 10000 1.34 177 19:46 17.03.2021
1353 Clouds 27 1017 75 10000 1.79 167 19:22 17.03.2021
1354 Clouds 27 1017 74 10000 2.24 187 18:55 17.03.2021
1355 Clouds 28 1017 74 10000 4.92 43 18:37 17.03.2021
1356 Clouds 27 1018 79 10000 5.37 26 17:49 17.03.2021
1357 Clouds 24 1019 86 10000 0.45 173 17:27 17.03.2021
1358 Clouds 24 1019 85 10000 4.57 32 16:47 17.03.2021
1359 Clouds 24 1019 85 10000 3.85 29 16:25 17.03.2021
1360 Clouds 25 1019 78 10000 1.79 357 15:56 17.03.2021
1361 Clouds 24 1017 83 8000 4.12 360 15:36 17.03.2021
1362 Clouds 23 1017 83 8000 4.12 360 14:45 17.03.2021
1363 Clouds 23 1017 83 8000 4.12 360 14:27 17.03.2021
1364 Clouds 21 1017 88 8000 3.09 30 13:55 17.03.2021
1365 Clouds 21 1017 88 8000 3.09 30 13:31 17.03.2021
1366 Clouds 21 1017 88 10000 2.06 10 12:58 17.03.2021
1367 Clouds 21 1017 88 10000 2.06 10 12:34 17.03.2021
1368 Clouds 21 1017 88 10000 2.06 30 11:51 17.03.2021
1369 Clouds 21 1017 88 10000 2.06 30 11:23 17.03.2021
1370 Clouds 20 1016 88 10000 2.06 10 10:55 17.03.2021
1371 Clouds 20 1016 88 10000 2.06 10 10:31 17.03.2021
1372 Clouds 21 1016 88 10000 2.06 10 09:49 17.03.2021
1373 Clouds 21 1016 88 10000 2.06 10 09:28 17.03.2021
1374 Clouds 21 1017 83 10000 2.06 20 08:59 17.03.2021
1375 Clouds 21 1017 83 10000 2.06 20 08:39 17.03.2021
1376 Clouds 21 1017 83 10000 2.06 10 07:55 17.03.2021
1377 Clouds 21 1017 83 10000 2.06 10 07:35 17.03.2021
1378 Clouds 22 1018 88 10000 2.06 10 06:47 17.03.2021
1379 Clouds 22 1018 88 10000 2.06 20 04:26 17.03.2021
1380 Clouds 23 1018 83 10000 2.57 20 03:25 17.03.2021
1381 Clouds 25 1016 83 10000 5.14 40 00:40 17.03.2021
1382 Clouds 29 1015 54 10000 8.23 40 23:38 16.03.2021
1383 Clouds 28 1015 54 10000 8.23 40 23:18 16.03.2021
1384 Clouds 29 1015 54 10000 8.23 40 22:40 16.03.2021
1385 Clouds 29 1015 54 10000 8.23 40 22:21 16.03.2021
1386 Clouds 29 1015 58 10000 8.75 40 21:39 16.03.2021
1387 Clouds 29 1015 58 10000 8.75 40 21:21 16.03.2021
1388 Clouds 30 1016 58 10000 6.17 60 20:46 16.03.2021
1389 Clouds 30 1016 58 10000 6.17 60 20:18 16.03.2021
1390 Clouds 30 1017 54 10000 5.14 30 19:43 16.03.2021
1391 Clouds 30 1017 54 10000 5.14 30 19:24 16.03.2021
1392 Clouds 29 1018 58 10000 5.14 30 18:47 16.03.2021
1393 Clouds 29 1018 58 10000 5.14 30 18:29 16.03.2021
1394 Clouds 28 1019 61 10000 6.17 30 17:51 16.03.2021
1395 Clouds 28 1019 61 10000 6.17 30 17:32 16.03.2021
1396 Clouds 27 1019 65 10000 7.72 360 16:53 16.03.2021
1397 Clouds 27 1019 65 10000 7.72 360 16:53 16.03.2021
1398 Clouds 27 1019 65 10000 7.72 360 16:31 16.03.2021
1399 Clouds 26 1019 69 10000 5.66 30 15:48 16.03.2021
1400 Clouds 26 1019 69 10000 5.66 30 15:22 16.03.2021
1401 Clouds 26 1019 69 10000 5.66 30 15:22 16.03.2021
1402 Clouds 26 1019 69 10000 5.66 30 15:22 16.03.2021
1403 Clouds 25 1019 73 10000 5.14 360 14:59 16.03.2021
1404 Clouds 25 1019 73 10000 5.14 360 14:40 16.03.2021
1405 Clouds 25 1019 73 10000 5.14 360 14:21 16.03.2021
1406 Clouds 22 1019 88 10000 4.67 21 13:55 16.03.2021
1407 Clouds 21 1019 88 10000 3.77 358 13:28 16.03.2021
1408 Clouds 20 1017 100 10000 3.77 358 12:55 16.03.2021
1409 Clouds 20 1017 100 10000 3.7 357 12:36 16.03.2021
1410 Clouds 20 1017 94 10000 2.06 10 11:55 16.03.2021
1411 Clouds 20 1017 94 10000 2.06 10 11:29 16.03.2021
1412 Clouds 21 1016 94 10000 3.09 10 10:46 16.03.2021
1413 Clouds 21 1016 94 10000 3.09 10 10:20 16.03.2021
1414 Clouds 21 1016 94 10000 2.06 10 09:40 16.03.2021
1415 Clouds 21 1016 94 10000 2.06 10 09:40 16.03.2021
1416 Clouds 21 1016 94 10000 2.06 10 09:19 16.03.2021
1417 Clouds 21 1017 88 10000 2.06 20 08:52 16.03.2021
1418 Clouds 21 1017 88 10000 2.06 20 08:33 16.03.2021
1419 Clouds 22 1017 78 10000 5.14 40 07:50 16.03.2021
1420 Clouds 22 1017 78 10000 5.14 40 07:24 16.03.2021
1421 Clouds 22 1018 83 10000 2.06 20 06:37 16.03.2021
1422 Clouds 22 1018 88 10000 2.06 40 05:36 16.03.2021
1423 Clouds 23 1017 83 10000 3.09 40 02:46 16.03.2021
1424 Clouds 23 1017 83 10000 3.09 40 02:25 16.03.2021
1425 Clouds 26 1017 73 10000 4.12 30 00:25 16.03.2021
1426 Clouds 29 1015 62 10000 5.14 360 23:37 15.03.2021
1427 Clouds 29 1015 62 10000 5.14 360 23:18 15.03.2021
1428 Clouds 30 1015 62 10000 5.14 360 22:42 15.03.2021
1429 Clouds 30 1015 62 10000 5.14 360 22:23 15.03.2021
1430 Clouds 30 1015 62 10000 7.2 360 21:47 15.03.2021
1431 Clouds 30 1015 62 10000 7.2 360 21:27 15.03.2021
1432 Clouds 31 1016 58 10000 8.23 360 20:47 15.03.2021
1433 Clouds 31 1016 58 10000 8.23 360 20:28 15.03.2021
1434 Clouds 31 1017 58 10000 5.14 360 19:57 15.03.2021
1435 Clouds 31 1017 58 10000 5.14 360 19:39 15.03.2021
1436 Clouds 31 1017 58 10000 5.14 360 19:21 15.03.2021
1437 Clouds 29 1018 62 10000 3.09 60 18:41 15.03.2021
1438 Clouds 29 1018 62 10000 3.09 60 18:22 15.03.2021
1439 Clouds 29 1019 65 10000 5.14 60 17:49 15.03.2021
1440 Clouds 29 1019 65 10000 5.14 60 17:22 15.03.2021
1441 Clouds 27 1019 69 10000 5.14 90 16:44 15.03.2021
1442 Clouds 26 1019 74 10000 5.14 360 15:56 15.03.2021
1443 Clouds 26 1019 74 10000 5.14 360 15:28 15.03.2021
1444 Clouds 25 1019 83 10000 4.54 11 14:55 15.03.2021
1445 Clouds 24 1019 83 10000 4.54 11 14:36 15.03.2021
1446 Clouds 24 1019 83 10000 4.54 11 14:36 15.03.2021
1447 Clouds 24 1019 83 10000 4.26 357 14:18 15.03.2021
1448 Clouds 21 1018 94 10000 4.12 360 13:41 15.03.2021
1449 Clouds 21 1018 94 10000 4.12 360 13:23 15.03.2021
1450 Clouds 20 1017 100 10000 3.09 40 12:45 15.03.2021
1451 Clouds 20 1016 100 10000 2.06 350 12:18 15.03.2021
1452 Clouds 19 1016 100 10000 2.06 350 11:41 15.03.2021
1453 Clouds 19 1016 100 10000 2.06 350 11:21 15.03.2021
1454 Clouds 20 1016 100 10000 2.06 350 10:43 15.03.2021
1455 Clouds 20 1016 100 10000 2.06 350 10:24 15.03.2021
1456 Clouds 20 1016 94 10000 4 20 09:44 15.03.2021
1457 Clouds 20 1016 94 10000 4 20 09:22 15.03.2021
1458 Clouds 20 1016 94 10000 2.06 20 08:45 15.03.2021
1459 Clouds 20 1016 94 10000 2.06 20 08:25 15.03.2021
1460 Clouds 20 1017 94 10000 2.06 20 07:40 15.03.2021
1461 Clouds 20 1017 94 10000 2.06 20 07:22 15.03.2021
1462 Clouds 22 1017 88 10000 2.06 30 05:37 15.03.2021
1463 Clouds 23 1018 83 10000 2.06 30 03:20 15.03.2021
1464 Clouds 26 1016 73 10000 4.12 50 00:42 15.03.2021
1465 Clouds 27 1015 69 10000 5.14 350 23:24 14.03.2021
1466 Clouds 28 1015 69 10000 5.14 350 22:49 14.03.2021
1467 Clouds 29 1015 69 10000 5.14 350 22:28 14.03.2021
1468 Clouds 30 1015 62 10000 5.14 350 21:53 14.03.2021
1469 Clouds 30 1015 62 10000 5.14 350 21:24 14.03.2021
1470 Clouds 30 1016 62 10000 4.12 350 20:52 14.03.2021
1471 Clouds 30 1016 62 10000 4.12 350 20:31 14.03.2021
1472 Clouds 30 1016 58 10000 4.12 10 19:59 14.03.2021
1473 Clouds 30 1016 58 10000 4.12 10 19:59 14.03.2021
1474 Clouds 30 1016 58 10000 4.12 10 19:41 14.03.2021
1475 Clouds 30 1017 58 10000 5.14 360 19:18 14.03.2021
1476 Clouds 30 1017 58 10000 5.14 360 19:18 14.03.2021
1477 Clouds 30 1017 58 10000 5.14 360 18:36 14.03.2021
1478 Clouds 29 1018 61 10000 5.14 360 17:54 14.03.2021
1479 Clouds 29 1018 61 10000 5.14 360 17:36 14.03.2021
1480 Clouds 29 1018 61 10000 5.14 360 17:18 14.03.2021
1481 Clouds 28 1019 65 10000 5.14 360 16:40 14.03.2021
1482 Clouds 28 1019 65 10000 5.14 360 16:19 14.03.2021
1483 Clouds 26 1019 69 10000 5.14 30 15:42 14.03.2021
1484 Clouds 25 1018 78 10000 3.09 10 14:51 14.03.2021
1485 Clouds 24 1018 78 10000 3.09 10 14:30 14.03.2021
1486 Clouds 23 1018 100 10000 4.45 358 13:53 14.03.2021
1487 Clouds 22 1018 100 10000 4.45 358 13:34 14.03.2021
1488 Clouds 21 1017 100 10000 4.18 345 12:56 14.03.2021
1489 Clouds 21 1017 100 10000 4.18 345 12:56 14.03.2021
1490 Clouds 21 1017 100 10000 4.38 345 12:37 14.03.2021
1491 Clouds 21 1017 100 10000 3.81 345 12:18 14.03.2021
1492 Clouds 21 1016 94 10000 3.81 345 11:38 14.03.2021
1493 Clouds 21 1016 94 10000 3.95 349 11:18 14.03.2021
1494 Clouds 21 1016 100 10000 3.95 349 10:38 14.03.2021
1495 Clouds 21 1016 100 10000 3.97 348 10:19 14.03.2021
1496 Clouds 21 1016 94 10000 3.97 348 09:55 14.03.2021
1497 Clouds 22 1016 94 10000 3.97 348 09:36 14.03.2021
1498 Clouds 22 1016 94 10000 3.97 348 09:36 14.03.2021
1499 Clouds 22 1016 94 10000 4.08 349 09:18 14.03.2021
1500 Clouds 22 1016 94 10000 4.08 349 08:36 14.03.2021
1501 Clouds 22 1016 94 10000 3.9 349 07:52 14.03.2021
1502 Clouds 22 1017 100 10000 2.57 40 07:22 14.03.2021
1503 Clouds 22 1018 94 10000 2.06 20 05:33 14.03.2021
1504 Clouds 23 1015 100 8000 3.6 80 00:59 14.03.2021
1505 Clouds 23 1015 100 8000 3.6 80 00:20 14.03.2021
1506 Clouds 23 1015 100 8000 3.6 80 00:20 14.03.2021
1507 Clouds 23 1016 94 8000 4.63 240 23:57 13.03.2021
1508 Clouds 25 1014 74 10000 5.14 360 23:37 13.03.2021
1509 Clouds 26 1014 74 10000 5.14 360 22:58 13.03.2021
1510 Clouds 26 1014 74 10000 5.14 360 22:40 13.03.2021
1511 Clouds 28 1014 66 10000 5.14 360 21:50 13.03.2021
1512 Clouds 30 1014 66 10000 5.14 360 21:27 13.03.2021
1513 Clouds 31 1015 62 10000 5.14 360 20:55 13.03.2021
1514 Clouds 31 1015 62 10000 5.14 360 20:32 13.03.2021
1515 Clouds 30 1016 62 10000 4.12 360 19:56 13.03.2021
1516 Clouds 30 1016 62 10000 4.12 360 19:33 13.03.2021
1517 Clouds 30 1016 66 10000 3.6 20 18:58 13.03.2021
1518 Clouds 30 1016 66 10000 3.6 20 18:40 13.03.2021
1519 Clouds 30 1016 66 10000 3.6 20 18:18 13.03.2021
1520 Clouds 29 1017 70 10000 5.14 10 17:44 13.03.2021
1521 Clouds 29 1018 69 10000 5.14 360 17:25 13.03.2021
1522 Clouds 26 1018 69 10000 5.14 360 16:45 13.03.2021
1523 Clouds 28 1018 69 10000 5.14 360 16:27 13.03.2021
1524 Clouds 27 1018 78 10000 5.66 360 15:47 13.03.2021
1525 Clouds 25 1018 88 10000 2.57 360 14:51 13.03.2021
1526 Clouds 25 1018 88 10000 2.57 360 14:32 13.03.2021
1527 Clouds 22 1017 88 10000 3.94 2 13:51 13.03.2021
1528 Clouds 22 1017 88 10000 3.55 351 13:25 13.03.2021
1529 Clouds 20 1016 100 10000 2.06 10 12:45 13.03.2021
1530 Clouds 20 1016 100 10000 2.06 10 12:27 13.03.2021
1531 Clouds 20 1015 100 10000 2.06 10 11:50 13.03.2021
1532 Clouds 20 1015 100 10000 2.06 10 11:29 13.03.2021
1533 Clouds 21 1015 94 10000 2.06 10 10:50 13.03.2021
1534 Clouds 21 1015 94 10000 2.06 10 10:29 13.03.2021
1535 Clouds 21 1016 94 10000 2.06 10 09:47 13.03.2021
1536 Clouds 21 1016 94 10000 2.06 10 08:59 13.03.2021
1537 Clouds 21 1016 94 10000 2.06 10 08:41 13.03.2021
1538 Clouds 21 1016 94 10000 2.06 10 08:19 13.03.2021
1539 Clouds 21 1016 94 10000 3.09 10 07:46 13.03.2021
1540 Clouds 21 1017 94 10000 3.09 10 06:18 13.03.2021
1541 Clouds 22 1017 88 10000 2.06 60 02:54 13.03.2021
1542 Clouds 25 1015 83 10000 3.09 30 00:50 13.03.2021
1543 Clear 26 1015 73 10000 0.89 60 23:54 12.03.2021
1544 Clouds 26 1015 83 10000 6.17 360 23:32 12.03.2021
1545 Clouds 26 1015 83 10000 6.17 360 22:42 12.03.2021
1546 Clouds 26 1015 83 10000 6.17 360 22:23 12.03.2021
1547 Clouds 27 1015 78 10000 3.09 360 21:44 12.03.2021
1548 Clouds 27 1015 78 10000 3.09 360 21:24 12.03.2021
1549 Clouds 27 1016 88 8000 3.09 360 20:55 12.03.2021
1550 Clouds 27 1016 88 8000 3.09 360 20:32 12.03.2021
1551 Clouds 26 1016 94 6000 4.39 11 19:56 12.03.2021
1552 Clouds 26 1016 94 6000 4.39 11 19:38 12.03.2021
1553 Clouds 25 1017 83 7000 6.17 360 18:59 12.03.2021
1554 Clouds 26 1017 83 7000 6.17 360 18:35 12.03.2021
1555 Clouds 27 1018 65 10000 4.12 360 17:49 12.03.2021
1556 Clouds 27 1018 65 10000 4.12 360 17:30 12.03.2021
1557 Clouds 27 1018 74 10000 5.14 360 16:55 12.03.2021
1558 Clouds 27 1018 74 10000 5.14 360 16:34 12.03.2021
1559 Clouds 27 1018 78 10000 5.14 360 15:51 12.03.2021
1560 Clouds 26 1018 78 10000 5.14 360 15:25 12.03.2021
1561 Clouds 25 1017 83 10000 4.12 360 14:47 12.03.2021
1562 Clouds 24 1017 83 10000 4.12 360 14:20 12.03.2021
1563 Clouds 23 1017 94 10000 4.12 270 13:42 12.03.2021
1564 Clouds 22 1017 94 10000 4.12 270 13:21 12.03.2021
1565 Clouds 22 1017 94 10000 4.12 10 12:52 12.03.2021
1566 Clouds 21 1017 94 10000 4.12 10 12:30 12.03.2021
1567 Clear 22 1016 85 10000 1.79 336 11:58 12.03.2021
1568 Clear 22 1016 85 10000 1.79 339 11:40 12.03.2021
1569 Clouds 20 1016 100 10000 2.06 10 11:18 12.03.2021
1570 Clouds 20 1016 100 10000 2.06 10 10:44 12.03.2021
1571 Clouds 20 1016 100 10000 2.06 10 10:22 12.03.2021
1572 Clouds 21 1016 94 10000 3.09 10 09:29 12.03.2021
1573 Clouds 21 1016 94 10000 2.06 10 08:57 12.03.2021
1574 Clouds 21 1016 94 10000 2.06 10 08:39 12.03.2021
1575 Clouds 21 1016 100 10000 2.06 20 07:41 12.03.2021
1576 Clouds 21 1016 100 10000 2.06 20 07:19 12.03.2021
1577 Clouds 21 1018 94 10000 2.06 10 06:41 12.03.2021
1578 Clouds 21 1018 100 10000 2.06 10 05:43 12.03.2021
1579 Clouds 22 1016 94 10000 4.12 80 00:52 12.03.2021
1580 Clouds 23 1016 88 8000 4.12 80 23:56 11.03.2021
1581 Clouds 23 1015 88 8000 2.06 30 22:58 11.03.2021
1582 Clouds 23 1015 88 8000 2.06 30 22:38 11.03.2021
1583 Clouds 24 1015 88 8000 2.06 30 22:18 11.03.2021
1584 Clouds 25 1015 88 8000 2.27 49 21:42 11.03.2021
1585 Clouds 25 1015 88 8000 2.54 54 21:21 11.03.2021
1586 Clouds 26 1016 94 8000 2.54 54 20:49 11.03.2021
1587 Clouds 26 1016 94 8000 2.81 74 20:22 11.03.2021
1588 Clouds 26 1016 83 7000 2.57 120 19:48 11.03.2021
1589 Clouds 26 1016 83 7000 2.57 120 19:30 11.03.2021
1590 Clouds 28 1016 74 10000 3.14 81 18:51 11.03.2021
1591 Clouds 28 1016 74 10000 3.52 45 18:33 11.03.2021
1592 Clouds 28 1018 74 10000 3.52 45 17:50 11.03.2021
1593 Clouds 29 1018 74 10000 3.52 45 17:30 11.03.2021
1594 Clouds 28 1019 70 10000 2.57 90 16:31 11.03.2021
1595 Clouds 27 1018 73 10000 3.6 360 15:53 11.03.2021
1596 Clouds 26 1018 73 10000 3.6 360 15:35 11.03.2021
1597 Clouds 25 1018 88 10000 2.57 320 14:58 11.03.2021
1598 Clouds 24 1018 88 10000 2.57 320 14:38 11.03.2021
1599 Clouds 23 1018 88 10000 2.57 320 14:18 11.03.2021
1600 Clouds 22 1018 94 10000 3.72 351 13:43 11.03.2021
1601 Clouds 22 1018 94 10000 3.4 347 13:21 11.03.2021
1602 Clear 23 1017 81 10000 1.79 350 12:49 11.03.2021
1603 Clouds 22 1016 94 10000 2.06 40 12:27 11.03.2021
1604 Clouds 22 1016 94 10000 2.06 40 11:45 11.03.2021
1605 Clouds 22 1016 94 10000 2.06 40 11:27 11.03.2021
1606 Clouds 22 1016 94 10000 2.06 10 10:48 11.03.2021
1607 Clouds 22 1016 94 10000 2.06 10 10:22 11.03.2021
1608 Clouds 22 1016 100 10000 3.09 20 09:45 11.03.2021
1609 Clouds 22 1016 100 10000 3.09 20 09:25 11.03.2021
1610 Clouds 22 1016 94 10000 2.06 10 08:48 11.03.2021
1611 Clouds 22 1016 94 10000 2.06 10 08:23 11.03.2021
1612 Clouds 22 1017 94 10000 2.06 10 07:44 11.03.2021
1613 Clouds 22 1018 100 10000 2.06 10 06:51 11.03.2021
1614 Clouds 22 1018 100 10000 2.06 10 06:31 11.03.2021
1615 Clouds 23 1018 100 10000 2.06 10 04:48 11.03.2021
1616 Clouds 23 1017 94 10000 2.06 10 01:39 11.03.2021
1617 Clouds 23 1016 94 8000 2.57 360 23:53 10.03.2021
1618 Clouds 23 1016 94 8000 2.57 360 23:51 10.03.2021
1619 Clouds 22 1016 94 7000 3.82 13 23:21 10.03.2021
1620 Clouds 23 1016 94 7000 3.82 13 22:39 10.03.2021
1621 Clouds 25 1016 94 8000 3.09 350 21:47 10.03.2021
1622 Clouds 26 1016 94 8000 3.09 350 21:26 10.03.2021
1623 Clouds 27 1016 94 6000 4.12 120 20:58 10.03.2021
1624 Clouds 27 1016 94 6000 4.12 120 20:37 10.03.2021
1625 Clouds 27 1016 94 6000 4.12 120 20:19 10.03.2021
1626 Clouds 28 1016 66 7000 3.11 28 19:39 10.03.2021
1627 Clouds 28 1016 66 7000 2.66 45 19:20 10.03.2021
1628 Clouds 30 1017 66 10000 2.66 45 18:37 10.03.2021
1629 Clouds 30 1017 66 10000 2.74 47 18:18 10.03.2021
1630 Clouds 29 1018 66 10000 3.09 120 17:41 10.03.2021
1631 Clouds 29 1018 66 10000 3.09 120 17:20 10.03.2021
1632 Clouds 28 1019 74 10000 3.09 30 16:52 10.03.2021
1633 Clouds 28 1019 74 10000 3.09 30 16:29 10.03.2021
1634 Clouds 27 1019 74 10000 5.14 360 15:54 10.03.2021
1635 Clouds 27 1019 74 10000 5.14 360 15:36 10.03.2021
1636 Clouds 27 1019 74 10000 5.14 360 15:18 10.03.2021
1637 Clouds 25 1018 78 10000 5.14 360 14:23 10.03.2021
1638 Clouds 23 1018 94 10000 4.41 358 13:58 10.03.2021
1639 Clouds 22 1018 94 10000 4.41 358 13:31 10.03.2021
1640 Clouds 21 1017 94 10000 3.09 30 12:48 10.03.2021
1641 Clouds 21 1017 94 10000 3.09 30 12:24 10.03.2021
1642 Clouds 21 1017 94 10000 2.06 20 11:50 10.03.2021
1643 Clouds 21 1017 94 10000 2.06 20 11:25 10.03.2021
1644 Clouds 21 1016 94 10000 2.06 30 10:51 10.03.2021
1645 Clouds 21 1016 94 10000 2.06 30 10:32 10.03.2021
1646 Clouds 21 1016 94 10000 2.06 10 09:55 10.03.2021
1647 Clouds 21 1016 94 10000 2.06 10 09:37 10.03.2021
1648 Clouds 21 1016 94 10000 2.06 10 09:18 10.03.2021
1649 Clouds 21 1017 94 10000 3.09 360 08:43 10.03.2021
1650 Clouds 21 1017 94 10000 3.09 360 08:25 10.03.2021
1651 Clouds 22 1017 94 10000 2.06 20 07:42 10.03.2021
1652 Clouds 22 1017 94 10000 2.06 20 07:24 10.03.2021
1653 Clouds 22 1018 94 10000 2.06 20 06:51 10.03.2021
1654 Clouds 22 1018 94 10000 2.06 360 02:43 10.03.2021
1655 Clouds 22 1017 88 10000 3.3 16 00:27 10.03.2021
1656 Clouds 23 1016 94 10000 3.75 23 23:27 09.03.2021
1657 Clouds 23 1016 94 10000 3.75 23 22:50 09.03.2021
1658 Clouds 23 1016 94 10000 3.75 23 22:31 09.03.2021
1659 Clouds 24 1017 94 10000 2.57 330 21:58 09.03.2021
1660 Clouds 24 1017 94 10000 2.57 330 21:37 09.03.2021
1661 Clouds 25 1017 94 10000 2.57 330 21:18 09.03.2021
1662 Clouds 24 1017 94 10000 4.12 10 20:43 09.03.2021
1663 Clouds 24 1017 94 10000 4.12 10 20:22 09.03.2021
1664 Clouds 24 1018 94 5223 1.54 90 19:56 09.03.2021
1665 Clouds 24 1018 94 5848 1.54 90 19:29 09.03.2021
1666 Clouds 27 1019 78 10000 6.17 360 18:54 09.03.2021
1667 Clouds 26 1019 78 10000 6.17 360 18:29 09.03.2021
1668 Clouds 27 1020 74 10000 4.12 10 17:58 09.03.2021
1669 Clouds 28 1020 74 10000 4.12 10 17:37 09.03.2021
1670 Clouds 28 1020 78 10000 4.12 10 16:57 09.03.2021
1671 Clouds 28 1020 78 10000 4.12 10 16:39 09.03.2021
1672 Clouds 28 1020 78 10000 4.12 10 16:19 09.03.2021
1673 Clouds 27 1020 83 10000 4.12 10 15:44 09.03.2021
1674 Clouds 26 1020 83 10000 4.12 10 15:23 09.03.2021
1675 Clouds 26 1019 78 10000 5.14 360 14:40 09.03.2021
1676 Clouds 25 1019 78 10000 5.14 360 14:22 09.03.2021
1677 Clouds 24 1019 94 10000 3.94 7 13:39 09.03.2021
1678 Clouds 24 1019 94 10000 3.56 356 13:20 09.03.2021
1679 Clouds 23 1018 94 10000 3.45 354 12:42 09.03.2021
1680 Clouds 23 1018 94 10000 3.01 351 12:22 09.03.2021
1681 Clouds 15 1017 100 10000 1.54 0 11:42 09.03.2021
1682 Clouds 15 1017 100 10000 1.54 0 11:21 09.03.2021
1683 Clouds 15 1017 100 10000 1.54 0 11:21 09.03.2021
1684 Clouds 23 1017 94 10000 2.9 346 10:56 09.03.2021
1685 Clouds 23 1017 94 10000 2.9 346 10:38 09.03.2021
1686 Clouds 23 1017 94 10000 3.1 351 10:19 09.03.2021
1687 Clouds 23 1017 88 10000 1.54 0 09:43 09.03.2021
1688 Clouds 23 1017 88 10000 1.54 0 09:24 09.03.2021
1689 Clouds 23 1017 88 10000 1.54 0 08:46 09.03.2021
1690 Clouds 23 1017 88 10000 1.54 0 08:23 09.03.2021
1691 Clouds 23 1018 88 10000 4.63 10 07:40 09.03.2021
1692 Clouds 23 1019 88 10000 3.6 30 07:21 09.03.2021
1693 Clouds 24 1019 88 10000 3.6 30 05:55 09.03.2021
1694 Clouds 24 1019 88 10000 3.6 30 05:37 09.03.2021
1695 Clouds 27 1017 74 8000 2.57 80 00:30 09.03.2021
1696 Clouds 26 1016 74 8000 5.66 140 23:44 08.03.2021
1697 Clouds 27 1015 66 10000 3.09 360 23:25 08.03.2021
1698 Clouds 27 1015 66 10000 3.09 360 22:48 08.03.2021
1699 Clouds 27 1015 66 10000 3.09 360 22:29 08.03.2021
1700 Clouds 27 1017 66 10000 5.14 360 21:56 08.03.2021
1701 Clouds 29 1017 66 10000 5.14 360 21:35 08.03.2021
1702 Clouds 30 1016 62 10000 6.69 190 20:48 08.03.2021
1703 Clouds 30 1017 62 10000 5.14 30 20:27 08.03.2021
1704 Clouds 32 1017 62 10000 5.14 30 19:59 08.03.2021
1705 Clouds 32 1017 62 10000 5.14 30 19:36 08.03.2021
1706 Clouds 31 1018 62 10000 3.6 30 18:42 08.03.2021
1707 Clouds 31 1018 62 10000 3.6 30 18:23 08.03.2021
1708 Clouds 31 1019 62 10000 2.55 42 17:51 08.03.2021
1709 Clouds 31 1019 62 10000 2.55 42 17:51 08.03.2021
1710 Clouds 31 1019 62 10000 2.55 42 17:32 08.03.2021
1711 Clouds 30 1020 66 10000 5.14 360 16:55 08.03.2021
1712 Clouds 29 1020 66 10000 5.14 360 16:29 08.03.2021
1713 Clouds 27 1020 78 10000 3.09 30 15:52 08.03.2021
1714 Clouds 27 1020 78 10000 3.09 30 15:29 08.03.2021
1715 Clouds 25 1019 88 10000 2.74 27 14:49 08.03.2021
1716 Clouds 24 1019 88 10000 2.11 16 14:20 08.03.2021
1717 Clouds 23 1018 94 10000 2.11 16 13:43 08.03.2021
1718 Clouds 23 1018 94 10000 1.87 358 13:20 08.03.2021
1719 Clouds 23 1017 94 10000 2.57 80 12:46 08.03.2021
1720 Clouds 22 1017 94 10000 2.57 80 12:27 08.03.2021
1721 Clouds 22 1016 100 10000 2.06 60 11:40 08.03.2021
1722 Clouds 22 1016 100 10000 2.06 60 11:19 08.03.2021
1723 Clouds 23 1016 100 10000 2.06 40 10:43 08.03.2021
1724 Clouds 23 1016 100 10000 2.06 40 10:25 08.03.2021
1725 Clouds 22 1016 94 10000 2.06 40 09:41 08.03.2021
1726 Clouds 23 1016 94 10000 2.06 40 09:23 08.03.2021
1727 Clouds 23 1016 94 10000 2.06 40 09:23 08.03.2021
1728 Clouds 23 1017 94 10000 2.06 60 08:29 08.03.2021
1729 Clouds 24 1017 94 10000 2.06 60 07:24 08.03.2021
1730 Clouds 24 1017 100 10000 3.09 40 06:45 08.03.2021
1731 Clear 26 1020 96 10000 1.79 307 04:28 08.03.2021
1732 Clear 26 1018 94 10000 0.54 193 00:45 08.03.2021
1733 Clear 26 1018 93 10000 1.5 167 00:20 08.03.2021
1734 Clouds 27 1015 70 10000 5.14 190 23:39 07.03.2021
1735 Clouds 27 1015 70 10000 5.14 190 23:20 07.03.2021
1736 Clouds 28 1015 70 10000 5.14 190 22:44 07.03.2021
1737 Clouds 28 1015 70 10000 5.14 190 22:26 07.03.2021
1738 Clouds 29 1015 66 10000 5.14 180 21:45 07.03.2021
1739 Clouds 29 1015 66 10000 5.14 180 21:26 07.03.2021
1740 Clouds 29 1015 66 10000 5.14 180 20:49 07.03.2021
1741 Clouds 29 1015 66 10000 5.14 180 20:31 07.03.2021
1742 Clouds 29 1016 62 10000 8.23 180 19:57 07.03.2021
1743 Clouds 29 1016 62 10000 8.23 180 19:38 07.03.2021
1744 Clouds 29 1016 62 10000 8.23 180 19:20 07.03.2021
1745 Clouds 29 1016 58 10000 5.14 170 18:44 07.03.2021
1746 Clouds 29 1016 58 10000 5.14 170 18:20 07.03.2021
1747 Clouds 29 1017 62 10000 4.44 153 17:42 07.03.2021
1748 Clouds 29 1017 62 10000 4.38 150 17:21 07.03.2021
1749 Clouds 28 1018 65 10000 3.09 150 16:58 07.03.2021
1750 Clouds 28 1018 65 10000 3.09 150 16:38 07.03.2021
1751 Clouds 28 1018 65 10000 3.09 150 16:19 07.03.2021
1752 Clouds 28 1018 74 10000 4.18 141 15:43 07.03.2021
1753 Clouds 28 1018 74 10000 3.08 136 15:22 07.03.2021
1754 Clouds 26 1017 83 10000 3.08 136 14:30 07.03.2021
1755 Clouds 24 1017 94 10000 0.84 153 13:59 07.03.2021
1756 Clouds 24 1017 94 10000 0.84 153 13:40 07.03.2021
1757 Clouds 24 1017 94 10000 0.26 283 13:21 07.03.2021
1758 Clouds 23 1016 94 10000 0.26 283 12:45 07.03.2021
1759 Clouds 23 1016 94 10000 0.34 288 12:27 07.03.2021
1760 Clouds 23 1015 94 10000 0.34 288 11:41 07.03.2021
1761 Clouds 23 1015 94 10000 0.34 334 11:21 07.03.2021
1762 Clouds 23 1015 94 10000 2.06 60 10:39 07.03.2021
1763 Clouds 25 1017 100 10000 0.27 16 10:21 07.03.2021
1764 Clouds 25 1017 100 10000 0.27 16 09:41 07.03.2021
1765 Clouds 25 1017 100 10000 0.06 104 09:21 07.03.2021
1766 Clouds 25 1017 100 10000 0.06 104 08:45 07.03.2021
1767 Clouds 25 1017 100 10000 0.1 90 08:23 07.03.2021
1768 Clouds 25 1017 100 10000 0.23 275 07:25 07.03.2021
1769 Clouds 26 1018 100 10000 1.49 149 02:41 07.03.2021
1770 Clouds 26 1017 100 10000 1.4 169 00:45 07.03.2021
1771 Clouds 26 1016 100 10000 1.95 159 23:42 06.03.2021
1772 Clouds 27 1013 78 10000 3.19 160 23:23 06.03.2021
1773 Clouds 27 1013 78 10000 3.19 160 22:47 06.03.2021
1774 Clouds 27 1013 78 10000 4.17 160 22:27 06.03.2021
1775 Clouds 28 1013 70 10000 6.17 180 21:57 06.03.2021
1776 Clouds 28 1013 70 10000 6.17 180 21:21 06.03.2021
1777 Clouds 28 1014 70 10000 5.14 190 20:49 06.03.2021
1778 Clouds 27 1014 70 10000 5.14 190 20:26 06.03.2021
1779 Clouds 28 1014 66 10000 4.12 190 19:49 06.03.2021
1780 Clouds 29 1014 66 10000 4.12 190 19:20 06.03.2021
1781 Clouds 28 1015 78 10000 3.09 150 18:45 06.03.2021
1782 Clouds 28 1015 78 10000 3.09 150 18:24 06.03.2021
1783 Clouds 27 1016 78 10000 5.14 150 17:56 06.03.2021
1784 Clouds 27 1016 78 10000 5.14 150 17:56 06.03.2021
1785 Clouds 28 1016 78 10000 5.14 150 17:38 06.03.2021
1786 Clouds 28 1016 78 10000 5.14 150 17:18 06.03.2021
1787 Clouds 27 1016 74 10000 2.06 210 16:41 06.03.2021
1788 Clouds 27 1016 74 10000 2.06 210 16:41 06.03.2021
1789 Clouds 28 1016 74 10000 2.06 210 16:21 06.03.2021
1790 Clouds 27 1016 88 10000 1.79 98 15:47 06.03.2021
1791 Clouds 27 1016 88 10000 1.65 45 15:29 06.03.2021
1792 Clouds 26 1015 94 10000 1.65 45 14:49 06.03.2021
1793 Clouds 25 1015 94 10000 1.79 7 14:25 06.03.2021
1794 Clouds 23 1015 94 10000 1.79 7 13:39 06.03.2021
1795 Clouds 22 1015 94 10000 1.8 348 13:20 06.03.2021
1796 Clouds 22 1014 100 10000 2.06 50 12:44 06.03.2021
1797 Clouds 22 1014 100 10000 2.06 50 12:19 06.03.2021
1798 Clouds 22 1013 100 10000 2.06 50 11:49 06.03.2021
1799 Clouds 22 1013 100 10000 2.06 50 11:21 06.03.2021
1800 Clouds 22 1013 94 10000 2.06 80 10:48 06.03.2021
1801 Clouds 22 1013 94 10000 2.06 80 10:19 06.03.2021
1802 Clouds 22 1013 94 10000 2.06 30 09:42 06.03.2021
1803 Clouds 22 1013 94 10000 2.06 30 09:19 06.03.2021
1804 Clouds 22 1013 94 10000 2.06 60 08:39 06.03.2021
1805 Clouds 21 1014 94 10000 1.5 323 07:57 06.03.2021
1806 Clouds 23 1014 94 10000 1.61 323 07:24 06.03.2021
1807 Clouds 22 1014 88 10000 2.06 40 06:55 06.03.2021
1808 Clouds 22 1014 88 10000 3.09 60 05:34 06.03.2021
1809 Clouds 25 1013 83 10000 2.06 160 02:25 06.03.2021
1810 Clouds 25 1013 78 10000 2.06 150 00:47 06.03.2021
1811 Clear 26 1015 91 10000 2.44 178 23:52 05.03.2021
1812 Clouds 27 1013 70 10000 4.12 160 23:28 05.03.2021
1813 Clouds 28 1013 70 10000 4.12 160 22:45 05.03.2021
1814 Clouds 28 1013 70 10000 4.12 160 22:22 05.03.2021
1815 Clouds 28 1013 70 10000 5.14 160 21:52 05.03.2021
1816 Clouds 28 1013 70 10000 5.14 160 21:33 05.03.2021
1817 Clouds 29 1013 66 10000 5.14 180 20:54 05.03.2021
1818 Clouds 29 1013 66 10000 5.14 180 20:27 05.03.2021
1819 Clouds 29 1014 66 10000 5.14 180 19:56 05.03.2021
1820 Clouds 29 1014 66 10000 5.14 180 19:26 05.03.2021
1821 Clouds 29 1015 66 10000 4.12 180 18:57 05.03.2021
1822 Clouds 29 1015 66 10000 4.12 180 18:39 05.03.2021
1823 Clouds 29 1015 66 10000 4.12 180 18:19 05.03.2021
1824 Clouds 28 1015 74 10000 5.14 180 17:35 05.03.2021
1825 Clouds 29 1015 74 10000 3.09 180 16:49 05.03.2021
1826 Clouds 29 1015 74 10000 3.09 180 16:25 05.03.2021
1827 Clouds 28 1015 78 10000 2.06 180 15:58 05.03.2021
1828 Clouds 28 1015 78 10000 2.06 180 15:39 05.03.2021
1829 Clouds 27 1015 78 10000 2.06 180 15:20 05.03.2021
1830 Clouds 26 1014 83 10000 3.01 186 14:38 05.03.2021
1831 Clouds 26 1014 83 10000 3.01 186 14:38 05.03.2021
1832 Clouds 26 1014 83 10000 3.01 186 14:38 05.03.2021
1833 Clouds 24 1014 94 10000 2.06 208 13:55 05.03.2021
1834 Clouds 23 1014 94 10000 1.67 236 13:22 05.03.2021
1835 Clouds 24 1014 100 10000 2.57 170 12:55 05.03.2021
1836 Clouds 20 1013 100 10000 2.06 80 11:56 05.03.2021
1837 Clouds 23 1013 100 10000 2.06 80 11:36 05.03.2021
1838 Clouds 23 1013 100 10000 2.06 80 11:18 05.03.2021
1839 Clouds 23 1013 100 10000 2.57 150 10:40 05.03.2021
1840 Clouds 20 1013 100 10000 2.57 150 10:22 05.03.2021
1841 Clouds 20 1012 94 10000 3.6 170 09:47 05.03.2021
1842 Clouds 20 1012 94 10000 3.6 170 09:26 05.03.2021
1843 Clouds 20 1012 94 10000 3.6 170 09:26 05.03.2021
1844 Clouds 20 1013 100 10000 2.57 180 08:41 05.03.2021
1845 Clouds 20 1013 100 10000 2.57 180 08:22 05.03.2021
1846 Clouds 21 1014 94 10000 2.06 160 07:39 05.03.2021
1847 Clouds 21 1014 94 10000 2.06 160 06:49 05.03.2021
1848 Clouds 21 1014 94 10000 2.06 160 06:30 05.03.2021
1849 Clouds 25 1013 83 10000 2.57 190 01:47 05.03.2021
1850 Clouds 26 1013 78 10000 4.12 190 00:34 05.03.2021
1851 Clouds 27 1013 69 10000 5.66 200 23:31 04.03.2021
1852 Clouds 28 1013 70 10000 6.69 200 22:38 04.03.2021
1853 Clouds 29 1013 62 10000 5.14 180 21:56 04.03.2021
1854 Clouds 29 1013 62 10000 5.14 180 21:37 04.03.2021
1855 Clouds 29 1013 62 10000 5.14 180 21:18 04.03.2021
1856 Clouds 29 1014 62 10000 6.17 190 20:41 04.03.2021
1857 Clouds 29 1014 62 10000 6.17 190 20:21 04.03.2021
1858 Clouds 29 1015 66 10000 5.14 180 19:53 04.03.2021
1859 Clouds 29 1015 66 10000 5.14 180 19:27 04.03.2021
1860 Clouds 29 1015 62 10000 6.17 180 18:54 04.03.2021
1861 Clouds 29 1015 62 10000 6.17 180 18:30 04.03.2021
1862 Clouds 29 1017 66 10000 5.14 180 17:57 04.03.2021
1863 Clouds 29 1017 66 10000 5.14 180 17:39 04.03.2021
1864 Clouds 29 1017 66 10000 5.14 180 17:18 04.03.2021
1865 Clouds 28 1018 78 10000 5.14 180 16:42 04.03.2021
1866 Clouds 28 1018 78 10000 5.14 180 16:23 04.03.2021
1867 Clouds 27 1018 78 10000 2.63 167 15:45 04.03.2021
1868 Clouds 27 1018 78 10000 1.75 171 15:25 04.03.2021
1869 Clouds 26 1017 83 10000 1.75 171 14:42 04.03.2021
1870 Clouds 25 1017 83 10000 0.6 258 14:18 04.03.2021
1871 Clouds 24 1016 88 10000 0.6 258 13:40 04.03.2021
1872 Clouds 23 1016 88 10000 0.85 296 13:19 04.03.2021
1873 Clouds 21 1016 100 10000 2.57 360 12:42 04.03.2021
1874 Clouds 21 1015 94 10000 2.57 350 11:52 04.03.2021
1875 Clouds 22 1015 94 10000 2.57 360 11:32 04.03.2021
1876 Clouds 22 1015 94 10000 2.57 360 10:58 04.03.2021
1877 Clear 23 1015 80 10000 0.45 331 10:36 04.03.2021
1878 Clear 22 1015 80 10000 0.89 337 09:53 04.03.2021
1879 Clear 22 1015 78 10000 1.34 346 09:28 04.03.2021
1880 Clear 22 1015 78 10000 0.89 358 08:51 04.03.2021
1881 Clouds 22 1016 94 10000 1.68 325 08:25 04.03.2021
1882 Clear 23 1015 84 10000 1.68 325 07:37 04.03.2021
1883 Clear 23 1016 84 10000 1.71 311 06:41 04.03.2021
1884 Clouds 22 1016 94 10000 2.06 150 06:21 04.03.2021
1885 Clouds 21 1016 94 10000 3.09 140 02:38 04.03.2021
1886 Clouds 27 1015 74 10000 3.09 180 23:57 03.03.2021
1887 Clouds 29 1015 54 10000 5.14 180 22:39 03.03.2021
1888 Clouds 29 1015 54 10000 5.14 180 22:20 03.03.2021
1889 Clouds 29 1015 54 10000 5.14 180 21:41 03.03.2021
1890 Clouds 29 1015 54 10000 5.14 180 21:23 03.03.2021
1891 Clouds 30 1016 51 10000 5.14 180 20:53 03.03.2021
1892 Clouds 30 1016 51 10000 5.14 180 20:35 03.03.2021
1893 Clouds 30 1016 51 10000 5.14 180 19:48 03.03.2021
1894 Clouds 30 1016 51 10000 5.14 180 19:30 03.03.2021
1895 Clouds 29 1017 54 10000 3.09 180 18:55 03.03.2021
1896 Clouds 29 1017 54 10000 3.09 180 18:35 03.03.2021
1897 Clouds 29 1017 58 10000 4.12 160 17:58 03.03.2021
1898 Clouds 29 1017 58 10000 4.12 160 17:58 03.03.2021
1899 Clouds 29 1017 58 10000 4.12 160 17:22 03.03.2021
1900 Clouds 29 1018 65 10000 2.06 60 16:52 03.03.2021
1901 Clouds 28 1018 65 10000 2.06 60 16:27 03.03.2021
1902 Clouds 26 1018 78 10000 2.79 92 15:53 03.03.2021
1903 Clouds 26 1018 78 10000 2.79 92 15:32 03.03.2021
1904 Clouds 23 1018 88 10000 2.73 64 14:45 03.03.2021
1905 Clouds 23 1018 88 10000 2.4 17 14:26 03.03.2021
1906 Clouds 21 1018 94 10000 2.4 17 13:42 03.03.2021
1907 Clouds 20 1018 94 10000 2.38 350 13:21 03.03.2021
1908 Clouds 20 1016 88 10000 2.06 30 12:43 03.03.2021
1909 Clouds 20 1016 88 10000 2.06 30 12:23 03.03.2021
1910 Clouds 19 1016 88 10000 2.06 40 11:45 03.03.2021
1911 Clouds 19 1016 88 10000 2.06 40 11:27 03.03.2021
1912 Clouds 19 1015 94 10000 2.06 30 10:45 03.03.2021
1913 Clouds 20 1015 94 10000 2.06 30 10:22 03.03.2021
1914 Clouds 20 1015 94 10000 2.06 30 09:42 03.03.2021
1915 Clouds 20 1016 94 10000 2.06 40 08:53 03.03.2021
1916 Clouds 20 1016 94 10000 2.06 40 08:24 03.03.2021
1917 Clouds 20 1016 94 10000 2.61 347 07:55 03.03.2021
1918 Clouds 21 1016 94 10000 2.58 350 07:28 03.03.2021
1919 Clouds 22 1017 88 10000 2.06 40 06:22 03.03.2021
1920 Clouds 22 1017 88 10000 2.06 50 05:44 03.03.2021
1921 Clouds 23 1017 83 10000 2.06 60 04:36 03.03.2021
1922 Clouds 23 1017 78 10000 2.06 60 03:54 03.03.2021
1923 Clouds 26 1015 65 10000 2.06 120 00:28 03.03.2021
1924 Clouds 28 1014 65 10000 4.12 150 23:34 02.03.2021
1925 Clouds 28 1014 65 10000 4.12 150 22:52 02.03.2021
1926 Clouds 28 1014 65 10000 4.12 150 22:22 02.03.2021
1927 Clouds 29 1014 62 10000 4.12 150 21:51 02.03.2021
1928 Clouds 29 1014 62 10000 4.12 150 21:33 02.03.2021
1929 Clouds 29 1015 55 10000 3.09 50 20:56 02.03.2021
1930 Clouds 29 1015 55 10000 3.09 50 20:38 02.03.2021
1931 Clouds 29 1015 55 10000 3.09 50 20:19 02.03.2021
1932 Clouds 29 1016 62 10000 4.12 50 19:46 02.03.2021
1933 Clouds 29 1016 62 10000 4.12 50 19:26 02.03.2021
1934 Clouds 29 1017 61 10000 3.35 79 18:41 02.03.2021
1935 Clouds 29 1017 61 10000 3.5 54 18:21 02.03.2021
1936 Clouds 28 1018 65 10000 3.5 54 17:57 02.03.2021
1937 Clouds 28 1018 65 10000 3.5 54 17:38 02.03.2021
1938 Clouds 28 1018 65 10000 3.19 44 17:18 02.03.2021
1939 Clouds 27 1018 74 10000 4.12 360 16:40 02.03.2021
1940 Clouds 26 1018 78 10000 3.09 360 15:54 02.03.2021
1941 Clouds 26 1018 78 10000 3.09 360 15:26 02.03.2021
1942 Clouds 24 1018 88 10000 4.12 330 14:42 02.03.2021
1943 Clouds 24 1018 88 10000 4.12 330 14:18 02.03.2021
1944 Clouds 22 1018 94 10000 3.09 360 13:42 02.03.2021
1945 Clouds 22 1018 94 10000 3.09 360 13:23 02.03.2021
1946 Clouds 21 1016 94 10000 2.06 10 12:43 02.03.2021
1947 Clouds 21 1016 94 10000 2.06 10 12:24 02.03.2021
1948 Clouds 20 1016 100 10000 3.76 342 11:41 02.03.2021
1949 Clouds 20 1016 100 10000 3.86 341 11:20 02.03.2021
1950 Clouds 20 1015 100 10000 3.86 341 10:42 02.03.2021
1951 Clouds 20 1015 100 10000 3.74 342 10:23 02.03.2021
1952 Clouds 20 1015 100 10000 2.06 20 09:40 02.03.2021
1953 Clouds 20 1015 100 10000 2.06 20 09:20 02.03.2021
1954 Clouds 20 1015 100 10000 2.06 20 08:38 02.03.2021
1955 Clear 20 1016 85 10000 3.4 345 07:59 02.03.2021
1956 Clouds 21 1017 94 10000 3.4 345 07:38 02.03.2021
1957 Clouds 21 1017 94 10000 3.4 345 07:38 02.03.2021
1958 Clouds 22 1017 94 10000 3.16 346 06:35 02.03.2021
1959 Clouds 23 1017 94 10000 2.06 30 05:46 02.03.2021
1960 Clouds 23 1017 94 10000 2.06 30 05:46 02.03.2021
1961 Clouds 23 1017 94 10000 2.06 30 05:28 02.03.2021
1962 Clouds 25 1015 69 10000 3.09 60 01:45 02.03.2021
1963 Clouds 25 1015 69 10000 3.09 60 01:27 02.03.2021
1964 Clouds 26 1017 86 10000 3.82 30 00:39 02.03.2021
1965 Clouds 27 1017 80 10000 3.98 56 23:26 01.03.2021
1966 Clouds 28 1016 79 10000 3.98 56 22:42 01.03.2021
1967 Clouds 29 1016 79 10000 4.19 60 22:21 01.03.2021
1968 Clouds 29 1016 79 10000 4.19 60 21:45 01.03.2021
1969 Clouds 30 1015 55 10000 7.72 30 21:23 01.03.2021
1970 Clouds 30 1015 55 10000 7.72 30 20:47 01.03.2021
1971 Clouds 30 1015 55 10000 7.72 30 20:27 01.03.2021
1972 Clouds 30 1016 58 10000 7.72 30 19:54 01.03.2021
1973 Clouds 30 1016 58 10000 7.72 30 19:33 01.03.2021
1974 Clouds 29 1016 62 10000 7.72 60 18:46 01.03.2021
1975 Clouds 29 1016 62 10000 7.72 60 18:24 01.03.2021
1976 Clouds 28 1018 83 10000 7.72 30 17:53 01.03.2021
1977 Clouds 27 1018 83 10000 7.72 30 17:30 01.03.2021
1978 Clouds 27 1018 88 10000 5.14 360 16:59 01.03.2021
1979 Clouds 26 1018 88 10000 5.14 360 16:40 01.03.2021
1980 Clouds 26 1018 88 10000 5.14 360 16:22 01.03.2021
1981 Clouds 26 1018 78 10000 5.14 360 15:40 01.03.2021
1982 Clouds 25 1018 83 8000 4.12 360 15:19 01.03.2021
1983 Clouds 25 1018 83 8000 4.12 360 14:44 01.03.2021
1984 Clouds 25 1018 83 8000 4.12 360 14:26 01.03.2021
1985 Clouds 24 1017 88 10000 5.14 360 13:39 01.03.2021
1986 Clouds 24 1017 88 10000 5.14 360 13:20 01.03.2021
1987 Clouds 22 1016 100 10000 3.09 20 12:44 01.03.2021
1988 Clouds 22 1016 100 10000 3.09 20 12:26 01.03.2021
1989 Clouds 22 1016 100 10000 2.06 30 11:58 01.03.2021
1990 Clouds 22 1016 100 10000 2.06 30 11:32 01.03.2021
1991 Clouds 22 1015 100 10000 2.06 20 10:44 01.03.2021
1992 Clouds 22 1015 100 10000 2.06 20 10:22 01.03.2021
1993 Clouds 22 1015 100 10000 2.06 20 09:56 01.03.2021
1994 Clear 23 1015 83 10000 1.79 15 09:36 01.03.2021
1995 Clouds 23 1016 94 10000 3.09 20 08:58 01.03.2021
1996 Clouds 23 1016 94 10000 3.09 20 08:36 01.03.2021
1997 Clouds 23 1016 94 10000 1.54 20 07:34 01.03.2021
1998 Clouds 23 1017 88 10000 3.09 30 06:31 01.03.2021
1999 Clouds 24 1017 78 10000 2.06 50 02:40 01.03.2021
2000 Clouds 27 1016 61 10000 3.09 90 23:54 28.02.2021
2001 Clouds 28 1016 74 10000 5.14 360 23:21 28.02.2021
2002 Clouds 29 1016 74 10000 5.14 360 22:44 28.02.2021
2003 Clouds 29 1016 74 10000 5.14 360 22:21 28.02.2021
2004 Clouds 29 1017 74 10000 5.14 360 21:47 28.02.2021
2005 Clouds 29 1017 74 10000 5.14 360 21:24 28.02.2021
2006 Clouds 30 1017 66 10000 5.14 360 20:49 28.02.2021
2007 Clouds 30 1017 66 10000 5.14 360 20:30 28.02.2021
2008 Clouds 29 1018 70 10000 4.12 30 19:47 28.02.2021
2009 Clouds 29 1018 70 10000 4.12 30 19:27 28.02.2021
2010 Clouds 27 1019 78 10000 4.12 360 18:47 28.02.2021
2011 Clouds 26 1019 78 10000 4.12 360 18:28 28.02.2021
2012 Clouds 26 1020 83 10000 4.72 49 17:58 28.02.2021
2013 Clouds 26 1020 83 10000 4.72 49 17:38 28.02.2021
2014 Clouds 26 1020 83 10000 4.72 49 17:38 28.02.2021
2015 Clouds 26 1020 83 10000 4.86 48 17:20 28.02.2021
2016 Clouds 25 1020 88 6000 4.12 30 16:48 28.02.2021
2017 Clouds 25 1020 88 6000 4.12 30 16:29 28.02.2021
2018 Clouds 24 1019 83 10000 3.09 360 15:51 28.02.2021
2019 Clouds 24 1019 83 10000 3.09 360 15:28 28.02.2021
2020 Clouds 24 1019 88 10000 3.09 360 14:58 28.02.2021
2021 Clouds 24 1019 88 10000 3.09 360 14:35 28.02.2021
2022 Clouds 23 1019 94 10000 3.09 10 13:59 28.02.2021
2023 Clouds 22 1019 94 10000 3.09 10 13:37 28.02.2021
2024 Clouds 22 1019 94 10000 3.09 10 13:18 28.02.2021
2025 Clouds 22 1018 94 10000 3.09 70 12:51 28.02.2021
2026 Clouds 22 1018 94 10000 3.09 70 12:31 28.02.2021
2027 Clouds 22 1018 94 10000 1.54 0 11:56 28.02.2021
2028 Clouds 22 1018 94 10000 1.54 0 11:37 28.02.2021
2029 Clouds 22 1018 94 10000 1.54 0 11:18 28.02.2021
2030 Clouds 22 1017 94 10000 2.06 290 10:30 28.02.2021
2031 Clouds 23 1018 94 10000 2.57 310 09:59 28.02.2021
2032 Clouds 23 1018 94 10000 2.57 310 09:38 28.02.2021
2033 Clouds 23 1018 94 10000 2.57 310 09:20 28.02.2021
2034 Clouds 23 1018 100 10000 4.23 11 08:38 28.02.2021
2035 Clouds 23 1018 100 10000 4.43 9 08:20 28.02.2021
2036 Clouds 23 1018 100 10000 3.09 40 07:43 28.02.2021
2037 Clouds 23 1018 100 10000 3.09 40 07:25 28.02.2021
2038 Clouds 24 1019 94 10000 3.09 30 06:23 28.02.2021
2039 Clouds 24 1019 94 10000 3.09 30 05:19 28.02.2021
2040 Clouds 25 1019 88 10000 5.14 70 02:26 28.02.2021
2041 Clouds 26 1018 88 10000 4.63 70 01:23 28.02.2021
2042 Clouds 27 1017 78 10000 5.66 70 00:39 28.02.2021
2043 Clouds 27 1016 78 10000 7.72 70 23:50 27.02.2021
2044 Clouds 28 1016 78 8000 4.61 53 23:21 27.02.2021
2045 Clouds 28 1016 78 8000 4.61 53 22:50 27.02.2021
2046 Clouds 28 1016 78 8000 4.61 53 22:50 27.02.2021
2047 Clouds 29 1016 78 8000 5.03 61 22:23 27.02.2021
2048 Clouds 29 1016 74 10000 5.03 61 21:58 27.02.2021
2049 Clouds 29 1016 74 10000 5.03 61 21:37 27.02.2021
2050 Clouds 29 1017 70 10000 5.14 180 20:55 27.02.2021
2051 Clouds 29 1017 70 10000 5.14 180 20:37 27.02.2021
2052 Clouds 29 1017 70 10000 5.14 180 20:18 27.02.2021
2053 Clouds 29 1018 58 10000 5.14 90 19:41 27.02.2021
2054 Clouds 30 1018 58 10000 5.14 90 19:23 27.02.2021
2055 Clouds 29 1019 62 10000 5.14 90 18:39 27.02.2021
2056 Clouds 29 1019 62 10000 5.14 90 18:19 27.02.2021
2057 Clouds 29 1020 66 10000 5.14 60 17:43 27.02.2021
2058 Clouds 29 1020 66 10000 5.14 60 17:20 27.02.2021
2059 Clouds 28 1020 70 10000 5.14 60 16:51 27.02.2021
2060 Clouds 28 1020 70 10000 5.14 60 16:31 27.02.2021
2061 Clouds 27 1020 78 10000 2.57 90 15:49 27.02.2021
2062 Clouds 27 1020 78 10000 2.57 90 15:31 27.02.2021
2063 Clouds 25 1019 83 10000 2.57 360 14:43 27.02.2021
2064 Clouds 25 1019 83 10000 2.57 360 14:25 27.02.2021
2065 Clouds 24 1022 100 10000 3.86 7 13:49 27.02.2021
2066 Clouds 24 1022 100 10000 4.05 352 13:26 27.02.2021
2067 Clouds 22 1018 94 8000 2.06 10 12:51 27.02.2021
2068 Clouds 22 1018 94 8000 2.06 10 12:27 27.02.2021
2069 Clouds 22 1017 100 8000 2.06 10 11:55 27.02.2021
2070 Clouds 22 1017 100 8000 2.06 10 11:31 27.02.2021
2071 Clouds 22 1017 94 10000 2.57 20 10:59 27.02.2021
2072 Clouds 22 1017 94 10000 2.57 20 10:41 27.02.2021
2073 Clouds 22 1017 94 10000 2.57 20 10:18 27.02.2021
2074 Clouds 22 1017 94 10000 2.06 360 09:35 27.02.2021
2075 Clouds 23 1017 94 10000 2.06 10 08:45 27.02.2021
2076 Clouds 23 1017 94 10000 2.06 10 08:24 27.02.2021
2077 Clouds 22 1017 94 10000 2.06 10 07:59 27.02.2021
2078 Clear 24 1020 94 10000 4.46 360 07:32 27.02.2021
2079 Clouds 25 1018 88 10000 4.12 40 02:31 27.02.2021
2080 Clouds 27 1016 83 10000 4.12 40 00:33 27.02.2021
2081 Clouds 28 1015 74 10000 6.17 20 23:43 26.02.2021
2082 Clouds 28 1016 74 10000 9.26 90 23:24 26.02.2021
2083 Clouds 29 1016 74 10000 9.26 90 22:40 26.02.2021
2084 Clouds 29 1016 74 10000 9.26 90 22:21 26.02.2021
2085 Clouds 30 1015 46 10000 3.09 360 21:36 26.02.2021
2086 Clouds 30 1015 52 10000 4.12 90 20:57 26.02.2021
2087 Clouds 31 1015 52 10000 4.12 90 20:38 26.02.2021
2088 Clouds 30 1015 52 10000 4.12 90 20:19 26.02.2021
2089 Clouds 30 1015 52 10000 4.12 90 20:19 26.02.2021
2090 Clouds 31 1017 52 10000 4.12 10 19:27 26.02.2021
2091 Clouds 30 1017 55 10000 5.14 360 18:57 26.02.2021
2092 Clouds 30 1017 55 10000 5.14 360 18:36 26.02.2021
2093 Clouds 30 1017 55 10000 5.14 360 18:18 26.02.2021
2094 Clouds 29 1018 62 10000 4.12 360 17:38 26.02.2021
2095 Clouds 29 1018 62 10000 4.12 360 17:19 26.02.2021
2096 Clouds 28 1019 65 10000 4.12 360 16:47 26.02.2021
2097 Clouds 28 1019 65 10000 4.12 360 16:28 26.02.2021
2098 Clouds 27 1019 74 10000 5.14 30 15:45 26.02.2021
2099 Clouds 27 1019 74 10000 5.14 30 15:27 26.02.2021
2100 Clouds 26 1018 78 10000 5.14 360 14:58 26.02.2021
2101 Clouds 25 1018 78 10000 5.14 360 14:36 26.02.2021
2102 Clouds 24 1017 88 10000 3.55 356 13:59 26.02.2021
2103 Clouds 23 1017 88 10000 3.24 358 13:39 26.02.2021
2104 Clouds 22 1017 100 10000 2.06 10 12:58 26.02.2021
2105 Clouds 21 1017 100 10000 2.06 10 12:31 26.02.2021
2106 Clouds 21 1017 100 10000 2.06 20 11:47 26.02.2021
2107 Clouds 21 1017 100 10000 2.06 20 11:20 26.02.2021
2108 Clouds 21 1017 100 10000 2.06 20 11:20 26.02.2021
2109 Clouds 22 1017 94 10000 2.06 30 10:43 26.02.2021
2110 Clouds 22 1017 94 10000 2.06 40 09:48 26.02.2021
2111 Clouds 22 1017 94 10000 2.06 40 09:28 26.02.2021
2112 Clouds 22 1017 94 10000 2.06 30 08:39 26.02.2021
2113 Clouds 23 1017 88 10000 2.06 30 07:58 26.02.2021
2114 Clouds 23 1017 88 10000 2.06 30 07:24 26.02.2021
2115 Rain 23 1018 88 10000 2.06 30 06:35 26.02.2021
2116 Rain 23 1018 88 10000 2.06 30 05:19 26.02.2021
2117 Clouds 25 1020 91 10000 3.12 20 02:39 26.02.2021
2118 Clouds 27 1019 87 10000 3.7 63 00:33 26.02.2021
2119 Clouds 27 1016 61 10000 4.12 130 23:40 25.02.2021
2120 Clouds 27 1016 58 10000 4.12 170 23:19 25.02.2021
2121 Clouds 28 1016 58 10000 4.12 170 22:38 25.02.2021
2122 Clouds 29 1016 54 10000 4.12 160 21:54 25.02.2021
2123 Clouds 29 1016 54 10000 4.12 160 21:54 25.02.2021
2124 Clouds 29 1016 54 10000 4.12 160 21:33 25.02.2021
2125 Clouds 29 1017 51 10000 5.14 180 20:56 25.02.2021
2126 Clouds 29 1017 51 10000 5.14 180 20:37 25.02.2021
2127 Clouds 29 1017 51 10000 5.14 180 20:18 25.02.2021
2128 Clouds 30 1018 55 10000 5.14 180 19:47 25.02.2021
2129 Clouds 30 1018 55 10000 5.14 180 19:19 25.02.2021
2130 Clouds 29 1019 58 10000 6.17 10 18:44 25.02.2021
2131 Clouds 29 1019 58 10000 6.17 10 18:18 25.02.2021
2132 Clouds 28 1019 61 10000 5.14 360 17:42 25.02.2021
2133 Clouds 28 1019 61 10000 5.14 360 17:22 25.02.2021
2134 Clouds 28 1020 65 10000 5.14 360 16:34 25.02.2021
2135 Clouds 27 1020 69 10000 5.14 360 15:51 25.02.2021
2136 Clouds 27 1020 69 10000 5.14 360 15:28 25.02.2021
2137 Clouds 25 1019 78 10000 3.09 20 14:40 25.02.2021
2138 Clouds 24 1019 78 10000 3.09 20 14:20 25.02.2021
2139 Clouds 23 1019 94 10000 3.09 360 13:41 25.02.2021
2140 Clouds 22 1019 94 10000 3.09 360 13:20 25.02.2021
2141 Clouds 22 1018 94 10000 2.06 20 12:38 25.02.2021
2142 Clouds 22 1018 94 10000 2.06 20 12:20 25.02.2021
2143 Clouds 22 1017 94 10000 2.06 20 11:43 25.02.2021
2144 Clouds 22 1017 94 10000 2.06 40 10:53 25.02.2021
2145 Clouds 22 1017 94 10000 2.06 40 10:35 25.02.2021
2146 Clouds 22 1017 94 10000 2.06 30 09:45 25.02.2021
2147 Clouds 22 1017 94 10000 2.06 30 09:26 25.02.2021
2148 Clouds 22 1017 100 10000 2.06 50 08:40 25.02.2021
2149 Clouds 22 1017 100 10000 2.06 50 08:21 25.02.2021
2150 Clouds 22 1018 94 10000 2.06 30 07:39 25.02.2021
2151 Clouds 22 1018 88 10000 3.09 60 06:57 25.02.2021
2152 Clouds 22 1018 88 10000 3.09 60 06:57 25.02.2021
2153 Clouds 23 1018 88 10000 2.06 40 05:28 25.02.2021
2154 Clouds 26 1017 73 10000 3.09 130 01:45 25.02.2021
2155 Clouds 26 1019 91 10000 1.34 65 00:48 25.02.2021
2156 Clouds 26 1019 91 10000 2.18 103 00:19 25.02.2021
2157 Clouds 27 1016 61 10000 5.14 150 23:35 24.02.2021
2158 Clouds 28 1016 61 10000 5.14 150 22:47 24.02.2021
2159 Clouds 28 1016 61 10000 5.14 150 22:29 24.02.2021
2160 Clouds 29 1016 62 10000 5.14 190 21:49 24.02.2021
2161 Clouds 29 1016 62 10000 5.14 190 21:25 24.02.2021
2162 Clouds 29 1017 55 10000 3.09 120 20:48 24.02.2021
2163 Clouds 29 1017 55 10000 3.09 120 20:26 24.02.2021
2164 Clouds 29 1018 55 10000 5.14 180 19:40 24.02.2021
2165 Clouds 29 1018 55 10000 5.14 180 19:20 24.02.2021
2166 Clouds 29 1019 62 10000 3.09 180 18:50 24.02.2021
2167 Clouds 29 1019 62 10000 3.09 180 18:50 24.02.2021
2168 Clouds 29 1019 62 10000 3.09 180 18:29 24.02.2021
2169 Clouds 29 1020 65 10000 5.14 60 17:39 24.02.2021
2170 Clouds 29 1020 65 10000 5.14 60 17:21 24.02.2021
2171 Clouds 28 1021 69 10000 4.12 60 16:46 24.02.2021
2172 Clouds 28 1021 69 10000 4.12 60 16:20 24.02.2021
2173 Clouds 27 1020 74 10000 5.14 90 15:49 24.02.2021
2174 Clouds 27 1020 74 10000 5.14 90 15:26 24.02.2021
2175 Clouds 25 1020 83 10000 3.09 60 14:43 24.02.2021
2176 Clouds 25 1020 83 10000 3.09 60 14:25 24.02.2021
2177 Clouds 23 1019 94 10000 3.09 30 13:41 24.02.2021
2178 Clouds 23 1019 94 10000 3.09 30 13:22 24.02.2021
2179 Clouds 23 1018 94 10000 3.09 70 12:46 24.02.2021
2180 Clouds 23 1018 94 10000 3.09 70 12:46 24.02.2021
2181 Clouds 23 1018 94 10000 3.09 70 12:27 24.02.2021
2182 Clouds 23 1017 88 10000 4.63 60 11:50 24.02.2021
2183 Clouds 22 1017 88 10000 4.63 60 11:24 24.02.2021
2184 Clouds 22 1016 94 10000 4.12 70 10:32 24.02.2021
2185 Clouds 22 1016 94 10000 3.6 40 09:56 24.02.2021
2186 Clouds 22 1016 94 10000 3.6 40 09:22 24.02.2021
2187 Clouds 23 1016 88 10000 4.12 50 08:37 24.02.2021
2188 Clouds 23 1016 88 10000 4.12 50 08:19 24.02.2021
2189 Clouds 23 1017 88 10000 2.06 90 07:20 24.02.2021
2190 Clouds 23 1017 94 10000 2.06 50 06:42 24.02.2021
2191 Clouds 23 1018 94 10000 2.06 50 04:23 24.02.2021
2192 Clouds 26 1016 74 10000 4.12 130 00:43 24.02.2021
2193 Clouds 28 1015 66 10000 4.12 180 23:29 23.02.2021
2194 Clouds 28 1015 66 10000 4.12 180 22:40 23.02.2021
2195 Clouds 28 1015 66 10000 4.12 180 22:20 23.02.2021
2196 Clouds 28 1015 66 10000 4.12 180 22:20 23.02.2021
2197 Clouds 28 1015 66 10000 4.12 180 21:44 23.02.2021
2198 Clouds 28 1015 66 10000 4.12 180 21:24 23.02.2021
2199 Clouds 29 1015 62 10000 5.14 180 20:49 23.02.2021
2200 Clouds 29 1015 62 10000 5.14 180 20:29 23.02.2021
2201 Clouds 28 1016 66 10000 5.14 180 19:48 23.02.2021
2202 Clouds 28 1016 66 10000 5.14 180 19:28 23.02.2021
2203 Clouds 29 1016 66 10000 3.09 180 18:58 23.02.2021
2204 Clouds 29 1016 66 10000 3.09 180 18:39 23.02.2021
2205 Clouds 28 1016 66 10000 3.09 180 18:18 23.02.2021
2206 Clouds 28 1018 65 10000 5.14 90 17:39 23.02.2021
2207 Clouds 28 1018 74 10000 5.14 90 16:56 23.02.2021
2208 Clouds 28 1018 74 10000 5.14 90 16:36 23.02.2021
2209 Clouds 27 1018 74 10000 5.14 90 16:18 23.02.2021
2210 Clouds 27 1018 78 10000 5.14 360 15:40 23.02.2021
2211 Clouds 26 1018 78 10000 5.14 360 15:21 23.02.2021
2212 Clouds 25 1017 88 10000 2.45 23 14:44 23.02.2021
2213 Clouds 25 1017 88 10000 2.82 351 14:25 23.02.2021
2214 Clouds 23 1017 94 10000 2.82 351 13:46 23.02.2021
2215 Clouds 22 1017 94 10000 2.71 339 13:26 23.02.2021
2216 Clouds 22 1017 94 10000 2.06 30 12:51 23.02.2021
2217 Clouds 22 1017 94 10000 2.06 30 12:20 23.02.2021
2218 Clouds 23 1016 88 10000 1.54 0 11:48 23.02.2021
2219 Clouds 22 1016 88 10000 1.54 0 11:21 23.02.2021
2220 Clouds 22 1016 94 10000 2.57 340 10:49 23.02.2021
2221 Clouds 22 1016 94 10000 2.57 340 10:30 23.02.2021
2222 Clear 22 1019 100 10000 2.98 342 09:43 23.02.2021
2223 Clear 22 1019 100 10000 3.41 341 09:24 23.02.2021
2224 Clear 22 1019 100 10000 3.41 341 08:49 23.02.2021
2225 Clear 22 1019 100 10000 3.25 343 08:22 23.02.2021
2226 Clear 22 1019 100 10000 3.25 343 07:53 23.02.2021
2227 Clouds 23 1021 100 10000 2.66 354 05:32 23.02.2021
2228 Clouds 23 1021 100 10000 2.81 356 04:46 23.02.2021
2229 Clouds 23 1021 100 10000 2.91 8 02:34 23.02.2021
2230 Clouds 23 1019 100 10000 3.61 50 00:20 23.02.2021
2231 Clouds 23 1019 100 10000 3.61 50 23:47 22.02.2021
2232 Clouds 24 1015 100 7000 3.12 60 23:20 22.02.2021
2233 Clouds 24 1015 100 7000 3.12 60 22:40 22.02.2021
2234 Clouds 24 1015 100 7000 3.31 72 22:20 22.02.2021
2235 Clouds 24 1015 100 7000 3.31 72 22:20 22.02.2021
2236 Clouds 26 1015 100 7000 5.14 180 21:41 22.02.2021
2237 Clouds 26 1015 100 7000 5.14 180 21:22 22.02.2021
2238 Clouds 27 1016 94 5000 5.14 180 20:51 22.02.2021
2239 Clouds 27 1016 94 5000 5.14 180 20:27 22.02.2021
2240 Clouds 28 1016 66 7000 4.12 340 19:51 22.02.2021
2241 Clouds 28 1016 66 7000 4.12 340 19:31 22.02.2021
2242 Clouds 28 1017 62 10000 4.12 360 18:56 22.02.2021
2243 Clouds 28 1017 62 10000 4.12 360 18:37 22.02.2021
2244 Clouds 29 1017 62 10000 4.12 360 18:18 22.02.2021
2245 Clouds 28 1018 69 10000 4.12 80 17:24 22.02.2021
2246 Clouds 27 1019 69 10000 2.57 60 16:54 22.02.2021
2247 Clouds 27 1019 69 10000 2.57 60 16:31 22.02.2021
2248 Clouds 26 1019 83 10000 4.12 22 15:42 22.02.2021
2249 Clouds 25 1019 83 10000 4.04 12 15:21 22.02.2021
2250 Clouds 23 1018 94 10000 5.14 10 14:44 22.02.2021
2251 Clouds 23 1018 94 10000 5.14 10 14:22 22.02.2021
2252 Clouds 22 1017 94 10000 4.12 10 13:45 22.02.2021
2253 Clouds 22 1017 94 10000 2.57 10 12:56 22.02.2021
2254 Clouds 22 1017 94 10000 2.57 10 12:23 22.02.2021
2255 Clouds 22 1016 94 10000 2.06 20 11:57 22.02.2021
2256 Clouds 22 1016 94 10000 2.06 20 11:33 22.02.2021
2257 Clouds 22 1016 94 10000 2.06 30 10:59 22.02.2021
2258 Clouds 22 1016 94 10000 2.06 30 10:59 22.02.2021
2259 Clouds 22 1016 94 10000 2.06 30 10:41 22.02.2021
2260 Clouds 22 1016 94 10000 2.06 30 10:20 22.02.2021
2261 Clouds 22 1016 88 10000 2.06 30 09:39 22.02.2021
2262 Clouds 22 1016 88 10000 2.06 30 09:21 22.02.2021
2263 Clouds 22 1016 88 10000 2.06 30 09:21 22.02.2021
2264 Clouds 22 1017 88 10000 2.06 30 08:49 22.02.2021
2265 Clouds 23 1017 88 10000 2.06 30 08:21 22.02.2021
2266 Clouds 23 1017 88 10000 2.06 40 07:48 22.02.2021
2267 Clouds 23 1017 88 10000 2.06 40 07:22 22.02.2021
2268 Clear 24 1020 100 10000 3.8 358 06:27 22.02.2021
2269 Clear 24 1021 100 10000 3.82 358 04:28 22.02.2021
2270 Clear 24 1021 100 10000 3.59 4 03:23 22.02.2021
2271 Clouds 25 1016 78 10000 2.06 10 00:56 22.02.2021
2272 Clouds 26 1016 78 10000 2.06 10 00:30 22.02.2021
2273 Clouds 26 1016 73 8000 2.06 80 23:57 21.02.2021
2274 Clouds 26 1015 88 10000 3.62 21 23:25 21.02.2021
2275 Clouds 27 1015 88 10000 3.62 21 22:30 21.02.2021
2276 Clouds 27 1015 83 10000 5.14 180 21:52 21.02.2021
2277 Clouds 27 1015 83 10000 5.14 180 21:34 21.02.2021
2278 Clouds 28 1016 74 10000 3.86 27 20:58 21.02.2021
2279 Clouds 28 1016 74 10000 3.86 27 20:38 21.02.2021
2280 Clouds 28 1016 74 10000 2.91 37 20:18 21.02.2021
2281 Clouds 28 1017 74 10000 5.14 360 19:44 21.02.2021
2282 Clouds 29 1017 74 10000 5.14 360 19:24 21.02.2021
2283 Clouds 28 1018 65 10000 4.12 40 18:29 21.02.2021
2284 Clouds 27 1019 88 10000 2.57 360 17:58 21.02.2021
2285 Clouds 25 1019 88 10000 2.57 360 17:26 21.02.2021
2286 Clouds 26 1019 74 10000 5.14 360 16:53 21.02.2021
2287 Clouds 28 1019 74 10000 5.14 360 16:31 21.02.2021
2288 Clouds 27 1019 78 10000 3.09 360 15:47 21.02.2021
2289 Clouds 27 1019 78 10000 3.09 360 15:19 21.02.2021
2290 Clouds 25 1018 83 10000 4.4 4 14:41 21.02.2021
2291 Clouds 25 1018 83 10000 3.67 354 14:20 21.02.2021
2292 Clouds 23 1018 94 10000 4.32 354 13:43 21.02.2021
2293 Clouds 23 1018 94 10000 3.33 344 13:22 21.02.2021
2294 Clouds 21 1016 94 10000 3.4 337 12:29 21.02.2021
2295 Clouds 21 1016 94 10000 3.4 337 11:43 21.02.2021
2296 Clouds 21 1016 94 10000 3.55 336 10:58 21.02.2021
2297 Clouds 22 1016 94 10000 3.31 335 10:23 21.02.2021
2298 Clouds 22 1016 94 10000 3.31 335 09:53 21.02.2021
2299 Clouds 22 1016 94 10000 2.97 337 09:28 21.02.2021
2300 Clouds 22 1016 88 10000 2.06 20 08:49 21.02.2021
2301 Clouds 22 1016 88 10000 2.06 20 08:19 21.02.2021
2302 Clouds 23 1016 88 10000 2.06 30 07:33 21.02.2021
2303 Clouds 23 1017 88 10000 2.06 30 06:53 21.02.2021
2304 Clear 25 1020 97 10000 1.98 353 03:36 21.02.2021
2305 Clear 25 1019 94 10000 0.94 28 02:29 21.02.2021
2306 Clear 26 1018 94 10000 1.04 110 00:43 21.02.2021
2307 Clear 26 1018 92 10000 2.07 149 00:19 21.02.2021
2308 Clouds 28 1015 62 10000 5.14 180 23:20 20.02.2021
2309 Clouds 28 1015 62 10000 5.14 180 22:41 20.02.2021
2310 Clouds 28 1015 62 10000 5.14 180 22:23 20.02.2021
2311 Clouds 29 1015 58 10000 5.14 180 21:44 20.02.2021
2312 Clouds 28 1015 58 10000 5.14 180 21:23 20.02.2021
2313 Clouds 28 1016 58 10000 5.14 180 20:42 20.02.2021
2314 Clouds 29 1016 58 10000 5.14 180 20:21 20.02.2021
2315 Clouds 29 1016 62 10000 3.39 131 19:52 20.02.2021
2316 Clouds 29 1016 62 10000 2.84 113 19:27 20.02.2021
2317 Clouds 29 1017 62 10000 4.12 10 18:39 20.02.2021
2318 Clouds 29 1017 62 10000 4.12 10 18:20 20.02.2021
2319 Clouds 29 1018 66 10000 4.12 50 17:38 20.02.2021
2320 Clouds 28 1019 65 10000 4.12 60 16:55 20.02.2021
2321 Clouds 28 1019 65 10000 4.12 60 16:32 20.02.2021
2322 Clouds 27 1019 74 10000 4.12 60 15:47 20.02.2021
2323 Clouds 27 1019 74 10000 4.12 60 15:23 20.02.2021
2324 Clouds 26 1019 78 10000 1.96 23 14:46 20.02.2021
2325 Clouds 25 1019 78 10000 2.05 1 14:23 20.02.2021
2326 Clouds 23 1019 100 10000 2.05 1 13:41 20.02.2021
2327 Clouds 22 1019 100 10000 2.21 343 13:23 20.02.2021
2328 Clouds 23 1018 94 10000 2.06 280 12:50 20.02.2021
2329 Clouds 22 1018 94 10000 2.06 280 12:23 20.02.2021
2330 Clouds 22 1017 94 10000 1.54 0 11:43 20.02.2021
2331 Clouds 23 1017 94 10000 1.54 0 11:24 20.02.2021
2332 Clouds 23 1017 94 10000 2.46 331 10:47 20.02.2021
2333 Clouds 23 1017 88 10000 2.56 327 09:54 20.02.2021
2334 Clouds 23 1017 88 10000 2.62 325 09:22 20.02.2021
2335 Clouds 23 1017 88 10000 2.06 290 08:34 20.02.2021
2336 Clouds 23 1018 94 10000 2.06 20 07:55 20.02.2021
2337 Clouds 25 1018 83 10000 2.06 80 02:46 20.02.2021
2338 Clouds 25 1018 83 10000 2.06 80 02:22 20.02.2021
2339 Clouds 25 1017 83 10000 2.06 120 01:47 20.02.2021
2340 Clouds 27 1020 88 10000 2.48 84 00:45 20.02.2021
2341 Clouds 27 1020 88 10000 2.03 121 23:45 19.02.2021
2342 Clouds 28 1017 74 10000 3.09 180 22:56 19.02.2021
2343 Clouds 28 1017 74 10000 3.09 180 22:26 19.02.2021
2344 Clouds 29 1017 74 10000 5.14 180 21:48 19.02.2021
2345 Clouds 29 1017 74 10000 5.14 180 21:28 19.02.2021
2346 Clouds 29 1018 62 10000 5.14 160 20:47 19.02.2021
2347 Clouds 30 1018 62 10000 5.14 160 20:27 19.02.2021
2348 Clouds 30 1019 62 10000 5.14 360 19:51 19.02.2021
2349 Clouds 30 1019 62 10000 5.14 360 19:23 19.02.2021
2350 Clouds 29 1019 66 10000 5.14 360 18:56 19.02.2021
2351 Clouds 29 1019 66 10000 5.14 360 18:33 19.02.2021
2352 Clouds 29 1020 66 10000 5.14 30 17:48 19.02.2021
2353 Clouds 29 1020 78 10000 4.12 90 16:51 19.02.2021
2354 Clouds 28 1020 78 10000 4.12 90 16:23 19.02.2021
2355 Clouds 27 1019 83 10000 4.12 30 15:57 19.02.2021
2356 Clouds 26 1019 83 10000 4.12 30 15:30 19.02.2021
2357 Clouds 25 1019 88 10000 3.09 360 14:56 19.02.2021
2358 Clouds 25 1019 88 10000 3.09 360 14:36 19.02.2021
2359 Clouds 24 1018 94 10000 1.98 33 13:57 19.02.2021
2360 Clouds 23 1018 94 10000 1.98 33 13:37 19.02.2021
2361 Clouds 23 1019 94 10000 2.06 30 12:59 19.02.2021
2362 Clouds 23 1019 94 10000 2.06 30 12:41 19.02.2021
2363 Clouds 22 1019 94 10000 2.06 30 12:20 19.02.2021
2364 Clouds 22 1018 94 10000 2.57 30 11:44 19.02.2021
2365 Clouds 22 1018 94 10000 2.57 30 11:19 19.02.2021
2366 Clouds 22 1018 94 10000 2.06 20 10:38 19.02.2021
2367 Clouds 22 1018 94 10000 2.06 20 10:19 19.02.2021
2368 Clouds 22 1018 94 10000 3.6 20 09:37 19.02.2021
2369 Clouds 22 1018 94 10000 3.6 20 09:37 19.02.2021
2370 Clouds 22 1018 94 10000 3.6 20 09:18 19.02.2021
2371 Clouds 22 1018 94 8000 2.06 10 08:42 19.02.2021
2372 Clouds 23 1018 94 8000 2.06 10 08:21 19.02.2021
2373 Clouds 23 1019 94 6000 2.06 40 07:45 19.02.2021
2374 Clear 24 1018 81 10000 1.34 13 07:25 19.02.2021
2375 Clouds 23 1019 94 10000 2.99 348 06:44 19.02.2021
2376 Clear 24 1022 96 10000 2.68 350 04:42 19.02.2021
2377 Clouds 25 1019 83 10000 2.57 70 02:50 19.02.2021
2378 Clouds 26 1018 73 10000 6.17 80 01:33 19.02.2021
2379 Clear 27 1020 93 10000 3.71 58 00:35 19.02.2021
2380 Clear 27 1020 92 10000 3.9 66 23:47 18.02.2021
2381 Clouds 28 1016 74 10000 5.14 140 23:29 18.02.2021
2382 Clouds 28 1016 74 10000 5.14 140 22:38 18.02.2021
2383 Clouds 28 1016 74 10000 5.14 140 22:18 18.02.2021
2384 Clouds 28 1017 74 10000 4.12 160 21:40 18.02.2021
2385 Clouds 29 1017 74 10000 4.12 160 21:21 18.02.2021
2386 Clouds 29 1018 66 10000 5.14 360 20:39 18.02.2021
2387 Clouds 29 1018 66 10000 5.14 360 20:21 18.02.2021
2388 Clouds 30 1019 66 10000 5.14 120 19:44 18.02.2021
2389 Clouds 30 1019 66 10000 5.14 120 19:20 18.02.2021
2390 Clouds 30 1020 66 10000 3.09 30 18:50 18.02.2021
2391 Clouds 30 1020 66 10000 3.09 30 18:26 18.02.2021
2392 Clouds 29 1021 74 10000 4.33 61 17:49 18.02.2021
2393 Clouds 28 1021 74 10000 4.4 61 17:24 18.02.2021
2394 Clouds 27 1021 89 10000 4.12 360 16:46 18.02.2021
2395 Clouds 27 1021 89 10000 4.12 360 16:28 18.02.2021
2396 Clouds 26 1021 88 10000 5.14 360 15:43 18.02.2021
2397 Clouds 25 1021 88 10000 5.14 360 15:23 18.02.2021
2398 Clouds 24 1023 100 10000 4.5 55 14:53 18.02.2021
2399 Clouds 24 1020 94 8000 4.5 55 14:34 18.02.2021
2400 Clouds 23 1020 94 8000 3.53 39 13:50 18.02.2021
2401 Clouds 23 1020 94 8000 2.78 357 13:22 18.02.2021
2402 Clouds 23 1019 94 8000 2.57 10 12:55 18.02.2021
2403 Clouds 23 1019 94 8000 2.57 10 12:31 18.02.2021
2404 Clouds 23 1018 94 10000 2.57 300 11:47 18.02.2021
2405 Clouds 23 1018 94 10000 2.57 300 11:28 18.02.2021
2406 Clouds 23 1017 94 10000 2.06 300 10:58 18.02.2021
2407 Clouds 23 1017 94 10000 2.06 300 10:37 18.02.2021
2408 Clouds 23 1020 100 10000 3.13 359 10:18 18.02.2021
2409 Clouds 23 1020 100 10000 3.13 359 09:31 18.02.2021
2410 Clouds 23 1020 100 10000 3.09 353 08:50 18.02.2021
2411 Clouds 24 1020 100 10000 3.09 353 08:31 18.02.2021
2412 Clouds 23 1021 100 10000 2.96 350 07:48 18.02.2021
2413 Clouds 23 1021 100 10000 2.76 356 07:23 18.02.2021
2414 Clouds 23 1022 100 10000 3.01 356 05:42 18.02.2021
2415 Clouds 25 1020 100 10000 3.79 42 00:29 18.02.2021
2416 Clouds 27 1016 78 8000 3.79 42 23:38 17.02.2021
2417 Clouds 27 1016 78 8000 3.97 60 23:18 17.02.2021
2418 Clouds 27 1016 78 8000 3.97 60 22:39 17.02.2021
2419 Clouds 27 1016 78 8000 4.12 63 22:21 17.02.2021
2420 Clouds 28 1017 74 10000 4.12 63 21:44 17.02.2021
2421 Clouds 29 1017 74 10000 3.41 73 21:20 17.02.2021
2422 Clouds 29 1017 70 10000 3.41 73 20:42 17.02.2021
2423 Clouds 29 1017 70 10000 2.16 71 20:22 17.02.2021
2424 Clouds 29 1018 66 10000 5.14 110 19:38 17.02.2021
2425 Clouds 28 1019 65 10000 2.57 90 18:58 17.02.2021
2426 Clouds 28 1019 65 10000 2.57 90 18:37 17.02.2021
2427 Clouds 29 1020 70 10000 5.14 90 17:47 17.02.2021
2428 Clouds 29 1020 70 10000 5.14 90 17:23 17.02.2021
2429 Clouds 28 1021 70 10000 5.14 360 16:54 17.02.2021
2430 Clouds 28 1021 70 10000 5.14 360 16:29 17.02.2021
2431 Clouds 28 1020 74 10000 2.57 40 15:59 17.02.2021
2432 Clouds 27 1020 74 10000 2.57 40 15:40 17.02.2021
2433 Clouds 27 1020 74 10000 2.57 40 15:21 17.02.2021
2434 Clouds 26 1020 78 10000 3.13 16 14:44 17.02.2021
2435 Clouds 25 1020 78 10000 3.28 353 14:25 17.02.2021
2436 Clouds 23 1020 94 10000 3.28 353 13:43 17.02.2021
2437 Clouds 22 1018 94 10000 2.06 30 12:59 17.02.2021
2438 Clouds 22 1018 94 10000 2.06 30 12:26 17.02.2021
2439 Clouds 22 1017 94 10000 2.06 30 11:50 17.02.2021
2440 Clouds 22 1017 94 10000 2.06 30 11:30 17.02.2021
2441 Clouds 22 1017 94 10000 2.06 30 10:59 17.02.2021
2442 Clouds 22 1017 94 10000 2.06 30 10:40 17.02.2021
2443 Clouds 22 1017 94 10000 2.06 30 10:20 17.02.2021
2444 Clouds 22 1017 100 10000 2.57 10 09:41 17.02.2021
2445 Clouds 22 1017 100 10000 2.57 10 09:18 17.02.2021
2446 Clouds 23 1017 94 10000 2.06 360 08:42 17.02.2021
2447 Clouds 23 1017 94 10000 2.06 360 08:20 17.02.2021
2448 Clouds 23 1020 94 10000 2.55 338 07:24 17.02.2021
2449 Clouds 24 1019 88 10000 2.06 70 03:55 17.02.2021
2450 Clouds 25 1018 78 10000 3.09 80 02:33 17.02.2021
2451 Clouds 25 1017 83 10000 2.06 110 01:49 17.02.2021
2452 Clouds 26 1017 78 10000 2.06 130 00:30 17.02.2021
2453 Clouds 27 1016 78 10000 3.09 140 23:50 16.02.2021
2454 Clouds 28 1015 66 10000 7.72 180 23:32 16.02.2021
2455 Clouds 29 1015 66 10000 7.72 180 22:42 16.02.2021
2456 Clouds 29 1015 66 10000 7.72 180 22:22 16.02.2021
2457 Clouds 30 1016 58 10000 6.17 180 21:41 16.02.2021
2458 Clouds 30 1016 58 10000 6.17 180 21:22 16.02.2021
2459 Clouds 29 1017 62 10000 3.6 120 20:58 16.02.2021
2460 Clouds 29 1018 66 10000 4.12 90 20:38 16.02.2021
2461 Clouds 29 1018 66 10000 4.12 90 20:20 16.02.2021
2462 Clouds 30 1018 66 10000 4.12 90 19:40 16.02.2021
2463 Clouds 30 1018 66 10000 4.12 90 19:21 16.02.2021
2464 Clouds 29 1019 65 10000 5.14 90 18:40 16.02.2021
2465 Clouds 29 1019 65 10000 5.14 90 18:21 16.02.2021
2466 Clouds 28 1020 69 10000 5.14 90 17:49 16.02.2021
2467 Clouds 29 1020 69 10000 5.14 90 17:23 16.02.2021
2468 Clouds 28 1019 74 10000 5.14 80 16:51 16.02.2021
2469 Clouds 28 1019 74 10000 5.14 80 16:24 16.02.2021
2470 Clouds 27 1019 73 10000 5.14 360 15:47 16.02.2021
2471 Clouds 26 1019 73 10000 5.14 360 15:26 16.02.2021
2472 Clouds 25 1018 94 10000 2.75 58 14:48 16.02.2021
2473 Clouds 24 1018 94 10000 2.75 58 14:30 16.02.2021
2474 Clouds 23 1017 94 10000 2.49 42 13:57 16.02.2021
2475 Clouds 23 1017 94 10000 2.49 42 13:34 16.02.2021
2476 Clouds 22 1018 94 10000 2.06 300 12:46 16.02.2021
2477 Clouds 22 1018 94 10000 2.06 300 12:25 16.02.2021
2478 Clouds 22 1018 100 10000 2.06 310 11:50 16.02.2021
2479 Clouds 22 1018 100 10000 2.06 310 11:24 16.02.2021
2480 Clouds 22 1016 94 10000 3.09 310 10:56 16.02.2021
2481 Clouds 23 1016 94 10000 3.09 310 10:38 16.02.2021
2482 Clouds 23 1016 94 10000 3.09 310 10:20 16.02.2021
2483 Clouds 22 1017 100 10000 3.09 330 09:47 16.02.2021
2484 Clouds 22 1017 100 10000 3.09 330 09:47 16.02.2021
2485 Clouds 22 1017 100 10000 3.09 330 09:26 16.02.2021
2486 Clouds 22 1018 94 10000 2.06 360 08:42 16.02.2021
2487 Clouds 22 1018 94 10000 2.06 360 08:21 16.02.2021
2488 Clouds 22 1018 100 10000 3.09 350 07:25 16.02.2021
2489 Clouds 24 1019 83 10000 2.06 90 05:28 16.02.2021
2490 Clouds 27 1017 69 10000 2.06 140 00:45 16.02.2021
2491 Clouds 27 1016 65 10000 5.14 180 23:39 15.02.2021
2492 Clouds 28 1016 65 10000 5.14 180 23:20 15.02.2021
2493 Clouds 28 1016 65 10000 5.14 180 22:43 15.02.2021
2494 Clouds 28 1016 65 10000 5.14 180 22:21 15.02.2021
2495 Clouds 29 1016 65 10000 5.14 180 21:42 15.02.2021
2496 Clouds 29 1016 65 10000 5.14 180 21:21 15.02.2021
2497 Clouds 29 1016 62 10000 5.14 180 20:45 15.02.2021
2498 Clouds 29 1016 62 10000 5.14 180 20:45 15.02.2021
2499 Clouds 29 1016 62 10000 5.14 180 20:26 15.02.2021
2500 Clouds 29 1016 62 10000 5.14 180 20:26 15.02.2021
2501 Clouds 29 1017 62 10000 5.14 180 19:44 15.02.2021
2502 Clouds 30 1017 62 10000 5.14 180 19:23 15.02.2021
2503 Clouds 29 1018 70 10000 5.14 40 18:46 15.02.2021
2504 Clouds 29 1018 70 10000 5.14 40 18:26 15.02.2021
2505 Clouds 29 1019 78 10000 3.09 100 17:42 15.02.2021
2506 Clouds 29 1019 78 10000 3.09 100 17:24 15.02.2021
2507 Clouds 28 1020 78 10000 5.14 90 16:57 15.02.2021
2508 Clouds 27 1020 78 10000 5.14 90 16:28 15.02.2021
2509 Clouds 27 1020 78 10000 4.12 60 15:52 15.02.2021
2510 Clouds 27 1020 78 10000 4.12 60 15:25 15.02.2021
2511 Clouds 26 1019 83 10000 3.27 64 14:59 15.02.2021
2512 Clouds 26 1019 83 10000 3.27 64 14:36 15.02.2021
2513 Clouds 25 1019 83 10000 2.97 53 14:18 15.02.2021
2514 Clouds 24 1018 100 10000 2.97 53 13:45 15.02.2021
2515 Clouds 23 1018 100 10000 2.42 4 13:19 15.02.2021
2516 Clouds 23 1018 100 10000 2.06 40 12:44 15.02.2021
2517 Clouds 21 1018 100 10000 2.06 40 12:20 15.02.2021
2518 Clouds 23 1017 100 10000 2.06 50 11:42 15.02.2021
2519 Clouds 23 1017 100 10000 2.06 50 11:19 15.02.2021
2520 Clouds 23 1017 100 10000 2.06 40 10:47 15.02.2021
2521 Clouds 23 1017 100 10000 2.06 40 10:24 15.02.2021
2522 Clouds 23 1017 100 10000 2.06 40 09:55 15.02.2021
2523 Clouds 23 1017 100 10000 2.06 40 09:33 15.02.2021
2524 Clouds 23 1017 100 10000 2.06 40 08:45 15.02.2021
2525 Clouds 23 1018 94 10000 2.06 60 07:40 15.02.2021
2526 Clouds 23 1018 88 10000 2.06 40 06:58 15.02.2021
2527 Clouds 23 1018 88 10000 2.06 40 06:37 15.02.2021
2528 Clouds 25 1018 78 10000 2.06 90 02:30 15.02.2021
2529 Clouds 27 1017 73 10000 2.06 140 00:45 15.02.2021
2530 Clouds 28 1016 70 10000 5.14 150 23:34 14.02.2021
2531 Clouds 28 1016 70 10000 5.14 150 22:55 14.02.2021
2532 Clouds 28 1016 70 10000 5.14 150 22:36 14.02.2021
2533 Clouds 28 1016 70 10000 5.14 150 22:18 14.02.2021
2534 Clouds 28 1017 70 10000 5.14 180 21:43 14.02.2021
2535 Clouds 28 1017 70 10000 5.14 180 21:23 14.02.2021
2536 Clouds 28 1017 70 10000 5.14 180 21:23 14.02.2021
2537 Clouds 29 1018 62 10000 5.14 180 20:39 14.02.2021
2538 Clouds 29 1018 62 10000 5.14 180 20:20 14.02.2021
2539 Clouds 29 1019 58 10000 5.14 180 19:40 14.02.2021
2540 Clouds 29 1019 62 10000 4.12 30 18:51 14.02.2021
2541 Clouds 29 1019 62 10000 4.12 30 18:29 14.02.2021
2542 Clouds 29 1019 65 10000 5.14 90 17:51 14.02.2021
2543 Clouds 28 1019 65 10000 5.14 90 17:33 14.02.2021
2544 Clouds 28 1019 69 10000 3.09 30 16:48 14.02.2021
2545 Clouds 27 1019 69 10000 3.09 30 16:25 14.02.2021
2546 Clouds 27 1019 74 10000 4.12 90 15:49 14.02.2021
2547 Clouds 27 1019 74 10000 4.12 90 15:29 14.02.2021
2548 Clouds 25 1019 83 10000 5.14 30 14:45 14.02.2021
2549 Clouds 25 1019 83 10000 5.14 30 14:25 14.02.2021
2550 Clouds 23 1018 94 10000 2.33 52 13:42 14.02.2021
2551 Clouds 23 1018 94 10000 1.74 31 13:23 14.02.2021
2552 Clouds 23 1017 94 10000 2.57 330 12:24 14.02.2021
2553 Clouds 23 1016 94 10000 3.09 330 11:59 14.02.2021
2554 Clouds 23 1016 94 10000 3.09 330 11:40 14.02.2021
2555 Clouds 23 1016 94 10000 3.09 330 11:20 14.02.2021
2556 Clouds 23 1016 100 10000 23.66 300 10:24 14.02.2021
2557 Clouds 23 1015 94 10000 2.57 330 09:40 14.02.2021
2558 Clouds 23 1015 94 10000 2.57 330 09:21 14.02.2021
2559 Clouds 23 1015 94 10000 2.57 310 08:57 14.02.2021
2560 Clouds 23 1016 94 10000 2.57 70 07:59 14.02.2021
2561 Clouds 24 1019 100 10000 1.42 348 07:19 14.02.2021
2562 Clouds 24 1019 100 10000 1.57 360 05:44 14.02.2021
2563 Clouds 25 1016 88 10000 5.14 90 03:59 14.02.2021
2564 Clouds 25 1016 88 10000 5.66 100 02:29 14.02.2021
2565 Clear 26 1017 100 10000 1.48 101 00:59 14.02.2021
2566 Clear 26 1017 100 10000 1.56 98 00:41 14.02.2021
2567 Clear 26 1017 100 10000 2.24 115 23:49 13.02.2021
2568 Clouds 28 1014 62 10000 5.14 160 23:25 13.02.2021
2569 Clouds 28 1014 62 10000 5.14 160 22:50 13.02.2021
2570 Clouds 28 1014 62 10000 5.14 160 22:21 13.02.2021
2571 Clouds 29 1014 62 10000 5.14 180 21:49 13.02.2021
2572 Clouds 29 1014 62 10000 5.14 180 21:26 13.02.2021
2573 Clouds 29 1015 58 10000 5.14 180 20:43 13.02.2021
2574 Clouds 29 1015 58 10000 5.14 180 20:22 13.02.2021
2575 Clouds 29 1016 62 10000 5.14 180 19:47 13.02.2021
2576 Clouds 29 1016 62 10000 5.14 180 19:23 13.02.2021
2577 Clouds 29 1016 62 10000 4.12 160 18:49 13.02.2021
2578 Clouds 29 1016 62 10000 4.12 160 18:24 13.02.2021
2579 Clouds 29 1017 65 10000 2.85 105 17:43 13.02.2021
2580 Clouds 28 1017 65 10000 2.29 80 17:23 13.02.2021
2581 Clouds 27 1017 83 10000 3.09 90 16:48 13.02.2021
2582 Clouds 27 1017 83 10000 3.09 90 16:30 13.02.2021
2583 Clouds 26 1017 78 10000 2.31 54 15:42 13.02.2021
2584 Clouds 26 1017 78 10000 2.34 24 15:24 13.02.2021
2585 Clouds 24 1016 88 10000 2.34 24 14:33 13.02.2021
2586 Clouds 23 1016 100 10000 2.57 30 13:48 13.02.2021
2587 Clouds 22 1016 100 10000 2.57 30 13:26 13.02.2021
2588 Clouds 21 1016 100 10000 2.06 40 12:50 13.02.2021
2589 Clouds 22 1016 100 10000 2.06 40 12:19 13.02.2021
2590 Clouds 22 1016 100 10000 2.06 40 12:19 13.02.2021
2591 Clouds 22 1015 94 10000 2.06 30 11:45 13.02.2021
2592 Clouds 22 1015 94 10000 2.06 30 11:45 13.02.2021
2593 Clouds 22 1015 94 10000 2.06 20 11:20 13.02.2021
2594 Clouds 22 1015 94 10000 2.06 20 10:47 13.02.2021
2595 Clouds 22 1015 94 10000 2.06 20 10:26 13.02.2021
2596 Clouds 22 1015 94 10000 1.97 4 09:59 13.02.2021
2597 Clouds 22 1015 94 10000 1.97 4 09:41 13.02.2021
2598 Clouds 22 1015 94 10000 2.17 358 09:20 13.02.2021
2599 Clouds 23 1015 88 10000 2.17 358 08:40 13.02.2021
2600 Clouds 23 1016 88 10000 1.09 11 07:53 13.02.2021
2601 Clouds 23 1017 100 10000 2.57 40 06:41 13.02.2021
2602 Clouds 23 1016 94 10000 2.3 339 05:27 13.02.2021
2603 Clouds 23 1016 94 10000 2.06 30 03:59 13.02.2021
2604 Clouds 23 1015 88 10000 3.6 50 01:49 13.02.2021
2605 Clouds 23 1015 94 7000 2.57 80 00:51 13.02.2021
2606 Clouds 23 1015 94 10000 2.57 110 23:54 12.02.2021
2607 Clouds 25 1014 69 8000 5.14 110 23:28 12.02.2021
2608 Clouds 26 1014 69 8000 5.14 110 22:45 12.02.2021
2609 Clouds 26 1014 69 8000 5.14 110 22:26 12.02.2021
2610 Clouds 27 1014 66 10000 5.14 180 21:50 12.02.2021
2611 Clouds 28 1014 66 10000 5.14 180 21:29 12.02.2021
2612 Clouds 29 1015 74 10000 3.09 180 20:49 12.02.2021
2613 Clouds 29 1015 74 10000 3.09 180 20:30 12.02.2021
2614 Clouds 30 1016 66 10000 5.14 180 19:58 12.02.2021
2615 Clouds 31 1016 66 10000 5.14 180 19:38 12.02.2021
2616 Clouds 29 1016 78 10000 5.14 130 18:58 12.02.2021
2617 Clouds 29 1016 78 10000 5.14 130 18:30 12.02.2021
2618 Clouds 30 1017 66 10000 4.12 90 17:47 12.02.2021
2619 Clouds 30 1017 66 10000 4.12 90 17:22 12.02.2021
2620 Clouds 29 1018 69 10000 3.09 90 16:35 12.02.2021
2621 Clouds 27 1017 83 10000 2.57 40 15:47 12.02.2021
2622 Clouds 27 1017 83 10000 2.57 40 15:21 12.02.2021
2623 Clouds 27 1017 83 10000 2.57 40 15:21 12.02.2021
2624 Clouds 25 1016 83 10000 2.44 39 14:42 12.02.2021
2625 Clouds 24 1016 83 10000 2.53 6 14:23 12.02.2021
2626 Clouds 22 1016 100 10000 2.57 40 13:41 12.02.2021
2627 Clouds 22 1016 100 10000 2.57 40 13:22 12.02.2021
2628 Clouds 21 1015 94 10000 2.06 40 12:47 12.02.2021
2629 Clouds 21 1015 94 10000 2.06 40 12:28 12.02.2021
2630 Clouds 21 1014 94 10000 2.06 10 11:42 12.02.2021
2631 Clouds 21 1014 94 10000 2.06 10 11:19 12.02.2021
2632 Clouds 22 1014 88 10000 2.06 30 10:41 12.02.2021
2633 Clouds 22 1014 88 10000 2.06 30 09:49 12.02.2021
2634 Clouds 22 1014 88 10000 2.06 30 09:29 12.02.2021
2635 Clouds 22 1014 88 10000 2.06 40 08:49 12.02.2021
2636 Clouds 22 1014 88 10000 2.06 40 08:28 12.02.2021
2637 Clouds 22 1015 94 10000 2.76 342 07:57 12.02.2021
2638 Clouds 22 1015 94 10000 2.76 342 07:32 12.02.2021
2639 Clouds 22 1016 94 10000 2.91 340 06:55 12.02.2021
2640 Clouds 22 1016 94 10000 2.91 340 06:55 12.02.2021
2641 Clouds 22 1016 94 10000 2.91 340 06:55 12.02.2021
2642 Clouds 23 1016 88 10000 2.77 339 05:47 12.02.2021
2643 Clouds 23 1016 88 10000 2.06 70 04:31 12.02.2021
2644 Clouds 25 1015 83 10000 2.57 60 01:32 12.02.2021
2645 Clouds 27 1014 69 10000 3.09 130 23:41 11.02.2021
2646 Clouds 26 1014 88 5000 3.58 50 23:22 11.02.2021
2647 Clouds 27 1014 88 5000 3.58 50 22:46 11.02.2021
2648 Clouds 26 1014 88 5000 3.82 71 22:24 11.02.2021
2649 Clouds 28 1015 65 10000 4.12 360 21:57 11.02.2021
2650 Clouds 29 1015 65 10000 4.12 360 21:36 11.02.2021
2651 Clouds 29 1015 65 10000 4.12 360 21:18 11.02.2021
2652 Clouds 28 1016 78 10000 4.12 90 20:41 11.02.2021
2653 Clouds 28 1016 78 10000 4.12 90 20:21 11.02.2021
2654 Clouds 27 1017 88 10000 4.12 90 19:47 11.02.2021
2655 Clouds 27 1017 88 10000 4.12 90 19:27 11.02.2021
2656 Clouds 29 1018 66 10000 4.12 90 18:49 11.02.2021
2657 Clouds 29 1018 66 10000 4.12 90 18:25 11.02.2021
2658 Clouds 29 1018 62 10000 3.09 30 17:51 11.02.2021
2659 Clouds 29 1018 62 10000 3.09 30 17:22 11.02.2021
2660 Clouds 28 1018 74 10000 3.09 30 16:53 11.02.2021
2661 Clouds 29 1018 74 10000 3.09 30 16:34 11.02.2021
2662 Clouds 26 1018 83 10000 2.57 360 15:58 11.02.2021
2663 Clouds 26 1018 83 10000 2.57 360 15:38 11.02.2021
2664 Clouds 26 1018 83 10000 2.57 360 15:20 11.02.2021
2665 Clouds 24 1017 88 10000 2.57 320 14:38 11.02.2021
2666 Clouds 24 1017 88 10000 2.57 320 14:19 11.02.2021
2667 Clouds 23 1016 94 10000 3.02 9 13:37 11.02.2021
2668 Clouds 23 1016 94 10000 2.66 2 13:18 11.02.2021
2669 Clouds 21 1016 94 10000 2.06 20 12:37 11.02.2021
2670 Clouds 21 1015 100 10000 2.06 10 11:58 11.02.2021
2671 Clouds 21 1015 100 10000 2.06 10 11:40 11.02.2021
2672 Clouds 21 1015 100 10000 2.06 10 11:20 11.02.2021
2673 Clouds 21 1015 100 10000 2.06 10 10:42 11.02.2021
2674 Clouds 22 1015 100 10000 2.06 10 10:22 11.02.2021
2675 Rain 22 1015 94 10000 2.06 20 09:42 11.02.2021
2676 Rain 22 1015 94 10000 2.06 20 09:19 11.02.2021
2677 Rain 22 1016 88 10000 2.06 20 08:49 11.02.2021
2678 Clouds 22 1016 94 10000 2.06 20 07:54 11.02.2021
2679 Clouds 23 1017 88 10000 3.09 20 06:48 11.02.2021
2680 Clouds 23 1017 88 10000 3.09 20 06:25 11.02.2021
2681 Clouds 25 1017 83 10000 3.09 80 03:47 11.02.2021
2682 Clouds 25 1016 83 10000 4.12 80 02:26 11.02.2021
2683 Clouds 27 1015 74 10000 2.06 50 00:24 11.02.2021
2684 Clouds 28 1015 74 10000 3.09 130 23:59 10.02.2021
2685 Clouds 28 1015 65 10000 4.12 180 23:28 10.02.2021
2686 Clouds 28 1015 65 10000 4.12 180 22:48 10.02.2021
2687 Clouds 28 1015 65 10000 4.12 180 22:24 10.02.2021
2688 Clouds 29 1016 62 10000 5.14 180 21:40 10.02.2021
2689 Clouds 29 1016 62 10000 5.14 180 21:21 10.02.2021
2690 Clouds 29 1016 62 10000 5.14 360 20:52 10.02.2021
2691 Clouds 29 1016 62 10000 5.14 360 20:29 10.02.2021
2692 Clouds 29 1017 62 10000 5.14 40 19:57 10.02.2021
2693 Clouds 29 1017 62 10000 5.14 40 19:39 10.02.2021
2694 Clouds 29 1017 62 10000 5.14 40 19:19 10.02.2021
2695 Clouds 29 1019 65 10000 4.12 20 18:36 10.02.2021
2696 Clouds 28 1019 65 10000 4.12 20 18:18 10.02.2021
2697 Clouds 29 1019 65 10000 4.12 20 17:44 10.02.2021
2698 Clouds 29 1019 65 10000 4.12 20 17:21 10.02.2021
2699 Clouds 29 1019 65 10000 4.12 20 17:21 10.02.2021
2700 Clouds 29 1019 69 10000 5.14 360 16:48 10.02.2021
2701 Clouds 28 1019 69 10000 5.14 360 16:28 10.02.2021
2702 Clouds 27 1018 74 10000 5.14 360 15:39 10.02.2021
2703 Clouds 27 1018 74 10000 5.14 360 15:21 10.02.2021
2704 Clouds 26 1018 78 10000 5.14 360 14:39 10.02.2021
2705 Clouds 24 1017 94 10000 3.09 360 13:55 10.02.2021
2706 Clouds 23 1017 94 10000 3.09 360 13:31 10.02.2021
2707 Clouds 23 1017 94 10000 3.09 360 13:31 10.02.2021
2708 Clouds 23 1017 88 10000 2.06 20 12:55 10.02.2021
2709 Clouds 23 1017 88 10000 2.06 20 12:31 10.02.2021
2710 Clouds 23 1016 88 10000 2.06 20 11:59 10.02.2021
2711 Clouds 23 1016 88 10000 2.06 20 11:40 10.02.2021
2712 Clouds 23 1016 88 10000 2.06 20 11:22 10.02.2021
2713 Clouds 23 1016 94 10000 2.06 10 10:37 10.02.2021
2714 Clouds 23 1016 94 10000 2.06 10 10:18 10.02.2021
2715 Clouds 23 1016 94 10000 2.06 10 10:18 10.02.2021
2716 Clouds 23 1016 83 10000 2.06 10 09:35 10.02.2021
2717 Clouds 23 1016 83 10000 2.06 10 08:57 10.02.2021
2718 Clouds 23 1016 83 10000 2.06 10 08:39 10.02.2021
2719 Clouds 23 1017 83 10000 2.06 30 07:52 10.02.2021
2720 Clouds 23 1017 83 10000 2.06 30 06:44 10.02.2021
2721 Clouds 25 1017 73 10000 2.06 80 02:26 10.02.2021
2722 Clouds 27 1016 73 10000 2.06 120 00:24 10.02.2021
2723 Clouds 29 1015 66 10000 5.14 180 23:34 09.02.2021
2724 Clouds 29 1015 66 10000 5.14 180 22:54 09.02.2021
2725 Clouds 29 1015 66 10000 5.14 180 22:24 09.02.2021
2726 Clouds 29 1015 58 10000 5.14 180 21:52 09.02.2021
2727 Clouds 30 1015 58 10000 5.14 180 21:27 09.02.2021
2728 Clouds 30 1016 55 10000 4.12 80 20:49 09.02.2021
2729 Clouds 30 1016 55 10000 4.12 80 20:26 09.02.2021
2730 Clouds 30 1017 51 10000 5.14 90 19:58 09.02.2021
2731 Clouds 30 1017 51 10000 5.14 90 19:35 09.02.2021
2732 Clouds 31 1017 51 10000 5.14 90 18:58 09.02.2021
2733 Clouds 31 1017 51 10000 5.14 90 18:58 09.02.2021
2734 Clouds 31 1017 51 10000 5.14 90 18:58 09.02.2021
2735 Clouds 30 1018 66 10000 3.09 90 18:36 09.02.2021
2736 Clouds 29 1019 70 10000 4.12 80 17:57 09.02.2021
2737 Clouds 29 1019 70 10000 4.12 80 17:37 09.02.2021
2738 Clouds 29 1019 70 10000 4.12 80 17:18 09.02.2021
2739 Clouds 28 1020 74 10000 4.12 90 16:40 09.02.2021
2740 Clouds 28 1020 74 10000 4.12 90 16:18 09.02.2021
2741 Clouds 27 1020 78 10000 3.09 360 15:48 09.02.2021
2742 Clouds 27 1020 78 10000 3.09 360 15:24 09.02.2021
2743 Clouds 26 1019 88 10000 3.09 360 14:53 09.02.2021
2744 Clouds 25 1019 88 10000 3.09 360 14:27 09.02.2021
2745 Clouds 24 1018 94 10000 2.8 18 13:50 09.02.2021
2746 Clouds 23 1018 94 10000 2.75 360 13:25 09.02.2021
2747 Clouds 23 1017 94 10000 2.06 20 12:49 09.02.2021
2748 Clouds 22 1017 94 10000 2.06 20 12:31 09.02.2021
2749 Clouds 22 1017 100 10000 2.73 349 11:54 09.02.2021
2750 Clouds 22 1017 100 10000 2.73 349 11:36 09.02.2021
2751 Clouds 22 1017 100 10000 2.96 342 11:18 09.02.2021
2752 Clouds 22 1016 94 10000 2.96 342 10:41 09.02.2021
2753 Clouds 22 1016 94 10000 2.92 342 10:18 09.02.2021
2754 Clouds 22 1016 94 10000 2.92 342 09:42 09.02.2021
2755 Clouds 22 1016 94 10000 3.22 348 09:23 09.02.2021
2756 Clouds 23 1017 94 10000 3.22 348 08:37 09.02.2021
2757 Clouds 23 1017 94 10000 3.36 359 08:18 09.02.2021
2758 Clouds 24 1018 83 10000 3.6 30 05:55 09.02.2021
2759 Clouds 25 1018 78 10000 2.57 50 03:50 09.02.2021
2760 Clouds 25 1018 83 10000 2.57 50 02:27 09.02.2021
2761 Clouds 27 1016 74 10000 2.57 120 00:32 09.02.2021
2762 Clouds 27 1016 69 10000 4.63 150 23:54 08.02.2021
2763 Clouds 28 1016 66 10000 3.09 30 23:20 08.02.2021
2764 Clouds 29 1016 66 10000 3.09 30 22:43 08.02.2021
2765 Clouds 29 1016 66 10000 3.09 30 22:23 08.02.2021
2766 Clouds 29 1016 66 10000 3.03 108 21:53 08.02.2021
2767 Clouds 29 1016 66 10000 3.03 108 21:31 08.02.2021
2768 Clouds 29 1017 62 10000 6.17 30 20:57 08.02.2021
2769 Clouds 29 1017 62 10000 6.17 30 20:36 08.02.2021
2770 Clouds 29 1017 62 10000 6.17 30 20:18 08.02.2021
2771 Clouds 29 1017 62 10000 4.12 90 19:41 08.02.2021
2772 Clouds 29 1017 62 10000 4.12 90 19:22 08.02.2021
2773 Clouds 30 1018 62 10000 5.14 30 18:46 08.02.2021
2774 Clouds 30 1018 62 10000 5.14 30 18:19 08.02.2021
2775 Clouds 29 1018 62 10000 4.12 30 17:43 08.02.2021
2776 Clouds 29 1018 62 10000 4.12 30 17:24 08.02.2021
2777 Clouds 28 1019 69 10000 4.12 30 16:43 08.02.2021
2778 Clouds 28 1019 69 10000 4.12 30 16:43 08.02.2021
2779 Clouds 28 1019 69 10000 4.12 30 16:21 08.02.2021
2780 Clouds 27 1018 74 10000 4.12 360 15:42 08.02.2021
2781 Clouds 27 1018 74 10000 4.12 360 15:20 08.02.2021
2782 Clouds 25 1018 83 10000 3.24 42 14:51 08.02.2021
2783 Clouds 25 1018 83 10000 3.24 42 14:31 08.02.2021
2784 Clouds 23 1018 94 10000 3.28 21 13:56 08.02.2021
2785 Clouds 22 1018 94 10000 3.28 21 13:32 08.02.2021
2786 Clouds 23 1017 88 10000 2.06 40 12:53 08.02.2021
2787 Clouds 23 1017 88 10000 2.06 40 12:35 08.02.2021
2788 Clouds 23 1016 88 10000 2.57 40 11:47 08.02.2021
2789 Clouds 23 1016 88 10000 2.57 40 11:21 08.02.2021
2790 Clouds 23 1016 94 10000 2.06 30 10:44 08.02.2021
2791 Clouds 23 1016 94 10000 2.06 30 10:24 08.02.2021
2792 Clouds 23 1016 94 10000 2.06 30 10:24 08.02.2021
2793 Clouds 23 1016 94 10000 2.06 20 09:51 08.02.2021
2794 Clouds 23 1016 94 10000 2.06 20 09:30 08.02.2021
2795 Clouds 23 1016 94 10000 2.06 30 08:41 08.02.2021
2796 Clouds 23 1016 94 10000 2.06 30 08:18 08.02.2021
2797 Clouds 24 1017 88 10000 2.06 40 07:22 08.02.2021
2798 Clouds 23 1017 94 10000 2.06 50 05:59 08.02.2021
2799 Clouds 26 1017 78 10000 2.57 140 02:28 08.02.2021
2800 Clouds 26 1016 73 10000 2.06 130 01:18 08.02.2021
2801 Clouds 26 1015 73 10000 2.57 130 00:21 08.02.2021
2802 Clouds 27 1014 65 10000 2.57 130 23:48 07.02.2021
2803 Clouds 28 1014 66 10000 5.14 180 23:20 07.02.2021
2804 Clouds 28 1014 66 10000 5.14 180 22:45 07.02.2021
2805 Clouds 28 1014 66 10000 5.14 180 22:26 07.02.2021
2806 Clouds 29 1014 66 10000 5.14 180 21:52 07.02.2021
2807 Clouds 29 1014 66 10000 5.14 180 21:28 07.02.2021
2808 Clouds 29 1015 66 10000 5.14 180 20:54 07.02.2021
2809 Clouds 29 1015 66 10000 5.14 180 20:34 07.02.2021
2810 Clouds 29 1016 62 10000 5.14 180 19:55 07.02.2021
2811 Clouds 29 1016 62 10000 5.14 180 19:31 07.02.2021
2812 Clouds 29 1017 66 10000 5.14 130 18:56 07.02.2021
2813 Clouds 29 1017 66 10000 5.14 130 18:36 07.02.2021
2814 Clouds 29 1017 66 10000 5.14 130 18:36 07.02.2021
2815 Clouds 29 1017 66 10000 5.14 130 18:18 07.02.2021
2816 Clouds 29 1018 74 10000 4.12 90 17:44 07.02.2021
2817 Clouds 29 1018 74 10000 4.12 90 17:20 07.02.2021
2818 Clouds 29 1018 74 10000 4.12 90 17:20 07.02.2021
2819 Clouds 29 1019 74 10000 2.57 40 16:47 07.02.2021
2820 Clouds 28 1019 74 10000 2.57 40 16:26 07.02.2021
2821 Clouds 27 1018 78 10000 2.21 48 15:55 07.02.2021
2822 Clouds 27 1018 78 10000 2.21 48 15:37 07.02.2021
2823 Clouds 26 1018 78 10000 1.99 13 15:18 07.02.2021
2824 Clouds 25 1018 83 10000 1.99 13 14:39 07.02.2021
2825 Clouds 25 1018 83 10000 2.11 343 14:19 07.02.2021
2826 Clouds 23 1017 94 10000 2.11 343 13:36 07.02.2021
2827 Clouds 22 1016 94 10000 2.06 40 12:57 07.02.2021
2828 Clouds 22 1016 94 10000 2.06 40 12:37 07.02.2021
2829 Clouds 22 1016 94 10000 2.06 40 12:18 07.02.2021
2830 Clouds 22 1016 94 10000 2.06 20 11:28 07.02.2021
2831 Clouds 22 1015 88 10000 2.06 10 10:57 07.02.2021
2832 Clouds 22 1015 88 10000 2.06 10 10:27 07.02.2021
2833 Clouds 23 1016 88 10000 2.06 20 09:50 07.02.2021
2834 Clouds 23 1016 88 10000 2.06 20 09:25 07.02.2021
2835 Clouds 23 1016 88 10000 2.06 20 08:38 07.02.2021
2836 Clouds 22 1016 94 10000 2.6 330 07:47 07.02.2021
2837 Clouds 23 1018 88 10000 1.45 339 05:58 07.02.2021
2838 Clouds 23 1018 88 10000 1.45 339 05:58 07.02.2021
2839 Clouds 23 1017 78 10000 1.5 18 03:55 07.02.2021
2840 Clouds 26 1016 78 10000 2.57 130 01:51 07.02.2021
2841 Clouds 27 1016 73 10000 3.09 130 00:36 07.02.2021
2842 Clouds 27 1018 87 10000 2.19 117 23:48 06.02.2021
2843 Clouds 28 1015 62 10000 7.72 180 22:50 06.02.2021
2844 Clouds 29 1015 58 10000 6.17 180 21:45 06.02.2021
2845 Clouds 29 1015 58 10000 6.17 180 21:24 06.02.2021
2846 Clouds 29 1016 58 10000 6.17 180 20:53 06.02.2021
2847 Clouds 29 1016 58 10000 6.17 180 20:26 06.02.2021
2848 Clouds 29 1016 58 10000 5.14 180 19:59 06.02.2021
2849 Clouds 29 1016 58 10000 5.14 180 19:35 06.02.2021
2850 Clouds 29 1017 62 10000 4.12 360 18:59 06.02.2021
2851 Clouds 29 1017 62 10000 4.12 360 18:41 06.02.2021
2852 Clouds 29 1017 62 10000 4.12 360 18:20 06.02.2021
2853 Clouds 29 1020 83 10000 3.51 108 17:40 06.02.2021
2854 Clouds 29 1018 70 10000 5.14 150 17:20 06.02.2021
2855 Clouds 28 1018 70 10000 5.14 150 16:42 06.02.2021
2856 Clouds 28 1018 70 10000 5.14 150 16:24 06.02.2021
2857 Clouds 27 1018 78 10000 3.06 72 15:50 06.02.2021
2858 Clouds 27 1018 78 10000 2.99 58 15:29 06.02.2021
2859 Clouds 26 1017 83 10000 2.99 58 14:47 06.02.2021
2860 Clouds 25 1017 83 10000 2.64 25 14:28 06.02.2021
2861 Clouds 24 1016 94 10000 2.57 360 13:55 06.02.2021
2862 Clouds 23 1016 94 10000 2.57 360 13:36 06.02.2021
2863 Clouds 23 1017 94 10000 2.06 50 12:23 06.02.2021
2864 Clouds 24 1016 100 10000 2.06 40 11:58 06.02.2021
2865 Clouds 24 1016 100 10000 2.06 40 11:39 06.02.2021
2866 Clouds 23 1016 100 10000 2.06 40 11:19 06.02.2021
2867 Clouds 23 1016 94 10000 2.99 339 10:47 06.02.2021
2868 Clouds 23 1016 94 10000 2.77 333 10:25 06.02.2021
2869 Clouds 23 1016 94 10000 2.06 30 09:37 06.02.2021
2870 Clouds 23 1016 94 10000 2.06 30 09:18 06.02.2021
2871 Clouds 23 1016 88 10000 2.06 20 08:52 06.02.2021
2872 Clouds 23 1016 88 10000 2.06 20 08:28 06.02.2021
2873 Clouds 24 1017 94 10000 1.87 350 06:41 06.02.2021
2874 Clouds 25 1017 88 10000 2.06 60 05:33 06.02.2021
2875 Clear 27 1019 97 10000 0.85 26 02:43 06.02.2021
2876 Clouds 27 1018 100 10000 0.6 61 00:49 06.02.2021
2877 Clouds 27 1018 100 10000 1.24 119 00:21 06.02.2021
2878 Clouds 27 1017 97 10000 1.24 119 23:59 05.02.2021
2879 Clouds 27 1015 65 10000 5.14 180 23:29 05.02.2021
2880 Clouds 28 1015 65 10000 5.14 180 22:49 05.02.2021
2881 Clouds 28 1015 65 10000 5.14 180 22:24 05.02.2021
2882 Clouds 29 1015 62 10000 5.14 180 21:52 05.02.2021
2883 Clouds 29 1015 62 10000 5.14 180 21:30 05.02.2021
2884 Clouds 29 1016 58 10000 5.14 180 20:48 05.02.2021
2885 Clouds 29 1016 62 10000 5.14 180 19:57 05.02.2021
2886 Clouds 30 1016 62 10000 5.14 180 19:25 05.02.2021
2887 Clouds 29 1016 62 10000 5.14 180 18:55 05.02.2021
2888 Clouds 29 1016 62 10000 5.14 180 18:29 05.02.2021
2889 Clouds 29 1017 66 10000 3.09 70 17:56 05.02.2021
2890 Clouds 29 1017 66 10000 3.09 70 17:34 05.02.2021
2891 Clouds 29 1018 65 10000 3.09 90 16:57 05.02.2021
2892 Clouds 28 1018 65 10000 3.09 90 16:38 05.02.2021
2893 Clouds 28 1018 65 10000 3.09 90 16:19 05.02.2021
2894 Clouds 27 1017 74 10000 2.27 67 15:31 05.02.2021
2895 Clouds 26 1017 83 10000 2.31 36 14:59 05.02.2021
2896 Clouds 25 1017 83 10000 2.31 36 14:38 05.02.2021
2897 Clouds 25 1017 83 10000 2.64 1 14:18 05.02.2021
2898 Clouds 23 1016 94 10000 2.64 1 13:42 05.02.2021
2899 Clouds 23 1016 94 10000 2.52 347 13:20 05.02.2021
2900 Clouds 23 1016 94 10000 2.06 290 12:41 05.02.2021
2901 Clouds 22 1016 94 10000 2.57 280 11:59 05.02.2021
2902 Clouds 22 1016 94 10000 2.57 280 11:38 05.02.2021
2903 Clouds 22 1016 94 10000 2.57 280 11:19 05.02.2021
2904 Clouds 23 1015 88 10000 2.06 270 10:46 05.02.2021
2905 Clouds 23 1015 88 10000 2.06 270 10:24 05.02.2021
2906 Clouds 23 1018 99 10000 2.83 348 09:42 05.02.2021
2907 Clouds 23 1018 99 10000 2.75 350 09:23 05.02.2021
2908 Clouds 24 1018 99 10000 2.75 350 08:40 05.02.2021
2909 Clouds 24 1018 99 10000 2.85 351 07:41 05.02.2021
2910 Clouds 24 1018 99 10000 2.68 351 07:21 05.02.2021
2911 Clouds 24 1019 99 10000 2.44 354 06:28 05.02.2021
2912 Clouds 24 1019 99 10000 2.44 354 05:32 05.02.2021
2913 Clouds 24 1019 100 10000 3.45 11 02:25 05.02.2021
2914 Clear 26 1018 93 10000 3.69 12 00:58 05.02.2021
2915 Clear 26 1018 93 10000 3.69 12 00:36 05.02.2021
2916 Clear 26 1018 93 10000 3.55 22 00:18 05.02.2021
2917 Clear 27 1017 87 10000 3.55 22 23:40 04.02.2021
2918 Clouds 28 1014 65 10000 4.12 360 23:22 04.02.2021
2919 Clouds 28 1014 65 10000 4.12 360 22:54 04.02.2021
2920 Clouds 29 1014 65 10000 4.12 360 22:30 04.02.2021
2921 Clouds 30 1014 62 10000 5.14 360 21:43 04.02.2021
2922 Clouds 30 1014 62 10000 5.14 360 21:43 04.02.2021
2923 Clouds 30 1014 62 10000 5.14 360 21:23 04.02.2021
2924 Clouds 30 1015 58 10000 5.14 30 20:56 04.02.2021
2925 Clouds 30 1015 58 10000 5.14 30 20:34 04.02.2021
2926 Clouds 29 1016 66 10000 5.14 360 19:51 04.02.2021
2927 Clouds 29 1016 66 10000 5.14 360 19:23 04.02.2021
2928 Clouds 29 1016 62 10000 5.14 360 18:40 04.02.2021
2929 Clouds 29 1016 62 10000 5.14 360 18:21 04.02.2021
2930 Clouds 28 1017 65 10000 5.14 360 17:45 04.02.2021
2931 Clouds 28 1017 65 10000 5.14 360 17:21 04.02.2021
2932 Clouds 28 1017 65 10000 5.14 270 16:48 04.02.2021
2933 Clouds 27 1017 65 10000 5.14 270 16:19 04.02.2021
2934 Clouds 26 1017 78 10000 5.14 360 15:41 04.02.2021
2935 Clouds 26 1017 78 10000 5.14 360 15:41 04.02.2021
2936 Clouds 26 1017 78 10000 5.14 360 15:21 04.02.2021
2937 Clouds 25 1016 83 10000 4.12 360 14:56 04.02.2021
2938 Clouds 24 1016 83 10000 4.12 360 14:37 04.02.2021
2939 Clouds 24 1016 83 10000 4.12 360 14:19 04.02.2021
2940 Clouds 22 1016 94 10000 2.06 360 13:41 04.02.2021
2941 Clouds 22 1016 94 10000 3.09 20 12:57 04.02.2021
2942 Clouds 22 1016 94 10000 3.09 20 12:21 04.02.2021
2943 Clouds 22 1015 88 10000 3.09 20 11:50 04.02.2021
2944 Clouds 22 1015 88 10000 3.09 20 11:32 04.02.2021
2945 Clouds 22 1015 94 10000 2.06 10 10:44 04.02.2021
2946 Clouds 22 1015 94 10000 2.06 10 10:18 04.02.2021
2947 Clouds 22 1014 94 10000 2.06 10 09:43 04.02.2021
2948 Clouds 22 1015 88 10000 2.88 354 09:18 04.02.2021
2949 Clear 23 1017 100 10000 2.88 354 08:41 04.02.2021
2950 Clear 23 1017 100 10000 3.1 352 08:20 04.02.2021
2951 Clear 23 1018 100 10000 3.1 352 07:41 04.02.2021
2952 Clouds 23 1018 100 10000 3.78 355 06:55 04.02.2021
2953 Clouds 23 1018 100 10000 3.78 355 06:35 04.02.2021
2954 Clouds 24 1018 100 10000 4.2 353 03:53 04.02.2021
2955 Clouds 25 1015 78 10000 4.12 30 02:25 04.02.2021
2956 Clouds 27 1014 69 10000 2.06 100 00:35 04.02.2021
2957 Clouds 28 1013 62 10000 5.14 180 23:39 03.02.2021
2958 Clouds 29 1013 62 10000 5.14 180 22:43 03.02.2021
2959 Clouds 29 1013 62 10000 5.14 180 22:22 03.02.2021
2960 Clouds 29 1013 66 10000 5.14 180 21:57 03.02.2021
2961 Clouds 29 1013 66 10000 5.14 180 21:36 03.02.2021
2962 Clouds 29 1013 66 10000 5.14 180 21:18 03.02.2021
2963 Clouds 30 1013 62 10000 5.14 180 20:38 03.02.2021
2964 Clouds 29 1013 62 10000 5.14 180 20:19 03.02.2021
2965 Clouds 30 1014 55 10000 5.14 180 19:42 03.02.2021
2966 Clouds 30 1014 55 10000 5.14 180 19:19 03.02.2021
2967 Clouds 30 1014 62 10000 1.95 111 18:46 03.02.2021
2968 Clouds 30 1014 62 10000 1.7 79 18:19 03.02.2021
2969 Clouds 29 1015 70 10000 1.7 79 17:49 03.02.2021
2970 Clouds 29 1015 70 10000 1.7 79 17:30 03.02.2021
2971 Clouds 29 1016 74 10000 1.78 54 16:52 03.02.2021
2972 Clouds 28 1016 74 10000 2.12 42 16:27 03.02.2021
2973 Clouds 26 1015 83 10000 2.12 42 15:45 03.02.2021
2974 Clouds 26 1015 83 10000 2.04 21 15:25 03.02.2021
2975 Clouds 24 1015 88 10000 2.04 21 14:53 03.02.2021
2976 Clouds 24 1015 88 10000 2.01 357 14:25 03.02.2021
2977 Clouds 23 1014 100 10000 2.01 357 13:54 03.02.2021
2978 Clouds 22 1014 100 10000 1.91 348 13:26 03.02.2021
2979 Clouds 22 1014 94 10000 2.06 330 12:47 03.02.2021
2980 Clouds 20 1014 94 10000 2.06 330 12:24 03.02.2021
2981 Clouds 20 1013 100 10000 2.06 330 11:49 03.02.2021
2982 Clouds 20 1013 100 10000 2.06 330 11:28 03.02.2021
2983 Clouds 21 1013 94 10000 2.06 320 10:53 03.02.2021
2984 Clouds 21 1013 94 10000 2.06 320 10:21 03.02.2021
2985 Clouds 21 1013 94 10000 1.8 343 09:47 03.02.2021
2986 Clouds 21 1013 94 10000 1.72 343 09:27 03.02.2021
2987 Clouds 22 1013 88 10000 2.06 330 08:52 03.02.2021
2988 Clouds 22 1013 88 10000 2.06 330 08:24 03.02.2021
2989 Clouds 22 1013 88 10000 1.53 341 07:39 03.02.2021
2990 Clouds 24 1014 88 10000 1.7 329 06:40 03.02.2021
2991 Clouds 23 1014 83 10000 1.11 317 04:52 03.02.2021
2992 Clouds 23 1014 83 10000 0.84 286 04:29 03.02.2021
2993 Clouds 25 1013 78 10000 0.99 241 02:53 03.02.2021
2994 Clouds 26 1013 78 10000 1.46 199 02:23 03.02.2021
2995 Clouds 27 1012 78 10000 2.06 70 00:27 03.02.2021
2996 Clouds 27 1012 69 10000 3.09 70 23:48 02.02.2021
2997 Clouds 27 1012 69 10000 5.14 180 23:28 02.02.2021
2998 Clouds 27 1012 69 10000 5.14 180 22:59 02.02.2021
2999 Clouds 28 1012 69 10000 5.14 180 22:22 02.02.2021
3000 Clouds 28 1013 70 10000 5.14 160 21:55 02.02.2021
3001 Clouds 29 1013 70 10000 5.14 160 21:30 02.02.2021
3002 Clouds 29 1013 66 10000 6.17 180 20:59 02.02.2021
3003 Clouds 29 1013 66 10000 6.17 180 20:41 02.02.2021
3004 Clouds 29 1013 66 10000 6.17 180 20:18 02.02.2021
3005 Clouds 29 1013 66 10000 6.17 180 20:18 02.02.2021
3006 Clouds 29 1013 70 10000 5.14 180 19:42 02.02.2021
3007 Clouds 29 1013 70 10000 5.14 180 19:23 02.02.2021
3008 Clouds 29 1014 78 10000 5.14 180 18:44 02.02.2021
3009 Clouds 29 1014 78 10000 5.14 180 18:25 02.02.2021
3010 Clouds 28 1014 78 10000 5.14 180 17:49 02.02.2021
3011 Clouds 28 1014 78 10000 5.14 180 17:22 02.02.2021
3012 Clouds 28 1015 78 10000 5.14 190 16:56 02.02.2021
3013 Clouds 28 1015 78 10000 5.14 190 16:37 02.02.2021
3014 Clouds 28 1014 74 10000 5.14 180 15:58 02.02.2021
3015 Clouds 28 1014 74 10000 5.14 180 15:40 02.02.2021
3016 Clouds 28 1014 74 10000 5.14 180 15:20 02.02.2021
3017 Clouds 26 1014 83 10000 3.88 166 14:39 02.02.2021
3018 Clouds 26 1014 83 10000 2.95 168 14:18 02.02.2021
3019 Clouds 26 1013 88 10000 2.95 168 13:44 02.02.2021
3020 Clouds 25 1013 88 10000 1.93 186 13:25 02.02.2021
3021 Clouds 25 1013 94 8000 2.06 60 12:55 02.02.2021
3022 Clouds 22 1013 94 8000 2.06 60 12:26 02.02.2021
3023 Clouds 22 1012 94 10000 2.06 30 11:41 02.02.2021
3024 Clouds 22 1012 94 10000 2.06 30 11:19 02.02.2021
3025 Clouds 22 1012 100 10000 2.06 30 10:47 02.02.2021
3026 Clouds 24 1012 100 10000 2.06 30 10:26 02.02.2021
3027 Clouds 24 1012 94 8000 2.06 40 09:46 02.02.2021
3028 Clouds 24 1012 94 8000 2.06 40 09:24 02.02.2021
3029 Clouds 24 1013 94 10000 2.06 60 08:43 02.02.2021
3030 Clouds 24 1013 94 10000 1.1 212 07:51 02.02.2021
3031 Clouds 25 1013 94 10000 1.47 173 07:26 02.02.2021
3032 Clouds 25 1014 88 10000 2.06 140 06:40 02.02.2021
3033 Clouds 25 1014 88 10000 1.6 169 05:51 02.02.2021
3034 Clouds 26 1015 88 10000 1.52 174 04:21 02.02.2021
3035 Clouds 25 1015 88 10000 2.12 177 02:25 02.02.2021
3036 Clouds 26 1014 83 10000 2.29 166 00:49 02.02.2021
3037 Clouds 26 1014 83 10000 2.78 159 00:18 02.02.2021
3038 Clouds 27 1014 74 10000 4.12 150 23:18 01.02.2021
3039 Clouds 28 1014 74 10000 4.12 150 22:39 01.02.2021
3040 Clouds 28 1014 74 10000 4.12 150 22:20 01.02.2021
3041 Clouds 28 1013 74 10000 5.14 180 21:46 01.02.2021
3042 Clouds 28 1013 74 10000 5.14 180 21:22 01.02.2021
3043 Clouds 28 1014 83 7000 4.12 160 20:43 01.02.2021
3044 Clouds 28 1014 83 7000 4.12 160 20:24 01.02.2021
3045 Clouds 29 1015 66 10000 5.14 180 19:48 01.02.2021
3046 Clouds 29 1015 66 10000 5.14 180 19:21 01.02.2021
3047 Clouds 29 1016 66 10000 6.17 180 18:56 01.02.2021
3048 Clouds 28 1016 66 10000 6.17 180 18:37 01.02.2021
3049 Clouds 28 1016 66 10000 6.17 180 18:19 01.02.2021
3050 Clouds 28 1018 78 10000 2.57 150 17:41 01.02.2021
3051 Clouds 28 1018 78 10000 2.57 150 17:19 01.02.2021
3052 Clouds 28 1018 78 10000 2.57 150 16:33 01.02.2021
3053 Clouds 25 1018 83 10000 1.86 126 15:56 01.02.2021
3054 Clouds 25 1018 83 10000 1.86 126 15:37 01.02.2021
3055 Clouds 25 1018 83 10000 0.94 48 15:19 01.02.2021
3056 Clouds 24 1017 94 10000 0.94 48 14:46 01.02.2021
3057 Clouds 22 1016 94 10000 1.35 345 13:57 01.02.2021
3058 Clouds 22 1016 94 10000 1.35 345 13:38 01.02.2021
3059 Clouds 22 1016 94 10000 1.46 353 13:20 01.02.2021
3060 Clouds 21 1016 100 10000 2.06 10 12:44 01.02.2021
3061 Clouds 21 1016 100 10000 2.06 10 12:44 01.02.2021
3062 Clouds 21 1016 100 10000 2.06 10 12:23 01.02.2021
3063 Clouds 22 1016 94 10000 2.06 10 11:42 01.02.2021
3064 Clouds 22 1016 94 10000 2.06 10 11:20 01.02.2021
3065 Clouds 22 1015 94 10000 2.06 10 10:46 01.02.2021
3066 Clouds 22 1015 94 10000 2.06 10 10:20 01.02.2021
3067 Clouds 22 1015 94 10000 2.06 20 09:45 01.02.2021
3068 Clouds 22 1015 94 10000 2.06 20 09:25 01.02.2021
3069 Clouds 22 1015 88 10000 2.06 10 08:54 01.02.2021
3070 Clouds 22 1016 88 10000 2.06 20 07:53 01.02.2021
3071 Clouds 22 1017 88 10000 2.06 20 06:43 01.02.2021
3072 Clouds 23 1018 88 7000 3.28 348 04:32 01.02.2021
3073 Clear 24 1020 94 10000 3.08 5 01:46 01.02.2021
3074 Clouds 26 1016 69 10000 4.12 330 23:46 31.01.2021
3075 Clouds 26 1016 78 10000 5.14 360 22:45 31.01.2021
3076 Clouds 26 1016 78 10000 5.14 360 22:25 31.01.2021
3077 Clouds 26 1017 74 10000 5.14 360 21:57 31.01.2021
3078 Clouds 26 1017 74 10000 5.14 360 21:37 31.01.2021
3079 Clouds 26 1017 74 10000 5.14 360 21:37 31.01.2021
3080 Clouds 26 1017 74 10000 5.14 360 21:18 31.01.2021
3081 Clouds 27 1017 69 10000 5.14 360 20:40 31.01.2021
3082 Clouds 27 1017 69 10000 5.14 360 20:18 31.01.2021
3083 Clouds 26 1018 74 10000 5.14 360 19:37 31.01.2021
3084 Clouds 26 1018 74 10000 5.14 360 19:19 31.01.2021
3085 Clouds 27 1018 74 10000 5.14 360 18:44 31.01.2021
3086 Clouds 27 1018 74 10000 5.14 360 18:24 31.01.2021
3087 Clouds 26 1019 73 10000 5.14 360 17:49 31.01.2021
3088 Clouds 26 1019 73 10000 5.14 360 17:24 31.01.2021
3089 Clouds 25 1020 73 10000 5.14 360 16:58 31.01.2021
3090 Clouds 25 1020 73 10000 5.14 360 16:39 31.01.2021
3091 Clouds 25 1020 73 10000 5.14 360 16:19 31.01.2021
3092 Clouds 24 1020 83 10000 5.14 360 15:43 31.01.2021
3093 Clouds 23 1019 88 10000 4.12 360 14:50 31.01.2021
3094 Clouds 23 1019 88 10000 4.12 360 14:28 31.01.2021
3095 Clouds 22 1019 94 8000 3.09 360 13:57 31.01.2021
3096 Clouds 22 1019 94 8000 3.09 360 13:38 31.01.2021
3097 Clouds 22 1018 94 10000 5.14 40 12:56 31.01.2021
3098 Clouds 22 1018 94 10000 5.14 40 12:37 31.01.2021
3099 Clouds 22 1018 94 10000 5.14 40 12:19 31.01.2021
3100 Clouds 22 1017 88 10000 2.06 20 11:38 31.01.2021
3101 Clouds 22 1017 88 10000 2.06 20 11:19 31.01.2021
3102 Clouds 22 1017 88 10000 2.06 10 10:44 31.01.2021
3103 Clouds 22 1017 88 10000 2.06 10 10:25 31.01.2021
3104 Clouds 22 1017 88 10000 3.09 360 09:33 31.01.2021
3105 Clouds 21 1018 94 10000 2.06 360 08:34 31.01.2021
3106 Clouds 22 1018 88 10000 3.09 10 07:50 31.01.2021
3107 Clouds 22 1019 94 10000 2.06 10 06:25 31.01.2021
3108 Clouds 23 1018 94 10000 3.09 40 01:55 31.01.2021
3109 Clouds 24 1017 88 10000 3.09 40 00:28 31.01.2021
3110 Clouds 25 1017 73 10000 5.14 360 23:34 30.01.2021
3111 Clouds 26 1017 73 10000 5.14 360 22:59 30.01.2021
3112 Clouds 26 1017 73 10000 5.14 360 22:37 30.01.2021
3113 Clouds 26 1017 73 10000 5.14 360 22:37 30.01.2021
3114 Clouds 27 1017 74 10000 5.14 360 21:43 30.01.2021
3115 Clouds 27 1017 74 10000 5.14 360 21:23 30.01.2021
3116 Clouds 27 1018 78 8000 5.14 360 20:54 30.01.2021
3117 Clouds 27 1018 78 8000 5.14 360 20:34 30.01.2021
3118 Clouds 27 1017 78 10000 4.12 50 19:58 30.01.2021
3119 Clouds 27 1019 69 10000 5.14 360 19:39 30.01.2021
3120 Clouds 27 1019 69 10000 5.14 360 19:19 30.01.2021
3121 Clouds 27 1019 69 10000 5.14 360 18:40 30.01.2021
3122 Clouds 27 1019 69 10000 5.14 360 18:19 30.01.2021
3123 Clouds 27 1019 74 10000 5.14 330 17:37 30.01.2021
3124 Clouds 26 1019 74 10000 5.14 330 17:18 30.01.2021
3125 Clouds 26 1019 74 10000 5.14 360 16:37 30.01.2021
3126 Clouds 26 1019 74 10000 5.14 360 16:19 30.01.2021
3127 Clouds 25 1019 83 10000 5.14 360 15:44 30.01.2021
3128 Clouds 24 1019 83 10000 5.14 360 15:22 30.01.2021
3129 Clouds 23 1018 88 10000 3.09 360 14:52 30.01.2021
3130 Clouds 23 1018 88 10000 3.09 360 14:24 30.01.2021
3131 Clouds 21 1018 94 10000 3.09 360 13:42 30.01.2021
3132 Clouds 21 1018 94 10000 3.09 360 13:20 30.01.2021
3133 Clouds 22 1018 94 8000 3.09 270 12:42 30.01.2021
3134 Clouds 21 1017 94 8000 3.09 270 12:21 30.01.2021
3135 Clouds 21 1016 100 8000 2.06 290 11:40 30.01.2021
3136 Clouds 21 1016 94 8000 3.09 290 10:54 30.01.2021
3137 Clouds 22 1016 94 10000 2.06 270 09:54 30.01.2021
3138 Clouds 22 1016 94 10000 2.06 270 09:31 30.01.2021
3139 Clouds 22 1016 94 10000 3.09 360 08:56 30.01.2021
3140 Clouds 22 1016 94 10000 3.09 360 08:36 30.01.2021
3141 Clouds 22 1016 94 10000 3.09 360 07:23 30.01.2021
3142 Clouds 22 1016 94 10000 4.12 360 06:19 30.01.2021
3143 Clouds 23 1016 83 10000 2.06 20 03:35 30.01.2021
3144 Clouds 23 1015 83 10000 2.06 30 02:26 30.01.2021
3145 Clouds 24 1015 83 10000 2.06 20 01:35 30.01.2021
3146 Clouds 25 1014 78 10000 3.62 21 00:47 30.01.2021
3147 Clouds 25 1014 78 10000 3.24 39 00:21 30.01.2021
3148 Clouds 27 1014 69 10000 2.06 150 23:49 29.01.2021
3149 Clouds 29 1012 66 10000 5.14 360 23:24 29.01.2021
3150 Clouds 30 1012 66 10000 5.14 360 22:45 29.01.2021
3151 Clouds 29 1012 66 10000 5.14 360 22:20 29.01.2021
3152 Clouds 31 1012 62 10000 5.14 360 21:37 29.01.2021
3153 Clouds 31 1012 62 10000 5.14 360 21:19 29.01.2021
3154 Clouds 31 1014 58 10000 5.14 360 20:41 29.01.2021
3155 Clouds 31 1014 58 10000 5.14 360 20:21 29.01.2021
3156 Clouds 31 1014 58 10000 5.14 360 19:38 29.01.2021
3157 Clouds 30 1014 58 10000 5.14 360 19:19 29.01.2021
3158 Clouds 30 1015 62 10000 5.14 360 18:42 29.01.2021
3159 Clouds 29 1016 61 10000 6.17 360 17:45 29.01.2021
3160 Clouds 29 1016 61 10000 6.17 360 17:22 29.01.2021
3161 Clouds 28 1016 65 10000 6.17 360 16:47 29.01.2021
3162 Clouds 28 1016 65 10000 6.17 360 16:24 29.01.2021
3163 Clouds 26 1015 83 10000 5.14 360 15:51 29.01.2021
3164 Clouds 26 1015 83 10000 5.14 360 15:31 29.01.2021
3165 Clouds 25 1015 88 10000 4.57 10 14:56 29.01.2021
3166 Clouds 24 1015 88 10000 3.98 0 14:18 29.01.2021
3167 Clouds 22 1014 88 10000 3.98 0 13:44 29.01.2021
3168 Clouds 22 1014 88 10000 2.91 355 13:26 29.01.2021
3169 Clouds 22 1015 88 10000 2.57 30 12:29 29.01.2021
3170 Clouds 22 1014 88 10000 2.57 310 11:51 29.01.2021
3171 Clouds 22 1014 88 10000 2.57 310 11:20 29.01.2021
3172 Clouds 21 1014 94 10000 2.06 320 10:52 29.01.2021
3173 Clouds 21 1014 94 10000 2.06 320 10:33 29.01.2021
3174 Clouds 22 1014 88 10000 2.06 300 09:49 29.01.2021
3175 Clouds 22 1014 88 10000 2.06 300 09:28 29.01.2021
3176 Clouds 23 1014 88 10000 3.53 348 08:46 29.01.2021
3177 Clouds 23 1014 88 10000 3.76 348 08:22 29.01.2021
3178 Clouds 23 1016 94 10000 2.06 20 07:42 29.01.2021
3179 Clouds 23 1016 94 10000 2.06 20 07:22 29.01.2021
3180 Clouds 24 1015 88 10000 2.06 50 05:38 29.01.2021
3181 Clouds 23 1015 88 10000 2.27 342 03:50 29.01.2021
3182 Clouds 26 1014 78 10000 1.54 0 00:45 29.01.2021
3183 Clouds 26 1014 78 10000 1.54 0 00:22 29.01.2021
3184 Clouds 27 1013 69 10000 2.06 150 23:44 28.01.2021
3185 Clouds 28 1013 66 10000 5.14 180 23:25 28.01.2021
3186 Clouds 28 1013 66 10000 5.14 180 22:49 28.01.2021
3187 Clouds 28 1013 66 10000 5.14 180 22:28 28.01.2021
3188 Clouds 29 1013 66 10000 5.14 180 21:58 28.01.2021
3189 Clouds 29 1013 66 10000 5.14 180 21:38 28.01.2021
3190 Clouds 29 1013 66 10000 5.14 180 21:20 28.01.2021
3191 Clouds 29 1014 66 10000 5.14 150 20:39 28.01.2021
3192 Clouds 29 1014 66 10000 5.14 150 20:18 28.01.2021
3193 Clouds 29 1015 66 10000 5.14 150 19:46 28.01.2021
3194 Clouds 29 1015 66 10000 5.14 150 19:23 28.01.2021
3195 Clouds 29 1016 62 10000 5.14 130 18:45 28.01.2021
3196 Clouds 29 1016 62 10000 5.14 130 18:27 28.01.2021
3197 Clouds 29 1017 65 10000 5.14 110 17:47 28.01.2021
3198 Clouds 29 1017 65 10000 5.14 110 17:28 28.01.2021
3199 Clouds 28 1018 69 10000 2.57 90 16:45 28.01.2021
3200 Clouds 27 1018 69 10000 2.57 90 16:25 28.01.2021
3201 Clouds 26 1018 78 10000 2.32 48 15:51 28.01.2021
3202 Clouds 26 1018 78 10000 2.56 12 15:20 28.01.2021
3203 Clouds 25 1017 83 10000 2.56 12 14:42 28.01.2021
3204 Clouds 24 1017 83 10000 2.84 350 14:23 28.01.2021
3205 Clouds 23 1017 94 10000 2.84 350 13:49 28.01.2021
3206 Clouds 22 1017 94 10000 2.38 336 13:19 28.01.2021
3207 Clouds 21 1016 94 10000 2.06 10 12:45 28.01.2021
3208 Clouds 21 1016 94 10000 2.06 10 12:21 28.01.2021
3209 Clouds 22 1016 88 10000 2.06 10 11:44 28.01.2021
3210 Clouds 22 1016 88 10000 2.06 10 11:44 28.01.2021
3211 Clouds 22 1016 88 10000 2.06 10 11:20 28.01.2021
3212 Clouds 22 1016 94 10000 2.06 10 10:54 28.01.2021
3213 Clouds 22 1016 94 10000 2.06 10 10:35 28.01.2021
3214 Clouds 22 1016 94 10000 2.06 30 09:59 28.01.2021
3215 Clouds 22 1016 94 10000 2.06 30 09:30 28.01.2021
3216 Clouds 23 1016 88 10000 2.06 20 08:57 28.01.2021
3217 Clouds 23 1016 88 10000 2.06 20 08:38 28.01.2021
3218 Clouds 23 1017 88 10000 1.54 20 07:45 28.01.2021
3219 Clouds 23 1017 94 10000 2.39 359 06:51 28.01.2021
3220 Clouds 23 1017 94 10000 2.39 359 06:30 28.01.2021
3221 Clouds 24 1017 88 10000 2.05 9 04:30 28.01.2021
3222 Clouds 26 1016 78 10000 1.54 140 01:40 28.01.2021
3223 Clear 26 1018 91 10000 1.94 106 23:54 27.01.2021
3224 Clouds 28 1014 62 10000 4.12 120 23:24 27.01.2021
3225 Clouds 28 1014 62 10000 4.12 120 23:24 27.01.2021
3226 Clouds 28 1014 62 10000 4.12 120 22:43 27.01.2021
3227 Clouds 29 1014 62 10000 4.12 120 22:22 27.01.2021
3228 Clouds 29 1016 62 10000 4.12 120 21:44 27.01.2021
3229 Clouds 29 1016 62 10000 4.12 120 21:24 27.01.2021
3230 Clouds 29 1016 58 10000 3.09 60 20:55 27.01.2021
3231 Clouds 29 1016 58 10000 3.09 60 20:30 27.01.2021
3232 Clouds 29 1017 62 10000 5.14 360 19:56 27.01.2021
3233 Clouds 29 1017 62 10000 5.14 360 19:36 27.01.2021
3234 Clouds 29 1017 62 10000 5.14 360 19:18 27.01.2021
3235 Clouds 29 1019 70 10000 5.14 360 18:40 27.01.2021
3236 Clouds 29 1019 70 10000 5.14 360 18:21 27.01.2021
3237 Clouds 28 1019 65 10000 5.14 360 17:39 27.01.2021
3238 Clouds 28 1019 65 10000 5.14 360 17:18 27.01.2021
3239 Clouds 27 1021 85 10000 3.19 58 16:43 27.01.2021
3240 Clouds 27 1021 88 10000 3.38 54 16:24 27.01.2021
3241 Clouds 26 1021 91 10000 3.38 54 15:49 27.01.2021
3242 Clouds 26 1021 94 10000 3.6 41 15:29 27.01.2021
3243 Clouds 25 1021 96 10000 3.6 41 14:39 27.01.2021
3244 Clouds 24 1021 100 10000 3.2 8 14:19 27.01.2021
3245 Clouds 23 1021 100 10000 3.2 8 13:40 27.01.2021
3246 Clouds 23 1018 84 10000 1.34 353 12:46 27.01.2021
3247 Clouds 23 1018 85 10000 1.34 354 12:25 27.01.2021
3248 Clouds 23 1017 85 10000 1.34 355 11:52 27.01.2021
3249 Clouds 23 1017 85 10000 1.34 353 11:26 27.01.2021
3250 Clouds 23 1017 85 10000 1.34 17 10:51 27.01.2021
3251 Clouds 23 1016 85 10000 0.89 355 10:26 27.01.2021
3252 Clouds 22 1016 86 10000 1.79 352 09:56 27.01.2021
3253 Clouds 22 1016 86 10000 1.34 349 09:29 27.01.2021
3254 Clouds 22 1016 86 10000 1.34 349 09:29 27.01.2021
3255 Clouds 22 1016 86 10000 1.34 345 08:47 27.01.2021
3256 Clouds 23 1016 85 10000 1.34 1 07:58 27.01.2021
3257 Clouds 23 1017 85 10000 1.34 357 07:38 27.01.2021
3258 Clouds 23 1017 85 10000 1.34 353 06:45 27.01.2021
3259 Clouds 23 1017 84 10000 1.34 354 05:56 27.01.2021
3260 Clouds 23 1017 84 10000 1.34 344 05:34 27.01.2021
3261 Clear 24 1020 97 10000 2.65 24 02:46 27.01.2021
3262 Clear 25 1020 96 10000 2.83 44 02:20 27.01.2021
3263 Clear 25 1020 94 10000 2.83 44 01:32 27.01.2021
3264 Clouds 26 1019 90 10000 2.38 54 00:27 27.01.2021
3265 Clouds 26 1016 72 10000 2.38 54 23:40 26.01.2021
3266 Clouds 26 1016 72 10000 2.38 54 23:40 26.01.2021
3267 Clouds 26 1019 87 10000 2.41 74 23:19 26.01.2021
3268 Clouds 26 1016 83 10000 2.41 74 22:39 26.01.2021
3269 Clouds 26 1016 83 10000 3.08 79 22:19 26.01.2021
3270 Clouds 26 1016 83 10000 3.08 79 21:51 26.01.2021
3271 Clouds 27 1016 83 10000 3.11 82 21:24 26.01.2021
3272 Clouds 26 1016 78 10000 3.09 180 20:43 26.01.2021
3273 Clouds 25 1016 78 10000 3.09 180 20:24 26.01.2021
3274 Clouds 26 1017 78 8000 3.09 180 19:51 26.01.2021
3275 Clouds 26 1017 78 8000 3.09 180 19:30 26.01.2021
3276 Clouds 26 1017 78 8000 3.09 180 19:30 26.01.2021
3277 Clouds 26 1018 74 10000 2.06 110 18:59 26.01.2021
3278 Clouds 26 1018 74 10000 2.06 110 18:41 26.01.2021
3279 Clouds 26 1018 74 10000 2.06 110 18:22 26.01.2021
3280 Clouds 27 1019 74 10000 2.06 90 17:47 26.01.2021
3281 Clouds 28 1019 74 10000 2.06 90 17:22 26.01.2021
3282 Clouds 27 1019 69 10000 2.06 40 16:51 26.01.2021
3283 Clouds 27 1019 69 10000 2.06 40 16:20 26.01.2021
3284 Clouds 26 1018 78 10000 4.12 360 15:51 26.01.2021
3285 Clouds 26 1018 78 10000 4.12 360 15:33 26.01.2021
3286 Clouds 24 1017 88 10000 2.84 32 14:49 26.01.2021
3287 Clouds 24 1017 88 10000 2.84 32 14:30 26.01.2021
3288 Clouds 22 1016 94 10000 2.73 3 13:48 26.01.2021
3289 Clouds 22 1016 94 10000 2.53 351 13:27 26.01.2021
3290 Clouds 21 1017 94 10000 2.06 280 12:45 26.01.2021
3291 Clouds 21 1017 94 10000 2.06 280 12:25 26.01.2021
3292 Clouds 22 1016 94 10000 2.06 270 11:59 26.01.2021
3293 Clouds 22 1016 94 10000 2.06 270 11:39 26.01.2021
3294 Clear 23 1016 80 10000 1.34 346 10:50 26.01.2021
3295 Clouds 22 1016 94 10000 1.54 280 10:31 26.01.2021
3296 Clouds 22 1016 94 10000 1.54 280 09:48 26.01.2021
3297 Clouds 22 1016 94 10000 1.54 280 09:28 26.01.2021
3298 Clouds 22 1016 94 10000 3.16 339 08:53 26.01.2021
3299 Clouds 22 1016 94 10000 3.16 339 08:34 26.01.2021
3300 Clear 22 1016 78 10000 0.89 348 07:50 26.01.2021
3301 Clouds 22 1017 94 10000 2.06 30 06:24 26.01.2021
3302 Clear 22 1017 79 10000 0.45 16 05:44 26.01.2021
3303 Clouds 23 1017 88 10000 2.06 40 05:23 26.01.2021
3304 Clouds 24 1017 78 10000 2.06 40 02:46 26.01.2021
3305 Clouds 27 1015 69 10000 3.09 30 00:57 26.01.2021
3306 Clouds 28 1015 65 10000 2.06 40 23:40 25.01.2021
3307 Clouds 28 1015 70 10000 5.14 30 23:18 25.01.2021
3308 Clouds 29 1015 70 10000 5.14 30 22:39 25.01.2021
3309 Clouds 29 1015 66 10000 3.95 48 21:52 25.01.2021
3310 Clouds 30 1015 66 10000 3.95 48 21:33 25.01.2021
3311 Clouds 30 1015 66 10000 4.12 90 20:52 25.01.2021
3312 Clouds 30 1015 66 10000 4.12 90 20:33 25.01.2021
3313 Clouds 30 1016 66 10000 5.14 90 19:52 25.01.2021
3314 Clouds 29 1016 66 10000 5.14 90 19:32 25.01.2021
3315 Clouds 29 1017 66 10000 4.12 360 18:49 25.01.2021
3316 Clouds 29 1017 66 10000 4.12 360 18:28 25.01.2021
3317 Clouds 28 1018 70 10000 5.14 40 17:59 25.01.2021
3318 Clouds 28 1018 70 10000 5.14 40 17:41 25.01.2021
3319 Clouds 28 1018 70 10000 5.14 40 17:23 25.01.2021
3320 Clouds 27 1019 74 10000 4.12 30 16:41 25.01.2021
3321 Clouds 27 1019 74 10000 4.12 30 16:22 25.01.2021
3322 Clouds 26 1018 83 10000 5.14 360 15:50 25.01.2021
3323 Clouds 26 1018 83 10000 5.14 360 15:50 25.01.2021
3324 Clouds 26 1018 83 10000 5.14 360 15:31 25.01.2021
3325 Clouds 25 1017 88 10000 4.39 31 14:50 25.01.2021
3326 Clouds 24 1017 88 10000 3.71 19 14:20 25.01.2021
3327 Clouds 24 1017 88 10000 3.71 19 14:20 25.01.2021
3328 Clouds 23 1017 94 10000 3.09 360 13:54 25.01.2021
3329 Clouds 23 1017 94 10000 3.09 360 13:54 25.01.2021
3330 Clouds 23 1017 94 10000 3.09 360 13:34 25.01.2021
3331 Clouds 22 1016 94 10000 3.07 3 12:46 25.01.2021
3332 Clouds 21 1016 94 10000 3.19 6 12:24 25.01.2021
3333 Clouds 22 1015 94 10000 3.19 6 11:55 25.01.2021
3334 Clouds 22 1015 94 10000 3.16 7 11:19 25.01.2021
3335 Clouds 22 1015 88 10000 2.06 290 10:42 25.01.2021
3336 Clouds 22 1015 88 10000 2.06 290 10:20 25.01.2021
3337 Clouds 22 1015 94 10000 3.11 9 09:46 25.01.2021
3338 Clouds 22 1015 94 10000 3.45 8 09:27 25.01.2021
3339 Clouds 23 1015 94 10000 3.45 8 08:30 25.01.2021
3340 Clouds 23 1016 94 10000 2.06 360 07:45 25.01.2021
3341 Clouds 23 1016 94 10000 2.06 360 07:25 25.01.2021
3342 Clouds 24 1019 96 10000 3.54 353 04:58 25.01.2021
3343 Clouds 26 1018 91 10000 3.1 15 01:34 25.01.2021
3344 Clouds 27 1017 94 10000 3.66 47 23:52 24.01.2021
3345 Clouds 27 1015 69 10000 5.14 30 23:20 24.01.2021
3346 Clouds 27 1015 69 10000 5.14 30 22:44 24.01.2021
3347 Clouds 28 1015 69 10000 5.14 30 22:25 24.01.2021
3348 Clouds 28 1015 65 10000 5.14 360 21:51 24.01.2021
3349 Clouds 29 1015 65 10000 5.14 360 21:24 24.01.2021
3350 Clouds 29 1015 62 10000 4.12 30 20:46 24.01.2021
3351 Clouds 30 1015 62 10000 4.12 30 20:22 24.01.2021
3352 Clouds 30 1016 62 10000 4.12 30 19:53 24.01.2021
3353 Clouds 30 1016 62 10000 4.12 30 19:53 24.01.2021
3354 Clouds 30 1016 62 10000 4.12 30 19:27 24.01.2021
3355 Clouds 29 1016 70 10000 4.12 360 18:59 24.01.2021
3356 Clouds 29 1016 70 10000 4.12 360 18:39 24.01.2021
3357 Clouds 29 1016 70 10000 4.12 360 18:20 24.01.2021
3358 Clouds 28 1017 69 10000 4.12 360 17:50 24.01.2021
3359 Clouds 28 1017 69 10000 4.12 360 17:29 24.01.2021
3360 Clouds 28 1017 74 10000 5.14 360 16:59 24.01.2021
3361 Clouds 27 1017 74 10000 5.14 360 16:39 24.01.2021
3362 Clouds 27 1017 74 10000 5.14 360 16:19 24.01.2021
3363 Clouds 26 1017 88 10000 2.06 360 15:43 24.01.2021
3364 Clouds 25 1017 88 10000 2.06 360 15:19 24.01.2021
3365 Clouds 24 1016 94 10000 3 7 14:43 24.01.2021
3366 Clouds 23 1016 94 10000 2.41 336 13:48 24.01.2021
3367 Clouds 21 1016 94 10000 2.41 336 13:30 24.01.2021
3368 Clouds 22 1016 94 10000 2.06 20 12:50 24.01.2021
3369 Clouds 22 1016 94 10000 2.06 20 12:21 24.01.2021
3370 Clouds 21 1015 94 10000 2.06 360 11:54 24.01.2021
3371 Clouds 21 1015 94 10000 2.06 360 11:25 24.01.2021
3372 Clouds 21 1015 94 10000 2.06 30 10:50 24.01.2021
3373 Clouds 21 1015 94 10000 2.06 30 10:29 24.01.2021
3374 Clouds 21 1015 94 10000 2.06 20 09:44 24.01.2021
3375 Clouds 21 1015 94 10000 2.06 20 09:18 24.01.2021
3376 Clouds 22 1015 94 10000 2.06 20 08:26 24.01.2021
3377 Clouds 25 1019 99 10000 2.63 9 03:48 24.01.2021
3378 Clouds 22 1016 94 10000 3.19 31 02:18 24.01.2021
3379 Clouds 27 1017 95 10000 2.05 99 00:28 24.01.2021
3380 Clouds 27 1017 95 10000 2.05 99 23:59 23.01.2021
3381 Clouds 27 1017 95 10000 2.05 99 23:59 23.01.2021
3382 Clouds 27 1014 70 10000 5.14 180 23:33 23.01.2021
3383 Clouds 28 1014 70 10000 5.14 180 22:58 23.01.2021
3384 Clouds 28 1014 70 10000 5.14 180 22:40 23.01.2021
3385 Clouds 29 1014 66 10000 5.14 180 21:58 23.01.2021
3386 Clouds 29 1014 66 10000 5.14 180 21:23 23.01.2021
3387 Clouds 29 1015 62 10000 2.06 60 20:51 23.01.2021
3388 Clouds 29 1015 62 10000 2.06 60 20:30 23.01.2021
3389 Clouds 30 1015 58 10000 2.86 100 19:47 23.01.2021
3390 Clouds 30 1015 58 10000 2.43 78 19:25 23.01.2021
3391 Clouds 29 1016 62 10000 2.06 40 18:59 23.01.2021
3392 Clouds 29 1016 62 10000 2.06 40 18:40 23.01.2021
3393 Clouds 30 1016 62 10000 2.06 40 18:20 23.01.2021
3394 Clouds 29 1017 65 10000 3.09 70 17:29 23.01.2021
3395 Clouds 28 1018 78 10000 2.63 58 16:52 23.01.2021
3396 Clouds 27 1018 78 10000 2.63 58 16:32 23.01.2021
3397 Clouds 26 1018 88 10000 2.57 360 15:49 23.01.2021
3398 Clouds 26 1018 88 10000 2.57 360 15:28 23.01.2021
3399 Clouds 24 1017 94 10000 2.88 11 14:38 23.01.2021
3400 Clouds 23 1017 94 10000 2.36 345 14:19 23.01.2021
3401 Clouds 23 1017 94 10000 2.36 345 14:19 23.01.2021
3402 Clear 23 1020 100 10000 2.36 345 13:40 23.01.2021
3403 Clouds 23 1019 100 10000 2.72 333 13:22 23.01.2021
3404 Clouds 21 1016 100 10000 2.06 20 12:43 23.01.2021
3405 Clouds 21 1016 100 10000 2.06 20 12:23 23.01.2021
3406 Clouds 22 1015 94 10000 2.06 30 11:35 23.01.2021
3407 Clouds 22 1015 94 10000 2.06 30 10:55 23.01.2021
3408 Clouds 22 1015 94 10000 2.06 30 10:24 23.01.2021
3409 Clouds 22 1015 94 10000 2.06 40 09:52 23.01.2021
3410 Clouds 22 1015 94 10000 2.06 40 09:28 23.01.2021
3411 Clouds 22 1015 94 10000 2.06 30 08:42 23.01.2021
3412 Clouds 23 1016 94 10000 2.06 40 07:48 23.01.2021
3413 Clouds 22 1016 94 10000 2.06 50 06:49 23.01.2021
3414 Clouds 25 1016 88 10000 0.07 233 02:20 23.01.2021
3415 Clear 26 1017 94 10000 1.79 161 00:23 23.01.2021
3416 Clouds 27 1014 74 10000 5.14 180 23:36 22.01.2021
3417 Clouds 28 1014 74 10000 5.14 180 22:42 22.01.2021
3418 Clouds 28 1015 74 10000 5.14 180 21:59 22.01.2021
3419 Clouds 29 1015 74 10000 5.14 180 21:38 22.01.2021
3420 Clouds 29 1015 74 10000 5.14 180 21:20 22.01.2021
3421 Clouds 29 1015 66 10000 4.12 90 20:46 22.01.2021
3422 Clouds 29 1015 66 10000 4.12 90 20:25 22.01.2021
3423 Clouds 29 1016 62 10000 2.52 111 19:37 22.01.2021
3424 Clouds 29 1016 62 10000 2.31 97 19:18 22.01.2021
3425 Clouds 29 1017 70 10000 3.09 90 18:43 22.01.2021
3426 Clouds 29 1017 70 10000 3.09 90 18:24 22.01.2021
3427 Clouds 29 1018 70 10000 3.09 60 17:46 22.01.2021
3428 Clouds 29 1018 70 10000 3.09 60 17:28 22.01.2021
3429 Clouds 28 1017 78 10000 2.57 30 16:54 22.01.2021
3430 Clouds 28 1017 78 10000 2.57 30 16:27 22.01.2021
3431 Clouds 26 1017 88 10000 2.57 30 15:44 22.01.2021
3432 Clouds 26 1017 88 10000 2.57 30 15:19 22.01.2021
3433 Clouds 24 1017 88 10000 2.37 18 14:31 22.01.2021
3434 Clouds 24 1016 94 10000 2.14 354 13:52 22.01.2021
3435 Clouds 22 1016 94 10000 2.14 354 13:32 22.01.2021
3436 Clouds 22 1017 94 10000 2.09 343 12:53 22.01.2021
3437 Clouds 22 1017 94 10000 1.91 357 12:26 22.01.2021
3438 Clouds 22 1016 94 10000 1.91 357 11:47 22.01.2021
3439 Clouds 22 1016 94 10000 2.01 349 11:25 22.01.2021
3440 Clouds 22 1016 100 10000 2.01 349 10:45 22.01.2021
3441 Clouds 22 1016 100 10000 2.15 345 10:20 22.01.2021
3442 Clouds 23 1015 94 10000 2.06 20 09:35 22.01.2021
3443 Clouds 23 1015 94 10000 2.06 20 08:51 22.01.2021
3444 Clouds 23 1015 94 10000 2.06 20 08:30 22.01.2021
3445 Clouds 23 1016 94 10000 2.06 20 07:38 22.01.2021
3446 Clouds 23 1014 94 10000 2.06 90 03:40 22.01.2021
3447 Clouds 26 1014 73 10000 2.06 80 00:41 22.01.2021
3448 Clouds 27 1016 93 10000 3.2 51 23:56 21.01.2021
3449 Clouds 27 1013 65 10000 5.14 130 23:38 21.01.2021
3450 Clouds 27 1013 65 10000 5.14 130 22:54 21.01.2021
3451 Clouds 28 1013 65 10000 5.14 130 22:36 21.01.2021
3452 Clouds 28 1015 91 10000 2.79 76 21:44 21.01.2021
3453 Clouds 28 1014 66 10000 5.14 120 21:22 21.01.2021
3454 Clouds 28 1014 66 10000 5.14 120 20:51 21.01.2021
3455 Clouds 29 1014 66 10000 5.14 120 20:31 21.01.2021
3456 Clouds 28 1015 66 10000 5.14 130 19:56 21.01.2021
3457 Clouds 29 1015 66 10000 5.14 130 19:38 21.01.2021
3458 Clouds 29 1015 66 10000 5.14 130 19:19 21.01.2021
3459 Clouds 28 1016 70 10000 5.14 90 18:40 21.01.2021
3460 Clouds 28 1016 70 10000 5.14 90 18:20 21.01.2021
3461 Clear 28 1018 89 10000 3.22 37 17:53 21.01.2021
3462 Clouds 27 1018 83 10000 4.12 360 17:21 21.01.2021
3463 Clouds 27 1018 83 10000 4.12 360 16:50 21.01.2021
3464 Clouds 26 1018 83 10000 4.12 360 16:28 21.01.2021
3465 Clouds 25 1017 83 10000 3.3 21 15:59 21.01.2021
3466 Clouds 25 1017 83 10000 3.3 21 15:59 21.01.2021
3467 Clouds 25 1017 83 10000 3.3 21 15:35 21.01.2021
3468 Clouds 23 1017 88 10000 3.01 2 14:54 21.01.2021
3469 Clouds 23 1017 88 10000 3.01 2 14:35 21.01.2021
3470 Clouds 22 1016 94 10000 2.9 348 13:52 21.01.2021
3471 Clouds 22 1016 94 10000 2.9 348 13:52 21.01.2021
3472 Clouds 22 1016 94 10000 2.9 348 13:33 21.01.2021
3473 Clouds 22 1015 94 10000 2.06 360 12:58 21.01.2021
3474 Clouds 22 1015 94 10000 2.06 360 12:39 21.01.2021
3475 Clouds 22 1015 94 10000 2.06 360 12:20 21.01.2021
3476 Clouds 22 1015 94 10000 2.57 10 11:45 21.01.2021
3477 Clouds 22 1015 94 10000 2.57 10 11:24 21.01.2021
3478 Clouds 22 1014 100 10000 2.06 20 10:51 21.01.2021
3479 Clouds 22 1014 100 10000 2.06 20 10:28 21.01.2021
3480 Clouds 23 1014 94 10000 2.06 360 09:43 21.01.2021
3481 Clouds 23 1014 94 10000 2.06 360 09:24 21.01.2021
3482 Clouds 23 1016 94 10000 2.06 350 08:39 21.01.2021
3483 Clouds 23 1016 94 10000 2.06 350 07:59 21.01.2021
3484 Clouds 23 1016 94 10000 2.06 350 07:26 21.01.2021
3485 Clouds 23 1016 94 10000 3.09 350 06:46 21.01.2021
3486 Clouds 24 1019 100 10000 3.04 359 05:19 21.01.2021
3487 Clouds 24 1019 100 10000 2.85 25 02:27 21.01.2021
3488 Clouds 26 1018 100 10000 2.76 37 00:47 21.01.2021
3489 Clouds 26 1017 99 10000 2.44 64 23:53 20.01.2021
3490 Clouds 26 1014 83 8000 3.09 30 23:32 20.01.2021
3491 Clouds 26 1014 83 8000 3.09 30 22:57 20.01.2021
3492 Clouds 27 1014 83 8000 3.09 30 22:36 20.01.2021
3493 Clouds 27 1014 78 10000 8.23 20 21:56 20.01.2021
3494 Clouds 27 1014 78 10000 8.23 20 21:24 20.01.2021
3495 Clouds 27 1015 74 10000 5.14 350 20:58 20.01.2021
3496 Clouds 28 1015 74 10000 5.14 350 20:36 20.01.2021
3497 Clouds 28 1015 74 10000 5.14 350 20:36 20.01.2021
3498 Clouds 29 1015 74 10000 5.14 350 20:18 20.01.2021
3499 Clouds 28 1016 74 10000 5.14 60 19:40 20.01.2021
3500 Clouds 28 1016 74 10000 5.14 60 19:21 20.01.2021
3501 Clouds 28 1017 70 10000 2.06 90 18:41 20.01.2021
3502 Clouds 28 1018 74 10000 3.09 340 17:56 20.01.2021
3503 Clouds 28 1018 74 10000 3.09 340 17:37 20.01.2021
3504 Clouds 27 1019 78 10000 3.09 360 16:52 20.01.2021
3505 Clouds 27 1019 78 10000 3.09 360 16:32 20.01.2021
3506 Clouds 25 1019 78 10000 4.12 20 15:48 20.01.2021
3507 Clouds 25 1019 78 10000 4.12 20 15:19 20.01.2021
3508 Clouds 26 1018 83 10000 3.09 360 14:46 20.01.2021
3509 Clouds 25 1018 83 10000 3.09 360 14:22 20.01.2021
3510 Clouds 24 1018 88 10000 4.12 350 13:42 20.01.2021
3511 Clouds 24 1018 88 10000 4.12 350 13:21 20.01.2021
3512 Clouds 24 1017 94 10000 2.06 10 12:39 20.01.2021
3513 Clouds 24 1016 88 10000 2.06 10 11:55 20.01.2021
3514 Clouds 24 1016 88 10000 2.06 10 11:35 20.01.2021
3515 Clouds 24 1016 88 10000 2.06 20 10:55 20.01.2021
3516 Clouds 24 1016 88 10000 2.06 20 10:32 20.01.2021
3517 Clouds 24 1016 88 10000 4.02 345 09:50 20.01.2021
3518 Clouds 24 1016 88 10000 4.2 348 09:24 20.01.2021
3519 Clouds 24 1016 83 10000 2.24 4 08:49 20.01.2021
3520 Clouds 24 1017 88 10000 1.54 0 08:27 20.01.2021
3521 Clouds 24 1017 88 10000 1.54 0 07:56 20.01.2021
3522 Clouds 24 1017 88 10000 1.54 0 07:25 20.01.2021
3523 Clouds 24 1018 94 10000 1.54 10 05:50 20.01.2021
3524 Clouds 25 1021 99 10000 3.74 2 03:27 20.01.2021
3525 Clouds 25 1020 96 10000 4.18 11 00:59 20.01.2021
3526 Clouds 25 1020 96 10000 4.18 11 00:31 20.01.2021
3527 Clouds 26 1019 95 10000 4.07 23 23:46 19.01.2021
3528 Clouds 27 1015 74 10000 5.14 360 23:19 19.01.2021
3529 Clouds 27 1015 74 10000 5.14 360 22:42 19.01.2021
3530 Clouds 28 1015 74 10000 5.14 360 22:22 19.01.2021
3531 Clouds 28 1015 65 10000 2.06 360 21:59 19.01.2021
3532 Clouds 28 1015 65 10000 2.06 360 21:59 19.01.2021
3533 Clouds 28 1015 65 10000 2.06 360 21:40 19.01.2021
3534 Clouds 28 1015 65 10000 2.06 360 21:19 19.01.2021
3535 Clouds 29 1016 66 10000 4.12 360 20:42 19.01.2021
3536 Clouds 29 1016 66 10000 4.12 360 20:22 19.01.2021
3537 Clouds 29 1017 66 10000 3.09 360 19:42 19.01.2021
3538 Clouds 29 1017 66 10000 3.09 360 19:23 19.01.2021
3539 Clouds 29 1018 65 10000 6.17 360 18:43 19.01.2021
3540 Clouds 29 1018 65 10000 6.17 360 18:25 19.01.2021
3541 Clouds 29 1018 69 10000 5.14 360 17:45 19.01.2021
3542 Clouds 28 1018 69 10000 5.14 360 17:24 19.01.2021
3543 Clouds 28 1018 78 10000 4.12 360 16:48 19.01.2021
3544 Clouds 28 1018 78 10000 4.12 360 16:25 19.01.2021
3545 Clouds 27 1018 78 10000 5.14 360 15:56 19.01.2021
3546 Clouds 27 1018 78 10000 5.14 360 15:35 19.01.2021
3547 Clouds 25 1017 83 10000 2.06 360 14:51 19.01.2021
3548 Clouds 25 1017 83 10000 2.06 360 14:31 19.01.2021
3549 Clouds 24 1017 94 10000 3.09 360 13:56 19.01.2021
3550 Clouds 23 1017 94 10000 3.09 360 13:37 19.01.2021
3551 Clouds 23 1017 94 10000 3.09 360 13:19 19.01.2021
3552 Clouds 23 1017 94 10000 2.06 30 12:36 19.01.2021
3553 Clouds 23 1017 94 10000 2.06 30 12:36 19.01.2021
3554 Clouds 23 1017 94 10000 2.06 30 12:18 19.01.2021
3555 Clouds 23 1017 94 10000 2.06 30 11:43 19.01.2021
3556 Clouds 23 1017 94 10000 2.06 30 11:22 19.01.2021
3557 Clouds 23 1016 94 10000 2.06 30 10:50 19.01.2021
3558 Clouds 23 1016 94 10000 2.06 30 10:29 19.01.2021
3559 Clouds 23 1016 94 10000 2.06 40 09:51 19.01.2021
3560 Clouds 22 1016 94 10000 2.06 40 09:20 19.01.2021
3561 Clouds 22 1016 100 10000 2.06 20 08:45 19.01.2021
3562 Clouds 23 1017 94 10000 2.06 30 07:57 19.01.2021
3563 Clouds 24 1017 94 10000 2.06 30 07:19 19.01.2021
3564 Clouds 25 1020 100 10000 2.32 41 04:50 19.01.2021
3565 Clouds 26 1020 100 10000 1.38 8 02:24 19.01.2021
3566 Clouds 27 1019 90 10000 0.67 68 00:47 19.01.2021
3567 Clouds 27 1018 95 10000 1.52 126 23:57 18.01.2021
3568 Clouds 27 1014 74 10000 5.14 180 23:29 18.01.2021
3569 Clouds 28 1014 74 10000 5.14 180 22:46 18.01.2021
3570 Clouds 28 1014 74 10000 5.14 180 22:24 18.01.2021
3571 Clouds 28 1015 74 10000 5.14 180 21:48 18.01.2021
3572 Clouds 28 1015 74 10000 5.14 180 21:24 18.01.2021
3573 Clouds 28 1016 74 10000 5.14 180 20:57 18.01.2021
3574 Clouds 28 1016 74 10000 5.14 180 20:57 18.01.2021
3575 Clouds 29 1016 74 10000 5.14 180 20:34 18.01.2021
3576 Clouds 28 1016 74 10000 5.14 120 19:54 18.01.2021
3577 Clouds 28 1016 74 10000 5.14 120 19:54 18.01.2021
3578 Clouds 29 1016 74 10000 5.14 120 19:35 18.01.2021
3579 Clouds 29 1017 74 10000 3.09 90 18:53 18.01.2021
3580 Clouds 29 1017 74 10000 3.09 90 18:33 18.01.2021
3581 Clouds 29 1018 78 10000 5.14 110 17:52 18.01.2021
3582 Clouds 28 1018 78 10000 5.14 110 17:32 18.01.2021
3583 Clouds 28 1019 74 10000 3.09 90 16:55 18.01.2021
3584 Clouds 28 1019 74 10000 3.09 90 16:33 18.01.2021
3585 Clouds 27 1018 78 10000 3.09 130 15:56 18.01.2021
3586 Clouds 27 1018 78 10000 3.09 130 15:37 18.01.2021
3587 Clouds 26 1018 78 10000 3.09 130 15:19 18.01.2021
3588 Clouds 25 1017 88 10000 2.39 10 14:42 18.01.2021
3589 Clouds 24 1017 88 10000 2.36 347 14:24 18.01.2021
3590 Clouds 24 1017 83 10000 2.06 350 13:45 18.01.2021
3591 Clouds 24 1017 83 10000 2.06 350 13:22 18.01.2021
3592 Clouds 23 1016 84 10000 1.34 341 12:47 18.01.2021
3593 Clouds 22 1015 94 8000 2.06 360 12:19 18.01.2021
3594 Clouds 22 1015 94 8000 2.06 360 11:48 18.01.2021
3595 Clouds 22 1015 94 8000 2.06 360 11:27 18.01.2021
3596 Clouds 23 1015 94 8000 2.06 70 10:51 18.01.2021
3597 Clouds 20 1015 94 8000 2.06 70 10:30 18.01.2021
3598 Clouds 22 1014 94 10000 2.06 360 09:43 18.01.2021
3599 Clouds 22 1014 94 10000 2.06 360 09:18 18.01.2021
3600 Clouds 22 1015 88 10000 2.06 20 08:31 18.01.2021
3601 Clouds 22 1015 94 10000 2.45 342 07:55 18.01.2021
3602 Clouds 23 1016 94 10000 2.06 40 06:35 18.01.2021
3603 Clouds 23 1016 88 10000 2.06 60 04:46 18.01.2021
3604 Clouds 23 1016 88 10000 2.06 60 04:27 18.01.2021
3605 Clouds 23 1016 94 10000 3.09 60 03:52 18.01.2021
3606 Clouds 24 1016 94 10000 3.09 60 03:29 18.01.2021
3607 Clouds 23 1015 88 10000 2.06 100 02:59 18.01.2021
3608 Clouds 25 1015 88 10000 2.06 100 02:20 18.01.2021
3609 Clouds 26 1014 83 10000 2.06 120 00:41 18.01.2021
3610 Clouds 26 1014 83 10000 2.06 120 00:19 18.01.2021
3611 Clouds 26 1014 78 10000 2.06 130 23:41 17.01.2021
3612 Clouds 27 1013 70 10000 5.14 160 23:19 17.01.2021
3613 Clouds 29 1013 70 10000 5.14 160 22:24 17.01.2021
3614 Clouds 29 1014 62 10000 5.14 160 21:57 17.01.2021
3615 Clouds 29 1014 62 10000 5.14 160 21:37 17.01.2021
3616 Clouds 29 1014 62 10000 5.14 160 21:18 17.01.2021
3617 Clouds 29 1014 62 10000 5.14 90 20:40 17.01.2021
3618 Clouds 29 1014 62 10000 5.14 90 20:18 17.01.2021
3619 Clouds 29 1015 62 10000 4.12 90 19:40 17.01.2021
3620 Clouds 29 1016 65 10000 3.09 90 18:58 17.01.2021
3621 Clouds 29 1016 65 10000 3.09 90 18:30 17.01.2021
3622 Clouds 29 1016 65 10000 3.09 360 17:54 17.01.2021
3623 Clouds 29 1016 65 10000 3.09 360 17:35 17.01.2021
3624 Clouds 28 1016 74 10000 3.09 30 16:57 17.01.2021
3625 Clouds 28 1016 74 10000 3.09 30 16:39 17.01.2021
3626 Clouds 27 1016 74 10000 3.09 30 16:19 17.01.2021
3627 Clouds 26 1016 83 10000 2.58 54 15:38 17.01.2021
3628 Clouds 26 1016 83 10000 2.23 16 15:19 17.01.2021
3629 Clouds 23 1015 83 10000 2.23 16 14:42 17.01.2021
3630 Clouds 23 1015 83 10000 2.38 350 14:23 17.01.2021
3631 Clouds 21 1015 94 10000 2.38 350 13:43 17.01.2021
3632 Clouds 21 1015 94 10000 2.38 350 13:43 17.01.2021
3633 Clouds 21 1015 94 10000 2.38 350 13:43 17.01.2021
3634 Clouds 21 1015 94 10000 2.81 335 13:24 17.01.2021
3635 Clouds 20 1015 100 10000 2.06 20 12:46 17.01.2021
3636 Clouds 20 1015 100 10000 2.06 20 12:25 17.01.2021
3637 Clouds 21 1014 100 10000 2.06 40 11:26 17.01.2021
3638 Clouds 21 1014 100 10000 2.06 20 10:57 17.01.2021
3639 Clouds 21 1014 100 10000 2.06 20 10:37 17.01.2021
3640 Clouds 21 1014 100 10000 2.06 20 10:18 17.01.2021
3641 Clouds 22 1014 100 10000 2.06 40 09:18 17.01.2021
3642 Clouds 22 1015 100 10000 2.06 40 08:41 17.01.2021
3643 Clouds 24 1016 94 10000 2.06 100 04:39 17.01.2021
3644 Clouds 25 1016 94 10000 2.06 100 04:20 17.01.2021
3645 Clouds 26 1014 88 10000 2.06 130 01:37 17.01.2021
3646 Clouds 27 1014 78 10000 2.06 140 00:21 17.01.2021
3647 Clouds 27 1014 69 10000 2.06 150 23:54 16.01.2021
3648 Clouds 28 1014 70 10000 2.28 155 23:26 16.01.2021
3649 Clouds 28 1014 70 10000 2.28 155 22:58 16.01.2021
3650 Clouds 28 1014 70 10000 2.83 143 22:26 16.01.2021
3651 Clouds 29 1015 66 10000 2.83 143 21:50 16.01.2021
3652 Clouds 29 1015 66 10000 3.11 132 21:23 16.01.2021
3653 Clouds 29 1015 66 10000 3.11 132 20:52 16.01.2021
3654 Clouds 30 1015 66 10000 2.83 120 20:28 16.01.2021
3655 Clouds 30 1015 62 10000 3.09 90 19:50 16.01.2021
3656 Clouds 30 1015 62 10000 3.09 90 19:31 16.01.2021
3657 Clouds 30 1016 62 10000 2.32 105 18:47 16.01.2021
3658 Clouds 30 1016 62 10000 2.33 77 18:28 16.01.2021
3659 Clouds 29 1017 69 10000 2.06 130 17:59 16.01.2021
3660 Clouds 29 1017 69 10000 2.06 130 17:39 16.01.2021
3661 Clouds 29 1017 69 10000 2.06 130 17:21 16.01.2021
3662 Clouds 28 1018 74 10000 2.5 60 16:42 16.01.2021
3663 Clouds 28 1018 74 10000 2.39 37 16:19 16.01.2021
3664 Clouds 26 1017 83 10000 2.39 37 15:42 16.01.2021
3665 Clouds 24 1017 94 10000 2.19 4 14:39 16.01.2021
3666 Clouds 22 1016 94 10000 2.04 344 13:54 16.01.2021
3667 Clouds 22 1016 94 10000 2.04 344 13:33 16.01.2021
3668 Clouds 22 1015 100 10000 1.54 0 12:49 16.01.2021
3669 Clouds 22 1015 100 10000 1.54 0 12:31 16.01.2021
3670 Clouds 22 1014 100 10000 2.06 10 11:59 16.01.2021
3671 Clouds 22 1014 100 10000 2.06 10 11:40 16.01.2021
3672 Clouds 22 1014 100 10000 2.06 10 11:19 16.01.2021
3673 Clouds 22 1014 100 10000 1.83 335 10:42 16.01.2021
3674 Clouds 21 1013 100 10000 2.06 30 09:57 16.01.2021
3675 Clouds 21 1013 100 10000 2.06 30 09:21 16.01.2021
3676 Clouds 22 1014 100 10000 1.87 348 08:21 16.01.2021
3677 Clouds 23 1014 100 10000 1.54 10 07:18 16.01.2021
3678 Clouds 24 1015 94 10000 3.09 80 05:45 16.01.2021
3679 Clouds 25 1015 94 10000 3.09 90 04:36 16.01.2021
3680 Clouds 26 1015 83 10000 2.06 90 02:54 16.01.2021
3681 Clouds 26 1013 69 10000 0.89 320 00:48 16.01.2021
3682 Clouds 26 1013 69 10000 0.51 171 00:24 16.01.2021
3683 Clouds 28 1013 70 10000 4.12 180 23:39 15.01.2021
3684 Clouds 29 1013 70 10000 4.12 180 22:42 15.01.2021
3685 Clouds 29 1013 70 10000 4.12 180 22:22 15.01.2021
3686 Clouds 29 1013 70 10000 4.12 180 21:44 15.01.2021
3687 Clouds 30 1013 70 10000 2.9 149 20:50 15.01.2021
3688 Clouds 29 1013 70 10000 3.06 146 20:24 15.01.2021
3689 Clouds 30 1013 70 10000 3.06 146 19:58 15.01.2021
3690 Clouds 29 1014 66 10000 3.06 146 19:39 15.01.2021
3691 Clouds 29 1014 66 10000 2.95 144 19:21 15.01.2021
3692 Clouds 29 1015 74 10000 3.09 180 18:42 15.01.2021
3693 Clouds 29 1015 74 10000 3.09 180 18:18 15.01.2021
3694 Clouds 29 1016 79 10000 3.09 180 17:42 15.01.2021
3695 Clouds 29 1016 79 10000 3.09 180 17:21 15.01.2021
3696 Clouds 28 1016 78 10000 1.77 129 16:46 15.01.2021
3697 Clouds 28 1016 78 10000 1.1 96 16:24 15.01.2021
3698 Clouds 27 1016 83 10000 1.1 96 15:41 15.01.2021
3699 Clouds 27 1016 83 10000 0.84 18 15:21 15.01.2021
3700 Clouds 25 1016 88 10000 0.84 18 14:46 15.01.2021
3701 Clouds 25 1016 88 10000 1.26 337 14:27 15.01.2021
3702 Clouds 23 1015 100 10000 1.26 337 13:43 15.01.2021
3703 Clouds 22 1015 100 10000 1.6 326 13:23 15.01.2021
3704 Clouds 23 1014 100 10000 2.06 30 12:57 15.01.2021
3705 Clouds 23 1014 100 10000 2.06 30 12:32 15.01.2021
3706 Clouds 23 1014 100 10000 2.06 20 11:50 15.01.2021
3707 Clouds 23 1014 100 10000 2.06 20 11:32 15.01.2021
3708 Clouds 24 1013 94 10000 2.06 30 10:57 15.01.2021
3709 Clouds 24 1013 94 10000 2.06 30 10:39 15.01.2021
3710 Clouds 24 1013 94 10000 2.06 50 09:56 15.01.2021
3711 Clouds 23 1013 94 10000 2.06 50 09:35 15.01.2021
3712 Clouds 24 1013 94 10000 2.06 40 08:48 15.01.2021
3713 Clouds 24 1013 94 10000 2.06 40 08:21 15.01.2021
3714 Clouds 24 1013 94 10000 2.57 40 07:41 15.01.2021
3715 Clouds 24 1013 94 10000 2.57 40 07:19 15.01.2021
3716 Clouds 25 1014 94 10000 1.16 327 04:35 15.01.2021
3717 Clouds 26 1013 83 10000 2.57 120 01:48 15.01.2021
3718 Clouds 26 1013 78 10000 1.58 169 23:55 14.01.2021
3719 Clouds 28 1013 70 10000 4.12 180 23:23 14.01.2021
3720 Clouds 28 1013 70 10000 4.12 180 22:44 14.01.2021
3721 Clouds 28 1013 70 10000 4.12 180 22:25 14.01.2021
3722 Clouds 29 1013 66 10000 4.12 90 21:48 14.01.2021
3723 Clouds 29 1013 66 10000 4.12 90 21:21 14.01.2021
3724 Clouds 29 1013 66 10000 4.12 90 20:51 14.01.2021
3725 Clouds 30 1013 66 10000 4.12 90 20:26 14.01.2021
3726 Clouds 30 1013 62 10000 2.36 152 19:46 14.01.2021
3727 Clouds 30 1013 62 10000 1.97 139 19:27 14.01.2021
3728 Clouds 29 1014 74 10000 1.97 139 18:55 14.01.2021
3729 Clouds 30 1014 74 10000 2.19 142 18:30 14.01.2021
3730 Clouds 29 1016 74 10000 1.68 122 17:50 14.01.2021
3731 Clouds 29 1016 74 10000 1.13 88 17:27 14.01.2021
3732 Clouds 29 1017 74 10000 2.06 30 16:44 14.01.2021
3733 Clouds 28 1017 74 10000 2.06 30 16:23 14.01.2021
3734 Clouds 27 1016 88 10000 1.19 45 15:46 14.01.2021
3735 Clouds 26 1016 88 10000 1.42 6 15:23 14.01.2021
3736 Clouds 25 1015 88 10000 1.42 6 14:39 14.01.2021
3737 Clouds 24 1015 88 10000 1.66 346 14:20 14.01.2021
3738 Clouds 24 1013 94 10000 1.66 346 13:53 14.01.2021
3739 Clouds 22 1013 94 10000 1.93 331 13:22 14.01.2021
3740 Clouds 23 1014 100 10000 2.06 20 12:51 14.01.2021
3741 Clouds 23 1014 100 10000 2.06 20 12:20 14.01.2021
3742 Clouds 23 1014 94 10000 2.06 20 11:50 14.01.2021
3743 Clouds 23 1014 94 10000 2.06 20 11:21 14.01.2021
3744 Clouds 23 1014 94 10000 2.06 20 10:54 14.01.2021
3745 Clouds 23 1014 100 10000 2.06 40 10:35 14.01.2021
3746 Clouds 24 1014 94 10000 2.06 20 09:59 14.01.2021
3747 Clouds 24 1014 94 10000 2.06 20 09:41 14.01.2021
3748 Clouds 24 1014 94 10000 2.06 20 09:18 14.01.2021
3749 Clouds 24 1014 94 10000 2.06 20 08:28 14.01.2021
3750 Clouds 24 1015 88 10000 2.01 348 07:50 14.01.2021
3751 Clouds 24 1015 88 10000 1.85 351 06:59 14.01.2021
3752 Clouds 24 1015 88 10000 1.69 352 06:19 14.01.2021
3753 Clouds 26 1015 78 10000 2.06 30 01:55 14.01.2021
3754 Clouds 26 1016 94 10000 2.93 77 23:56 13.01.2021
3755 Clouds 27 1013 78 10000 3.09 90 23:23 13.01.2021
3756 Clouds 27 1013 78 10000 3.09 90 22:30 13.01.2021
3757 Clouds 27 1015 78 10000 3.1 103 21:59 13.01.2021
3758 Clouds 27 1015 78 10000 3.1 103 21:59 13.01.2021
3759 Clouds 28 1015 78 10000 3.1 103 21:41 13.01.2021
3760 Clouds 28 1015 78 10000 2.81 105 21:19 13.01.2021
3761 Clouds 29 1015 79 10000 3.09 360 20:38 13.01.2021
3762 Clouds 29 1015 79 10000 3.09 360 20:19 13.01.2021
3763 Clouds 30 1016 66 10000 4.12 90 19:42 13.01.2021
3764 Clouds 30 1016 66 10000 4.12 90 19:21 13.01.2021
3765 Clouds 29 1017 66 10000 3.09 90 18:41 13.01.2021
3766 Clouds 28 1018 70 10000 6.17 360 17:51 13.01.2021
3767 Clouds 28 1018 70 10000 6.17 360 17:26 13.01.2021
3768 Clouds 27 1019 74 10000 3.09 360 16:59 13.01.2021
3769 Clouds 27 1019 74 10000 3.09 360 16:23 13.01.2021
3770 Clouds 26 1018 78 10000 2.57 360 15:59 13.01.2021
3771 Clouds 26 1018 78 10000 2.57 360 15:59 13.01.2021
3772 Clouds 26 1018 78 10000 2.57 360 15:39 13.01.2021
3773 Clouds 24 1018 88 10000 3.5 11 14:52 13.01.2021
3774 Clouds 23 1018 88 10000 3.28 351 14:18 13.01.2021
3775 Clouds 22 1017 94 10000 3.28 351 13:37 13.01.2021
3776 Clouds 22 1017 94 10000 3.31 341 13:18 13.01.2021
3777 Clouds 22 1016 94 10000 2.06 360 12:43 13.01.2021
3778 Clouds 22 1016 94 10000 2.06 360 12:22 13.01.2021
3779 Clouds 22 1015 94 10000 2.06 350 11:47 13.01.2021
3780 Clouds 22 1015 94 10000 2.06 350 11:26 13.01.2021
3781 Clouds 22 1015 94 10000 2.06 10 10:43 13.01.2021
3782 Clouds 22 1015 94 10000 2.06 10 10:24 13.01.2021
3783 Clouds 22 1015 100 10000 1.54 10 09:38 13.01.2021
3784 Clouds 22 1016 94 10000 2.06 20 08:57 13.01.2021
3785 Clouds 22 1016 94 10000 2.06 20 08:33 13.01.2021
3786 Clouds 22 1016 94 10000 2.06 20 07:53 13.01.2021
3787 Clouds 23 1019 100 10000 2.67 343 07:24 13.01.2021
3788 Clouds 24 1021 100 10000 2.57 349 04:21 13.01.2021
3789 Clouds 24 1021 100 10000 2.57 349 03:52 13.01.2021
3790 Clouds 24 1021 97 10000 2.57 349 03:31 13.01.2021
3791 Clouds 24 1018 83 10000 2.06 50 02:46 13.01.2021
3792 Clouds 26 1016 83 10000 2.57 100 00:38 13.01.2021
3793 Clouds 27 1016 74 10000 5.14 180 23:33 12.01.2021
3794 Clouds 28 1016 74 10000 5.14 180 22:47 12.01.2021
3795 Clouds 28 1016 74 10000 5.14 180 22:25 12.01.2021
3796 Clouds 29 1016 70 10000 5.14 180 21:54 12.01.2021
3797 Clouds 29 1016 70 10000 5.14 180 21:35 12.01.2021
3798 Clouds 29 1017 66 10000 3.09 90 20:57 12.01.2021
3799 Clouds 29 1017 66 10000 3.09 90 20:38 12.01.2021
3800 Clouds 29 1017 66 10000 3.09 90 20:20 12.01.2021
3801 Clouds 29 1018 66 10000 4.12 90 19:39 12.01.2021
3802 Clouds 29 1019 66 10000 3.09 70 18:52 12.01.2021
3803 Clouds 29 1019 66 10000 3.09 70 18:25 12.01.2021
3804 Clouds 29 1020 70 10000 5.14 60 17:56 12.01.2021
3805 Clouds 28 1020 70 10000 5.14 60 17:32 12.01.2021
3806 Clouds 28 1020 69 10000 5.14 60 16:44 12.01.2021
3807 Clouds 28 1020 69 10000 5.14 60 16:26 12.01.2021
3808 Clouds 27 1019 78 10000 3.09 30 15:48 12.01.2021
3809 Clouds 27 1019 78 10000 3.09 30 15:27 12.01.2021
3810 Clouds 26 1019 83 10000 2.57 360 14:49 12.01.2021
3811 Clouds 25 1019 83 10000 2.57 360 14:26 12.01.2021
3812 Clouds 25 1019 94 10000 2.53 13 13:54 12.01.2021
3813 Clouds 24 1019 94 10000 2.53 13 13:36 12.01.2021
3814 Clouds 23 1018 100 10000 2.06 40 12:33 12.01.2021
3815 Clouds 23 1018 94 8000 2.06 30 11:45 12.01.2021
3816 Clouds 23 1018 94 8000 2.06 30 11:26 12.01.2021
3817 Clouds 23 1018 94 10000 2.06 30 10:43 12.01.2021
3818 Clouds 23 1018 94 10000 2.06 30 10:19 12.01.2021
3819 Clouds 24 1020 100 10000 2.52 0 09:52 12.01.2021
3820 Clouds 24 1020 100 10000 3.02 1 09:22 12.01.2021
3821 Clouds 24 1020 100 10000 3.15 355 08:27 12.01.2021
3822 Clouds 24 1021 100 10000 3.15 355 07:44 12.01.2021
3823 Clouds 24 1021 100 10000 3.17 351 07:26 12.01.2021
3824 Clouds 24 1022 100 10000 3.1 357 05:40 12.01.2021
3825 Clouds 24 1022 100 10000 3.06 359 03:46 12.01.2021
3826 Clouds 24 1022 100 10000 3.21 5 03:19 12.01.2021
3827 Clouds 25 1018 94 10000 2.06 30 01:43 12.01.2021
3828 Clouds 26 1017 88 10000 2.06 90 00:32 12.01.2021
3829 Clouds 27 1017 89 10000 3.09 90 23:40 11.01.2021
3830 Clouds 27 1017 78 10000 2.57 150 23:18 11.01.2021
3831 Clouds 27 1017 78 10000 2.57 150 22:45 11.01.2021
3832 Clouds 28 1017 78 10000 2.57 150 22:27 11.01.2021
3833 Clouds 28 1017 74 10000 3.09 130 21:45 11.01.2021
3834 Clouds 28 1017 74 10000 3.09 130 21:25 11.01.2021
3835 Clouds 28 1017 74 10000 2.57 120 20:57 11.01.2021
3836 Clouds 28 1017 74 10000 2.57 120 20:36 11.01.2021
3837 Clouds 28 1017 74 10000 2.57 120 20:36 11.01.2021
3838 Clouds 28 1017 74 10000 2.57 120 20:18 11.01.2021
3839 Clouds 29 1019 70 10000 3.09 90 19:41 11.01.2021
3840 Clouds 29 1019 70 10000 3.09 90 19:21 11.01.2021
3841 Clouds 29 1020 70 10000 3.09 60 18:42 11.01.2021
3842 Clouds 29 1020 70 10000 3.09 60 18:23 11.01.2021
3843 Clouds 29 1020 74 10000 3.09 10 17:42 11.01.2021
3844 Clouds 29 1020 74 10000 3.09 10 17:24 11.01.2021
3845 Clouds 28 1021 78 10000 5.14 360 16:47 11.01.2021
3846 Clouds 28 1021 78 10000 5.14 360 16:28 11.01.2021
3847 Clouds 27 1021 83 10000 2.06 40 15:53 11.01.2021
3848 Clouds 27 1021 83 10000 2.06 40 15:33 11.01.2021
3849 Clouds 26 1020 88 10000 2.57 360 14:45 11.01.2021
3850 Clouds 26 1020 88 10000 2.57 360 14:26 11.01.2021
3851 Clouds 24 1022 100 10000 3.67 355 13:45 11.01.2021
3852 Clouds 24 1022 100 10000 3.47 346 13:22 11.01.2021
3853 Clouds 24 1022 100 10000 3.14 348 12:42 11.01.2021
3854 Clouds 23 1018 100 10000 2.06 10 12:23 11.01.2021
3855 Clouds 24 1018 100 10000 2.06 10 11:45 11.01.2021
3856 Clouds 24 1017 100 10000 2.06 10 10:55 11.01.2021
3857 Clouds 23 1017 100 10000 2.06 10 10:35 11.01.2021
3858 Clouds 24 1020 100 10000 3.23 345 09:48 11.01.2021
3859 Clouds 24 1020 100 10000 3.5 344 09:29 11.01.2021
3860 Clouds 24 1020 100 10000 3.5 344 08:52 11.01.2021
3861 Clouds 24 1020 100 10000 3.5 344 08:32 11.01.2021
3862 Clouds 24 1020 100 10000 3.43 344 07:41 11.01.2021
3863 Clouds 24 1020 100 10000 3.1 341 07:21 11.01.2021
3864 Clouds 24 1021 100 10000 3.1 341 06:49 11.01.2021
3865 Clouds 25 1021 100 10000 2.81 17 02:23 11.01.2021
3866 Clouds 26 1017 94 6000 3.09 90 00:40 11.01.2021
3867 Clouds 26 1016 83 7000 4.12 160 23:47 10.01.2021
3868 Clouds 27 1016 74 8000 3.09 20 22:51 10.01.2021
3869 Clouds 28 1016 74 8000 3.09 20 22:29 10.01.2021
3870 Clouds 28 1016 70 10000 4.12 30 21:58 10.01.2021
3871 Clouds 28 1016 70 10000 4.12 30 21:39 10.01.2021
3872 Clouds 28 1016 70 10000 4.12 30 21:18 10.01.2021
3873 Clouds 28 1016 70 10000 3.09 360 20:44 10.01.2021
3874 Clouds 29 1016 70 10000 3.09 360 20:26 10.01.2021
3875 Clouds 29 1016 70 10000 3.09 360 20:26 10.01.2021
3876 Clouds 29 1017 70 10000 3.09 360 19:38 10.01.2021
3877 Clouds 29 1017 70 10000 3.09 360 19:20 10.01.2021
3878 Clouds 29 1018 74 10000 4.12 30 18:44 10.01.2021
3879 Clouds 29 1018 74 10000 4.12 30 18:20 10.01.2021
3880 Clouds 28 1019 78 10000 4.12 360 17:26 10.01.2021
3881 Clouds 28 1019 83 10000 4.12 360 16:49 10.01.2021
3882 Clouds 28 1019 83 10000 4.12 360 16:28 10.01.2021
3883 Clouds 26 1019 83 10000 3.58 19 15:40 10.01.2021
3884 Clouds 26 1019 83 10000 3.18 8 15:21 10.01.2021
3885 Clouds 24 1019 83 10000 3.18 8 14:40 10.01.2021
3886 Clouds 24 1019 83 10000 2.82 359 14:22 10.01.2021
3887 Clouds 23 1018 100 10000 2.82 359 13:42 10.01.2021
3888 Clouds 22 1018 100 10000 2.25 354 13:24 10.01.2021
3889 Clouds 23 1017 94 10000 2.06 40 12:51 10.01.2021
3890 Clouds 23 1017 94 10000 2.06 40 12:33 10.01.2021
3891 Clouds 23 1016 94 10000 2.06 10 11:55 10.01.2021
3892 Clouds 23 1016 94 10000 2.06 10 11:20 10.01.2021
3893 Clouds 23 1016 94 10000 2.06 30 10:51 10.01.2021
3894 Clouds 23 1016 94 10000 2.06 30 10:22 10.01.2021
3895 Clouds 22 1016 100 10000 2.06 50 09:39 10.01.2021
3896 Clouds 23 1016 100 10000 2.06 20 08:27 10.01.2021
3897 Clouds 23 1017 94 10000 1.52 355 07:38 10.01.2021
3898 Clouds 23 1017 94 10000 1.52 353 06:21 10.01.2021
3899 Clouds 23 1017 94 10000 2.06 40 05:45 10.01.2021
3900 Clouds 24 1017 94 10000 2.06 40 05:27 10.01.2021
3901 Clouds 26 1014 83 10000 0.79 350 01:30 10.01.2021
3902 Clouds 26 1014 83 10000 0.68 164 00:19 10.01.2021
3903 Clouds 27 1013 74 10000 4.12 160 23:41 09.01.2021
3904 Clouds 27 1014 69 10000 5.14 160 22:59 09.01.2021
3905 Clouds 28 1014 69 10000 5.14 160 22:20 09.01.2021
3906 Clouds 28 1014 65 10000 4.12 180 21:58 09.01.2021
3907 Clouds 28 1014 65 10000 4.12 180 21:39 09.01.2021
3908 Clouds 28 1014 65 10000 4.12 180 21:20 09.01.2021
3909 Clouds 28 1015 62 10000 5.14 180 20:47 09.01.2021
3910 Clouds 29 1015 62 10000 5.14 180 20:28 09.01.2021
3911 Clouds 29 1016 65 10000 4.12 120 19:39 09.01.2021
3912 Clouds 28 1016 65 10000 4.12 120 19:20 09.01.2021
3913 Clouds 28 1016 69 10000 2.06 90 18:37 09.01.2021
3914 Clouds 28 1017 74 10000 2.06 90 17:53 09.01.2021
3915 Clouds 28 1017 74 10000 2.06 90 17:33 09.01.2021
3916 Clouds 28 1017 74 10000 2.1 114 16:56 09.01.2021
3917 Clouds 27 1017 74 10000 1.59 77 16:22 09.01.2021
3918 Clouds 26 1017 78 10000 1.59 77 15:41 09.01.2021
3919 Clouds 27 1017 78 10000 1.25 37 15:19 09.01.2021
3920 Clouds 25 1016 88 10000 1.25 37 14:37 09.01.2021
3921 Clouds 24 1016 88 10000 1.1 11 14:18 09.01.2021
3922 Clouds 23 1016 94 10000 1.1 11 13:43 09.01.2021
3923 Clouds 23 1016 94 10000 1.28 348 13:24 09.01.2021
3924 Clouds 23 1016 94 10000 2.06 50 12:28 09.01.2021
3925 Clouds 23 1015 94 10000 2.06 50 11:58 09.01.2021
3926 Clouds 23 1015 94 10000 2.06 50 11:37 09.01.2021
3927 Clouds 23 1015 94 10000 2.06 50 11:18 09.01.2021
3928 Clouds 23 1015 88 10000 2.06 50 10:42 09.01.2021
3929 Clouds 23 1015 88 10000 2.06 50 10:22 09.01.2021
3930 Clouds 23 1014 88 10000 2.57 50 09:43 09.01.2021
3931 Clouds 23 1014 88 10000 2.57 50 09:20 09.01.2021
3932 Clouds 24 1015 88 10000 2.06 60 07:48 09.01.2021
3933 Clouds 23 1016 88 10000 2.06 60 06:53 09.01.2021
3934 Clouds 24 1016 88 10000 2.06 60 06:33 09.01.2021
3935 Clouds 25 1016 83 10000 2.06 60 03:53 09.01.2021
3936 Clouds 25 1016 83 10000 2.06 60 02:41 09.01.2021
3937 Clouds 26 1018 94 10000 0.62 252 02:23 09.01.2021
3938 Clouds 26 1018 93 10000 0.97 215 01:24 09.01.2021
3939 Clouds 26 1017 93 10000 0.94 187 00:33 09.01.2021
3940 Clouds 26 1017 93 10000 1.71 170 23:45 08.01.2021
3941 Clouds 27 1014 74 10000 3.09 180 22:43 08.01.2021
3942 Clouds 28 1015 66 10000 4.12 170 21:52 08.01.2021
3943 Clouds 29 1015 66 10000 4.12 180 20:59 08.01.2021
3944 Clouds 28 1015 66 10000 4.12 180 20:35 08.01.2021
3945 Clouds 28 1016 70 10000 5.14 180 19:57 08.01.2021
3946 Clouds 28 1016 70 10000 5.14 180 19:24 08.01.2021
3947 Clouds 28 1016 74 10000 2.06 130 18:54 08.01.2021
3948 Clouds 28 1016 74 10000 2.06 130 18:32 08.01.2021
3949 Clouds 28 1017 74 10000 2.22 91 17:53 08.01.2021
3950 Clouds 28 1017 74 10000 2.01 78 17:25 08.01.2021
3951 Clouds 28 1018 70 10000 2.01 78 16:47 08.01.2021
3952 Clouds 27 1018 74 10000 1.57 53 15:48 08.01.2021
3953 Clouds 27 1018 74 10000 1.63 359 15:27 08.01.2021
3954 Clouds 25 1017 83 10000 1.63 359 14:37 08.01.2021
3955 Clouds 24 1017 100 10000 1.86 351 13:48 08.01.2021
3956 Clouds 22 1017 100 10000 1.83 335 13:21 08.01.2021
3957 Clouds 23 1019 100 10000 1.83 335 12:50 08.01.2021
3958 Clouds 23 1016 88 10000 2.06 10 12:20 08.01.2021
3959 Clouds 23 1016 94 10000 2.06 30 11:46 08.01.2021
3960 Clouds 23 1016 94 10000 2.06 30 11:28 08.01.2021
3961 Clouds 23 1016 94 10000 2.06 30 10:53 08.01.2021
3962 Clouds 21 1016 94 10000 2.06 30 10:35 08.01.2021
3963 Clouds 22 1016 94 10000 2.06 30 09:53 08.01.2021
3964 Clouds 22 1016 94 10000 2.06 30 09:30 08.01.2021
3965 Clouds 22 1016 94 10000 2.06 50 08:39 08.01.2021
3966 Clouds 22 1016 94 10000 2.06 20 07:29 08.01.2021
3967 Clouds 24 1017 94 10000 2.06 20 06:21 08.01.2021
3968 Clouds 26 1015 73 10000 2.06 90 00:22 08.01.2021
3969 Clouds 27 1015 69 10000 2.06 130 23:41 07.01.2021
3970 Clouds 27 1015 78 10000 2.06 130 22:47 07.01.2021
3971 Clouds 27 1015 78 10000 2.06 130 22:26 07.01.2021
3972 Clouds 27 1015 78 10000 2.06 130 22:26 07.01.2021
3973 Clouds 28 1015 74 10000 2.6 82 21:46 07.01.2021
3974 Clouds 28 1015 74 10000 3.06 93 21:27 07.01.2021
3975 Clouds 29 1016 69 10000 3.06 93 20:47 07.01.2021
3976 Clouds 29 1016 69 10000 2.54 83 20:29 07.01.2021
3977 Clouds 29 1016 65 10000 2.54 83 19:45 07.01.2021
3978 Clouds 29 1016 65 10000 2.14 69 19:23 07.01.2021
3979 Clouds 29 1017 69 10000 2.49 55 18:31 07.01.2021
3980 Clouds 29 1018 69 10000 3.09 360 17:58 07.01.2021
3981 Clouds 28 1018 69 10000 3.09 360 17:28 07.01.2021
3982 Clouds 28 1018 69 10000 5.14 360 16:53 07.01.2021
3983 Clouds 28 1018 69 10000 5.14 360 16:30 07.01.2021
3984 Clouds 26 1017 78 10000 5.14 10 15:42 07.01.2021
3985 Clouds 26 1017 78 10000 5.14 10 15:22 07.01.2021
3986 Clouds 24 1017 88 10000 3.12 347 14:27 07.01.2021
3987 Clouds 22 1016 100 10000 3.12 347 13:47 07.01.2021
3988 Clouds 21 1016 100 10000 3.26 341 13:18 07.01.2021
3989 Clear 23 1016 72 10000 1.34 346 12:43 07.01.2021
3990 Clouds 22 1015 88 10000 2.1 350 11:57 07.01.2021
3991 Clouds 22 1015 88 10000 2.1 350 11:57 07.01.2021
3992 Clouds 22 1015 88 10000 2.1 350 11:36 07.01.2021
3993 Clouds 22 1014 83 10000 3.46 340 10:51 07.01.2021
3994 Clouds 22 1014 83 10000 3.46 340 10:32 07.01.2021
3995 Clouds 22 1014 94 10000 2.1 360 09:48 07.01.2021
3996 Clouds 22 1014 94 10000 2.1 360 09:20 07.01.2021
3997 Clouds 21 1014 94 10000 2.1 360 08:29 07.01.2021
3998 Clouds 22 1015 94 10000 2.1 360 07:53 07.01.2021
3999 Clouds 22 1015 94 10000 2.1 360 07:30 07.01.2021
4000 Clouds 23 1016 75 10000 0.45 263 05:26 07.01.2021
4001 Clear 25 1017 92 10000 3.52 14 00:31 07.01.2021
4002 Clouds 26 1014 69 10000 3.1 70 23:49 06.01.2021
4003 Clouds 27 1013 78 10000 3.64 25 22:44 06.01.2021
4004 Clouds 26 1013 78 10000 3.1 360 21:47 06.01.2021
4005 Clouds 26 1013 78 10000 3.1 360 21:23 06.01.2021
4006 Clouds 26 1013 74 10000 3.1 360 20:58 06.01.2021
4007 Clouds 27 1013 74 10000 3.1 360 20:36 06.01.2021
4008 Clouds 28 1014 62 10000 5.1 360 20:18 06.01.2021
4009 Clouds 28 1014 62 10000 5.1 360 19:38 06.01.2021
4010 Clouds 28 1015 66 10000 5.1 360 19:19 06.01.2021
4011 Clouds 28 1015 66 10000 5.1 360 18:41 06.01.2021
4012 Clouds 28 1016 69 10000 4.1 30 18:23 06.01.2021
4013 Clouds 27 1016 69 10000 4.1 30 17:42 06.01.2021
4014 Clouds 27 1016 69 10000 4.1 30 17:24 06.01.2021
4015 Clouds 27 1017 74 10000 3.1 360 16:42 06.01.2021
4016 Clouds 26 1016 88 10000 2.6 360 16:19 06.01.2021
4017 Clouds 25 1016 88 10000 2.6 360 15:52 06.01.2021
4018 Clouds 25 1016 88 10000 2.6 360 15:31 06.01.2021
4019 Clouds 24 1016 88 10000 3.25 11 14:48 06.01.2021
4020 Clouds 23 1015 88 10000 3.1 10 14:20 06.01.2021
4021 Clouds 23 1015 88 10000 3.1 10 13:42 06.01.2021
4022 Clouds 22 1014 88 10000 2.1 360 13:22 06.01.2021
4023 Clouds 23 1014 88 10000 2.1 360 12:48 06.01.2021
4024 Clouds 22 1014 88 10000 2.1 10 11:54 06.01.2021
4025 Clouds 22 1014 88 10000 2.1 10 11:26 06.01.2021
4026 Clouds 22 1013 88 10000 2.81 351 10:58 06.01.2021
4027 Clouds 22 1013 88 10000 2.1 360 10:18 06.01.2021
4028 Clouds 22 1013 88 10000 2.1 360 09:49 06.01.2021
4029 Clouds 22 1013 88 10000 3.1 10 08:57 06.01.2021
4030 Clouds 22 1013 88 10000 3.1 10 08:30 06.01.2021
4031 Clouds 22 1014 88 10000 2.78 341 07:54 06.01.2021
4032 Clouds 22 1014 88 10000 1.5 360 06:46 06.01.2021
4033 Clouds 22 1014 88 10000 2.1 60 05:33 06.01.2021
4034 Clouds 23 1014 83 10000 2.1 40 04:34 06.01.2021
4035 Clouds 24 1014 78 10000 2.6 30 02:46 06.01.2021
4036 Clouds 25 1014 78 10000 2.6 30 02:23 06.01.2021
4037 Clouds 26 1013 83 10000 1.5 100 00:31 06.01.2021
4038 Clouds 27 1013 70 10000 0.83 73 23:28 05.01.2021
4039 Clouds 28 1013 70 10000 0.83 73 22:41 05.01.2021
4040 Clouds 28 1012 62 10000 2.6 90 22:20 05.01.2021
4041 Clouds 28 1012 62 10000 2.6 90 21:52 05.01.2021
4042 Clouds 28 1013 58 10000 2.08 106 20:41 05.01.2021
4043 Clouds 28 1013 58 10000 2.08 106 20:41 05.01.2021
4044 Clouds 29 1013 58 10000 2.17 86 20:23 05.01.2021
4045 Clouds 29 1013 62 10000 2.6 30 19:42 05.01.2021
4046 Clouds 29 1014 66 10000 2.6 30 19:21 05.01.2021
4047 Clouds 29 1014 66 10000 2.6 30 18:43 05.01.2021
4048 Clouds 29 1014 66 10000 2.6 30 18:24 05.01.2021
4049 Clouds 28 1015 65 10000 3.1 30 17:49 05.01.2021
4050 Clouds 27 1015 65 10000 3.1 30 17:27 05.01.2021
4051 Clouds 27 1016 74 10000 3.1 30 16:52 05.01.2021
4052 Clouds 27 1016 74 10000 3.1 30 16:21 05.01.2021
4053 Clouds 24 1016 77 10000 2.82 45 15:50 05.01.2021
4054 Clear 22 1016 88 10000 2.83 20 14:56 05.01.2021
4055 Clear 22 1016 88 10000 2.61 351 14:26 05.01.2021
4056 Clear 20 1015 93 10000 2.61 351 13:49 05.01.2021
4057 Clouds 21 1015 93 10000 2.1 20 13:23 05.01.2021
4058 Clouds 20 1015 93 10000 2.1 20 12:48 05.01.2021
4059 Clouds 20 1015 93 10000 2.1 20 12:24 05.01.2021
4060 Clouds 20 1014 93 10000 2.1 10 11:39 05.01.2021
4061 Clouds 21 1014 93 10000 2.1 20 10:55 05.01.2021
4062 Clouds 21 1014 93 10000 2.1 20 10:36 05.01.2021
4063 Clouds 21 1014 88 10000 2.3 339 09:50 05.01.2021
4064 Clouds 21 1014 88 10000 2.33 342 09:29 05.01.2021
4065 Clouds 21 1014 100 10000 2.1 10 08:27 05.01.2021
4066 Clouds 21 1015 94 10000 2.41 342 07:45 05.01.2021
4067 Clouds 23 1015 88 10000 2.26 350 04:55 05.01.2021
4068 Clouds 25 1014 69 10000 2.6 50 00:51 05.01.2021
4069 Clouds 27 1014 65 10000 2.1 70 23:46 04.01.2021
4070 Clouds 27 1013 69 10000 4.1 90 23:26 04.01.2021
4071 Clouds 28 1013 69 10000 4.1 90 22:54 04.01.2021
4072 Clouds 28 1013 69 10000 4.1 90 22:34 04.01.2021
4073 Clouds 28 1013 66 10000 3.1 90 21:52 04.01.2021
4074 Clouds 28 1013 66 10000 3.1 90 21:34 04.01.2021
4075 Clouds 29 1014 62 10000 4.1 30 20:48 04.01.2021
4076 Clouds 29 1014 62 10000 4.1 30 20:30 04.01.2021
4077 Clouds 28 1015 66 10000 5.1 360 19:52 04.01.2021
4078 Clouds 29 1015 66 10000 5.1 360 19:25 04.01.2021
4079 Clouds 29 1016 66 10000 3.1 30 18:55 04.01.2021
4080 Clouds 28 1017 69 10000 6.2 30 18:24 04.01.2021
4081 Clouds 28 1017 69 10000 6.2 30 17:44 04.01.2021
4082 Clouds 28 1017 69 10000 6.2 30 17:25 04.01.2021
4083 Clouds 27 1017 74 10000 5.1 360 16:47 04.01.2021
4084 Clouds 27 1017 74 10000 5.1 360 16:27 04.01.2021
4085 Clouds 26 1017 69 10000 1.79 11 15:49 04.01.2021
4086 Clouds 24 1016 83 10000 3.01 24 15:28 04.01.2021
4087 Clouds 24 1016 83 10000 3.01 24 14:46 04.01.2021
4088 Clouds 21 1016 93 10000 2.83 346 13:47 04.01.2021
4089 Clouds 22 1016 88 10000 2.6 20 13:24 04.01.2021
4090 Clouds 22 1016 88 10000 2.6 20 12:42 04.01.2021
4091 Clouds 22 1015 88 10000 2.6 10 11:58 04.01.2021
4092 Clouds 21 1015 88 10000 2.6 10 11:22 04.01.2021
4093 Clouds 21 1015 94 10000 2.6 20 10:49 04.01.2021
4094 Clouds 21 1015 94 10000 2.6 20 10:28 04.01.2021
4095 Clouds 21 1015 94 10000 2.6 20 09:53 04.01.2021
4096 Clouds 21 1015 94 10000 2.6 40 09:20 04.01.2021
4097 Clouds 22 1015 94 10000 2.6 40 08:46 04.01.2021
4098 Clouds 22 1016 94 10000 2.6 50 07:58 04.01.2021
4099 Clouds 22 1016 94 10000 2.6 50 07:37 04.01.2021
4100 Clouds 23 1017 88 10000 2.1 60 05:33 04.01.2021
4101 Clouds 23 1016 83 10000 2.1 60 03:40 04.01.2021
4102 Clouds 26 1017 78 10000 2.45 37 00:47 04.01.2021
4103 Clouds 26 1016 74 10000 2.6 360 23:49 03.01.2021
4104 Clouds 27 1016 74 10000 2.6 360 23:24 03.01.2021
4105 Clouds 28 1016 69 10000 5.1 360 22:56 03.01.2021
4106 Clouds 28 1016 66 10000 3.1 90 22:32 03.01.2021
4107 Clouds 29 1016 66 10000 3.1 90 21:55 03.01.2021
4108 Clouds 29 1016 66 10000 3.1 90 21:26 03.01.2021
4109 Clouds 29 1016 66 10000 2.6 40 20:49 03.01.2021
4110 Clouds 29 1016 66 10000 2.6 40 20:31 03.01.2021
4111 Clouds 28 1018 69 10000 3.1 360 19:56 03.01.2021
4112 Clouds 28 1018 69 10000 3.1 360 19:35 03.01.2021
4113 Clouds 29 1018 69 10000 2.6 90 18:57 03.01.2021
4114 Clouds 28 1018 69 10000 2.6 90 18:38 03.01.2021
4115 Clouds 28 1020 74 10000 3.1 30 18:18 03.01.2021
4116 Clouds 28 1020 74 10000 3.1 30 17:41 03.01.2021
4117 Clouds 27 1020 74 10000 3.1 30 17:22 03.01.2021
4118 Clouds 26 1020 78 10000 3.1 360 16:42 03.01.2021
4119 Clouds 26 1020 78 10000 3.1 360 16:19 03.01.2021
4120 Clouds 26 1020 78 10000 3.1 360 15:46 03.01.2021
4121 Clouds 26 1020 78 10000 3.1 360 15:26 03.01.2021
4122 Clouds 24 1019 83 10000 2.83 37 14:50 03.01.2021
4123 Clouds 23 1019 83 10000 2.34 360 14:27 03.01.2021
4124 Clouds 22 1018 94 10000 2.34 360 13:40 03.01.2021
4125 Clouds 22 1018 100 10000 2.1 360 13:21 03.01.2021
4126 Clouds 21 1018 100 10000 2.1 360 12:24 03.01.2021
4127 Clouds 21 1018 100 10000 2.1 40 11:40 03.01.2021
4128 Clouds 21 1018 100 10000 2.1 40 11:22 03.01.2021
4129 Clouds 21 1018 100 10000 3.1 30 10:34 03.01.2021
4130 Clouds 21 1018 94 10000 3.1 40 09:55 03.01.2021
4131 Clouds 21 1018 94 10000 3.1 40 09:33 03.01.2021
4132 Clouds 22 1018 94 10000 2.1 20 08:34 03.01.2021
4133 Clouds 22 1018 94 10000 2.1 30 07:26 03.01.2021
4134 Clouds 21 1019 94 10000 3.1 20 05:42 03.01.2021
4135 Clouds 23 1018 94 10000 3.23 360 02:27 03.01.2021
4136 Clouds 24 1018 94 10000 3.49 18 00:56 03.01.2021
4137 Clouds 24 1016 94 10000 3.53 31 23:53 02.01.2021
4138 Clouds 24 1016 94 10000 3.7 48 23:20 02.01.2021
4139 Clouds 25 1017 88 6000 3.7 48 22:49 02.01.2021
4140 Clouds 25 1017 88 6000 3.7 48 22:49 02.01.2021
4141 Clouds 24 1017 88 6000 3.7 48 22:31 02.01.2021
4142 Clouds 25 1017 62 10000 7.7 360 21:49 02.01.2021
4143 Clouds 27 1017 62 10000 7.7 360 21:29 02.01.2021
4144 Clouds 27 1018 62 10000 7.7 50 20:46 02.01.2021
4145 Clouds 27 1018 62 10000 7.7 50 20:26 02.01.2021
4146 Clouds 27 1018 65 10000 5.1 360 19:48 02.01.2021
4147 Clouds 27 1019 65 10000 5.1 360 19:20 02.01.2021
4148 Clouds 27 1019 65 10000 5.1 360 18:51 02.01.2021
4149 Clouds 27 1019 65 10000 5.1 360 18:32 02.01.2021
4150 Clouds 27 1020 74 10000 4.1 30 17:46 02.01.2021
4151 Clouds 27 1020 74 10000 4.1 30 17:28 02.01.2021
4152 Clouds 27 1021 83 10000 5.1 30 16:46 02.01.2021
4153 Clouds 26 1021 83 10000 5.1 30 16:21 02.01.2021
4154 Clouds 26 1020 83 10000 4.1 360 15:47 02.01.2021
4155 Clouds 25 1020 83 10000 4.1 360 15:27 02.01.2021
4156 Clouds 24 1019 88 10000 2.6 360 14:47 02.01.2021
4157 Clouds 23 1019 88 10000 2.6 360 14:23 02.01.2021
4158 Clouds 22 1018 88 10000 3.1 360 13:43 02.01.2021
4159 Clouds 22 1019 94 10000 3.1 20 12:55 02.01.2021
4160 Clouds 21 1019 94 10000 3.1 20 12:32 02.01.2021
4161 Clouds 21 1018 93 10000 2.6 10 11:59 02.01.2021
4162 Clouds 21 1018 93 10000 2.6 10 11:26 02.01.2021
4163 Clouds 21 1018 100 10000 2.6 10 10:58 02.01.2021
4164 Clouds 21 1018 100 10000 2.6 10 10:34 02.01.2021
4165 Clouds 21 1018 88 10000 3.12 13 09:59 02.01.2021
4166 Clouds 21 1018 88 10000 3.12 13 09:39 02.01.2021
4167 Clouds 22 1019 94 10000 2.6 10 09:18 02.01.2021
4168 Clouds 22 1019 94 10000 2.6 10 08:41 02.01.2021
4169 Clouds 22 1019 88 10000 2.1 30 07:55 02.01.2021
4170 Clouds 22 1019 88 10000 2.1 30 07:22 02.01.2021
4171 Clouds 22 1019 88 10000 2.1 20 06:56 02.01.2021
4172 Clouds 22 1020 94 10000 2.1 20 05:54 02.01.2021
4173 Clouds 24 1019 78 10000 2.1 40 01:00 02.01.2021
4174 Clouds 24 1019 78 10000 2.1 40 00:37 02.01.2021
4175 Clouds 24 1019 78 10000 2.1 40 00:37 02.01.2021
4176 Clouds 25 1018 65 10000 3.1 70 23:57 01.01.2021
4177 Clouds 25 1017 88 10000 3.1 360 23:23 01.01.2021
4178 Clouds 25 1017 88 10000 3.1 360 22:50 01.01.2021
4179 Clouds 25 1017 88 10000 3.1 360 22:26 01.01.2021
4180 Clouds 26 1018 94 10000 3.1 30 21:58 01.01.2021
4181 Clouds 26 1018 94 10000 3.1 30 21:39 01.01.2021
4182 Clouds 25 1017 100 5000 3.1 90 21:19 01.01.2021
4183 Clouds 25 1017 100 5000 3.1 90 20:43 01.01.2021
4184 Clouds 25 1018 88 6000 5.1 360 20:18 01.01.2021
4185 Clouds 25 1018 88 6000 5.1 360 19:41 01.01.2021
4186 Clouds 25 1018 88 6000 5.1 360 19:20 01.01.2021
4187 Clouds 27 1018 69 5000 5.1 360 18:42 01.01.2021
4188 Clouds 27 1020 65 10000 5.1 80 18:23 01.01.2021
4189 Clouds 27 1020 65 10000 5.1 80 17:44 01.01.2021
4190 Clouds 27 1020 65 10000 5.1 80 17:23 01.01.2021
4191 Clouds 28 1020 66 10000 5.1 30 16:45 01.01.2021
4192 Clouds 28 1020 66 10000 5.1 30 16:25 01.01.2021
4193 Clouds 26 1020 65 10000 4.14 34 15:39 01.01.2021
4194 Clouds 24 1019 78 10000 3.64 28 14:44 01.01.2021
4195 Clouds 23 1019 78 10000 3.12 6 14:25 01.01.2021
4196 Clouds 21 1018 100 10000 3.12 6 13:38 01.01.2021
4197 Clouds 21 1019 83 10000 2.6 40 12:51 01.01.2021
4198 Clouds 21 1019 83 10000 2.6 40 12:27 01.01.2021
4199 Clouds 21 1019 88 10000 2.6 30 11:42 01.01.2021
4200 Clouds 20 1018 94 10000 2.1 10 11:19 01.01.2021
4201 Clouds 20 1018 94 10000 2.1 10 10:56 01.01.2021
4202 Clouds 20 1018 94 10000 2.1 10 10:26 01.01.2021
4203 Clouds 21 1018 94 10000 2.1 10 09:30 01.01.2021
4204 Clouds 21 1018 94 10000 2.1 360 08:30 01.01.2021
4205 Clouds 22 1019 83 10000 1.34 351 06:46 01.01.2021
4206 Clouds 22 1019 83 10000 2.1 20 04:50 01.01.2021
4207 Clouds 23 1018 83 10000 2.6 40 01:43 01.01.2021
4208 Clouds 25 1017 73 10000 2.6 50 00:32 01.01.2021
4209 Clouds 27 1016 61 10000 3.6 70 23:41 31.12.2020
4210 Clouds 27 1016 88 8000 3.1 30 23:21 31.12.2020
4211 Clouds 27 1016 88 8000 3.1 30 22:42 31.12.2020
4212 Clouds 27 1016 88 8000 3.1 30 22:23 31.12.2020
4213 Clouds 29 1016 74 8000 4.1 20 21:56 31.12.2020
4214 Clouds 29 1016 74 8000 4.1 20 21:36 31.12.2020
4215 Clouds 30 1016 66 10000 5.1 20 20:58 31.12.2020
4216 Clouds 30 1016 66 10000 5.1 20 20:30 31.12.2020
4217 Clouds 30 1016 66 10000 5.1 20 20:30 31.12.2020
4218 Clouds 30 1016 62 10000 4.1 360 19:51 31.12.2020
4219 Clouds 30 1016 62 10000 4.1 360 19:33 31.12.2020
4220 Clouds 29 1018 62 10000 4.1 30 18:55 31.12.2020
4221 Clouds 29 1018 62 10000 4.1 30 18:25 31.12.2020
4222 Clouds 28 1019 65 10000 4.1 360 17:48 31.12.2020
4223 Clouds 28 1019 65 10000 4.1 360 17:28 31.12.2020
4224 Clouds 28 1020 65 10000 4.1 30 16:57 31.12.2020
4225 Clouds 27 1020 65 10000 4.1 30 16:38 31.12.2020
4226 Clouds 27 1020 69 10000 6.2 360 16:19 31.12.2020
4227 Clouds 26 1020 69 10000 6.2 360 15:42 31.12.2020
4228 Clouds 24 1019 83 10000 2.6 360 15:19 31.12.2020
4229 Clouds 24 1019 83 10000 2.6 360 14:41 31.12.2020
4230 Clouds 24 1019 83 10000 2.6 360 14:23 31.12.2020
4231 Clouds 22 1018 94 10000 3.1 360 13:57 31.12.2020
4232 Clouds 22 1018 94 10000 3.1 360 13:36 31.12.2020
4233 Clouds 21 1017 94 10000 2.1 10 13:18 31.12.2020
4234 Clouds 20 1017 94 10000 2.1 10 12:45 31.12.2020
4235 Clouds 20 1017 94 10000 2.1 10 12:27 31.12.2020
4236 Clouds 20 1016 100 8000 2.1 10 11:47 31.12.2020
4237 Clouds 20 1016 100 8000 2.1 10 11:47 31.12.2020
4238 Clouds 20 1016 100 8000 2.1 10 11:47 31.12.2020
4239 Clouds 20 1016 100 8000 2.1 10 11:28 31.12.2020
4240 Clouds 20 1016 100 8000 2.1 10 11:28 31.12.2020
4241 Clouds 21 1016 94 10000 2.1 10 10:41 31.12.2020
4242 Clouds 21 1016 94 10000 2.1 10 10:23 31.12.2020
4243 Clouds 21 1016 94 10000 2.6 10 09:48 31.12.2020
4244 Clouds 21 1016 94 10000 2.6 10 09:24 31.12.2020
4245 Clouds 21 1016 94 10000 2.1 20 08:47 31.12.2020
4246 Clouds 21 1016 94 10000 2.1 20 08:29 31.12.2020
4247 Clouds 22 1016 88 10000 2.1 20 07:54 31.12.2020
4248 Clouds 22 1016 88 10000 2.1 20 07:24 31.12.2020
4249 Clouds 22 1017 94 10000 2.6 10 05:30 31.12.2020
4250 Clouds 23 1017 88 10000 3.1 20 03:33 31.12.2020
4251 Clouds 23 1016 88 10000 3.1 20 02:36 31.12.2020
4252 Clouds 24 1016 88 10000 3.1 20 01:56 31.12.2020
4253 Clouds 24 1016 88 10000 3.1 20 01:37 31.12.2020
4254 Clouds 24 1015 88 10000 2.1 30 00:57 31.12.2020
4255 Clouds 25 1015 88 10000 2.1 30 00:26 31.12.2020
4256 Clouds 27 1014 74 10000 5.1 360 23:36 30.12.2020
4257 Clouds 27 1014 74 10000 5.1 360 23:18 30.12.2020
4258 Clouds 28 1014 74 10000 5.1 360 22:35 30.12.2020
4259 Clouds 28 1014 74 10000 5.1 360 21:54 30.12.2020
4260 Clouds 28 1014 74 10000 5.1 360 21:54 30.12.2020
4261 Clouds 28 1014 74 10000 5.1 360 21:27 30.12.2020
4262 Clouds 29 1015 74 10000 7.7 360 20:53 30.12.2020
4263 Clouds 29 1015 74 10000 7.7 360 20:29 30.12.2020
4264 Clouds 29 1015 74 10000 5.1 360 19:58 30.12.2020
4265 Clouds 29 1015 74 10000 5.1 360 19:37 30.12.2020
4266 Clouds 29 1015 74 10000 5.1 360 19:37 30.12.2020
4267 Clouds 29 1016 70 10000 5.1 360 19:18 30.12.2020
4268 Clouds 29 1016 70 10000 5.1 360 18:39 30.12.2020
4269 Clouds 28 1016 69 10000 6.2 360 18:20 30.12.2020
4270 Clouds 28 1016 69 10000 6.2 360 17:43 30.12.2020
4271 Clouds 28 1017 69 10000 5.1 360 17:24 30.12.2020
4272 Clouds 27 1017 69 10000 5.1 360 16:44 30.12.2020
4273 Clouds 26 1017 83 10000 5.1 360 15:51 30.12.2020
4274 Clouds 25 1017 83 10000 5.1 360 15:31 30.12.2020
4275 Clouds 24 1016 83 10000 6.51 6 14:58 30.12.2020
4276 Clouds 24 1016 83 10000 6.51 6 14:39 30.12.2020
4277 Clouds 22 1014 94 10000 5.94 358 14:19 30.12.2020
4278 Clouds 21 1015 94 10000 2.1 360 13:19 30.12.2020
4279 Clouds 21 1015 94 10000 2.1 360 12:26 30.12.2020
4280 Clouds 20 1015 94 10000 3.1 360 11:45 30.12.2020
4281 Clouds 21 1014 88 10000 2.1 350 11:22 30.12.2020
4282 Clouds 21 1014 88 10000 2.1 350 10:58 30.12.2020
4283 Clouds 21 1014 88 10000 2.1 350 10:38 30.12.2020
4284 Clouds 21 1014 88 10000 2.1 350 10:18 30.12.2020
4285 Clouds 21 1014 88 10000 2.1 350 09:41 30.12.2020
4286 Clouds 21 1014 88 10000 2.1 350 09:41 30.12.2020
4287 Clouds 21 1014 94 10000 2.1 10 08:36 30.12.2020
4288 Clouds 21 1015 94 10000 3.1 350 07:50 30.12.2020
4289 Clouds 21 1015 94 10000 3.1 350 07:24 30.12.2020
4290 Clouds 22 1015 94 10000 2.1 350 06:40 30.12.2020
4291 Clouds 22 1015 94 10000 2.1 340 05:47 30.12.2020
4292 Clouds 22 1015 94 10000 2.1 340 05:28 30.12.2020
4293 Clouds 23 1015 88 10000 3.1 10 03:29 30.12.2020
4294 Clouds 23 1015 88 10000 3.1 340 02:52 30.12.2020
4295 Clouds 23 1015 88 10000 3.1 340 02:31 30.12.2020
4296 Clouds 24 1014 88 10000 3.1 350 01:44 30.12.2020
4297 Clouds 24 1014 88 10000 3.1 350 01:26 30.12.2020
4298 Clouds 24 1013 78 10000 4.1 350 00:40 30.12.2020
4299 Clouds 25 1013 69 10000 3.1 350 00:21 30.12.2020
4300 Clouds 25 1013 69 10000 3.1 350 23:42 29.12.2020
4301 Clouds 26 1012 74 10000 5.1 360 23:24 29.12.2020
4302 Clouds 26 1012 74 10000 5.1 360 22:46 29.12.2020
4303 Clouds 27 1012 74 10000 5.1 360 22:26 29.12.2020
4304 Clouds 27 1012 74 10000 6.2 360 21:54 29.12.2020
4305 Clouds 27 1012 74 10000 6.2 360 21:36 29.12.2020
4306 Clouds 29 1013 70 10000 5.1 360 20:55 29.12.2020
4307 Clouds 29 1013 70 10000 5.1 360 20:37 29.12.2020
4308 Clouds 29 1014 70 10000 5.1 360 20:19 29.12.2020
4309 Clouds 29 1014 70 10000 5.1 360 19:40 29.12.2020
4310 Clouds 28 1015 69 10000 5.1 360 19:20 29.12.2020
4311 Clouds 28 1015 69 10000 5.1 360 18:46 29.12.2020
4312 Clouds 28 1015 69 10000 5.1 360 18:27 29.12.2020
4313 Clouds 28 1015 74 10000 6.2 360 17:44 29.12.2020
4314 Clouds 28 1015 74 10000 5.1 360 17:20 29.12.2020
4315 Clouds 27 1015 74 10000 5.1 360 16:46 29.12.2020
4316 Clouds 26 1015 78 10000 5.1 360 16:24 29.12.2020
4317 Clouds 26 1015 78 10000 5.1 360 15:37 29.12.2020
4318 Clouds 25 1014 88 10000 3.1 360 15:18 29.12.2020
4319 Clouds 25 1014 88 10000 3.1 360 14:37 29.12.2020
4320 Clouds 23 1014 88 10000 2.1 360 14:19 29.12.2020
4321 Clouds 23 1014 88 10000 2.1 360 13:48 29.12.2020
4322 Clouds 22 1014 94 10000 2.6 350 13:21 29.12.2020
4323 Clouds 22 1014 94 10000 2.6 350 12:38 29.12.2020
4324 Clouds 21 1013 100 10000 2.6 20 12:20 29.12.2020
4325 Clouds 21 1013 100 10000 2.6 20 11:54 29.12.2020
4326 Clouds 21 1013 100 10000 2.6 20 11:31 29.12.2020
4327 Clouds 22 1013 94 10000 3.1 360 10:34 29.12.2020
4328 Clouds 22 1013 94 10000 3.8 343 09:49 29.12.2020
4329 Clouds 22 1013 94 10000 3.62 347 09:25 29.12.2020
4330 Clouds 22 1013 100 10000 3.62 347 08:54 29.12.2020
4331 Clouds 22 1013 100 10000 3.62 347 08:32 29.12.2020
4332 Clouds 22 1014 94 10000 3.17 350 07:26 29.12.2020
4333 Clouds 22 1014 94 10000 2.1 20 06:45 29.12.2020
4334 Clouds 23 1014 94 10000 3.42 357 05:25 29.12.2020
4335 Clouds 25 1013 94 10000 3.8 357 00:49 29.12.2020
4336 Clouds 26 1013 94 10000 3.65 10 00:21 29.12.2020
4337 Clouds 29 1013 70 10000 5.1 360 23:36 28.12.2020
4338 Clouds 29 1013 70 10000 5.1 360 22:28 28.12.2020
4339 Clouds 29 1013 70 10000 5.1 360 22:28 28.12.2020
4340 Clouds 29 1012 70 10000 5.1 360 21:46 28.12.2020
4341 Clouds 29 1012 70 10000 5.1 360 21:27 28.12.2020
4342 Clouds 29 1012 62 10000 3.1 220 20:43 28.12.2020
4343 Clouds 30 1014 66 10000 3.1 360 20:23 28.12.2020
4344 Clouds 30 1014 66 10000 3.1 360 19:50 28.12.2020
4345 Clouds 30 1014 66 10000 3.1 360 19:26 28.12.2020
4346 Clouds 30 1015 62 10000 2.6 360 18:59 28.12.2020
4347 Clouds 30 1015 62 10000 2.6 360 18:30 28.12.2020
4348 Clouds 29 1015 66 10000 5.1 360 17:49 28.12.2020
4349 Clouds 29 1015 66 10000 5.1 360 17:31 28.12.2020
4350 Clouds 28 1015 69 10000 2.1 40 16:59 28.12.2020
4351 Clouds 27 1014 83 10000 3.1 360 16:29 28.12.2020
4352 Clouds 26 1014 83 10000 3.1 360 15:54 28.12.2020
4353 Clouds 26 1014 83 10000 3.1 360 15:33 28.12.2020
4354 Clouds 24 1014 88 10000 2.16 342 14:29 28.12.2020
4355 Clouds 21 1014 100 10000 2.16 342 13:39 28.12.2020
4356 Clouds 22 1014 94 10000 2.16 338 13:19 28.12.2020
4357 Clouds 21 1014 94 10000 2.37 335 12:26 28.12.2020
4358 Clouds 21 1013 94 10000 2.37 335 11:49 28.12.2020
4359 Clouds 21 1013 94 10000 2.37 335 11:30 28.12.2020
4360 Clouds 21 1013 100 10000 2.1 360 10:56 28.12.2020
4361 Clouds 21 1013 100 10000 2.1 360 10:29 28.12.2020
4362 Clouds 21 1012 100 10000 2.1 360 09:53 28.12.2020
4363 Clouds 22 1012 100 10000 2.1 360 09:25 28.12.2020
4364 Clouds 22 1013 94 10000 2.1 10 08:58 28.12.2020
4365 Clouds 23 1014 100 10000 2.34 341 06:52 28.12.2020
4366 Clouds 23 1014 94 10000 1.5 60 04:56 28.12.2020
4367 Clouds 24 1014 100 10000 2.1 40 03:26 28.12.2020
4368 Clouds 25 1013 94 10000 2.32 3 01:52 28.12.2020
4369 Clouds 26 1011 83 10000 2.26 24 23:52 27.12.2020
4370 Clouds 27 1012 74 10000 2.06 44 23:20 27.12.2020
4371 Clouds 28 1012 74 10000 1.82 75 22:28 27.12.2020
4372 Clouds 29 1012 70 10000 1.82 75 21:47 27.12.2020
4373 Clouds 29 1012 70 10000 2.21 90 21:20 27.12.2020
4374 Clouds 30 1013 70 10000 2.62 86 19:59 27.12.2020
4375 Clouds 30 1014 70 10000 2.1 40 19:24 27.12.2020
4376 Clouds 30 1014 70 10000 2.1 40 18:49 27.12.2020
4377 Clouds 29 1014 74 10000 2.25 62 18:20 27.12.2020
4378 Clouds 29 1014 74 10000 2.25 62 17:56 27.12.2020
4379 Clouds 29 1014 74 10000 2.25 62 17:35 27.12.2020
4380 Clouds 28 1015 74 10000 2.1 40 16:55 27.12.2020
4381 Clouds 28 1015 74 10000 2.1 40 16:21 27.12.2020
4382 Clouds 26 1014 78 10000 2.45 32 15:31 27.12.2020
4383 Clouds 20 1013 100 10000 2.39 7 14:50 27.12.2020
4384 Clouds 19 1013 100 10000 2.39 7 14:31 27.12.2020
4385 Clouds 21 1013 100 10000 2.24 345 13:36 27.12.2020
4386 Clouds 21 1013 100 10000 2.24 345 13:36 27.12.2020
4387 Clouds 21 1012 100 10000 2.29 340 12:55 27.12.2020
4388 Clouds 20 1012 100 10000 2.38 340 12:24 27.12.2020
4389 Clear 21 1013 90 10000 2.38 340 11:42 27.12.2020
4390 Clear 21 1013 90 10000 2.34 343 11:19 27.12.2020
4391 Clear 21 1013 90 10000 2.34 343 10:40 27.12.2020
4392 Clouds 22 1011 94 10000 1.5 10 10:19 27.12.2020
4393 Clouds 22 1011 94 10000 1.5 30 09:19 27.12.2020
4394 Clouds 22 1011 94 10000 2.1 50 08:28 27.12.2020
4395 Clouds 22 1012 94 10000 2.1 30 07:28 27.12.2020
4396 Clouds 23 1012 94 10000 2.1 40 05:48 27.12.2020
4397 Clouds 23 1012 94 10000 2.1 30 05:21 27.12.2020
4398 Clouds 23 1011 94 10000 2.1 50 03:24 27.12.2020
4399 Clouds 24 1011 94 10000 2.18 2 01:52 27.12.2020
4400 Clouds 25 1010 88 10000 3.1 50 00:26 27.12.2020
4401 Clouds 26 1010 78 10000 2.1 70 23:42 26.12.2020
4402 Clouds 28 1009 70 10000 2.49 48 23:22 26.12.2020
4403 Clouds 29 1009 70 10000 2.49 48 22:41 26.12.2020
4404 Clouds 29 1009 66 10000 2.41 61 22:18 26.12.2020
4405 Clouds 29 1009 66 10000 2.41 61 21:53 26.12.2020
4406 Clouds 29 1009 66 10000 2.17 77 21:24 26.12.2020
4407 Clouds 30 1009 66 10000 2.17 77 20:44 26.12.2020
4408 Clouds 30 1009 66 10000 1.96 85 20:21 26.12.2020
4409 Clouds 30 1010 70 10000 1.96 85 19:30 26.12.2020
4410 Clouds 30 1012 66 10000 4.1 130 18:54 26.12.2020
4411 Clouds 30 1012 66 10000 4.1 130 18:32 26.12.2020
4412 Clouds 28 1013 74 10000 2.67 46 17:46 26.12.2020
4413 Clouds 28 1013 74 10000 3.01 43 17:28 26.12.2020
4414 Clouds 28 1013 74 10000 4.1 90 16:38 26.12.2020
4415 Clouds 25 1013 78 10000 2.6 60 15:58 26.12.2020
4416 Clouds 24 1013 94 10000 3.02 11 15:20 26.12.2020
4417 Clouds 23 1013 94 10000 3.02 11 14:31 26.12.2020
4418 Clouds 21 1012 100 10000 2.8 353 13:57 26.12.2020
4419 Clouds 21 1012 100 10000 2.8 353 13:37 26.12.2020
4420 Clouds 21 1011 100 10000 2.1 20 12:57 26.12.2020
4421 Clouds 21 1011 100 10000 2.1 20 12:39 26.12.2020
4422 Clouds 21 1011 100 10000 2.1 40 11:59 26.12.2020
4423 Clouds 21 1011 100 10000 2.1 40 11:41 26.12.2020
4424 Clouds 21 1011 100 10000 2.1 50 11:20 26.12.2020
4425 Clouds 21 1011 100 10000 2.1 50 10:45 26.12.2020
4426 Clouds 21 1011 100 10000 2.1 50 10:24 26.12.2020
4427 Clouds 21 1011 100 10000 2.1 40 09:47 26.12.2020
4428 Clouds 22 1012 94 10000 2.1 10 08:55 26.12.2020
4429 Clouds 22 1012 100 10000 2.1 360 08:19 26.12.2020
4430 Clouds 22 1012 100 10000 2.1 360 07:21 26.12.2020
4431 Clouds 23 1013 94 10000 2.21 349 04:39 26.12.2020
4432 Clouds 23 1013 94 10000 2.1 60 02:34 26.12.2020
4433 Clouds 24 1013 88 10000 3.1 70 00:34 26.12.2020
4434 Clouds 24 1012 88 10000 2.1 40 23:49 25.12.2020
4435 Clouds 24 1012 88 8000 1.88 60 23:28 25.12.2020
4436 Clouds 25 1012 88 8000 1.88 60 22:51 25.12.2020
4437 Clouds 25 1012 88 8000 2.43 71 22:26 25.12.2020
4438 Clouds 26 1012 83 8000 2.1 30 21:42 25.12.2020
4439 Clouds 27 1012 78 10000 2.1 70 21:24 25.12.2020
4440 Clouds 27 1012 78 10000 2.1 70 20:44 25.12.2020
4441 Clouds 27 1013 78 10000 3.1 30 20:26 25.12.2020
4442 Clouds 28 1013 78 10000 3.1 30 19:42 25.12.2020
4443 Clouds 28 1014 78 8000 2.85 73 18:43 25.12.2020
4444 Clouds 28 1014 78 8000 2.74 59 18:25 25.12.2020
4445 Clouds 28 1014 74 10000 3.1 30 17:35 25.12.2020
4446 Clouds 28 1015 74 10000 3.1 30 16:51 25.12.2020
4447 Clouds 27 1015 78 10000 3.1 360 16:21 25.12.2020
4448 Clouds 27 1015 78 10000 3.1 360 15:49 25.12.2020
4449 Clouds 26 1015 78 10000 3.1 360 15:25 25.12.2020
4450 Clouds 25 1015 83 10000 2.1 360 14:32 25.12.2020
4451 Clouds 23 1014 94 10000 3.28 349 13:49 25.12.2020
4452 Clouds 23 1014 94 10000 3 342 13:26 25.12.2020
4453 Clouds 22 1014 100 10000 2.1 10 12:56 25.12.2020
4454 Clouds 22 1014 100 10000 2.1 10 12:27 25.12.2020
4455 Clouds 22 1014 100 10000 2.1 360 11:46 25.12.2020
4456 Clouds 22 1014 100 10000 2.1 360 11:23 25.12.2020
4457 Clouds 22 1013 100 10000 2.1 350 10:40 25.12.2020
4458 Clouds 22 1014 100 10000 2.1 360 09:49 25.12.2020
4459 Clouds 22 1014 100 10000 2.1 360 08:53 25.12.2020
4460 Clouds 22 1014 100 10000 2.1 360 08:35 25.12.2020
4461 Clouds 23 1015 100 10000 2.1 40 06:51 25.12.2020
4462 Clouds 23 1015 100 10000 49.4 949 05:38 25.12.2020
4463 Clouds 23 1015 94 10000 1.5 0 02:21 25.12.2020
4464 Clouds 24 1014 100 10000 2.86 2 00:25 25.12.2020
4465 Clouds 25 1015 94 8000 2.86 2 23:31 24.12.2020
4466 Clouds 25 1015 94 8000 3.02 16 22:54 24.12.2020
4467 Clouds 25 1015 94 8000 3.02 16 22:54 24.12.2020
4468 Clouds 25 1015 94 8000 3.12 37 22:24 24.12.2020
4469 Clouds 26 1015 83 10000 4.1 180 21:47 24.12.2020
4470 Clouds 28 1015 83 10000 3.23 48 20:59 24.12.2020
4471 Clouds 28 1016 88 8000 2.58 46 19:48 24.12.2020
4472 Clouds 28 1017 70 10000 3.1 40 18:21 24.12.2020
4473 Clouds 29 1017 70 10000 3.1 40 17:38 24.12.2020
4474 Clouds 29 1017 74 10000 3.1 40 17:20 24.12.2020
4475 Clouds 28 1017 74 10000 3.1 40 16:25 24.12.2020
4476 Clouds 27 1017 78 10000 2.1 40 15:49 24.12.2020
4477 Clouds 27 1017 78 10000 2.1 40 15:25 24.12.2020
4478 Clouds 25 1016 88 10000 3.1 360 14:56 24.12.2020
4479 Clouds 25 1016 88 10000 3.1 360 14:37 24.12.2020
4480 Clouds 23 1015 94 10000 3.23 353 14:18 24.12.2020
4481 Clouds 23 1015 94 10000 3.23 353 13:38 24.12.2020
4482 Clouds 22 1015 94 10000 2.1 30 13:18 24.12.2020
4483 Clouds 22 1015 94 10000 2.1 30 12:39 24.12.2020
4484 Clouds 22 1015 94 10000 2.1 30 12:18 24.12.2020
4485 Clouds 22 1015 94 10000 2.1 60 11:38 24.12.2020
4486 Clouds 22 1014 94 10000 2.1 60 11:19 24.12.2020
4487 Clouds 22 1014 94 10000 2.1 60 10:43 24.12.2020
4488 Clouds 22 1014 100 8000 3.1 90 10:18 24.12.2020
4489 Clouds 22 1014 100 8000 3.1 90 09:49 24.12.2020
4490 Clouds 22 1014 100 10000 2.1 10 08:50 24.12.2020
4491 Clouds 22 1015 100 10000 2.1 350 07:54 24.12.2020
4492 Clouds 22 1015 100 10000 2.1 350 07:35 24.12.2020
4493 Clouds 23 1016 94 10000 2.6 10 06:23 24.12.2020
4494 Clouds 24 1016 94 10000 2.1 40 03:29 24.12.2020
4495 Clouds 25 1015 83 10000 2.1 40 01:48 24.12.2020
4496 Clouds 26 1015 78 10000 2.1 40 01:19 24.12.2020
4497 Clouds 26 1015 78 10000 2.1 40 00:23 24.12.2020
4498 Clouds 27 1015 74 10000 3.1 50 23:57 23.12.2020
4499 Clouds 27 1014 74 10000 3.74 13 23:38 23.12.2020
4500 Clouds 28 1014 74 10000 3.66 26 23:19 23.12.2020
4501 Clouds 28 1014 74 10000 3.66 26 22:42 23.12.2020
4502 Clouds 29 1014 74 10000 4.17 48 22:21 23.12.2020
4503 Clouds 29 1014 74 10000 4.17 48 21:42 23.12.2020
4504 Clouds 30 1015 74 10000 2.6 90 21:21 23.12.2020
4505 Clouds 30 1015 74 10000 2.6 90 20:38 23.12.2020
4506 Clouds 31 1015 66 10000 5.1 360 20:19 23.12.2020
4507 Clouds 30 1015 66 10000 5.1 360 19:44 23.12.2020
4508 Clouds 30 1015 66 10000 5.1 360 19:23 23.12.2020
4509 Clouds 30 1017 66 10000 4.1 40 18:54 23.12.2020
4510 Clouds 30 1017 66 10000 4.1 40 18:35 23.12.2020
4511 Clouds 29 1018 66 10000 2.6 90 17:44 23.12.2020
4512 Clouds 29 1018 66 10000 2.6 90 17:22 23.12.2020
4513 Clouds 29 1018 66 10000 2.6 90 16:56 23.12.2020
4514 Clouds 29 1019 66 10000 5.1 360 16:36 23.12.2020
4515 Clouds 27 1019 74 10000 2.6 40 16:18 23.12.2020
4516 Clouds 27 1019 74 10000 2.6 40 15:39 23.12.2020
4517 Clouds 24 1018 83 10000 3.82 15 15:21 23.12.2020
4518 Clouds 24 1018 83 10000 3.82 15 14:46 23.12.2020
4519 Clouds 23 1018 83 10000 3.53 13 14:23 23.12.2020
4520 Clouds 23 1017 94 10000 2.1 10 13:47 23.12.2020
4521 Clouds 22 1016 100 10000 2.1 360 13:20 23.12.2020
4522 Clouds 22 1016 100 10000 2.1 360 12:58 23.12.2020
4523 Clouds 21 1016 100 10000 2.1 360 12:37 23.12.2020
4524 Clouds 21 1016 100 10000 2.1 10 12:18 23.12.2020
4525 Clouds 21 1016 100 10000 2.1 10 11:43 23.12.2020
4526 Clouds 22 1016 94 10000 1.5 360 10:57 23.12.2020
4527 Clouds 22 1016 94 10000 1.5 360 10:57 23.12.2020
4528 Clouds 22 1016 94 10000 1.5 360 10:39 23.12.2020
4529 Clouds 23 1016 94 10000 2.1 10 09:45 23.12.2020
4530 Clouds 23 1016 94 10000 2.1 10 09:25 23.12.2020
4531 Clouds 23 1016 94 10000 2.1 30 08:42 23.12.2020
4532 Clouds 23 1017 100 10000 1.5 30 07:51 23.12.2020
4533 Clouds 24 1017 94 10000 1.5 360 06:59 23.12.2020
4534 Clouds 24 1017 94 10000 1.5 360 06:37 23.12.2020
4535 Clouds 24 1017 100 10000 1.5 10 05:25 23.12.2020
4536 Clouds 25 1017 94 10000 1.5 20 03:56 23.12.2020
4537 Clouds 26 1015 78 10000 1.5 30 00:33 23.12.2020
4538 Clouds 26 1015 78 10000 2.6 80 23:45 22.12.2020
4539 Clouds 27 1014 78 10000 3.1 30 23:25 22.12.2020
4540 Clouds 27 1014 78 10000 3.1 30 22:43 22.12.2020
4541 Clouds 27 1014 78 10000 3.1 30 22:25 22.12.2020
4542 Clouds 30 1015 70 10000 3.18 52 21:54 22.12.2020
4543 Clouds 30 1016 66 10000 2.1 30 21:21 22.12.2020
4544 Clouds 30 1016 66 10000 2.1 30 20:55 22.12.2020
4545 Clouds 30 1016 66 10000 2.1 30 20:37 22.12.2020
4546 Clouds 31 1017 66 10000 3.82 65 20:18 22.12.2020
4547 Clouds 31 1017 66 10000 3.82 65 19:41 22.12.2020
4548 Clouds 31 1017 66 10000 2.1 90 19:20 22.12.2020
4549 Clouds 31 1017 66 10000 2.1 90 18:47 22.12.2020
4550 Clouds 30 1017 66 10000 2.1 90 18:27 22.12.2020
4551 Clouds 30 1018 70 10000 4.1 30 17:41 22.12.2020
4552 Clouds 29 1018 74 10000 3 45 17:18 22.12.2020
4553 Clouds 29 1018 74 10000 3 45 17:18 22.12.2020
4554 Clouds 29 1018 74 10000 3 45 16:47 22.12.2020
4555 Clouds 28 1018 74 10000 3.07 33 16:21 22.12.2020
4556 Clouds 27 1018 74 10000 3.07 33 15:49 22.12.2020
4557 Clouds 27 1018 74 10000 3.07 33 15:31 22.12.2020
4558 Clouds 25 1017 83 10000 3.19 17 14:58 22.12.2020
4559 Clouds 25 1017 83 10000 3.19 17 14:40 22.12.2020
4560 Clouds 23 1017 94 10000 2.72 359 14:21 22.12.2020
4561 Clouds 22 1017 94 10000 2.72 359 13:45 22.12.2020
4562 Clouds 23 1016 100 10000 2.1 20 13:19 22.12.2020
4563 Clouds 22 1016 100 10000 2.1 20 12:52 22.12.2020
4564 Clouds 21 1016 100 10000 2.1 20 12:33 22.12.2020
4565 Clouds 21 1016 100 10000 2.1 30 11:57 22.12.2020
4566 Clouds 21 1016 100 10000 2.1 30 11:39 22.12.2020
4567 Clouds 21 1016 100 10000 2.1 20 11:20 22.12.2020
4568 Clouds 21 1016 100 10000 2.1 20 10:51 22.12.2020
4569 Clouds 21 1016 100 10000 2.1 30 10:24 22.12.2020
4570 Clouds 22 1016 100 10000 2.1 30 09:56 22.12.2020
4571 Clouds 22 1016 100 10000 2.1 30 09:23 22.12.2020
4572 Clouds 22 1016 100 10000 2.1 30 08:53 22.12.2020
4573 Clouds 22 1016 100 10000 2.1 20 08:30 22.12.2020
4574 Clouds 23 1016 94 10000 2.1 40 07:48 22.12.2020
4575 Clouds 23 1017 94 10000 2.1 40 06:58 22.12.2020
4576 Clouds 23 1017 94 10000 2.1 50 05:47 22.12.2020
4577 Clouds 24 1017 94 10000 2.1 20 03:46 22.12.2020
4578 Clouds 25 1016 88 10000 3.1 110 01:35 22.12.2020
4579 Clouds 27 1015 78 10000 4.1 120 23:55 21.12.2020
4580 Clouds 28 1015 74 10000 0.97 82 23:37 21.12.2020
4581 Clouds 29 1015 74 10000 1.61 115 22:39 21.12.2020
4582 Clouds 29 1015 70 10000 2.42 123 22:20 21.12.2020
4583 Clouds 29 1015 70 10000 2.42 123 22:20 21.12.2020
4584 Clouds 29 1015 70 10000 2.42 123 21:59 21.12.2020
4585 Clouds 29 1015 70 10000 2.42 123 21:40 21.12.2020
4586 Clouds 29 1015 70 10000 2.7 122 21:22 21.12.2020
4587 Clouds 30 1015 70 10000 1.5 0 20:36 21.12.2020
4588 Clouds 30 1016 70 10000 2.64 121 20:18 21.12.2020
4589 Clouds 30 1016 70 10000 2.64 121 20:18 21.12.2020
4590 Clouds 30 1016 70 10000 2.64 121 19:44 21.12.2020
4591 Clouds 30 1017 62 10000 5.1 150 19:19 21.12.2020
4592 Clouds 30 1017 62 10000 5.1 150 18:51 21.12.2020
4593 Clouds 30 1017 62 10000 5.1 150 18:33 21.12.2020
4594 Clouds 29 1018 70 10000 3.1 30 17:43 21.12.2020
4595 Clouds 29 1018 70 10000 3.1 30 17:24 21.12.2020
4596 Clouds 28 1018 70 10000 5.1 90 16:47 21.12.2020
4597 Clouds 27 1018 83 10000 2.6 360 16:27 21.12.2020
4598 Clouds 27 1018 83 10000 2.6 360 15:54 21.12.2020
4599 Clouds 27 1018 83 10000 2.6 360 15:35 21.12.2020
4600 Clouds 25 1018 94 10000 3.05 8 14:57 21.12.2020
4601 Clouds 23 1017 100 10000 3.09 341 14:21 21.12.2020
4602 Clouds 23 1017 100 10000 3.09 341 13:43 21.12.2020
4603 Clouds 23 1017 100 10000 2.61 335 13:24 21.12.2020
4604 Clouds 22 1016 94 10000 2.1 30 12:44 21.12.2020
4605 Clouds 22 1016 94 10000 2.1 30 12:44 21.12.2020
4606 Clouds 22 1016 94 10000 2.1 30 12:25 21.12.2020
4607 Clouds 21 1015 100 10000 2.1 20 11:56 21.12.2020
4608 Clouds 21 1015 100 10000 2.1 20 11:37 21.12.2020
4609 Clouds 22 1015 94 10000 2.1 30 11:19 21.12.2020
4610 Clouds 22 1015 94 10000 2.1 30 10:41 21.12.2020
4611 Clouds 22 1015 94 10000 2.1 30 10:22 21.12.2020
4612 Clouds 22 1015 94 10000 2.1 30 09:43 21.12.2020
4613 Clouds 23 1015 94 10000 2.1 30 09:24 21.12.2020
4614 Clouds 23 1015 94 10000 2.1 20 08:50 21.12.2020
4615 Clouds 23 1015 94 10000 2.1 20 07:48 21.12.2020
4616 Clouds 23 1016 94 10000 2.1 20 06:22 21.12.2020
4617 Clouds 23 1017 94 10000 2.1 40 04:32 21.12.2020
4618 Clouds 24 1015 88 10000 2.1 70 01:22 21.12.2020
4619 Clouds 25 1014 83 10000 2.1 100 00:31 21.12.2020
4620 Clouds 28 1013 78 10000 2.28 13 23:34 20.12.2020
4621 Clouds 28 1013 78 10000 2.34 24 22:58 20.12.2020
4622 Clouds 28 1013 78 10000 2.34 24 22:40 20.12.2020
4623 Clouds 29 1013 66 8000 4.1 130 22:21 20.12.2020
4624 Clouds 29 1013 66 8000 4.1 130 21:39 20.12.2020
4625 Clouds 30 1014 70 10000 5.1 160 21:20 20.12.2020
4626 Clouds 30 1014 70 10000 5.1 160 20:48 20.12.2020
4627 Clouds 30 1014 70 10000 5.1 160 20:23 20.12.2020
4628 Clouds 30 1015 70 10000 3.1 90 19:46 20.12.2020
4629 Clouds 30 1015 70 10000 3.1 90 19:26 20.12.2020
4630 Clouds 29 1015 66 10000 2.9 59 18:56 20.12.2020
4631 Clouds 30 1015 66 10000 2.77 51 18:38 20.12.2020
4632 Clouds 29 1016 74 10000 3.48 51 18:19 20.12.2020
4633 Clouds 29 1016 74 10000 3.48 51 17:42 20.12.2020
4634 Clouds 28 1016 78 10000 5.1 30 17:18 20.12.2020
4635 Clouds 28 1016 78 10000 5.1 30 16:44 20.12.2020
4636 Clouds 27 1016 78 10000 5.1 30 16:24 20.12.2020
4637 Clouds 27 1016 78 10000 5.1 30 15:41 20.12.2020
4638 Clouds 26 1016 83 10000 3.63 1 15:23 20.12.2020
4639 Clouds 25 1016 83 10000 3.63 1 14:49 20.12.2020
4640 Clouds 25 1016 83 10000 3.69 351 14:29 20.12.2020
4641 Clouds 23 1015 88 10000 3.69 351 13:46 20.12.2020
4642 Clouds 22 1015 88 10000 3.48 346 13:23 20.12.2020
4643 Clouds 22 1015 94 10000 3.48 346 12:54 20.12.2020
4644 Clouds 22 1015 94 10000 3.17 347 12:27 20.12.2020
4645 Clouds 22 1014 94 10000 3.17 347 11:57 20.12.2020
4646 Clouds 22 1014 94 10000 3.17 347 11:38 20.12.2020
4647 Clouds 22 1014 94 10000 3.19 345 10:50 20.12.2020
4648 Clouds 22 1014 94 10000 3.39 340 10:23 20.12.2020
4649 Clouds 22 1014 94 10000 3.39 340 09:57 20.12.2020
4650 Clouds 22 1014 94 10000 3.39 340 09:39 20.12.2020
4651 Clouds 22 1014 94 10000 3.64 338 09:20 20.12.2020
4652 Clouds 22 1014 94 10000 3.64 338 08:48 20.12.2020
4653 Clouds 22 1014 94 10000 3.64 338 08:30 20.12.2020
4654 Clouds 22 1015 100 10000 2.1 360 07:22 20.12.2020
4655 Clouds 23 1016 100 10000 2.1 360 05:33 20.12.2020
4656 Clouds 24 1015 94 10000 2.1 40 01:32 20.12.2020
4657 Clouds 25 1015 94 8000 3.32 353 00:22 20.12.2020
4658 Clouds 27 1014 78 10000 5.1 360 23:19 19.12.2020
4659 Clouds 27 1014 78 10000 5.1 360 22:45 19.12.2020
4660 Clouds 27 1014 78 10000 5.1 360 22:25 19.12.2020
4661 Clouds 27 1014 78 10000 5.1 360 22:25 19.12.2020
4662 Clouds 26 1014 78 10000 3.76 14 21:59 19.12.2020
4663 Clouds 26 1014 78 10000 3.76 14 21:40 19.12.2020
4664 Clouds 27 1014 78 10000 4.38 20 21:21 19.12.2020
4665 Clouds 27 1015 83 10000 3.1 360 20:40 19.12.2020
4666 Clouds 29 1015 70 10000 5.1 360 20:18 19.12.2020
4667 Clouds 29 1015 70 10000 5.1 360 19:50 19.12.2020
4668 Clouds 29 1015 70 10000 5.1 360 19:29 19.12.2020
4669 Clouds 29 1016 66 10000 3.1 30 18:37 19.12.2020
4670 Clouds 29 1017 74 10000 5.1 360 18:19 19.12.2020
4671 Clouds 29 1017 74 10000 5.1 360 17:44 19.12.2020
4672 Clouds 28 1018 78 10000 5.1 360 17:22 19.12.2020
4673 Clouds 28 1018 78 10000 5.1 360 16:43 19.12.2020
4674 Clouds 28 1018 78 10000 5.1 360 16:25 19.12.2020
4675 Clouds 27 1017 78 10000 3.1 360 15:55 19.12.2020
4676 Clouds 26 1017 78 10000 3.1 360 15:33 19.12.2020
4677 Clouds 25 1017 83 10000 4.41 6 14:40 19.12.2020
4678 Clouds 23 1016 94 10000 4.05 352 14:21 19.12.2020
4679 Clouds 23 1016 94 10000 4.05 352 13:41 19.12.2020
4680 Clouds 23 1016 94 10000 2.1 10 13:19 19.12.2020
4681 Clouds 22 1016 94 10000 2.1 10 12:43 19.12.2020
4682 Clouds 22 1016 94 10000 2.1 10 12:25 19.12.2020
4683 Clouds 22 1016 100 10000 2.1 360 11:56 19.12.2020
4684 Clouds 22 1016 100 10000 2.1 360 11:35 19.12.2020
4685 Clouds 23 1015 94 10000 2.1 360 10:43 19.12.2020
4686 Clouds 23 1015 94 10000 2.1 360 10:23 19.12.2020
4687 Clouds 23 1015 94 10000 2.1 360 09:45 19.12.2020
4688 Clouds 23 1015 94 10000 2.1 360 09:27 19.12.2020
4689 Clouds 23 1016 94 10000 1.5 10 08:25 19.12.2020
4690 Clouds 23 1016 94 10000 1.5 360 07:24 19.12.2020
4691 Clouds 24 1016 94 10000 1.5 360 06:51 19.12.2020
4692 Clouds 23 1017 94 10000 1.5 360 06:18 19.12.2020
4693 Clouds 23 1017 94 10000 1.5 10 05:18 19.12.2020
4694 Clouds 25 1016 94 10000 2.6 40 02:55 19.12.2020
4695 Clouds 25 1015 88 7000 2.6 10 00:36 19.12.2020
4696 Clouds 26 1015 83 7000 3.05 27 00:18 19.12.2020
4697 Clouds 27 1015 83 7000 3.05 27 23:45 18.12.2020
4698 Clouds 27 1014 74 10000 3.1 60 23:23 18.12.2020
4699 Clouds 29 1014 74 10000 3.1 60 22:45 18.12.2020
4700 Clouds 30 1015 74 10000 3.1 360 22:21 18.12.2020
4701 Clouds 30 1015 74 10000 3.1 360 21:50 18.12.2020
4702 Clouds 30 1015 74 10000 3.1 360 21:31 18.12.2020
4703 Clouds 31 1015 62 10000 3.1 360 20:40 18.12.2020
4704 Clouds 31 1016 70 10000 4.1 360 20:20 18.12.2020
4705 Clouds 31 1016 70 10000 4.1 360 19:42 18.12.2020
4706 Clouds 30 1016 74 10000 5.1 360 19:20 18.12.2020
4707 Clouds 30 1016 74 10000 5.1 360 18:41 18.12.2020
4708 Clouds 30 1016 74 10000 5.1 360 18:23 18.12.2020
4709 Clouds 29 1017 74 10000 5.1 360 17:24 18.12.2020
4710 Clouds 29 1018 74 10000 5.1 360 16:53 18.12.2020
4711 Clouds 29 1018 74 10000 5.1 360 16:28 18.12.2020
4712 Clouds 27 1018 83 10000 3.1 360 16:00 18.12.2020
4713 Clouds 27 1018 83 10000 3.1 360 15:41 18.12.2020
4714 Clouds 26 1017 88 10000 3.55 15 15:22 18.12.2020
4715 Clouds 25 1017 88 10000 3.55 15 14:54 18.12.2020
4716 Clouds 24 1017 94 10000 2.1 20 14:21 18.12.2020
4717 Clouds 24 1017 94 10000 2.1 20 13:50 18.12.2020
4718 Clouds 23 1017 94 10000 2.1 20 13:28 18.12.2020
4719 Clouds 22 1017 94 10000 2.1 20 12:47 18.12.2020
4720 Clouds 22 1016 94 10000 2.1 20 11:59 18.12.2020
4721 Clouds 22 1016 94 10000 2.1 20 11:23 18.12.2020
4722 Clouds 22 1016 94 10000 2.1 20 10:40 18.12.2020
4723 Clouds 22 1016 94 10000 2.1 20 10:40 18.12.2020
4724 Clouds 23 1016 94 10000 2.1 20 10:20 18.12.2020
4725 Clouds 23 1016 94 10000 2.1 20 09:39 18.12.2020
4726 Clouds 23 1016 94 10000 2.1 30 09:21 18.12.2020
4727 Clouds 23 1016 94 10000 2.1 30 08:54 18.12.2020
4728 Clouds 23 1016 94 10000 2.1 30 08:30 18.12.2020
4729 Clouds 23 1017 94 10000 2.1 40 07:39 18.12.2020
4730 Clouds 23 1017 94 10000 2.1 40 07:18 18.12.2020
4731 Clouds 23 1017 94 10000 2.1 40 06:49 18.12.2020
4732 Clouds 23 1017 94 10000 2.1 60 05:41 18.12.2020
4733 Clouds 24 1017 88 10000 2.1 60 04:51 18.12.2020
4734 Clouds 26 1016 88 10000 2.1 110 01:58 18.12.2020
4735 Clouds 26 1016 88 10000 2.1 110 01:39 18.12.2020
4736 Clouds 27 1015 78 10000 2.1 140 23:59 17.12.2020
4737 Clouds 28 1013 79 10000 1.94 140 23:25 17.12.2020
4738 Clouds 29 1013 79 10000 1.94 140 22:58 17.12.2020
4739 Clouds 29 1013 79 10000 1.94 140 22:58 17.12.2020
4740 Clouds 29 1013 79 10000 1.94 140 22:40 17.12.2020
4741 Clouds 29 1013 79 10000 1.94 140 22:40 17.12.2020
4742 Clouds 29 1013 79 10000 2.11 126 22:22 17.12.2020
4743 Clouds 30 1014 74 8000 2.11 126 21:42 17.12.2020
4744 Clouds 30 1014 74 8000 2.11 126 21:42 17.12.2020
4745 Clouds 30 1014 70 10000 2.15 107 21:19 17.12.2020
4746 Clouds 30 1014 70 10000 2.15 107 20:41 17.12.2020
4747 Clouds 30 1015 70 10000 2.3 91 20:19 17.12.2020
4748 Clouds 30 1015 70 10000 2.3 91 19:48 17.12.2020
4749 Clouds 30 1015 70 10000 2.34 83 19:24 17.12.2020
4750 Clouds 29 1016 78 10000 4.1 40 18:42 17.12.2020
4751 Clouds 29 1016 78 10000 4.1 30 18:23 17.12.2020
4752 Clouds 29 1016 78 10000 4.1 30 18:23 17.12.2020
4753 Clouds 29 1016 78 10000 4.1 30 17:54 17.12.2020
4754 Clouds 29 1016 78 10000 4.1 30 17:32 17.12.2020
4755 Clouds 28 1017 74 10000 5.1 360 16:46 17.12.2020
4756 Clouds 28 1017 74 10000 5.1 360 16:27 17.12.2020
4757 Clouds 27 1017 78 10000 5.1 360 15:56 17.12.2020
4758 Clouds 27 1017 78 10000 5.1 360 15:34 17.12.2020
4759 Clouds 24 1016 88 10000 3.1 360 14:55 17.12.2020
4760 Clouds 24 1016 88 10000 3.1 360 14:35 17.12.2020
4761 Clouds 22 1016 100 10000 3.02 356 13:58 17.12.2020
4762 Clouds 22 1016 100 10000 3.02 356 13:39 17.12.2020
4763 Clouds 22 1015 94 10000 2.6 360 12:49 17.12.2020
4764 Clouds 22 1015 94 10000 2.6 360 12:27 17.12.2020
4765 Clouds 22 1015 94 10000 2.1 360 11:46 17.12.2020
4766 Clouds 22 1015 94 10000 2.1 360 11:26 17.12.2020
4767 Clouds 22 1014 94 10000 3.32 349 10:56 17.12.2020
4768 Clouds 22 1014 94 10000 3.32 349 10:30 17.12.2020
4769 Clouds 22 1014 94 10000 3.2 346 09:35 17.12.2020
4770 Clouds 22 1014 94 10000 3.09 340 08:37 17.12.2020
4771 Clouds 22 1015 100 10000 2.1 360 07:40 17.12.2020
4772 Clouds 22 1015 100 10000 2.1 360 07:18 17.12.2020
4773 Clouds 22 1015 100 10000 2.1 360 06:44 17.12.2020
4774 Clouds 22 1015 100 10000 2.1 360 06:26 17.12.2020
4775 Clouds 23 1014 100 10000 2.6 360 01:41 17.12.2020
4776 Clouds 24 1013 94 10000 2.6 350 23:58 16.12.2020
4777 Clouds 24 1013 94 10000 1.44 58 23:23 16.12.2020
4778 Clouds 24 1013 94 10000 1.44 58 22:58 16.12.2020
4779 Clouds 24 1013 94 10000 1.44 58 22:38 16.12.2020
4780 Clouds 26 1013 83 10000 5.1 90 21:58 16.12.2020
4781 Clouds 26 1013 83 10000 5.1 90 21:38 16.12.2020
4782 Clouds 26 1013 74 10000 3.1 340 21:20 16.12.2020
4783 Clouds 26 1013 74 10000 3.1 340 20:44 16.12.2020
4784 Clouds 26 1014 83 10000 5.1 100 20:19 16.12.2020
4785 Clouds 28 1015 65 10000 3.6 30 19:21 16.12.2020
4786 Clouds 28 1015 65 10000 3.6 30 18:57 16.12.2020
4787 Clouds 28 1015 65 10000 3.6 30 18:37 16.12.2020
4788 Clouds 27 1016 78 10000 3.1 30 18:19 16.12.2020
4789 Clouds 27 1016 78 10000 3.1 30 17:33 16.12.2020
4790 Clouds 25 1016 88 10000 3.6 360 16:42 16.12.2020
4791 Clouds 25 1016 78 10000 3.6 360 16:22 16.12.2020
4792 Clouds 25 1016 78 10000 3.6 360 15:52 16.12.2020
4793 Clouds 24 1016 78 10000 3.6 360 15:32 16.12.2020
4794 Clouds 23 1016 88 10000 3.1 360 14:55 16.12.2020
4795 Clouds 23 1016 88 10000 3.1 360 14:37 16.12.2020
4796 Clouds 22 1015 94 10000 4.1 30 14:19 16.12.2020
4797 Clouds 21 1015 94 10000 4.1 30 13:37 16.12.2020
4798 Clouds 21 1013 94 10000 3.09 339 13:18 16.12.2020
4799 Clouds 20 1013 94 10000 2.95 340 12:42 16.12.2020
4800 Clouds 20 1014 94 10000 3.1 30 11:43 16.12.2020
4801 Clouds 19 1013 100 10000 2.93 332 11:23 16.12.2020
4802 Clouds 19 1013 100 10000 2.93 332 10:52 16.12.2020
4803 Clouds 19 1013 100 10000 3.07 339 10:27 16.12.2020
4804 Clouds 19 1013 100 10000 2.1 350 09:49 16.12.2020
4805 Clouds 20 1013 100 10000 2.99 343 09:18 16.12.2020
4806 Clouds 21 1013 94 10000 2.1 20 07:59 16.12.2020
4807 Clouds 21 1013 94 10000 2.1 20 07:39 16.12.2020
4808 Clouds 21 1014 94 10000 2.1 360 06:57 16.12.2020
4809 Clouds 22 1014 88 10000 2.6 20 03:28 16.12.2020
4810 Clouds 24 1013 83 10000 3.6 40 01:27 16.12.2020
4811 Clouds 26 1012 69 10000 2.1 40 23:46 15.12.2020
4812 Clouds 28 1014 74 10000 4.1 360 22:49 15.12.2020
4813 Clouds 28 1014 74 10000 4.1 360 22:25 15.12.2020
4814 Clouds 28 1014 78 10000 5.1 360 21:58 15.12.2020
4815 Clouds 28 1014 78 10000 5.1 360 21:40 15.12.2020
4816 Clouds 29 1014 74 10000 3.1 40 21:21 15.12.2020
4817 Clouds 29 1014 74 10000 3.1 40 20:44 15.12.2020
4818 Clouds 29 1014 74 10000 3.1 40 20:26 15.12.2020
4819 Clouds 29 1015 78 10000 5.1 360 19:52 15.12.2020
4820 Clouds 29 1015 78 10000 5.1 360 19:26 15.12.2020
4821 Clouds 28 1016 78 10000 4.1 360 18:39 15.12.2020
4822 Clouds 29 1016 74 10000 5.1 350 18:21 15.12.2020
4823 Clouds 28 1016 74 10000 5.1 350 17:44 15.12.2020
4824 Clouds 28 1016 74 10000 5.1 350 17:25 15.12.2020
4825 Clouds 27 1017 78 10000 4.1 350 16:43 15.12.2020
4826 Clouds 27 1017 78 10000 4.1 350 16:25 15.12.2020
4827 Clouds 25 1016 88 10000 4.1 360 15:38 15.12.2020
4828 Clouds 24 1015 88 10000 3.1 360 15:18 15.12.2020
4829 Clouds 24 1015 88 10000 3.1 360 14:42 15.12.2020
4830 Clouds 23 1015 100 8000 3.1 360 14:20 15.12.2020
4831 Clouds 22 1015 100 8000 3.1 360 13:49 15.12.2020
4832 Clouds 22 1015 100 8000 3.1 360 13:25 15.12.2020
4833 Clouds 22 1014 94 10000 2.1 50 12:46 15.12.2020
4834 Clouds 22 1014 94 10000 2.1 30 12:19 15.12.2020
4835 Clouds 22 1014 94 10000 2.1 30 11:52 15.12.2020
4836 Clouds 22 1014 94 10000 2.1 30 11:24 15.12.2020
4837 Clouds 22 1014 94 10000 2.1 20 10:49 15.12.2020
4838 Clouds 23 1013 94 10000 2.1 10 10:20 15.12.2020
4839 Clouds 23 1013 94 10000 2.1 10 09:44 15.12.2020
4840 Clouds 23 1013 94 10000 2.1 10 09:26 15.12.2020
4841 Clouds 23 1014 94 10000 2.1 10 08:46 15.12.2020
4842 Clouds 23 1014 94 10000 2.1 10 08:24 15.12.2020
4843 Clouds 23 1014 100 10000 1.5 360 07:47 15.12.2020
4844 Clouds 24 1015 94 10000 1.5 350 07:18 15.12.2020
4845 Clouds 24 1015 94 10000 1.5 10 05:55 15.12.2020
4846 Clouds 26 1014 94 10000 2.8 359 00:54 15.12.2020
4847 Clouds 26 1014 94 8000 1.5 70 23:54 14.12.2020
4848 Clouds 26 1013 94 10000 2.47 38 23:21 14.12.2020
4849 Clouds 26 1013 94 10000 2.47 38 22:44 14.12.2020
4850 Clouds 26 1013 94 6000 2.58 48 22:22 14.12.2020
4851 Clouds 25 1013 94 6000 2.58 48 21:41 14.12.2020
4852 Clouds 28 1014 78 10000 3.1 120 21:19 14.12.2020
4853 Clouds 28 1014 78 10000 3.1 120 20:48 14.12.2020
4854 Clouds 29 1014 78 10000 3.1 120 20:27 14.12.2020
4855 Clouds 28 1015 83 10000 2.84 53 19:44 14.12.2020
4856 Clouds 28 1015 83 10000 2.54 52 19:25 14.12.2020
4857 Clouds 29 1016 78 10000 5.1 360 18:44 14.12.2020
4858 Clouds 29 1016 78 10000 5.1 360 18:24 14.12.2020
4859 Clouds 27 1017 78 10000 4.1 40 17:45 14.12.2020
4860 Clouds 28 1018 78 8000 4.1 360 17:21 14.12.2020
4861 Clouds 28 1018 78 8000 4.1 360 16:49 14.12.2020
4862 Clouds 27 1017 83 10000 2.6 360 16:27 14.12.2020
4863 Clouds 27 1017 83 10000 2.6 360 15:33 14.12.2020
4864 Clouds 24 1017 88 10000 3.21 19 14:51 14.12.2020
4865 Clouds 24 1017 88 10000 3.21 19 14:32 14.12.2020
4866 Clouds 23 1016 88 10000 2.94 0 13:57 14.12.2020
4867 Clouds 22 1016 88 10000 2.94 0 13:35 14.12.2020
4868 Clouds 22 1015 94 10000 2.1 10 12:56 14.12.2020
4869 Clouds 22 1015 94 10000 2.1 10 12:56 14.12.2020
4870 Clouds 22 1015 94 10000 2.1 10 12:34 14.12.2020
4871 Clouds 22 1015 94 10000 2.1 10 11:58 14.12.2020
4872 Clouds 22 1015 94 10000 2.1 10 11:25 14.12.2020
4873 Clouds 22 1015 94 10000 2.1 10 10:28 14.12.2020
4874 Clouds 22 1015 94 10000 2.1 30 09:53 14.12.2020
4875 Clouds 22 1015 94 10000 2.1 30 09:25 14.12.2020
4876 Clouds 23 1015 88 10000 2.1 360 08:45 14.12.2020
4877 Clouds 23 1015 88 10000 2.1 360 08:25 14.12.2020
4878 Clouds 23 1015 88 10000 2.1 360 07:22 14.12.2020
4879 Clouds 23 1016 94 10000 2.1 360 06:44 14.12.2020
4880 Clouds 24 1016 88 10000 2.6 30 04:19 14.12.2020
4881 Clouds 24 1016 88 10000 2.6 30 02:25 14.12.2020
4882 Clouds 25 1015 83 10000 3.15 17 00:51 14.12.2020
4883 Clouds 25 1015 83 10000 3 25 00:29 14.12.2020
4884 Clouds 27 1015 78 10000 3 25 23:44 13.12.2020
4885 Clouds 28 1013 79 5000 5.1 360 23:18 13.12.2020
4886 Clouds 29 1013 79 5000 5.1 360 22:43 13.12.2020
4887 Clouds 29 1014 70 10000 5.1 360 22:18 13.12.2020
4888 Clouds 30 1014 70 10000 5.1 360 21:42 13.12.2020
4889 Clouds 30 1015 70 7000 5.1 360 20:57 13.12.2020
4890 Clouds 30 1015 70 7000 5.1 360 20:32 13.12.2020
4891 Clouds 29 1015 70 10000 4.1 360 19:49 13.12.2020
4892 Clouds 29 1015 70 10000 4.1 360 19:25 13.12.2020
4893 Clouds 28 1016 79 10000 4.1 360 18:57 13.12.2020
4894 Clouds 28 1016 79 10000 4.1 360 18:38 13.12.2020
4895 Clouds 29 1017 79 10000 2.6 70 18:18 13.12.2020
4896 Clouds 28 1017 79 10000 2.6 70 17:45 13.12.2020
4897 Clouds 28 1018 74 10000 3.1 360 17:18 13.12.2020
4898 Clouds 28 1018 74 10000 3.1 360 16:50 13.12.2020
4899 Clouds 28 1018 74 10000 3.1 360 16:31 13.12.2020
4900 Clouds 27 1017 78 10000 2.6 360 15:48 13.12.2020
4901 Clouds 27 1017 78 10000 2.6 360 15:27 13.12.2020
4902 Clouds 25 1018 78 10000 2.6 360 14:48 13.12.2020
4903 Clouds 25 1018 78 10000 2.6 360 14:29 13.12.2020
4904 Clouds 23 1014 94 10000 2.98 351 13:56 13.12.2020
4905 Clouds 23 1014 94 10000 2.98 351 13:36 13.12.2020
4906 Clouds 21 1016 100 10000 2.1 10 12:59 13.12.2020
4907 Clouds 21 1016 100 10000 2.1 10 12:26 13.12.2020
4908 Clouds 21 1015 100 10000 2.1 10 11:59 13.12.2020
4909 Clouds 21 1015 100 10000 2.1 10 11:33 13.12.2020
4910 Clouds 21 1015 100 10000 2.1 10 10:45 13.12.2020
4911 Clouds 21 1015 100 10000 2.1 10 10:24 13.12.2020
4912 Clouds 22 1015 94 10000 2.1 10 09:47 13.12.2020
4913 Clouds 22 1015 94 10000 2.1 10 08:52 13.12.2020
4914 Clouds 22 1015 94 10000 2.1 10 08:52 13.12.2020
4915 Clouds 22 1015 94 10000 2.1 10 08:30 13.12.2020
4916 Clouds 22 1015 94 10000 2.1 20 07:26 13.12.2020
4917 Clouds 23 1016 94 10000 2.1 20 03:26 13.12.2020
4918 Clouds 23 1016 88 10000 2.1 20 02:32 13.12.2020
4919 Clouds 24 1015 88 10000 2.1 10 01:37 13.12.2020
4920 Clouds 24 1015 88 10000 2.1 20 00:45 13.12.2020
4921 Clouds 25 1015 83 8000 2.1 90 23:45 12.12.2020
4922 Clouds 25 1014 83 8000 3.1 350 23:26 12.12.2020
4923 Clouds 26 1014 83 8000 3.1 350 22:36 12.12.2020
4924 Clouds 28 1014 74 8000 5.1 180 21:47 12.12.2020
4925 Clouds 28 1014 74 8000 5.1 180 21:23 12.12.2020
4926 Clouds 29 1014 78 10000 4.1 180 20:46 12.12.2020
4927 Clouds 29 1014 78 10000 4.1 180 20:21 12.12.2020
4928 Clouds 29 1015 78 10000 2.41 85 19:54 12.12.2020
4929 Clouds 29 1015 78 10000 2.41 85 19:34 12.12.2020
4930 Clouds 29 1015 70 10000 1.75 82 18:56 12.12.2020
4931 Clouds 29 1015 70 10000 2.02 76 18:38 12.12.2020
4932 Clouds 29 1016 70 10000 2.1 90 18:20 12.12.2020
4933 Clouds 29 1016 70 10000 2.1 90 17:41 12.12.2020
4934 Clouds 29 1017 70 10000 3.1 90 16:44 12.12.2020
4935 Clouds 27 1018 78 10000 3.1 350 15:58 12.12.2020
4936 Clouds 27 1018 78 10000 3.1 350 15:58 12.12.2020
4937 Clouds 27 1018 78 10000 3.1 350 15:58 12.12.2020
4938 Clouds 26 1018 78 10000 3.1 350 15:39 12.12.2020
4939 Clouds 24 1017 83 10000 4.1 350 14:54 12.12.2020
4940 Clouds 24 1017 83 10000 4.1 350 14:22 12.12.2020
4941 Clouds 21 1017 100 10000 2.85 347 13:44 12.12.2020
4942 Clouds 21 1017 100 10000 2.72 336 13:25 12.12.2020
4943 Clouds 21 1016 100 10000 2.6 40 12:37 12.12.2020
4944 Clouds 21 1015 100 10000 2.49 332 11:28 12.12.2020
4945 Clouds 21 1014 100 10000 2.1 360 10:46 12.12.2020
4946 Clouds 22 1014 100 10000 2.1 360 09:24 12.12.2020
4947 Clouds 22 1014 100 10000 2.64 346 08:25 12.12.2020
4948 Clouds 24 1014 88 10000 2.38 354 01:56 12.12.2020
4949 Clouds 27 1013 78 10000 2.26 5 23:31 11.12.2020
4950 Clouds 29 1013 74 10000 5.1 360 20:58 11.12.2020
4951 Clouds 28 1014 74 10000 4.1 360 19:44 11.12.2020
4952 Clouds 28 1017 74 10000 5.1 360 16:59 11.12.2020
4953 Clouds 25 1017 83 10000 3.44 11 14:37 11.12.2020
4954 Clouds 25 1017 83 10000 3.44 11 14:37 11.12.2020
4955 Clouds 23 1015 94 10000 3.28 357 13:46 11.12.2020
4956 Clouds 22 1015 100 10000 2.1 350 12:28 11.12.2020
4957 Clouds 22 1015 94 10000 2.1 30 11:55 11.12.2020
4958 Clouds 22 1015 94 10000 2.1 30 11:36 11.12.2020
4959 Clouds 22 1015 94 10000 3.1 20 10:40 11.12.2020
4960 Clouds 22 1015 94 10000 2.6 350 07:51 11.12.2020
4961 Clouds 22 1016 100 10000 2.6 10 05:36 11.12.2020
4962 Clouds 22 1016 100 10000 2.1 360 04:47 11.12.2020
4963 Clouds 23 1015 100 8000 1.5 340 00:54 11.12.2020
4964 Clouds 24 1013 83 10000 2.73 18 23:28 10.12.2020
4965 Clouds 24 1014 83 10000 3.1 360 21:37 10.12.2020
4966 Clouds 25 1014 83 10000 3.1 360 20:51 10.12.2020
4967 Clouds 25 1014 83 10000 3.1 360 20:29 10.12.2020
4968 Clouds 27 1015 78 10000 5.1 360 19:29 10.12.2020
4969 Clouds 27 1016 83 10000 5.1 360 18:48 10.12.2020
4970 Clouds 27 1017 83 10000 5.1 360 17:29 10.12.2020
4971 Clouds 25 1018 83 10000 2.01 28 15:58 10.12.2020
4972 Clouds 24 1016 94 10000 1.91 26 15:21 10.12.2020
4973 Clouds 23 1016 94 10000 1.91 26 14:43 10.12.2020
4974 Clouds 23 1016 94 10000 2.1 40 13:42 10.12.2020
4975 Clouds 22 1014 94 10000 2.1 20 12:21 10.12.2020
4976 Clouds 22 1014 94 10000 2.1 20 10:54 10.12.2020
4977 Clouds 23 1015 94 10000 2.1 40 08:21 10.12.2020
4978 Clouds 23 1015 94 10000 2.1 40 07:26 10.12.2020
4979 Clouds 24 1016 88 10000 2.1 30 05:51 10.12.2020
4980 Clouds 25 1016 88 10000 2.1 40 02:40 10.12.2020
4981 Clouds 26 1015 83 10000 2.1 140 01:32 10.12.2020
4982 Clouds 27 1014 78 10000 2.1 160 23:42 09.12.2020
4983 Clouds 30 1013 66 10000 5.1 180 20:39 09.12.2020
4984 Clouds 30 1014 70 10000 2.92 166 19:46 09.12.2020
4985 Clouds 30 1015 74 10000 2.6 180 18:36 09.12.2020
4986 Clouds 29 1017 78 10000 2.6 120 17:19 09.12.2020
4987 Clouds 29 1017 78 10000 2.6 120 16:26 09.12.2020
4988 Clouds 26 1016 94 10000 2.6 360 15:44 09.12.2020
4989 Clouds 26 1016 94 10000 2.6 360 15:44 09.12.2020
4990 Mist 25 1015 94 5000 0.34 171 14:50 09.12.2020
4991 Mist 24 1015 94 5000 0.56 317 14:26 09.12.2020
4992 Clouds 23 1015 94 10000 2.1 70 13:19 09.12.2020
4993 Clouds 22 1015 94 10000 2.1 70 12:58 09.12.2020
4994 Clouds 22 1015 94 10000 2.1 60 12:23 09.12.2020
4995 Clouds 22 1014 100 10000 1.2 299 11:33 09.12.2020
4996 Clouds 23 1014 100 10000 2.1 40 09:51 09.12.2020
4997 Clouds 23 1014 100 10000 2.1 40 08:34 09.12.2020
4998 Clouds 24 1016 94 10000 2.1 80 06:29 09.12.2020
4999 Clouds 23 1015 88 10000 2.1 80 04:49 09.12.2020
5000 Clouds 24 1015 88 10000 1.22 217 02:30 09.12.2020
5001 Clouds 26 1013 83 10000 1.8 192 23:49 08.12.2020
5002 Clouds 28 1012 70 10000 3.1 180 23:23 08.12.2020
5003 Clouds 29 1013 74 10000 4.1 190 21:36 08.12.2020
5004 Clouds 30 1014 66 10000 5.1 180 19:46 08.12.2020
5005 Clouds 30 1015 66 10000 4.1 180 19:25 08.12.2020
5006 Clouds 29 1015 70 10000 3.1 130 18:27 08.12.2020
5007 Clouds 28 1016 83 10000 2.1 10 15:54 08.12.2020
5008 Clouds 24 1015 88 10000 1.67 187 14:35 08.12.2020
5009 Clouds 21 1014 93 10000 0.74 237 13:40 08.12.2020
5010 Clouds 21 1014 100 10000 0.86 275 12:35 08.12.2020
5011 Clouds 21 1013 100 10000 1.22 273 11:52 08.12.2020
5012 Clouds 22 1013 94 10000 1.39 270 10:50 08.12.2020
5013 Clouds 22 1013 94 10000 1.39 270 10:31 08.12.2020
5014 Clouds 23 1013 100 10000 1.67 279 08:57 08.12.2020
5015 Clouds 24 1014 94 10000 1.53 244 07:25 08.12.2020
5016 Clouds 24 1014 88 10000 1.17 264 03:43 08.12.2020
5017 Clouds 25 1013 88 10000 1.51 255 01:36 08.12.2020
5018 Clouds 25 1013 88 10000 1.63 230 00:43 08.12.2020
5019 Clouds 29 1012 70 10000 3.1 180 22:48 07.12.2020
5020 Clouds 29 1011 66 10000 5.1 180 21:58 07.12.2020
5021 Clouds 30 1012 62 10000 4.1 180 20:32 07.12.2020
5022 Clouds 30 1014 62 10000 3.1 180 18:47 07.12.2020
5023 Clouds 29 1015 66 10000 1.49 134 17:29 07.12.2020
5024 Clouds 29 1015 66 10000 5.1 180 16:55 07.12.2020
5025 Clouds 27 1015 74 10000 1.15 60 15:47 07.12.2020
5026 Clouds 24 1015 88 10000 1.63 0 15:19 07.12.2020
5027 Clouds 22 1014 100 10000 2.04 333 14:19 07.12.2020
5028 Clouds 22 1014 100 10000 1.89 327 13:23 07.12.2020
5029 Clouds 21 1013 94 10000 1.5 10 11:44 07.12.2020
5030 Clouds 21 1013 94 10000 2.1 360 11:20 07.12.2020
5031 Clouds 22 1013 100 10000 2.1 10 09:57 07.12.2020
5032 Clouds 22 1013 100 10000 2.1 30 08:29 07.12.2020
5033 Clouds 23 1014 94 10000 1.5 40 06:44 07.12.2020
5034 Clouds 24 1015 88 10000 2.1 40 04:50 07.12.2020
5035 Clouds 25 1014 78 10000 3.1 120 01:55 07.12.2020
5036 Clouds 23 1013 94 10000 1.5 130 00:27 07.12.2020
5037 Clouds 28 1014 79 10000 2.1 90 22:28 06.12.2020
5038 Clouds 30 1014 62 10000 4.1 360 20:58 06.12.2020
5039 Clouds 30 1014 62 10000 4.1 360 20:34 06.12.2020
5040 Clouds 30 1015 66 10000 2.1 310 19:55 06.12.2020
5041 Clouds 30 1015 66 10000 2.6 360 18:33 06.12.2020
5042 Clouds 28 1016 74 10000 2.6 360 16:52 06.12.2020
5043 Clouds 24 1014 94 10000 2.48 2 14:58 06.12.2020
5044 Clouds 21 1013 100 10000 2.63 344 13:49 06.12.2020
5045 Clouds 21 1014 94 10000 2.1 10 12:52 06.12.2020
5046 Clouds 21 1014 94 10000 2.1 20 11:59 06.12.2020
5047 Clouds 21 1014 94 10000 2.1 20 11:34 06.12.2020
5048 Clouds 21 1013 94 10000 2.1 20 10:47 06.12.2020
5049 Clouds 21 1013 100 10000 2.1 10 09:57 06.12.2020
5050 Clouds 22 1014 94 10000 2.1 10 08:30 06.12.2020
5051 Clouds 23 1015 88 10000 2.1 40 06:47 06.12.2020
5052 Clouds 25 1015 88 10000 2.1 120 01:47 06.12.2020
5053 Clouds 23 1014 94 10000 2.1 120 00:41 06.12.2020
5054 Clouds 23 1014 94 10000 2.1 120 00:23 06.12.2020
5055 Clouds 28 1015 70 10000 2.26 76 22:46 05.12.2020
5056 Clouds 28 1015 70 10000 2.4 86 22:20 05.12.2020
5057 Clouds 29 1014 66 10000 2.4 86 21:48 05.12.2020
5058 Clouds 29 1014 66 10000 2.71 86 21:25 05.12.2020
5059 Clouds 30 1015 62 10000 4.1 360 19:21 05.12.2020
5060 Clouds 29 1016 74 10000 2.6 360 18:40 05.12.2020
5061 Clouds 29 1017 70 10000 2.6 360 17:29 05.12.2020
5062 Clouds 28 1016 78 10000 4.1 360 16:30 05.12.2020
5063 Clouds 27 1015 83 10000 2.6 360 15:47 05.12.2020
5064 Clouds 24 1015 94 10000 2.04 0 14:26 05.12.2020
5065 Clouds 22 1014 94 10000 2.1 20 12:20 05.12.2020
5066 Clouds 21 1014 94 10000 2.1 20 11:40 05.12.2020
5067 Clouds 21 1014 94 10000 2.1 20 10:31 05.12.2020
5068 Clouds 22 1016 94 10000 2.1 10 07:48 05.12.2020
5069 Clouds 22 1016 94 10000 2.1 10 06:28 05.12.2020
5070 Clouds 24 1017 94 10000 3.1 50 03:44 05.12.2020
5071 Clouds 26 1014 88 10000 2.76 68 23:50 04.12.2020
5072 Clouds 26 1014 83 10000 3.1 180 22:24 04.12.2020
5073 Clouds 28 1015 78 10000 2.6 360 20:19 04.12.2020
5074 Clouds 28 1016 78 8000 3.1 360 18:52 04.12.2020
5075 Clouds 27 1017 83 10000 5.1 360 18:18 04.12.2020
5076 Clouds 27 1017 83 10000 5.1 360 17:25 04.12.2020
5077 Clouds 27 1018 83 10000 5.1 360 15:37 04.12.2020
5078 Clouds 22 1016 88 10000 3.05 0 13:40 04.12.2020
5079 Clouds 22 1016 100 10000 2.1 360 13:21 04.12.2020
5080 Clouds 22 1016 100 10000 2.1 360 12:49 04.12.2020
5081 Clouds 23 1015 100 10000 2.1 360 10:39 04.12.2020
5082 Clouds 23 1015 100 10000 2.1 360 09:41 04.12.2020
5083 Clouds 23 1016 94 10000 2.1 10 06:41 04.12.2020
5084 Clouds 23 1016 94 10000 2.1 20 05:44 04.12.2020
5085 Clouds 24 1015 88 10000 2.1 20 01:55 04.12.2020
5086 Clouds 26 1014 83 10000 5.1 360 22:52 03.12.2020
5087 Clouds 27 1014 83 10000 5.1 360 22:22 03.12.2020
5088 Clouds 28 1015 74 10000 4.1 360 20:48 03.12.2020
5089 Clouds 29 1016 74 10000 3.1 360 19:27 03.12.2020
5090 Clouds 29 1016 74 8000 3.1 350 18:49 03.12.2020
5091 Clouds 29 1016 74 10000 3.54 46 17:38 03.12.2020
5092 Clouds 28 1017 78 10000 5.1 360 17:18 03.12.2020
5093 Clouds 27 1017 74 10000 5.1 360 15:45 03.12.2020
5094 Clouds 27 1017 74 10000 5.1 360 15:27 03.12.2020
5095 Clouds 25 1016 83 10000 4.1 360 14:26 03.12.2020
5096 Clouds 23 1016 100 10000 3.66 356 13:36 03.12.2020
5097 Clouds 22 1014 100 10000 2.96 346 12:26 03.12.2020
5098 Clouds 23 1015 94 10000 2.94 350 11:24 03.12.2020
5099 Clouds 23 1015 94 10000 2.1 20 08:56 03.12.2020
5100 Clouds 24 1016 88 10000 2.1 40 05:18 03.12.2020
5101 Clouds 25 1015 83 10000 2.6 30 02:26 03.12.2020
5102 Clouds 26 1013 83 8000 3.47 22 00:48 03.12.2020
5103 Clouds 28 1013 78 10000 2.55 54 22:47 02.12.2020
5104 Clouds 28 1013 78 10000 2.75 62 22:21 02.12.2020
5105 Clouds 29 1014 78 10000 2.6 40 20:55 02.12.2020
5106 Clouds 29 1014 78 10000 2.6 40 20:37 02.12.2020
5107 Clouds 29 1015 74 10000 3.19 58 20:18 02.12.2020
5108 Clouds 29 1016 74 10000 5.1 40 17:56 02.12.2020
5109 Clouds 28 1016 74 10000 5.1 40 17:37 02.12.2020
5110 Clouds 28 1016 74 10000 5.1 360 17:19 02.12.2020
5111 Clouds 26 1016 83 10000 4.88 28 14:49 02.12.2020
5112 Clouds 22 1014 100 10000 2.1 20 11:34 02.12.2020
5113 Clouds 22 1013 100 10000 2.1 20 10:28 02.12.2020
5114 Clouds 23 1013 94 10000 2.1 80 08:36 02.12.2020
5115 Clouds 26 1014 88 10000 1.5 60 03:57 02.12.2020
5116 Clouds 28 1010 70 10000 4.1 180 22:21 01.12.2020
5117 Clouds 30 1014 80 10000 2.38 71 20:49 01.12.2020
5118 Clouds 30 1013 70 10000 2.6 360 19:35 01.12.2020
5119 Clouds 29 1013 74 10000 5.1 360 17:49 01.12.2020
5120 Clouds 26 1013 83 10000 2.6 360 15:44 01.12.2020
5121 Clouds 23 1014 100 10000 3.03 355 13:38 01.12.2020
5122 Clouds 23 1014 94 10000 2.1 350 11:46 01.12.2020
5123 Clouds 23 1014 94 10000 2.1 350 11:26 01.12.2020
5124 Clouds 21 1013 94 10000 2.1 360 10:38 01.12.2020
5125 Clouds 22 1014 94 10000 2.1 20 08:21 01.12.2020
5126 Clouds 23 1015 88 10000 2.1 20 06:47 01.12.2020
5127 Clouds 25 1014 83 10000 2.6 40 01:52 01.12.2020
5128 Clouds 26 1014 78 10000 2.78 48 00:55 01.12.2020
5129 Clouds 27 1014 69 10000 2.77 69 23:21 30.11.2020
5130 Clouds 28 1014 74 10000 3.1 360 22:44 30.11.2020
5131 Clouds 28 1014 74 10000 3.1 360 22:25 30.11.2020
5132 Clouds 30 1015 70 10000 4.1 360 20:47 30.11.2020
5133 Clouds 30 1016 66 10000 3.1 350 19:42 30.11.2020
5134 Clouds 30 1016 66 10000 3.1 350 19:42 30.11.2020
5135 Clouds 30 1016 66 10000 3.1 350 19:42 30.11.2020
5136 Clouds 29 1018 58 10000 5.1 360 18:23 30.11.2020
5137 Clouds 29 1018 58 10000 5.1 360 17:47 30.11.2020
5138 Clouds 28 1018 65 10000 5.1 360 16:55 30.11.2020
5139 Clouds 26 1017 78 10000 3.1 40 15:59 30.11.2020
5140 Clouds 23 1017 94 10000 3.35 13 14:31 30.11.2020
5141 Clouds 21 1016 100 10000 3.69 350 13:42 30.11.2020
5142 Clouds 21 1015 100 10000 3.1 360 12:26 30.11.2020
5143 Clouds 20 1015 94 10000 2.1 360 11:57 30.11.2020
5144 Clouds 20 1015 100 10000 3.1 360 10:26 30.11.2020
5145 Clouds 20 1015 100 10000 2.1 20 09:45 30.11.2020
5146 Clouds 22 1016 94 10000 2.1 10 07:18 30.11.2020
5147 Clouds 27 1014 66 10000 4.1 30 23:39 29.11.2020
5148 Clouds 29 1014 66 10000 4.1 30 21:49 29.11.2020
5149 Clouds 29 1014 66 10000 4.1 30 21:28 29.11.2020
5150 Clouds 30 1015 66 10000 4.1 360 19:49 29.11.2020
5151 Clouds 29 1017 70 10000 2.6 360 17:47 29.11.2020
5152 Clouds 26 1017 88 10000 3.88 19 14:54 29.11.2020
5153 Clouds 23 1015 100 10000 1.5 0 12:58 29.11.2020
5154 Clouds 24 1015 94 10000 1.5 0 11:41 29.11.2020
5155 Clouds 24 1014 94 10000 2.88 3 09:42 29.11.2020
5156 Clouds 24 1014 94 10000 2.72 5 08:37 29.11.2020
5157 Clouds 24 1016 88 10000 2.1 40 04:40 29.11.2020
5158 Clouds 25 1012 83 8000 5.1 360 23:19 28.11.2020
5159 Clouds 26 1012 83 8000 5.1 360 22:55 28.11.2020
5160 Clouds 29 1013 74 10000 3.01 87 20:44 28.11.2020
5161 Clouds 29 1014 70 10000 3.36 90 19:38 28.11.2020
5162 Clouds 29 1014 70 10000 2.68 75 19:19 28.11.2020
5163 Clouds 29 1014 70 10000 3.12 53 18:26 28.11.2020
5164 Clouds 28 1015 78 10000 5.1 360 17:40 28.11.2020
5165 Clouds 27 1015 78 10000 3.1 360 16:39 28.11.2020
5166 Clouds 23 1014 94 7000 3.03 1 14:25 28.11.2020
5167 Clouds 23 1013 94 10000 2.1 20 11:29 28.11.2020
5168 Clouds 23 1012 100 10000 1.5 0 09:37 28.11.2020
5169 Clouds 23 1014 94 10000 2.1 20 03:49 28.11.2020
5170 Clouds 24 1013 88 10000 2.1 40 02:22 28.11.2020
5171 Clouds 27 1010 74 10000 3.1 30 23:23 27.11.2020
5172 Clouds 29 1010 66 10000 3.1 30 22:45 27.11.2020
5173 Clouds 31 1010 59 10000 4.1 360 20:41 27.11.2020
5174 Clouds 31 1010 59 10000 4.1 360 20:23 27.11.2020
5175 Clouds 30 1011 62 10000 4.1 360 19:19 27.11.2020
5176 Clouds 28 1013 74 10000 6.2 360 16:58 27.11.2020
5177 Clouds 24 1013 78 10000 3.25 8 14:45 27.11.2020
5178 Clouds 22 1014 100 10000 2.1 10 13:21 27.11.2020
5179 Clouds 21 1014 100 10000 2.1 10 12:47 27.11.2020
5180 Clouds 20 1013 100 10000 2.1 10 11:34 27.11.2020
5181 Clouds 20 1013 100 10000 1 360 10:45 27.11.2020
5182 Clouds 20 1013 100 10000 2.1 10 09:53 27.11.2020
5183 Clouds 23 1015 94 10000 3.39 348 04:32 27.11.2020
5184 Rain 28 1015 87 10000 4.76 13 22:26 26.11.2020
5185 Clear 29 1015 86 10000 4.76 13 21:56 26.11.2020
5186 Clouds 30 1013 66 10000 6.2 360 20:49 26.11.2020
5187 Clouds 30 1015 66 10000 6.2 360 18:37 26.11.2020
5188 Clouds 29 1016 66 10000 6.2 360 17:34 26.11.2020
5189 Clouds 26 1016 83 10000 4.1 350 14:24 26.11.2020
5190 Clouds 23 1014 94 8000 2.1 30 12:58 26.11.2020
5191 Clouds 23 1014 94 8000 2.1 30 12:40 26.11.2020
5192 Clouds 23 1014 94 8000 2.1 30 11:20 26.11.2020
5193 Clouds 23 1014 94 8000 2.1 30 10:23 26.11.2020
5194 Clouds 23 1014 94 8000 2.1 50 09:39 26.11.2020
5195 Clouds 23 1015 94 8000 2.1 30 09:18 26.11.2020
5196 Clouds 23 1015 94 8000 2.1 30 08:34 26.11.2020
5197 Clouds 25 1015 88 10000 2.1 20 02:19 26.11.2020
5198 Clouds 28 1014 74 10000 3.1 30 22:30 25.11.2020
5199 Clouds 29 1014 66 10000 6.2 30 20:38 25.11.2020
5200 Clouds 29 1014 70 10000 6.7 60 19:26 25.11.2020
5201 Clouds 29 1016 66 10000 7.7 360 17:29 25.11.2020
5202 Clouds 28 1017 74 10000 6.2 360 15:47 25.11.2020
5203 Clouds 28 1017 74 10000 6.2 360 15:23 25.11.2020
5204 Clouds 25 1016 94 10000 4.1 330 13:46 25.11.2020
5205 Clouds 24 1015 100 10000 2.1 360 12:58 25.11.2020
5206 Clouds 24 1014 100 10000 2.1 20 11:26 25.11.2020
5207 Clouds 24 1014 94 10000 2.1 10 09:22 25.11.2020
5208 Clouds 24 1015 94 10000 2.1 360 08:50 25.11.2020
5209 Clouds 24 1015 94 10000 2.1 360 07:45 25.11.2020
5210 Clouds 24 1015 94 10000 2.1 360 03:52 25.11.2020
5211 Clouds 25 1014 88 10000 2.1 30 01:49 25.11.2020
5212 Clouds 26 1013 83 10000 4.49 7 00:21 25.11.2020
5213 Clouds 26 1012 83 10000 4.49 7 23:35 24.11.2020
5214 Clouds 27 1012 78 10000 5.1 360 22:41 24.11.2020
5215 Clouds 27 1013 78 10000 3.1 360 21:44 24.11.2020
5216 Clouds 27 1013 78 10000 3.1 360 21:26 24.11.2020
5217 Clouds 28 1013 74 8000 5.1 360 19:48 24.11.2020
5218 Clouds 30 1014 70 10000 5.1 60 17:41 24.11.2020
5219 Clouds 29 1014 70 10000 5.1 60 17:22 24.11.2020
5220 Clouds 29 1015 74 10000 5.1 40 16:38 24.11.2020
5221 Clouds 27 1015 78 10000 5.1 40 15:56 24.11.2020
5222 Clouds 25 1014 88 10000 3.12 6 15:20 24.11.2020
5223 Clouds 25 1014 88 10000 3.12 6 14:45 24.11.2020
5224 Clouds 24 1014 88 8000 2.82 359 13:38 24.11.2020
5225 Clouds 23 1013 100 10000 2.05 353 12:39 24.11.2020
5226 Clouds 23 1012 100 10000 2.1 20 12:18 24.11.2020
5227 Clouds 23 1012 100 10000 2.1 20 11:33 24.11.2020
5228 Clouds 23 1012 100 10000 2.1 10 10:25 24.11.2020
5229 Clouds 23 1012 100 10000 2.6 30 09:40 24.11.2020
5230 Clouds 23 1012 100 10000 2.6 40 08:59 24.11.2020
5231 Clouds 24 1013 94 10000 2.1 60 06:42 24.11.2020
5232 Clouds 26 1009 88 10000 0.63 317 01:24 24.11.2020
5233 Clouds 28 1008 83 10000 4.1 180 22:24 23.11.2020
5234 Clouds 28 1008 83 10000 4.1 180 22:24 23.11.2020
5235 Clouds 30 1008 74 10000 4.1 210 21:32 23.11.2020
5236 Clouds 30 1008 74 10000 4.1 210 20:32 23.11.2020
5237 Clouds 30 1010 70 10000 5.1 180 19:59 23.11.2020
5238 Clouds 30 1012 74 10000 5.1 180 17:58 23.11.2020
5239 Clouds 29 1012 79 10000 3.46 181 17:19 23.11.2020
5240 Clouds 27 1012 94 10000 3.6 180 15:33 23.11.2020
5241 Clouds 25 1012 94 10000 1.77 195 14:37 23.11.2020
5242 Clouds 23 1013 100 10000 2.1 360 12:41 23.11.2020
5243 Clouds 24 1012 94 10000 2.1 20 12:20 23.11.2020
5244 Clouds 24 1012 94 10000 2.1 20 11:42 23.11.2020
5245 Clouds 24 1012 94 10000 2.1 340 10:22 23.11.2020
5246 Clouds 24 1012 94 10000 2.1 360 09:31 23.11.2020
5247 Clouds 24 1012 100 10000 2.1 30 08:36 23.11.2020
5248 Clouds 24 1013 100 10000 1.08 263 06:36 23.11.2020
5249 Clouds 26 1011 83 10000 2.01 172 23:59 22.11.2020
5250 Clouds 29 1011 74 10000 5.1 180 22:40 22.11.2020
5251 Clouds 29 1011 66 10000 4.1 160 21:26 22.11.2020
5252 Clouds 30 1012 66 10000 4.1 170 20:35 22.11.2020
5253 Clouds 29 1013 70 10000 5.1 170 19:36 22.11.2020
5254 Clouds 29 1014 74 10000 5.1 150 18:39 22.11.2020
5255 Clouds 27 1015 78 10000 3.44 150 16:36 22.11.2020
5256 Clouds 26 1015 83 10000 2.1 130 15:28 22.11.2020
5257 Clouds 23 1014 100 10000 0.76 28 13:44 22.11.2020
5258 Clouds 23 1013 100 7000 2.1 60 12:43 22.11.2020
5259 Clouds 23 1013 100 10000 2.6 130 11:55 22.11.2020
5260 Clouds 23 1012 94 8000 1.36 348 10:55 22.11.2020
5261 Clouds 23 1012 94 8000 1.36 348 10:36 22.11.2020
5262 Clouds 23 1012 94 10000 2.1 60 07:43 22.11.2020
5263 Clouds 25 1013 88 10000 0.43 1 01:47 22.11.2020
5264 Clouds 28 1011 78 10000 1.94 116 22:42 21.11.2020
5265 Clouds 29 1011 79 10000 2.6 180 21:32 21.11.2020
5266 Clouds 29 1012 70 10000 2.43 127 20:53 21.11.2020
5267 Clouds 30 1013 74 10000 2.63 124 20:21 21.11.2020
5268 Clouds 30 1013 74 10000 2.63 124 19:49 21.11.2020
5269 Clouds 30 1013 70 10000 2.81 126 19:18 21.11.2020
5270 Clouds 29 1014 74 10000 3.1 120 17:32 21.11.2020
5271 Clouds 29 1015 79 10000 2.63 102 16:45 21.11.2020
5272 Clouds 27 1015 83 10000 1.97 69 15:42 21.11.2020
5273 Clouds 27 1015 83 10000 1.9 23 15:20 21.11.2020
5274 Clouds 25 1014 94 10000 1.9 23 14:42 21.11.2020
5275 Clouds 23 1013 94 10000 2.1 360 12:59 21.11.2020
5276 Clouds 23 1013 94 10000 2.1 360 12:23 21.11.2020
5277 Clouds 22 1013 100 10000 2.1 20 11:49 21.11.2020
5278 Clouds 23 1012 94 10000 2.1 30 10:28 21.11.2020
5279 Clouds 23 1013 94 10000 2.1 30 08:52 21.11.2020
5280 Clouds 23 1013 94 10000 2.1 30 08:52 21.11.2020
5281 Clouds 23 1013 94 10000 2.1 30 08:34 21.11.2020
5282 Clouds 23 1015 100 10000 1.97 344 05:42 21.11.2020
5283 Clouds 24 1014 94 10000 2.59 351 02:52 21.11.2020
5284 Clouds 24 1014 88 10000 2.47 4 00:22 21.11.2020
5285 Clouds 25 1013 78 10000 3.1 360 22:45 20.11.2020
5286 Clouds 25 1013 83 10000 3.1 360 21:45 20.11.2020
5287 Clouds 25 1013 83 10000 3.1 360 21:21 20.11.2020
5288 Clouds 25 1013 83 10000 3.1 360 21:21 20.11.2020
5289 Clouds 24 1014 88 7000 3.11 53 19:55 20.11.2020
5290 Clouds 28 1015 66 8000 3.1 70 18:54 20.11.2020
5291 Clouds 28 1016 66 10000 4.1 40 17:59 20.11.2020
5292 Clouds 29 1016 66 10000 4.1 40 17:29 20.11.2020
5293 Clouds 28 1017 74 10000 5.1 360 16:47 20.11.2020
5294 Clouds 27 1016 78 10000 5.1 360 15:59 20.11.2020
5295 Clouds 27 1016 78 10000 5.1 360 15:34 20.11.2020
5296 Clouds 24 1014 94 10000 3.28 352 13:49 20.11.2020
5297 Clouds 24 1014 94 10000 2.6 10 13:19 20.11.2020
5298 Clouds 23 1014 94 10000 2.6 10 12:40 20.11.2020
5299 Clouds 23 1014 94 10000 3.1 10 11:48 20.11.2020
5300 Clouds 23 1014 94 10000 3.1 10 11:21 20.11.2020
5301 Clouds 23 1013 94 10000 2.6 360 09:45 20.11.2020
5302 Clouds 23 1013 94 10000 2.6 350 08:27 20.11.2020
5303 Clouds 23 1014 94 10000 2.1 360 07:34 20.11.2020
5304 Clouds 23 1015 100 10000 3.1 10 03:45 20.11.2020
5305 Clouds 23 1014 94 8000 3.08 9 23:25 19.11.2020
5306 Clouds 23 1014 94 7000 3.1 360 22:27 19.11.2020
5307 Clouds 23 1014 94 7000 4.1 360 21:49 19.11.2020
5308 Clouds 24 1014 100 5000 6.2 60 20:37 19.11.2020
5309 Clouds 29 1014 70 8000 3.1 60 20:18 19.11.2020
5310 Clouds 29 1014 70 8000 3.1 60 19:25 19.11.2020
5311 Clouds 30 1016 74 10000 4.1 70 17:50 19.11.2020
5312 Clouds 29 1016 74 10000 4.1 360 16:59 19.11.2020
5313 Clouds 28 1016 74 10000 3.1 30 15:59 19.11.2020
5314 Clouds 28 1016 74 10000 3.1 30 15:28 19.11.2020
5315 Clouds 24 1015 94 10000 3.34 348 13:46 19.11.2020
5316 Clouds 24 1015 94 10000 2.99 342 13:24 19.11.2020
5317 Clouds 23 1014 100 10000 2.1 20 12:44 19.11.2020
5318 Clouds 23 1014 100 10000 2.1 20 12:24 19.11.2020
5319 Clouds 23 1013 94 10000 2.1 30 11:39 19.11.2020
5320 Clouds 23 1013 94 10000 2.1 10 10:54 19.11.2020
5321 Clouds 23 1013 94 10000 2.1 10 10:27 19.11.2020
5322 Clouds 23 1013 94 10000 2.1 360 09:44 19.11.2020
5323 Clouds 23 1013 94 10000 2.1 360 09:24 19.11.2020
5324 Clouds 23 1014 94 8000 2.43 345 08:20 19.11.2020
5325 Clouds 24 1015 100 10000 2.41 340 06:20 19.11.2020
5326 Clouds 24 1014 100 8000 2.6 20 01:45 19.11.2020
5327 Clouds 25 1013 94 10000 1.5 60 23:53 18.11.2020
5328 Clouds 26 1012 83 10000 3.1 170 23:25 18.11.2020
5329 Clouds 26 1012 83 10000 3.1 170 22:36 18.11.2020
5330 Clouds 27 1012 83 10000 1 112 22:18 18.11.2020
5331 Clouds 27 1012 83 10000 1 112 21:38 18.11.2020
5332 Clouds 28 1014 74 10000 3.1 170 21:19 18.11.2020
5333 Clouds 29 1014 74 8000 2.6 120 19:48 18.11.2020
5334 Clouds 28 1014 74 8000 2.6 120 19:27 18.11.2020
5335 Clouds 28 1015 74 10000 2.1 150 18:55 18.11.2020
5336 Clouds 28 1015 74 10000 2.1 150 18:36 18.11.2020
5337 Clouds 29 1015 74 10000 2.6 150 17:37 18.11.2020
5338 Clouds 28 1016 83 10000 2.16 47 16:24 18.11.2020
5339 Clouds 26 1015 88 10000 2.16 47 15:36 18.11.2020
5340 Clouds 25 1015 88 10000 2.3 17 14:40 18.11.2020
5341 Clouds 24 1014 94 10000 2.35 350 13:43 18.11.2020
5342 Clouds 23 1014 94 8000 2.35 343 12:54 18.11.2020
5343 Clouds 23 1014 94 7000 2.44 342 12:29 18.11.2020
5344 Clouds 23 1013 100 10000 2.44 339 11:28 18.11.2020
5345 Clouds 23 1013 94 10000 2.1 360 10:31 18.11.2020
5346 Clouds 23 1013 94 10000 2.54 338 09:52 18.11.2020
5347 Clouds 23 1014 100 7000 5.7 110 07:40 18.11.2020
5348 Clouds 24 1014 94 10000 2.19 335 06:33 18.11.2020
5349 Clouds 25 1010 100 10000 2.29 21 00:25 18.11.2020
5350 Clouds 25 1010 100 10000 2.29 21 23:34 17.11.2020
5351 Clouds 27 1009 88 10000 2.74 36 22:46 17.11.2020
5352 Clouds 27 1009 88 10000 3.07 46 22:28 17.11.2020
5353 Clouds 28 1009 94 7000 5.1 360 21:50 17.11.2020
5354 Clouds 28 1009 94 7000 5.1 360 21:30 17.11.2020
5355 Clouds 31 1009 70 10000 4.1 360 20:44 17.11.2020
5356 Clouds 31 1009 70 10000 4.1 360 20:24 17.11.2020
5357 Clouds 31 1009 70 10000 3.1 90 19:50 17.11.2020
5358 Clouds 30 1013 74 10000 2.6 150 18:24 17.11.2020
5359 Clouds 30 1013 70 10000 2.6 360 17:33 17.11.2020
5360 Clouds 29 1012 74 10000 2.6 60 16:49 17.11.2020
5361 Clouds 28 1012 69 10000 3.1 360 16:18 17.11.2020
5362 Clouds 28 1012 69 10000 3.1 360 15:38 17.11.2020
5363 Clouds 26 1012 83 10000 2.6 360 15:20 17.11.2020
5364 Clouds 25 1012 83 10000 2.6 360 14:30 17.11.2020
5365 Clouds 23 1011 94 10000 3.46 348 13:45 17.11.2020
5366 Clouds 22 1011 94 10000 3.23 338 13:22 17.11.2020
5367 Clouds 22 1013 100 10000 2.1 20 12:42 17.11.2020
5368 Clouds 22 1012 100 10000 2.1 10 11:45 17.11.2020
5369 Clouds 22 1012 100 10000 2.1 10 11:21 17.11.2020
5370 Clouds 23 1012 94 10000 2.1 10 10:39 17.11.2020
5371 Clouds 23 1012 94 10000 2.1 10 09:53 17.11.2020
5372 Clouds 23 1012 94 10000 2.1 10 09:34 17.11.2020
5373 Clouds 23 1013 94 10000 2.1 40 08:26 17.11.2020
5374 Clouds 23 1013 94 10000 2.1 10 07:57 17.11.2020
5375 Clouds 23 1013 94 10000 2.1 10 07:28 17.11.2020
5376 Clouds 24 1014 94 10000 2.1 40 04:29 17.11.2020
5377 Clouds 25 1014 88 10000 2.1 60 03:22 17.11.2020
5378 Clouds 25 1014 88 10000 2.1 60 03:22 17.11.2020
5379 Clouds 25 1014 83 10000 2.1 50 02:28 17.11.2020
5380 Clouds 26 1012 88 10000 3.08 15 00:56 17.11.2020
5381 Clouds 27 1012 78 10000 2.48 31 23:52 16.11.2020
5382 Clouds 28 1012 78 10000 2.48 31 23:30 16.11.2020
5383 Clouds 30 1012 62 10000 3.1 20 22:48 16.11.2020
5384 Clouds 30 1012 62 10000 3.1 20 22:21 16.11.2020
5385 Clouds 30 1012 62 10000 3.1 20 22:21 16.11.2020
5386 Clouds 30 1012 62 10000 3.08 53 21:49 16.11.2020
5387 Clouds 30 1012 62 10000 4.05 55 21:25 16.11.2020
5388 Clouds 31 1012 62 10000 3.1 40 20:58 16.11.2020
5389 Clouds 31 1012 62 10000 3.1 40 20:25 16.11.2020
5390 Clouds 31 1013 62 10000 4.1 50 19:42 16.11.2020
5391 Clouds 30 1013 62 10000 3.02 29 19:24 16.11.2020
5392 Clouds 30 1014 62 10000 3.6 20 18:42 16.11.2020
5393 Clouds 29 1015 66 10000 3.1 30 17:53 16.11.2020
5394 Clouds 29 1015 66 10000 3.1 30 17:25 16.11.2020
5395 Clouds 28 1015 66 10000 5.1 20 16:56 16.11.2020
5396 Clouds 28 1015 66 10000 5.1 20 16:36 16.11.2020
5397 Clouds 27 1015 78 10000 2.6 360 16:18 16.11.2020
5398 Clouds 27 1015 78 10000 2.6 360 15:41 16.11.2020
5399 Clouds 27 1015 78 10000 2.6 360 15:21 16.11.2020
5400 Clouds 24 1015 78 10000 2.6 360 14:39 16.11.2020
5401 Clouds 23 1015 94 10000 3.95 345 13:34 16.11.2020
5402 Clouds 22 1013 94 8000 2.1 10 12:34 16.11.2020
5403 Clouds 22 1013 94 10000 2.1 20 11:54 16.11.2020
5404 Clouds 22 1013 94 10000 2.1 20 11:36 16.11.2020
5405 Clouds 22 1013 94 10000 2.1 360 11:18 16.11.2020
5406 Clouds 22 1013 94 10000 2.1 360 10:39 16.11.2020
5407 Clouds 22 1013 94 10000 2.1 360 10:20 16.11.2020
5408 Clouds 22 1013 94 10000 2.1 360 09:41 16.11.2020
5409 Clouds 23 1013 94 10000 2.1 20 08:53 16.11.2020
5410 Clouds 23 1013 94 10000 2.1 20 08:34 16.11.2020
5411 Clouds 23 1014 100 10000 3.19 350 07:43 16.11.2020
5412 Clouds 23 1014 100 10000 3.19 350 07:43 16.11.2020
5413 Clouds 23 1015 94 10000 2.1 20 06:47 16.11.2020
5414 Clouds 23 1015 94 10000 2.1 20 05:53 16.11.2020
5415 Clouds 24 1015 94 10000 2.1 20 04:36 16.11.2020
5416 Clouds 24 1014 94 10000 2.1 10 01:48 16.11.2020
5417 Clouds 24 1014 94 10000 2.1 10 01:21 16.11.2020
5418 Clouds 25 1013 88 8000 2.66 47 23:48 15.11.2020
5419 Clouds 24 1013 94 7000 2.52 50 23:21 15.11.2020
5420 Clouds 25 1013 94 7000 2.52 50 22:39 15.11.2020
5421 Clouds 25 1013 94 7000 2.51 45 22:18 15.11.2020
5422 Clouds 26 1013 94 7000 2.51 45 21:41 15.11.2020
5423 Clouds 26 1013 94 7000 3.62 53 21:20 15.11.2020
5424 Clouds 25 1013 94 7000 3.62 53 20:41 15.11.2020
5425 Clouds 29 1013 62 10000 4.1 40 20:18 15.11.2020
5426 Clouds 30 1013 62 10000 4.1 40 19:43 15.11.2020
5427 Clouds 29 1014 70 10000 5.1 360 19:22 15.11.2020
5428 Clouds 29 1014 70 10000 5.1 360 18:55 15.11.2020
5429 Clouds 29 1014 70 10000 5.1 360 18:37 15.11.2020
5430 Clouds 29 1014 74 10000 5.1 40 18:18 15.11.2020
5431 Clouds 29 1014 74 10000 5.1 40 17:42 15.11.2020
5432 Clouds 29 1014 74 10000 5.1 40 17:22 15.11.2020
5433 Clouds 29 1015 66 10000 5.1 40 16:44 15.11.2020
5434 Clouds 29 1015 66 10000 5.1 40 16:20 15.11.2020
5435 Clouds 28 1015 78 10000 4.1 360 15:49 15.11.2020
5436 Clouds 28 1015 78 10000 4.1 360 15:26 15.11.2020
5437 Clouds 26 1015 83 10000 3.76 12 14:54 15.11.2020
5438 Clouds 26 1015 83 10000 4.02 358 14:27 15.11.2020
5439 Clouds 24 1014 88 10000 4.02 358 13:53 15.11.2020
5440 Clouds 24 1014 88 10000 4.02 358 13:34 15.11.2020
5441 Clouds 22 1013 100 10000 2.1 360 12:47 15.11.2020
5442 Clouds 22 1013 100 10000 2.1 360 12:20 15.11.2020
5443 Clouds 22 1013 100 10000 2.1 360 11:44 15.11.2020
5444 Clouds 22 1012 100 10000 2.6 350 11:19 15.11.2020
5445 Clouds 22 1012 100 10000 2.6 350 10:53 15.11.2020
5446 Clouds 22 1012 100 10000 2.6 350 10:31 15.11.2020
5447 Clouds 23 1012 100 10000 2.1 350 09:55 15.11.2020
5448 Clouds 23 1012 100 10000 2.1 350 09:32 15.11.2020
5449 Clouds 23 1013 100 10000 3.02 343 08:56 15.11.2020
5450 Clouds 23 1013 100 10000 3.02 343 08:38 15.11.2020
5451 Clouds 23 1013 100 10000 1.5 360 07:45 15.11.2020
5452 Clouds 23 1014 100 10000 2.1 360 06:42 15.11.2020
5453 Clouds 24 1014 94 10000 1.5 350 04:53 15.11.2020
5454 Clouds 25 1013 94 10000 1.5 40 01:54 15.11.2020
5455 Clouds 26 1012 94 10000 2.97 11 00:31 15.11.2020
5456 Clouds 26 1012 94 10000 2.78 16 23:49 14.11.2020
5457 Clouds 27 1009 78 10000 2.47 23 22:55 14.11.2020
5458 Clouds 27 1009 78 10000 2.47 23 22:55 14.11.2020
5459 Clouds 27 1009 78 10000 2.47 23 22:37 14.11.2020
5460 Clouds 27 1009 79 10000 2.6 60 22:18 14.11.2020
5461 Clouds 27 1009 79 10000 2.6 60 21:39 14.11.2020
5462 Clouds 27 1009 79 10000 2.6 60 21:39 14.11.2020
5463 Clouds 29 1009 70 10000 3.1 60 21:20 14.11.2020
5464 Clouds 29 1009 70 10000 3.1 60 20:42 14.11.2020
5465 Clouds 29 1009 70 10000 3.1 60 20:23 14.11.2020
5466 Clouds 30 1010 74 10000 2.6 60 19:36 14.11.2020
5467 Clouds 30 1011 70 10000 4.1 360 18:58 14.11.2020
5468 Clouds 30 1011 70 10000 4.1 360 18:39 14.11.2020
5469 Clouds 30 1011 70 10000 4.1 360 18:21 14.11.2020
5470 Clouds 30 1014 66 10000 3.1 60 17:44 14.11.2020
5471 Clouds 30 1013 74 10000 5.1 30 17:25 14.11.2020
5472 Clouds 30 1013 74 10000 5.1 30 16:52 14.11.2020
5473 Clouds 29 1013 74 10000 5.1 30 16:31 14.11.2020
5474 Clouds 28 1015 78 10000 1.5 40 15:53 14.11.2020
5475 Clouds 28 1015 78 10000 1.5 40 15:31 14.11.2020
5476 Clouds 26 1012 94 10000 4.12 21 14:54 14.11.2020
5477 Clouds 25 1012 94 10000 3.67 359 14:29 14.11.2020
5478 Clouds 24 1011 94 10000 3.67 359 13:51 14.11.2020
5479 Clouds 23 1011 94 10000 3.32 349 13:29 14.11.2020
5480 Clouds 23 1013 100 10000 2.1 20 12:49 14.11.2020
5481 Clouds 22 1013 100 10000 2.1 20 12:30 14.11.2020
5482 Clouds 22 1013 100 10000 2.1 360 11:49 14.11.2020
5483 Clouds 22 1013 100 10000 2.1 360 11:30 14.11.2020
5484 Clouds 23 1012 94 10000 2.1 30 10:51 14.11.2020
5485 Clouds 23 1012 94 10000 2.1 30 10:27 14.11.2020
5486 Clouds 23 1012 94 10000 2.1 30 10:27 14.11.2020
5487 Clouds 23 1012 94 10000 2.1 360 09:58 14.11.2020
5488 Clouds 23 1012 94 10000 2.1 360 09:39 14.11.2020
5489 Clouds 23 1012 94 10000 2.1 360 09:21 14.11.2020
5490 Clouds 23 1013 94 10000 2.6 360 08:40 14.11.2020
5491 Clouds 23 1013 94 10000 1.5 10 07:55 14.11.2020
5492 Clouds 24 1013 94 10000 1.5 10 07:36 14.11.2020
5493 Clouds 24 1013 94 10000 1.5 10 06:37 14.11.2020
5494 Clouds 24 1014 94 10000 2.42 343 06:19 14.11.2020
5495 Clouds 24 1014 94 10000 1.5 20 04:30 14.11.2020
5496 Clouds 25 1012 88 10000 2.67 28 01:25 14.11.2020
5497 Clouds 27 1012 78 10000 2.57 35 23:50 13.11.2020
5498 Clouds 27 1012 78 10000 2.55 48 23:29 13.11.2020
5499 Clouds 28 1012 74 10000 2.55 48 22:55 13.11.2020
5500 Clouds 28 1012 74 10000 2.55 48 22:55 13.11.2020
5501 Clouds 28 1012 74 10000 2.63 61 22:29 13.11.2020
5502 Clouds 28 1012 74 10000 2.63 61 21:59 13.11.2020
5503 Clouds 28 1012 74 10000 2.63 61 21:41 13.11.2020
5504 Clouds 28 1012 74 10000 2.84 76 21:22 13.11.2020
5505 Clouds 29 1012 74 10000 2.84 76 20:44 13.11.2020
5506 Clouds 29 1012 74 10000 3.2 80 20:23 13.11.2020
5507 Clouds 30 1013 66 8000 3.1 360 19:47 13.11.2020
5508 Clouds 30 1013 66 8000 3.1 360 19:24 13.11.2020
5509 Clouds 30 1014 70 10000 3.02 76 18:58 13.11.2020
5510 Clouds 30 1014 70 10000 2.76 78 18:26 13.11.2020
5511 Clouds 30 1014 74 10000 3.1 60 17:43 13.11.2020
5512 Clouds 30 1014 74 10000 3.1 60 17:43 13.11.2020
5513 Clouds 30 1015 74 10000 3.1 90 17:19 13.11.2020
5514 Clouds 29 1015 74 10000 3.1 90 16:50 13.11.2020
5515 Clouds 29 1015 74 10000 3.1 90 16:24 13.11.2020
5516 Clouds 28 1015 78 10000 3.1 360 15:52 13.11.2020
5517 Clouds 28 1015 78 10000 3.1 360 15:32 13.11.2020
5518 Clouds 26 1015 83 10000 3.1 360 14:50 13.11.2020
5519 Clouds 26 1015 83 10000 3.1 360 14:27 13.11.2020
5520 Clouds 25 1014 94 10000 3.1 360 13:53 13.11.2020
5521 Clouds 25 1014 94 10000 3.1 360 13:27 13.11.2020
5522 Clouds 23 1013 100 10000 2.1 30 12:48 13.11.2020
5523 Clouds 23 1013 100 10000 2.1 30 12:25 13.11.2020
5524 Clouds 23 1012 100 10000 2.1 50 11:50 13.11.2020
5525 Clouds 23 1012 100 10000 2.1 50 11:32 13.11.2020
5526 Clouds 23 1012 100 10000 2.1 50 10:59 13.11.2020
5527 Clouds 23 1012 100 10000 2.1 50 10:39 13.11.2020
5528 Clouds 23 1012 100 10000 2.1 50 10:21 13.11.2020
5529 Clouds 23 1012 100 10000 2.1 40 09:43 13.11.2020
5530 Clouds 23 1012 100 10000 2.1 40 09:23 13.11.2020
5531 Clouds 23 1012 100 10000 2.1 60 08:52 13.11.2020
5532 Clouds 23 1012 100 10000 2.1 60 08:21 13.11.2020
5533 Clouds 23 1013 100 10000 2.1 60 07:45 13.11.2020
5534 Clouds 23 1013 100 10000 2.1 60 07:26 13.11.2020
5535 Clouds 23 1013 100 10000 2.1 50 06:49 13.11.2020
5536 Clouds 23 1014 100 10000 2.1 40 05:58 13.11.2020
5537 Clouds 23 1014 100 10000 2.1 40 05:30 13.11.2020
5538 Clouds 24 1013 94 7000 2.1 20 01:46 13.11.2020
5539 Clouds 24 1012 94 10000 1.6 35 00:53 13.11.2020
5540 Clouds 24 1012 94 10000 1.8 12 00:32 13.11.2020
5541 Clouds 25 1011 94 10000 1.91 24 23:38 12.11.2020
5542 Clouds 25 1011 94 10000 2.12 31 23:19 12.11.2020
5543 Clouds 25 1011 94 10000 2.12 31 22:50 12.11.2020
5544 Clouds 25 1011 94 10000 2.25 55 22:32 12.11.2020
5545 Clouds 25 1012 100 8000 2.25 55 21:56 12.11.2020
5546 Clouds 25 1012 100 8000 2.25 55 21:36 12.11.2020
5547 Clouds 26 1012 79 10000 5.1 180 21:18 12.11.2020
5548 Clouds 26 1012 79 10000 5.1 180 20:39 12.11.2020
5549 Clouds 26 1012 79 10000 5.1 180 20:21 12.11.2020
5550 Clouds 28 1012 83 10000 2.1 130 19:47 12.11.2020
5551 Clouds 28 1012 83 10000 2.1 130 19:29 12.11.2020
5552 Rain 27 1013 100 8000 2.63 84 18:52 12.11.2020
5553 Rain 27 1013 100 8000 2.42 87 18:24 12.11.2020
5554 Rain 27 1013 100 8000 2.42 87 18:24 12.11.2020
5555 Rain 27 1014 79 8000 2.1 100 17:48 12.11.2020
5556 Rain 27 1014 79 8000 2.1 100 17:29 12.11.2020
5557 Clouds 28 1014 74 10000 3.1 90 16:47 12.11.2020
5558 Clouds 28 1014 74 10000 3.1 90 16:27 12.11.2020
5559 Clouds 27 1014 83 10000 3.6 60 15:59 12.11.2020
5560 Clouds 27 1014 83 10000 3.6 60 15:40 12.11.2020
5561 Clouds 27 1014 83 10000 3.6 60 15:20 12.11.2020
5562 Clouds 26 1013 88 10000 2.6 40 14:46 12.11.2020
5563 Clouds 26 1013 88 10000 2.6 40 14:25 12.11.2020
5564 Clouds 24 1013 100 10000 2.18 29 13:49 12.11.2020
5565 Clouds 24 1013 100 10000 2.31 31 13:21 12.11.2020
5566 Clouds 24 1013 100 10000 2.31 31 13:21 12.11.2020
5567 Clouds 23 1011 100 8000 2.1 40 12:59 12.11.2020
5568 Clouds 23 1011 100 8000 2.1 40 12:40 12.11.2020
5569 Clouds 23 1011 94 8000 2.1 40 12:18 12.11.2020
5570 Clouds 23 1011 94 8000 2.1 40 11:45 12.11.2020
5571 Clouds 23 1011 94 8000 2.1 40 11:26 12.11.2020
5572 Clouds 23 1010 100 7000 3.1 50 10:41 12.11.2020
5573 Clouds 23 1010 100 7000 3.1 50 10:23 12.11.2020
5574 Clouds 23 1011 100 7000 3.1 60 09:46 12.11.2020
5575 Clouds 23 1011 100 7000 3.1 60 09:22 12.11.2020
5576 Clouds 23 1011 100 7000 3.1 50 08:56 12.11.2020
5577 Clouds 23 1011 100 7000 3.1 50 08:37 12.11.2020
5578 Clouds 24 1011 94 8000 2.1 30 08:19 12.11.2020
5579 Clouds 24 1011 94 8000 2.1 30 07:42 12.11.2020
5580 Clouds 24 1011 94 8000 2.1 30 07:18 12.11.2020
5581 Clouds 24 1012 94 8000 2.1 90 06:47 12.11.2020
5582 Thunderstorm 24 1012 94 10000 3.1 50 05:19 12.11.2020
5583 Thunderstorm 24 1012 100 10000 2.1 40 03:21 12.11.2020
5584 Clouds 24 1010 100 7000 1.92 10 01:23 12.11.2020
5585 Clouds 25 1010 100 7000 3.1 30 23:47 11.11.2020
5586 Clouds 25 1010 100 7000 3.1 30 23:25 11.11.2020
5587 Clouds 24 1010 100 8000 2.6 360 22:58 11.11.2020
5588 Clouds 24 1010 100 8000 2.6 360 22:39 11.11.2020
5589 Clouds 25 1010 100 8000 2.6 240 22:19 11.11.2020
5590 Clouds 25 1010 100 8000 2.6 240 21:41 11.11.2020
5591 Clouds 25 1010 100 8000 2.6 240 21:23 11.11.2020
5592 Clouds 25 1010 100 6000 2.6 90 20:55 11.11.2020
5593 Clouds 25 1010 100 6000 2.6 90 20:37 11.11.2020
5594 Rain 27 1011 74 8000 2.6 330 20:19 11.11.2020
5595 Rain 27 1011 74 8000 2.6 330 19:48 11.11.2020
5596 Rain 27 1011 74 8000 2.6 330 19:30 11.11.2020
5597 Rain 27 1011 74 8000 2.6 330 19:30 11.11.2020
5598 Clouds 27 1012 70 10000 5.1 30 18:49 11.11.2020
5599 Clouds 28 1012 70 10000 5.1 30 18:28 11.11.2020
5600 Clouds 28 1013 74 10000 2.6 330 17:41 11.11.2020
5601 Clouds 29 1013 74 10000 2.6 330 17:22 11.11.2020
5602 Clouds 28 1014 83 10000 4.1 360 16:49 11.11.2020
5603 Clouds 28 1014 83 10000 4.1 360 16:31 11.11.2020
5604 Clouds 27 1013 94 10000 2.6 360 15:48 11.11.2020
5605 Clouds 26 1013 94 10000 2.6 360 15:26 11.11.2020
5606 Clouds 26 1013 94 8000 3.27 25 14:52 11.11.2020
5607 Clouds 26 1013 94 8000 3.27 25 14:33 11.11.2020
5608 Clouds 25 1012 100 8000 3.17 15 13:56 11.11.2020
5609 Clouds 25 1012 100 8000 3.17 15 13:33 11.11.2020
5610 Clouds 24 1011 100 10000 2.6 20 12:42 11.11.2020
5611 Clouds 25 1011 100 10000 2.6 20 12:20 11.11.2020
5612 Clouds 25 1011 100 10000 2.1 10 11:49 11.11.2020
5613 Clouds 25 1011 100 10000 2.1 10 11:29 11.11.2020
5614 Clouds 25 1010 100 8000 2.6 360 10:41 11.11.2020
5615 Clouds 25 1010 100 8000 2.6 360 10:21 11.11.2020
5616 Clouds 25 1010 100 10000 2.6 10 09:45 11.11.2020
5617 Clouds 25 1010 100 10000 2.6 10 09:26 11.11.2020
5618 Clouds 25 1010 94 10000 2.1 360 08:46 11.11.2020
5619 Clouds 25 1010 94 10000 2.1 360 08:27 11.11.2020
5620 Clouds 25 1011 94 10000 2.1 40 07:49 11.11.2020
5621 Clouds 25 1011 94 10000 2.1 40 07:18 11.11.2020
5622 Clouds 25 1011 94 10000 2.1 20 06:26 11.11.2020
5623 Clouds 25 1012 94 10000 3.39 352 03:57 11.11.2020
5624 Clouds 25 1012 94 10000 3.08 347 01:31 11.11.2020
5625 Clouds 25 1011 94 10000 3.13 13 00:28 11.11.2020
5626 Thunderstorm 25 1011 94 10000 2.1 30 23:49 10.11.2020
5627 Rain 25 1010 78 8000 3.09 13 23:24 10.11.2020
5628 Rain 25 1010 78 8000 3.09 13 22:57 10.11.2020
5629 Rain 26 1010 78 8000 3.19 26 22:27 10.11.2020
5630 Clouds 29 1011 62 10000 4.1 40 21:44 10.11.2020
5631 Clouds 29 1011 62 10000 4.1 40 21:25 10.11.2020
5632 Rain 29 1011 62 8000 5.1 40 20:59 10.11.2020
5633 Rain 29 1011 62 8000 5.1 40 20:41 10.11.2020
5634 Rain 30 1011 62 8000 5.1 40 20:22 10.11.2020
5635 Clouds 30 1012 70 10000 5.1 60 19:49 10.11.2020
5636 Clouds 30 1012 70 10000 5.1 60 19:30 10.11.2020
5637 Clouds 30 1013 62 10000 5.1 60 18:59 10.11.2020
5638 Clouds 30 1013 62 10000 5.1 60 18:40 10.11.2020
5639 Clouds 30 1013 66 10000 3.1 40 18:19 10.11.2020
5640 Clouds 29 1013 66 10000 3.1 40 17:43 10.11.2020
5641 Clouds 29 1013 66 10000 3.1 40 17:25 10.11.2020
5642 Clouds 28 1014 78 10000 2.11 65 16:46 10.11.2020
5643 Clouds 28 1014 78 10000 1.75 34 16:24 10.11.2020
5644 Clouds 27 1014 83 10000 1.75 34 15:57 10.11.2020
5645 Clouds 26 1014 83 10000 1.75 34 15:38 10.11.2020
5646 Clouds 26 1014 83 10000 1.59 356 15:20 10.11.2020
5647 Clouds 25 1014 83 10000 1.59 356 14:41 10.11.2020
5648 Clouds 25 1014 83 10000 1.6 21 14:22 10.11.2020
5649 Clouds 24 1012 94 10000 1.6 21 13:41 10.11.2020
5650 Clouds 24 1012 94 10000 1.17 12 13:23 10.11.2020
5651 Clouds 23 1012 100 10000 3.1 50 12:58 10.11.2020
5652 Clouds 23 1012 100 10000 3.1 50 12:39 10.11.2020
5653 Clouds 24 1012 100 10000 3.1 50 12:20 10.11.2020
5654 Clouds 24 1011 100 10000 2.1 40 11:39 10.11.2020
5655 Clouds 24 1011 100 10000 2.1 40 11:19 10.11.2020
5656 Clouds 24 1011 100 10000 2.1 40 10:43 10.11.2020
5657 Clouds 24 1011 100 10000 2.1 40 10:24 10.11.2020
5658 Clouds 24 1011 100 10000 2.1 40 09:51 10.11.2020
5659 Clouds 24 1011 100 10000 2.1 40 09:26 10.11.2020
5660 Clouds 24 1011 100 10000 1.23 353 08:57 10.11.2020
5661 Clouds 24 1011 100 10000 1.23 353 08:30 10.11.2020
5662 Clouds 24 1012 94 10000 1.1 352 07:51 10.11.2020
5663 Clouds 24 1012 94 10000 0.95 330 07:27 10.11.2020
5664 Clouds 24 1013 94 10000 0.96 348 06:58 10.11.2020
5665 Clouds 24 1013 94 10000 0.96 348 06:37 10.11.2020
5666 Clouds 24 1013 100 10000 0.55 45 05:27 10.11.2020
5667 Clouds 24 1013 100 8000 2.1 140 02:57 10.11.2020
5668 Clouds 24 1012 100 8000 1.18 133 01:38 10.11.2020
5669 Clouds 24 1012 100 8000 3.1 100 00:24 10.11.2020
5670 Clouds 24 1011 100 8000 3.1 130 23:42 09.11.2020
5671 Rain 25 1011 83 8000 5.1 150 22:57 09.11.2020
5672 Rain 25 1011 83 8000 5.1 150 22:38 09.11.2020
5673 Clouds 25 1010 94 10000 2.74 145 22:19 09.11.2020
5674 Clouds 25 1010 94 10000 2.74 145 22:19 09.11.2020
5675 Clouds 25 1010 94 10000 2.74 145 21:40 09.11.2020
5676 Clouds 25 1010 94 10000 3.28 148 21:20 09.11.2020
5677 Clouds 26 1011 94 8000 5.1 160 20:41 09.11.2020
5678 Rain 27 1011 88 8000 5.1 180 20:21 09.11.2020
5679 Clouds 26 1011 94 8000 5.1 160 20:21 09.11.2020
5680 Rain 27 1011 88 8000 5.1 180 19:43 09.11.2020
5681 Rain 27 1011 88 8000 5.1 180 19:23 09.11.2020
5682 Clouds 26 1012 83 6000 5.1 180 18:56 09.11.2020
5683 Clouds 26 1012 83 6000 5.1 180 18:56 09.11.2020
5684 Clouds 26 1012 83 6000 5.1 180 18:37 09.11.2020
5685 Clouds 27 1013 79 10000 4.1 180 18:18 09.11.2020
5686 Clouds 27 1013 79 10000 4.1 180 17:43 09.11.2020
5687 Clouds 28 1013 79 10000 4.1 180 17:24 09.11.2020
5688 Clouds 27 1013 78 10000 3.1 150 16:41 09.11.2020
5689 Clouds 25 1013 94 10000 2.17 137 16:20 09.11.2020
5690 Clouds 25 1013 94 10000 2.17 137 15:42 09.11.2020
5691 Clouds 25 1013 94 10000 0.88 97 15:24 09.11.2020
5692 Clouds 25 1013 94 8000 0.88 97 14:46 09.11.2020
5693 Clouds 25 1013 94 8000 0.52 1 14:27 09.11.2020
5694 Rain 24 1012 100 8000 0.52 1 13:52 09.11.2020
5695 Rain 24 1012 100 8000 0.89 339 13:21 09.11.2020
5696 Clouds 24 1012 100 7000 2.1 70 12:51 09.11.2020
5697 Clouds 24 1012 94 5000 1.14 328 12:26 09.11.2020
5698 Clouds 24 1012 94 7000 2.6 40 11:59 09.11.2020
5699 Clouds 24 1011 100 5000 2.6 40 11:41 09.11.2020
5700 Clouds 24 1011 100 5000 2.6 40 11:22 09.11.2020
5701 Clouds 24 1010 100 6000 0.83 1 10:43 09.11.2020
5702 Clouds 24 1010 100 6000 0.86 6 10:24 09.11.2020
5703 Clouds 24 1010 100 7000 2.1 30 09:51 09.11.2020
5704 Clouds 24 1010 100 7000 2.1 30 09:25 09.11.2020
5705 Clouds 24 1011 88 8000 1.5 40 08:44 09.11.2020
5706 Clouds 24 1011 88 8000 1.5 40 08:21 09.11.2020
5707 Clouds 24 1012 100 8000 1.21 53 07:41 09.11.2020
5708 Clouds 24 1012 94 8000 1.5 130 07:21 09.11.2020
5709 Clouds 24 1012 94 8000 1.5 130 06:37 09.11.2020
5710 Clouds 25 1012 94 8000 1.5 160 03:31 09.11.2020
5711 Clouds 24 1012 94 8000 2.1 260 01:44 09.11.2020
5712 Clouds 24 1011 100 8000 1.5 250 00:59 09.11.2020
5713 Clouds 24 1011 100 8000 2.82 208 23:53 08.11.2020
5714 Clouds 24 1011 100 8000 2.82 208 23:53 08.11.2020
5715 Clouds 24 1010 100 5000 3.54 208 23:30 08.11.2020
5716 Clouds 24 1010 100 5000 3.54 208 22:55 08.11.2020
5717 Clouds 24 1010 100 5000 3.54 208 22:36 08.11.2020
5718 Clouds 24 1008 100 10000 4.17 201 22:18 08.11.2020
5719 Clouds 24 1008 100 10000 4.17 201 21:38 08.11.2020
5720 Clouds 24 1009 100 5000 4.22 193 21:19 08.11.2020
5721 Clouds 24 1009 100 5000 4.22 193 20:39 08.11.2020
5722 Clouds 24 1009 100 5000 4.22 193 20:39 08.11.2020
5723 Clouds 24 1009 100 5000 3.73 183 20:21 08.11.2020
5724 Clouds 24 1009 100 5000 3.73 183 20:21 08.11.2020
5725 Clouds 25 1009 100 6000 3.73 183 19:57 08.11.2020
5726 Clouds 25 1009 100 6000 3.73 183 19:39 08.11.2020
5727 Clouds 25 1009 100 6000 3.9 172 19:20 08.11.2020
5728 Clouds 26 1009 100 5000 3.9 172 18:47 08.11.2020
5729 Clouds 26 1009 100 5000 4.05 151 18:21 08.11.2020
5730 Clouds 26 1010 94 7000 4.05 151 17:57 08.11.2020
5731 Clouds 26 1010 94 7000 4.05 151 17:37 08.11.2020
5732 Clouds 26 1010 100 7000 3.59 145 17:19 08.11.2020
5733 Clouds 26 1010 100 7000 3.59 145 16:47 08.11.2020
5734 Clouds 26 1010 100 7000 2.59 138 16:21 08.11.2020
5735 Clouds 25 1010 88 7000 2.59 138 15:56 08.11.2020
5736 Clouds 25 1010 88 7000 2.59 138 15:38 08.11.2020
5737 Clouds 25 1009 88 7000 1.39 133 15:19 08.11.2020
5738 Clouds 25 1009 88 7000 1.39 133 14:39 08.11.2020
5739 Clouds 25 1009 88 7000 0.63 107 14:20 08.11.2020
5740 Clouds 24 1009 100 10000 0.63 107 13:45 08.11.2020
5741 Clouds 24 1009 100 10000 0.63 107 13:45 08.11.2020
5742 Clouds 24 1010 94 7000 2.1 40 13:21 08.11.2020
5743 Clouds 24 1010 94 7000 2.1 40 12:42 08.11.2020
5744 Clouds 24 1010 94 7000 2.1 40 12:24 08.11.2020
5745 Clouds 24 1010 94 8000 2.1 40 11:57 08.11.2020
5746 Clouds 24 1010 94 8000 2.1 40 11:38 08.11.2020
5747 Clouds 24 1009 94 10000 2.1 50 11:20 08.11.2020
5748 Clouds 24 1009 94 10000 2.1 50 10:49 08.11.2020
5749 Clouds 24 1009 100 10000 2.1 30 10:18 08.11.2020
5750 Clouds 24 1009 100 10000 2.1 30 09:42 08.11.2020
5751 Clouds 24 1009 100 10000 2.1 30 09:24 08.11.2020
5752 Clouds 24 1010 100 10000 2.1 40 08:49 08.11.2020
5753 Clouds 24 1010 100 10000 2.1 40 08:30 08.11.2020
5754 Clouds 24 1010 94 10000 2.1 20 07:53 08.11.2020
5755 Clouds 24 1010 94 10000 2.1 20 07:33 08.11.2020
5756 Clouds 24 1013 100 10000 0.54 57 06:50 08.11.2020
5757 Clouds 24 1010 94 10000 0.73 40 05:55 08.11.2020
5758 Clouds 24 1010 94 10000 0.62 58 05:26 08.11.2020
5759 Clouds 24 1011 88 10000 0.1 14 03:39 08.11.2020
5760 Clouds 25 1010 88 7000 2.1 140 01:49 08.11.2020
5761 Clouds 25 1010 88 7000 2.1 140 01:49 08.11.2020
5762 Clouds 25 1010 88 10000 2.1 120 01:18 08.11.2020
5763 Clouds 26 1010 88 10000 2.1 120 00:23 08.11.2020
5764 Clouds 26 1009 88 10000 2.1 90 23:43 07.11.2020
5765 Clouds 26 1009 94 8000 2.6 270 23:24 07.11.2020
5766 Clouds 27 1009 94 8000 2.6 270 22:41 07.11.2020
5767 Clouds 27 1009 94 8000 2.6 270 22:21 07.11.2020
5768 Clouds 28 1009 94 8000 2.76 152 21:45 07.11.2020
5769 Clouds 27 1009 94 8000 3.28 154 21:21 07.11.2020
5770 Clouds 28 1009 88 8000 4.1 240 20:50 07.11.2020
5771 Clouds 27 1009 88 8000 4.1 240 20:31 07.11.2020
5772 Clouds 28 1010 78 10000 5.1 270 19:52 07.11.2020
5773 Clouds 28 1010 78 10000 5.1 270 19:29 07.11.2020
5774 Rain 29 1011 74 8000 5.1 180 18:58 07.11.2020
5775 Rain 29 1011 74 8000 5.1 180 18:38 07.11.2020
5776 Clouds 29 1012 74 10000 4.17 151 18:19 07.11.2020
5777 Clouds 28 1012 74 10000 4.17 151 17:40 07.11.2020
5778 Clouds 28 1012 74 10000 3.64 146 17:22 07.11.2020
5779 Clouds 28 1012 78 10000 3.64 146 16:42 07.11.2020
5780 Clouds 28 1012 78 10000 2.47 137 16:23 07.11.2020
5781 Clouds 27 1012 78 10000 2.47 137 15:43 07.11.2020
5782 Clouds 27 1012 78 10000 1.49 123 15:23 07.11.2020
5783 Clouds 26 1011 88 10000 1.49 123 14:48 07.11.2020
5784 Clouds 25 1011 88 10000 1.49 123 14:30 07.11.2020
5785 Clouds 25 1011 88 10000 0.84 32 14:30 07.11.2020
5786 Clouds 24 1011 94 10000 0.84 32 13:59 07.11.2020
5787 Clouds 24 1011 94 10000 0.84 32 13:31 07.11.2020
5788 Clouds 24 1010 100 8000 2.1 80 12:58 07.11.2020
5789 Clouds 25 1010 100 8000 2.1 80 12:30 07.11.2020
5790 Clouds 25 1010 94 8000 2.1 70 11:45 07.11.2020
5791 Clouds 25 1010 94 8000 2.1 70 11:24 07.11.2020
5792 Clouds 25 1009 94 10000 2.1 80 10:46 07.11.2020
5793 Clouds 25 1009 94 10000 2.1 80 10:28 07.11.2020
5794 Clouds 25 1010 100 8000 2.1 40 09:58 07.11.2020
5795 Clouds 25 1010 100 8000 2.1 40 09:37 07.11.2020
5796 Clouds 25 1010 100 10000 2.1 60 08:58 07.11.2020
5797 Clouds 25 1010 100 10000 2.1 60 08:37 07.11.2020
5798 Clouds 25 1010 94 10000 1.26 343 08:18 07.11.2020
5799 Clouds 25 1010 94 10000 1.26 343 07:37 07.11.2020
5800 Clouds 25 1010 94 10000 2.1 20 06:48 07.11.2020
5801 Clouds 25 1011 94 10000 2.1 40 05:37 07.11.2020
5802 Clouds 25 1011 94 10000 2.1 40 03:25 07.11.2020
5803 Clouds 26 1010 94 10000 2.1 60 01:45 07.11.2020
5804 Clouds 26 1010 83 10000 0.75 263 01:25 07.11.2020
5805 Clouds 26 1010 83 10000 1.06 156 00:27 07.11.2020
5806 Clouds 28 1009 78 10000 1.86 149 23:25 06.11.2020
5807 Clouds 28 1009 78 10000 1.86 149 22:45 06.11.2020
5808 Clouds 28 1009 78 10000 2.44 147 22:20 06.11.2020
5809 Clouds 28 1009 88 10000 2.44 147 21:58 06.11.2020
5810 Clouds 28 1009 88 10000 2.44 147 21:40 06.11.2020
5811 Rain 29 1010 83 8000 3 145 21:18 06.11.2020
5812 Rain 30 1010 83 8000 3 145 20:43 06.11.2020
5813 Rain 30 1010 74 8000 2.93 140 20:19 06.11.2020
5814 Rain 30 1010 74 8000 2.93 140 19:45 06.11.2020
5815 Rain 30 1010 74 8000 2.41 144 19:26 06.11.2020
5816 Clouds 30 1011 66 10000 3.1 90 18:47 06.11.2020
5817 Clouds 30 1011 66 10000 3.1 90 18:28 06.11.2020
5818 Clouds 30 1013 66 10000 3.1 90 17:52 06.11.2020
5819 Clouds 30 1013 66 10000 3.1 90 17:31 06.11.2020
5820 Clouds 29 1012 74 10000 2.1 70 16:59 06.11.2020
5821 Clouds 29 1012 74 10000 2.1 70 16:33 06.11.2020
5822 Clouds 29 1013 74 10000 1.76 57 15:55 06.11.2020
5823 Clouds 29 1013 74 10000 1.76 57 15:33 06.11.2020
5824 Clouds 27 1012 88 10000 1.96 26 14:54 06.11.2020
5825 Clouds 27 1012 88 10000 2.09 356 14:29 06.11.2020
5826 Clouds 25 1011 88 10000 2.09 356 13:54 06.11.2020
5827 Clouds 25 1011 88 10000 2.14 345 13:26 06.11.2020
5828 Clouds 24 1011 94 10000 2.14 345 12:56 06.11.2020
5829 Clouds 24 1011 94 10000 2.28 347 12:38 06.11.2020
5830 Clouds 24 1011 94 10000 2.28 347 12:38 06.11.2020
5831 Clouds 24 1010 94 10000 2.11 335 12:18 06.11.2020
5832 Clouds 23 1010 94 10000 2.11 335 11:37 06.11.2020
5833 Clouds 23 1010 94 10000 2.37 330 10:58 06.11.2020
5834 Clouds 23 1010 94 10000 2.37 330 10:34 06.11.2020
5835 Clouds 23 1010 100 10000 2.1 30 09:55 06.11.2020
5836 Clouds 24 1010 100 10000 2.1 30 09:36 06.11.2020
5837 Clouds 24 1011 94 10000 2.16 337 09:18 06.11.2020
5838 Clouds 24 1011 94 10000 2.16 337 08:46 06.11.2020
5839 Clouds 24 1011 94 10000 1.5 0 08:19 06.11.2020
5840 Clouds 24 1011 94 10000 1.5 0 07:42 06.11.2020
5841 Clouds 24 1011 94 10000 1.5 20 07:18 06.11.2020
5842 Clouds 24 1011 94 10000 1.5 20 07:18 06.11.2020
5843 Clouds 24 1011 94 10000 1.5 20 06:40 06.11.2020
5844 Clouds 24 1012 94 10000 1.86 342 05:37 06.11.2020
5845 Clouds 26 1012 88 10000 2.1 100 01:56 06.11.2020
5846 Clouds 25 1012 83 10000 2.26 2 00:24 06.11.2020
5847 Clouds 27 1012 78 10000 2.26 2 23:50 05.11.2020
5848 Clouds 27 1012 78 10000 2.27 23 23:20 05.11.2020
5849 Rain 29 1011 74 8000 2.27 23 22:44 05.11.2020
5850 Rain 29 1012 74 8000 5.1 180 22:25 05.11.2020
5851 Rain 29 1012 74 8000 5.1 180 21:56 05.11.2020
5852 Rain 29 1012 74 8000 5.1 180 21:38 05.11.2020
5853 Rain 30 1012 70 8000 4.1 180 21:18 05.11.2020
5854 Rain 30 1012 70 8000 4.1 180 20:42 05.11.2020
5855 Rain 30 1012 70 8000 4.1 180 20:21 05.11.2020
5856 Rain 30 1013 70 8000 3.1 140 19:44 05.11.2020
5857 Rain 30 1013 70 8000 3.1 140 19:26 05.11.2020
5858 Clouds 30 1014 74 10000 3.1 150 18:56 05.11.2020
5859 Clouds 30 1014 74 10000 3.1 150 18:38 05.11.2020
5860 Clouds 30 1014 74 10000 3.1 90 18:20 05.11.2020
5861 Clouds 30 1014 74 10000 3.1 90 17:42 05.11.2020
5862 Clouds 30 1014 74 10000 3.1 90 17:23 05.11.2020
5863 Clouds 29 1015 74 10000 4.1 60 16:45 05.11.2020
5864 Clouds 29 1015 74 10000 4.1 60 16:26 05.11.2020
5865 Clouds 29 1015 79 10000 3.1 60 15:50 05.11.2020
5866 Clouds 29 1015 79 10000 3.1 60 15:50 05.11.2020
5867 Clouds 28 1015 83 10000 3.05 353 15:27 05.11.2020
5868 Clouds 28 1015 83 10000 3.05 353 14:50 05.11.2020
5869 Clouds 27 1015 83 10000 3.05 353 14:31 05.11.2020
5870 Clouds 25 1014 94 10000 2.85 350 13:59 05.11.2020
5871 Clouds 26 1014 94 10000 2.85 350 13:39 05.11.2020
5872 Clouds 24 1014 94 10000 2.1 30 12:54 05.11.2020
5873 Clouds 24 1014 94 10000 2.1 30 12:30 05.11.2020
5874 Clouds 24 1013 94 10000 2.1 20 11:58 05.11.2020
5875 Clouds 24 1013 94 10000 2.1 20 11:39 05.11.2020
5876 Clouds 24 1013 94 10000 2.1 20 11:21 05.11.2020
5877 Clouds 24 1013 94 10000 2.6 10 10:47 05.11.2020
5878 Clouds 24 1013 94 10000 2.6 10 10:26 05.11.2020
5879 Clouds 24 1013 94 10000 2.1 10 09:48 05.11.2020
5880 Clouds 24 1013 94 10000 2.1 10 09:24 05.11.2020
5881 Clouds 24 1013 94 10000 2.1 10 09:24 05.11.2020
5882 Clouds 24 1013 94 10000 1.5 0 08:48 05.11.2020
5883 Clouds 24 1013 94 10000 1.5 0 08:29 05.11.2020
5884 Clouds 24 1014 94 10000 2.75 344 07:42 05.11.2020
5885 Clouds 24 1014 94 10000 2.71 341 07:23 05.11.2020
5886 Clouds 25 1015 88 10000 1.5 40 06:42 05.11.2020
5887 Clouds 25 1015 88 10000 1.5 40 06:42 05.11.2020
5888 Clouds 25 1015 88 10000 1.5 50 05:54 05.11.2020
5889 Clouds 26 1011 94 10000 1.8 2 01:39 05.11.2020
5890 Clouds 26 1011 94 10000 2.24 3 00:34 05.11.2020
5891 Clouds 28 1011 83 10000 1.4 9 23:46 04.11.2020
5892 Clouds 28 1011 83 10000 1.46 9 23:26 04.11.2020
5893 Clouds 29 1011 79 10000 2.6 180 22:54 04.11.2020
5894 Clouds 29 1011 79 10000 2.6 180 22:54 04.11.2020
5895 Clouds 29 1011 79 10000 2.6 180 22:36 04.11.2020
5896 Clouds 29 1011 79 10000 3.6 180 22:18 04.11.2020
5897 Clouds 29 1011 79 10000 3.6 180 21:42 04.11.2020
5898 Clouds 29 1011 79 10000 3.6 180 21:24 04.11.2020
5899 Clouds 29 1012 79 10000 2.6 90 20:45 04.11.2020
5900 Clouds 29 1012 79 10000 2.6 90 20:27 04.11.2020
5901 Clouds 30 1012 79 10000 2.6 90 19:50 04.11.2020
5902 Clouds 30 1012 79 10000 2.6 90 19:30 04.11.2020
5903 Clouds 30 1012 79 10000 2.6 120 18:56 04.11.2020
5904 Clouds 30 1012 79 10000 2.6 120 18:38 04.11.2020
5905 Clouds 30 1013 74 10000 3.1 90 18:20 04.11.2020
5906 Clouds 29 1013 74 10000 3.1 90 17:41 04.11.2020
5907 Clouds 29 1013 74 10000 3.1 90 17:41 04.11.2020
5908 Clouds 29 1013 74 10000 3.1 90 17:23 04.11.2020
5909 Clouds 29 1014 79 10000 2.6 60 16:42 04.11.2020
5910 Clouds 29 1014 79 10000 2.6 60 16:24 04.11.2020
5911 Clouds 28 1013 74 10000 2.6 60 15:49 04.11.2020
5912 Clouds 27 1013 74 10000 2.6 60 15:26 04.11.2020
5913 Clouds 27 1015 88 10000 2.1 10 14:59 04.11.2020
5914 Clouds 27 1015 88 10000 2.1 10 14:41 04.11.2020
5915 Clouds 26 1015 88 10000 2.1 10 14:21 04.11.2020
5916 Clouds 25 1012 88 10000 2.49 353 13:47 04.11.2020
5917 Clouds 24 1012 88 10000 2.43 335 13:20 04.11.2020
5918 Clouds 24 1017 100 10000 2.43 335 12:54 04.11.2020
5919 Clouds 24 1017 100 10000 2.43 335 12:36 04.11.2020
5920 Clouds 24 1013 100 10000 2.1 40 11:59 04.11.2020
5921 Clouds 24 1013 100 10000 2.1 40 11:40 04.11.2020
5922 Clouds 24 1013 100 10000 2.1 10 11:20 04.11.2020
5923 Clouds 24 1013 100 10000 2.1 10 10:46 04.11.2020
5924 Clouds 24 1013 100 10000 2.1 10 10:22 04.11.2020
5925 Clouds 24 1013 94 10000 2.1 20 09:53 04.11.2020
5926 Clouds 23 1013 94 10000 2.1 20 09:23 04.11.2020
5927 Clouds 23 1013 100 10000 2.1 40 08:46 04.11.2020
5928 Clouds 23 1013 100 10000 2.1 40 08:21 04.11.2020
5929 Clouds 23 1016 100 10000 2.31 342 07:50 04.11.2020
5930 Clouds 23 1016 100 10000 2.16 345 07:27 04.11.2020
5931 Clouds 23 1017 100 10000 2.62 347 06:46 04.11.2020
5932 Clouds 23 1017 100 10000 2.46 341 06:27 04.11.2020
5933 Clouds 23 1016 100 10000 2.44 347 03:46 04.11.2020
5934 Clouds 24 1016 100 10000 2.39 336 02:20 04.11.2020
5935 Clouds 24 1014 100 8000 1.95 318 00:43 04.11.2020
5936 Clouds 24 1013 100 7000 1.67 301 23:44 03.11.2020
5937 Clouds 24 1013 100 7000 1.81 280 23:21 03.11.2020
5938 Clouds 24 1012 100 6000 1.81 280 22:41 03.11.2020
5939 Clouds 23 1012 100 6000 1.7 279 22:21 03.11.2020
5940 Clouds 24 1012 100 6000 1.7 279 21:56 03.11.2020
5941 Clouds 24 1012 100 6000 1.7 279 21:37 03.11.2020
5942 Clouds 24 1012 94 8000 1.87 288 21:19 03.11.2020
5943 Clouds 26 1012 94 8000 1.87 288 20:43 03.11.2020
5944 Clouds 26 1012 94 8000 1.88 287 20:22 03.11.2020
5945 Clouds 25 1012 94 8000 1.88 287 19:43 03.11.2020
5946 Clouds 25 1012 94 8000 1.35 296 19:22 03.11.2020
5947 Clouds 26 1013 83 8000 1.35 296 18:45 03.11.2020
5948 Clouds 26 1013 83 8000 2.3 160 18:21 03.11.2020
5949 Clouds 26 1013 83 10000 2.1 100 17:58 03.11.2020
5950 Clouds 27 1013 83 10000 2.1 100 17:40 03.11.2020
5951 Clouds 26 1014 94 10000 4.18 144 17:21 03.11.2020
5952 Clouds 26 1014 94 10000 4.18 144 16:44 03.11.2020
5953 Clouds 26 1014 94 10000 2.81 116 16:22 03.11.2020
5954 Clouds 24 1014 94 10000 2.81 116 15:43 03.11.2020
5955 Clouds 24 1014 94 10000 3.05 102 15:24 03.11.2020
5956 Clouds 24 1014 100 8000 3.05 102 14:52 03.11.2020
5957 Clouds 24 1014 100 8000 3.05 102 14:33 03.11.2020
5958 Clouds 24 1014 100 7000 4.11 112 13:46 03.11.2020
5959 Clouds 24 1014 100 7000 2.51 102 13:23 03.11.2020
5960 Clouds 24 1016 100 3213 2.05 107 12:59 03.11.2020
5961 Clouds 24 1012 94 7000 2.1 110 12:37 03.11.2020
5962 Clouds 24 1012 100 8000 2.1 60 12:18 03.11.2020
5963 Clouds 24 1012 100 8000 2.1 60 11:41 03.11.2020
5964 Clouds 24 1012 100 8000 2.1 60 11:20 03.11.2020
5965 Clouds 24 1012 100 8000 2.1 60 11:20 03.11.2020
5966 Clouds 24 1011 100 10000 2.1 60 10:39 03.11.2020
5967 Clouds 24 1011 100 10000 2.1 60 10:21 03.11.2020
5968 Clouds 24 1011 100 10000 2.1 80 09:51 03.11.2020
5969 Clouds 24 1013 100 5115 1.74 50 09:33 03.11.2020
5970 Clouds 25 1013 100 10000 1.41 343 08:56 03.11.2020
5971 Clouds 24 1014 100 10000 1.41 343 08:35 03.11.2020
5972 Clouds 25 1014 100 10000 1.57 354 07:49 03.11.2020
5973 Rain 25 1014 100 10000 1.71 352 07:22 03.11.2020
5974 Clouds 25 1014 100 10000 1.78 331 06:46 03.11.2020
5975 Clouds 25 1015 100 10000 1.76 322 05:38 03.11.2020
5976 Clouds 25 1015 100 10000 0.65 271 02:43 03.11.2020
5977 Clouds 26 1011 88 10000 0.95 173 00:41 03.11.2020
5978 Clouds 26 1011 83 10000 0.73 113 23:52 02.11.2020
5979 Clouds 26 1011 83 10000 0.73 113 23:33 02.11.2020
5980 Clouds 26 1010 88 10000 1.15 132 22:54 02.11.2020
5981 Clouds 27 1010 88 10000 1.15 132 22:35 02.11.2020
5982 Rain 27 1010 88 8000 3.1 40 21:59 02.11.2020
5983 Rain 28 1010 88 8000 3.1 40 21:37 02.11.2020
5984 Clouds 28 1011 78 8000 3.1 90 21:19 02.11.2020
5985 Clouds 28 1011 78 8000 3.1 90 21:19 02.11.2020
5986 Clouds 28 1011 78 8000 3.1 90 20:39 02.11.2020
5987 Clouds 28 1011 78 8000 3.1 90 20:20 02.11.2020
5988 Clouds 27 1011 83 8000 2.6 90 19:46 02.11.2020
5989 Clouds 27 1011 83 8000 2.6 90 19:27 02.11.2020
5990 Clouds 28 1012 66 10000 5.1 180 18:56 02.11.2020
5991 Clouds 28 1012 66 10000 5.1 180 18:38 02.11.2020
5992 Clouds 27 1013 66 10000 5.1 40 18:19 02.11.2020
5993 Clouds 28 1013 66 10000 5.1 40 17:42 02.11.2020
5994 Clouds 29 1013 66 10000 5.1 40 17:24 02.11.2020
5995 Clouds 29 1014 74 10000 3.1 360 16:49 02.11.2020
5996 Clouds 29 1014 74 10000 3.1 360 16:31 02.11.2020
5997 Clouds 29 1014 74 10000 2.6 360 15:57 02.11.2020
5998 Clouds 29 1014 74 10000 2.6 360 15:38 02.11.2020
5999 Clouds 29 1014 74 10000 2.6 360 15:38 02.11.2020
6000 Clouds 28 1013 78 10000 2.21 35 15:19 02.11.2020
6001 Clouds 28 1013 78 10000 2.21 35 15:19 02.11.2020
6002 Clouds 27 1013 78 10000 2.21 35 14:43 02.11.2020
6003 Clouds 26 1012 100 10000 2.22 7 14:19 02.11.2020
6004 Clouds 25 1012 100 10000 2.22 7 13:48 02.11.2020
6005 Clouds 25 1012 100 10000 2.05 353 13:22 02.11.2020
6006 Clouds 25 1011 94 10000 2.1 360 12:50 02.11.2020
6007 Clouds 25 1011 94 10000 2.1 360 12:27 02.11.2020
6008 Clouds 25 1010 94 10000 2.1 360 11:46 02.11.2020
6009 Clouds 25 1010 94 10000 2.1 360 11:20 02.11.2020
6010 Clouds 25 1010 94 10000 2.1 20 10:48 02.11.2020
6011 Clouds 25 1010 94 10000 2.1 20 10:25 02.11.2020
6012 Clouds 25 1011 94 10000 2.1 20 09:55 02.11.2020
6013 Clouds 25 1011 94 10000 2.1 20 09:29 02.11.2020
6014 Clouds 25 1011 94 10000 2.1 20 08:57 02.11.2020
6015 Clouds 25 1011 94 10000 2.1 20 08:36 02.11.2020
6016 Clouds 25 1012 94 10000 2.1 30 08:18 02.11.2020
6017 Clouds 25 1012 94 10000 2.1 30 07:39 02.11.2020
6018 Clouds 26 1015 97 10000 2.76 335 06:45 02.11.2020
6019 Clouds 26 1016 97 10000 2.25 344 05:19 02.11.2020
6020 Clouds 27 1013 88 10000 2.1 70 01:34 02.11.2020
6021 Clouds 28 1012 83 10000 2.1 100 00:38 02.11.2020
6022 Clouds 28 1012 83 10000 2.1 100 00:19 02.11.2020
6023 Clouds 29 1012 74 10000 3.1 180 23:38 01.11.2020
6024 Clouds 29 1012 74 10000 3.1 180 23:20 01.11.2020
6025 Clouds 29 1012 74 10000 3.1 180 22:42 01.11.2020
6026 Clouds 30 1012 74 10000 3.1 180 22:22 01.11.2020
6027 Clouds 30 1012 74 10000 2.52 106 21:43 01.11.2020
6028 Clouds 30 1012 74 10000 3.04 102 21:24 01.11.2020
6029 Clouds 31 1012 66 10000 3.04 102 20:48 01.11.2020
6030 Clouds 31 1012 66 10000 3.57 91 20:26 01.11.2020
6031 Clouds 31 1013 66 10000 3.1 90 19:49 01.11.2020
6032 Clouds 31 1013 66 10000 3.1 90 19:29 01.11.2020
6033 Clouds 31 1014 66 10000 3.1 60 18:59 01.11.2020
6034 Clouds 31 1014 66 10000 3.1 60 18:40 01.11.2020
6035 Clouds 31 1015 70 10000 3.24 62 18:19 01.11.2020
6036 Clouds 31 1015 70 10000 3.24 62 17:45 01.11.2020
6037 Clouds 30 1015 70 10000 3.6 56 17:27 01.11.2020
6038 Clouds 30 1016 74 10000 3.1 360 16:45 01.11.2020
6039 Clouds 29 1016 74 10000 3.1 360 16:27 01.11.2020
6040 Clouds 29 1016 74 10000 3.1 360 16:27 01.11.2020
6041 Clouds 29 1015 79 10000 3.1 360 15:58 01.11.2020
6042 Clouds 29 1015 79 10000 3.1 360 15:38 01.11.2020
6043 Clouds 29 1015 79 10000 3.1 360 15:19 01.11.2020
6044 Clouds 28 1015 83 10000 3.1 340 14:46 01.11.2020
6045 Clouds 28 1015 83 10000 3.1 340 14:22 01.11.2020
6046 Clouds 27 1014 94 10000 4.1 360 13:57 01.11.2020
6047 Clouds 26 1014 94 10000 4.1 360 13:39 01.11.2020
6048 Clouds 26 1014 94 10000 4.1 360 13:20 01.11.2020
6049 Clouds 25 1016 100 10000 2.28 18 12:40 01.11.2020
6050 Clouds 25 1013 94 10000 2.1 20 12:19 01.11.2020
6051 Clouds 25 1013 94 10000 2.1 20 11:48 01.11.2020
6052 Clouds 25 1012 94 10000 2.1 20 11:18 01.11.2020
6053 Clouds 25 1012 94 10000 2.1 20 10:42 01.11.2020
6054 Clouds 25 1012 94 10000 2.1 20 10:24 01.11.2020
6055 Clouds 25 1012 100 10000 2.67 7 09:49 01.11.2020
6056 Clouds 25 1012 100 10000 2.97 360 09:24 01.11.2020
6057 Clouds 25 1013 100 10000 2.1 30 08:40 01.11.2020
6058 Clouds 26 1016 100 10000 2.99 5 07:54 01.11.2020
6059 Clouds 26 1016 100 10000 3.06 3 06:48 01.11.2020
6060 Clouds 27 1017 100 10000 2.41 0 02:31 01.11.2020
6061 Clouds 27 1011 88 10000 5.1 90 01:38 01.11.2020
6062 Clouds 28 1014 80 7726 0.45 333 23:56 31.10.2020
6063 Clouds 29 1010 83 10000 2.99 34 23:23 31.10.2020
6064 Clouds 29 1010 83 10000 2.99 34 22:45 31.10.2020
6065 Clouds 29 1010 83 10000 2.82 38 22:24 31.10.2020
6066 Clouds 29 1010 83 10000 2.82 38 22:24 31.10.2020
6067 Clouds 30 1010 79 10000 2.82 38 21:46 31.10.2020
6068 Clouds 30 1010 79 10000 3.1 62 21:22 31.10.2020
6069 Clouds 30 1011 79 10000 3.1 62 20:44 31.10.2020
6070 Clouds 30 1011 79 10000 2.99 65 20:20 31.10.2020
6071 Clouds 30 1012 75 10000 2.99 65 19:58 31.10.2020
6072 Clouds 30 1012 75 10000 2.99 65 19:37 31.10.2020
6073 Clouds 31 1012 75 10000 2.79 65 19:18 31.10.2020
6074 Clouds 30 1012 70 10000 3.1 300 18:42 31.10.2020
6075 Clouds 29 1016 93 6998 2.81 52 17:47 31.10.2020
6076 Clouds 30 1013 74 10000 3.1 60 17:29 31.10.2020
6077 Clouds 29 1013 74 10000 3.1 60 16:59 31.10.2020
6078 Clouds 29 1013 74 10000 3.1 60 16:39 31.10.2020
6079 Clouds 29 1013 66 10000 3.1 360 15:57 31.10.2020
6080 Clouds 29 1013 66 10000 3.1 360 15:36 31.10.2020
6081 Clouds 29 1014 83 10000 2.1 50 15:18 31.10.2020
6082 Clouds 28 1014 83 10000 2.1 50 14:46 31.10.2020
6083 Clouds 28 1014 83 10000 2.1 50 14:26 31.10.2020
6084 Clouds 26 1012 94 10000 2.89 12 13:49 31.10.2020
6085 Clouds 26 1012 94 10000 1.96 354 13:21 31.10.2020
6086 Clouds 26 1013 100 10000 2.1 10 12:32 31.10.2020
6087 Clouds 26 1012 100 10000 2.1 10 11:47 31.10.2020
6088 Clouds 26 1012 100 10000 2.1 10 11:28 31.10.2020
6089 Clouds 26 1012 94 10000 2.1 40 10:54 31.10.2020
6090 Clouds 26 1012 94 10000 2.1 40 10:33 31.10.2020
6091 Clouds 26 1015 100 6853 1.58 9 09:42 31.10.2020
6092 Rain 26 1015 100 4642 1.79 345 09:21 31.10.2020
6093 Clouds 26 1015 100 4642 1.79 345 08:32 31.10.2020
6094 Clouds 26 1015 100 10000 2.11 335 07:50 31.10.2020
6095 Clouds 26 1015 100 10000 1.89 337 07:27 31.10.2020
6096 Clouds 26 1015 100 10000 1.86 335 06:39 31.10.2020
6097 Clouds 26 1016 100 10000 1.8 339 04:51 31.10.2020
6098 Clouds 26 1016 100 10000 1.99 350 03:45 31.10.2020
6099 Clouds 27 1012 83 10000 1.43 359 01:29 31.10.2020
6100 Clouds 27 1012 83 10000 1.11 345 00:46 31.10.2020
6101 Clouds 27 1012 83 10000 1.06 6 23:50 30.10.2020
6102 Clouds 28 1012 83 10000 1.35 31 23:24 30.10.2020
6103 Clouds 28 1011 78 10000 1.35 31 22:45 30.10.2020
6104 Clouds 28 1011 78 10000 1.61 55 22:24 30.10.2020
6105 Clouds 29 1011 70 10000 2.6 90 21:52 30.10.2020
6106 Clouds 29 1011 70 10000 2.6 90 21:30 30.10.2020
6107 Clouds 29 1012 66 10000 1.99 79 20:59 30.10.2020
6108 Clouds 29 1012 66 10000 1.99 79 20:39 30.10.2020
6109 Clouds 30 1012 66 10000 2.56 89 20:20 30.10.2020
6110 Clouds 30 1012 70 10000 2.56 89 19:44 30.10.2020
6111 Clouds 30 1012 70 10000 2.4 87 19:18 30.10.2020
6112 Clouds 29 1013 79 10000 2.6 30 18:49 30.10.2020
6113 Clouds 29 1013 79 10000 2.6 30 18:27 30.10.2020
6114 Clouds 28 1013 88 10000 1.41 115 17:49 30.10.2020
6115 Rain 27 1016 100 10000 2.02 107 17:23 30.10.2020
6116 Clouds 27 1016 100 10000 2.02 107 16:57 30.10.2020
6117 Clouds 26 1014 94 8000 2.02 107 16:36 30.10.2020
6118 Clouds 26 1014 94 8000 2.02 107 16:36 30.10.2020
6119 Clouds 26 1014 94 8000 1.45 66 16:18 30.10.2020
6120 Clouds 26 1014 94 8000 1.45 66 15:40 30.10.2020
6121 Clouds 25 1014 94 8000 1.85 11 15:19 30.10.2020
6122 Clouds 25 1014 94 8000 1.85 11 14:44 30.10.2020
6123 Clouds 25 1014 94 8000 1.93 356 14:25 30.10.2020
6124 Clouds 25 1013 100 8000 1.93 356 13:45 30.10.2020
6125 Clouds 25 1013 100 8000 1.99 344 13:21 30.10.2020
6126 Clouds 25 1012 100 10000 2.1 20 12:52 30.10.2020
6127 Clouds 25 1012 100 10000 2.1 20 12:22 30.10.2020
6128 Thunderstorm 25 1012 94 10000 2.1 10 11:56 30.10.2020
6129 Thunderstorm 25 1012 94 10000 2.1 10 11:23 30.10.2020
6130 Thunderstorm 25 1011 94 10000 2.6 20 10:52 30.10.2020
6131 Thunderstorm 25 1011 94 10000 2.6 20 10:26 30.10.2020
6132 Clouds 25 1014 100 10000 2.18 341 09:59 30.10.2020
6133 Clouds 25 1014 100 10000 2.18 341 09:41 30.10.2020
6134 Rain 25 1014 100 10000 1.79 348 09:19 30.10.2020
6135 Rain 25 1014 100 10000 1.79 348 09:19 30.10.2020
6136 Clouds 25 1014 100 10000 1.77 331 08:32 30.10.2020
6137 Clouds 25 1014 100 10000 1.87 332 07:55 30.10.2020
6138 Clouds 25 1014 100 10000 1.87 332 07:36 30.10.2020
6139 Clouds 25 1014 100 10000 2.14 339 07:18 30.10.2020
6140 Clouds 25 1015 100 10000 2.04 332 05:59 30.10.2020
6141 Clouds 25 1015 100 10000 2.3 340 03:59 30.10.2020
6142 Rain 25 1022 94 8000 2.55 343 01:26 30.10.2020
6143 Rain 25 1022 94 8000 2.38 352 00:26 30.10.2020
6144 Clouds 25 1010 94 7000 3.1 30 23:43 29.10.2020
6145 Clouds 25 1010 94 7000 3.1 30 23:25 29.10.2020
6146 Clouds 25 1010 94 7000 5.1 60 22:45 29.10.2020
6147 Clouds 25 1010 94 7000 5.1 60 22:27 29.10.2020
6148 Clouds 26 1010 88 7000 4.1 120 21:49 29.10.2020
6149 Clouds 26 1010 88 7000 4.1 120 21:24 29.10.2020
6150 Clouds 26 1011 88 7000 5.1 160 20:43 29.10.2020
6151 Clouds 26 1011 88 7000 5.1 160 20:24 29.10.2020
6152 Clouds 27 1011 79 7000 5.1 360 19:57 29.10.2020
6153 Clouds 28 1011 79 7000 5.1 360 19:38 29.10.2020
6154 Clouds 30 1011 79 7000 5.1 360 19:18 29.10.2020
6155 Clouds 29 1012 70 10000 3.25 36 18:45 29.10.2020
6156 Clouds 29 1012 70 10000 3.68 28 18:25 29.10.2020
6157 Clouds 30 1014 91 10000 3.68 28 17:42 29.10.2020
6158 Clouds 31 1014 74 10000 3.1 60 17:22 29.10.2020
6159 Clouds 30 1014 74 10000 3.1 60 16:53 29.10.2020
6160 Clouds 30 1014 74 10000 3.1 60 16:23 29.10.2020
6161 Clouds 29 1014 70 10000 5.1 140 15:58 29.10.2020
6162 Clouds 29 1014 70 10000 5.1 140 15:40 29.10.2020
6163 Clouds 29 1014 70 10000 5.1 140 15:22 29.10.2020
6164 Clouds 28 1014 83 10000 5.1 110 14:47 29.10.2020
6165 Clouds 28 1014 83 10000 5.1 110 14:24 29.10.2020
6166 Clouds 27 1012 94 10000 5.01 358 13:59 29.10.2020
6167 Clouds 27 1012 94 10000 5.01 358 13:40 29.10.2020
6168 Clouds 26 1012 94 10000 4.26 352 13:21 29.10.2020
6169 Clouds 26 1015 100 10000 4.11 350 12:40 29.10.2020
6170 Clouds 25 1011 94 10000 2.1 10 12:19 29.10.2020
6171 Clouds 25 1011 94 10000 2.1 10 11:47 29.10.2020
6172 Clouds 25 1011 94 10000 2.1 10 11:24 29.10.2020
6173 Clouds 25 1011 94 10000 2.1 10 10:38 29.10.2020
6174 Clouds 25 1011 100 10000 2.1 10 10:19 29.10.2020
6175 Clouds 25 1014 100 10000 3.99 345 09:53 29.10.2020
6176 Clouds 25 1013 100 10000 3.96 346 09:28 29.10.2020
6177 Clouds 25 1014 100 10000 3.96 346 08:56 29.10.2020
6178 Clouds 25 1014 100 10000 3.96 346 08:34 29.10.2020
6179 Clouds 25 1014 100 10000 4.18 347 07:54 29.10.2020
6180 Clouds 25 1014 100 10000 4.18 347 07:35 29.10.2020
6181 Clear 25 1014 100 10000 4.26 347 06:57 29.10.2020
6182 Clear 26 1016 100 10000 4.15 346 04:52 29.10.2020
6183 Clear 25 1016 100 10000 4.03 353 03:58 29.10.2020
6184 Clouds 26 1015 100 10000 3.99 1 01:22 29.10.2020
6185 Clouds 26 1014 100 10000 3.92 1 00:31 29.10.2020
6186 Clouds 27 1014 100 10000 4.15 357 23:46 28.10.2020
6187 Clouds 27 1014 100 10000 3.81 3 23:21 28.10.2020
6188 Clouds 27 1014 100 10000 3.81 3 22:45 28.10.2020
6189 Clouds 27 1011 83 8000 5.1 90 22:26 28.10.2020
6190 Clouds 26 1011 83 8000 5.1 90 21:58 28.10.2020
6191 Clouds 26 1011 83 8000 5.1 90 21:40 28.10.2020
6192 Clouds 27 1012 83 8000 4.1 360 21:19 28.10.2020
6193 Clouds 27 1012 83 8000 4.1 360 20:41 28.10.2020
6194 Clouds 27 1012 83 8000 4.1 360 20:22 28.10.2020
6195 Clouds 28 1012 74 6000 5.1 360 19:50 28.10.2020
6196 Clouds 29 1012 74 6000 5.1 360 19:28 28.10.2020
6197 Clouds 29 1013 66 10000 5.1 360 18:47 28.10.2020
6198 Clouds 30 1013 66 10000 5.1 360 18:21 28.10.2020
6199 Clouds 30 1013 78 8000 5.1 30 17:45 28.10.2020
6200 Clouds 30 1013 78 8000 5.1 30 17:25 28.10.2020
6201 Clouds 30 1014 66 10000 5.1 360 16:57 28.10.2020
6202 Clouds 30 1014 66 10000 5.1 360 16:38 28.10.2020
6203 Rain 30 1016 91 9606 3.24 34 16:20 28.10.2020
6204 Clouds 30 1017 93 9606 3.24 34 15:37 28.10.2020
6205 Rain 29 1017 95 10000 2.98 39 15:18 28.10.2020
6206 Clouds 29 1017 97 10000 2.98 39 14:42 28.10.2020
6207 Clouds 27 1012 94 10000 2.1 30 14:22 28.10.2020
6208 Clouds 26 1016 100 10000 3.04 342 12:42 28.10.2020
6209 Rain 25 1015 100 10000 2.7 348 12:22 28.10.2020
6210 Clouds 25 1015 100 10000 2.7 348 11:56 28.10.2020
6211 Clouds 25 1015 100 10000 2.7 348 11:36 28.10.2020
6212 Rain 25 1015 100 10000 3 346 11:18 28.10.2020
6213 Clouds 25 1015 100 10000 3 346 10:44 28.10.2020
6214 Thunderstorm 25 1012 100 10000 2.1 360 10:26 28.10.2020
6215 Thunderstorm 25 1012 100 10000 2.1 360 09:43 28.10.2020
6216 Thunderstorm 25 1012 100 10000 2.1 360 09:23 28.10.2020
6217 Clouds 25 1012 100 10000 2.1 360 08:50 28.10.2020
6218 Rain 25 1014 100 10000 2.78 348 08:29 28.10.2020
6219 Clouds 25 1014 100 10000 2.78 348 07:52 28.10.2020
6220 Clouds 24 1014 100 10000 2.78 348 07:31 28.10.2020
6221 Clouds 25 1014 100 10000 2.58 346 06:42 28.10.2020
6222 Rain 25 1015 100 10000 2.8 346 06:23 28.10.2020
6223 Rain 25 1015 100 5601 2.64 341 05:22 28.10.2020
6224 Rain 25 1016 100 10000 2.16 345 04:28 28.10.2020
6225 Rain 25 1016 100 10000 2.14 17 02:26 28.10.2020
6226 Rain 25 1016 100 10000 2.14 17 02:26 28.10.2020
6227 Clouds 25 1015 100 10000 2.14 17 01:52 28.10.2020
6228 Thunderstorm 24 1012 94 10000 2.67 5 00:31 28.10.2020
6229 Thunderstorm 25 1011 88 10000 2.61 3 23:47 27.10.2020
6230 Thunderstorm 25 1011 88 10000 2.84 12 23:21 27.10.2020
6231 Clouds 25 1011 94 10000 2.84 12 22:44 27.10.2020
6232 Thunderstorm 26 1011 83 10000 3.46 27 22:19 27.10.2020
6233 Thunderstorm 26 1011 83 10000 3.46 27 21:56 27.10.2020
6234 Thunderstorm 26 1011 83 10000 3.46 27 21:37 27.10.2020
6235 Rain 26 1012 83 8536 4.07 31 21:19 27.10.2020
6236 Clouds 27 1012 83 8536 4.07 31 20:46 27.10.2020
6237 Clouds 27 1012 83 10000 4.75 17 20:24 27.10.2020
6238 Rain 27 1013 74 8000 5.1 360 19:55 27.10.2020
6239 Rain 28 1013 74 8000 5.1 360 19:36 27.10.2020
6240 Rain 28 1013 74 8000 5.1 360 19:18 27.10.2020
6241 Clouds 28 1012 70 10000 3.1 100 18:44 27.10.2020
6242 Clouds 30 1012 70 10000 3.1 100 18:21 27.10.2020
6243 Clouds 30 1014 66 10000 6.2 360 17:44 27.10.2020
6244 Clouds 31 1014 66 10000 6.2 360 17:22 27.10.2020
6245 Clouds 30 1016 66 10000 5.1 360 16:57 27.10.2020
6246 Clouds 30 1016 66 10000 5.1 360 16:39 27.10.2020
6247 Clouds 30 1016 66 10000 5.1 360 16:21 27.10.2020
6248 Clouds 30 1015 74 10000 3.1 20 15:41 27.10.2020
6249 Clouds 29 1015 78 10000 5.1 360 15:23 27.10.2020
6250 Clouds 29 1015 78 10000 5.1 360 14:48 27.10.2020
6251 Clouds 28 1015 78 10000 5.1 360 14:29 27.10.2020
6252 Clouds 27 1014 78 10000 4.98 360 13:56 27.10.2020
6253 Clouds 27 1014 78 10000 4.98 360 13:56 27.10.2020
6254 Clouds 26 1014 78 10000 4.6 353 13:25 27.10.2020
6255 Clouds 26 1016 100 10000 4.3 354 12:43 27.10.2020
6256 Clouds 25 1013 94 10000 3.1 10 12:24 27.10.2020
6257 Clouds 25 1013 94 10000 3.1 360 11:45 27.10.2020
6258 Clouds 25 1013 94 10000 3.1 360 11:26 27.10.2020
6259 Clouds 25 1013 94 10000 2.6 360 10:54 27.10.2020
6260 Clouds 25 1013 94 10000 2.6 360 10:36 27.10.2020
6261 Clouds 25 1014 94 10000 3.84 348 10:18 27.10.2020
6262 Clouds 25 1014 94 10000 3.55 348 09:28 27.10.2020
6263 Clouds 25 1013 94 10000 2.1 350 08:56 27.10.2020
6264 Clouds 26 1016 100 10000 3.45 347 08:27 27.10.2020
6265 Clouds 26 1016 100 10000 3.45 347 07:52 27.10.2020
6266 Clouds 26 1016 100 10000 3.45 347 07:33 27.10.2020
6267 Clouds 26 1017 100 10000 3.32 353 06:49 27.10.2020
6268 Clouds 26 1017 100 10000 3.14 355 06:19 27.10.2020
6269 Clouds 26 1017 100 10000 3.14 355 06:19 27.10.2020
6270 Clouds 26 1018 100 10000 3.14 355 05:44 27.10.2020
6271 Clouds 26 1018 100 10000 3.14 355 04:58 27.10.2020
6272 Clouds 27 1018 100 10000 3.2 356 02:49 27.10.2020
6273 Clouds 27 1014 94 10000 3.32 12 01:18 27.10.2020
6274 Clouds 27 1014 88 10000 3.11 20 23:59 26.10.2020
6275 Clouds 27 1014 88 10000 3.11 20 23:36 26.10.2020
6276 Clouds 27 1013 83 7000 3.1 40 22:56 26.10.2020
6277 Clouds 27 1013 83 7000 3.1 40 22:30 26.10.2020
6278 Clouds 30 1013 79 10000 3.79 63 21:56 26.10.2020
6279 Clouds 30 1013 79 10000 3.79 63 21:36 26.10.2020
6280 Clouds 31 1014 89 8000 3.46 68 21:18 26.10.2020
6281 Clouds 30 1014 89 8000 3.46 68 20:46 26.10.2020
6282 Clouds 29 1014 89 8000 3.35 68 20:26 26.10.2020
6283 Clouds 29 1014 94 8000 2.6 120 19:49 26.10.2020
6284 Clouds 29 1014 94 8000 2.6 120 19:28 26.10.2020
6285 Clouds 30 1014 63 10000 2.6 60 18:57 26.10.2020
6286 Clouds 31 1014 63 10000 2.6 60 18:36 26.10.2020
6287 Clouds 31 1016 66 10000 3.1 90 18:18 26.10.2020
6288 Clouds 31 1016 66 10000 3.1 90 17:40 26.10.2020
6289 Clouds 32 1017 66 10000 5.1 90 17:22 26.10.2020
6290 Clouds 31 1017 66 10000 5.1 90 16:44 26.10.2020
6291 Clouds 31 1017 66 10000 5.1 90 16:22 26.10.2020
6292 Clouds 31 1017 70 10000 2.87 42 15:45 26.10.2020
6293 Clouds 30 1017 70 10000 3.08 38 15:26 26.10.2020
6294 Clouds 29 1016 83 10000 2.6 30 14:56 26.10.2020
6295 Clouds 29 1016 83 10000 2.6 30 14:56 26.10.2020
6296 Clouds 29 1016 83 10000 2.6 30 14:38 26.10.2020
6297 Clouds 27 1015 94 10000 2.83 12 13:48 26.10.2020
6298 Clouds 26 1015 94 10000 2.55 345 13:29 26.10.2020
6299 Clouds 27 1017 100 10000 2.55 345 12:58 26.10.2020
6300 Clouds 27 1017 100 10000 2.47 344 12:40 26.10.2020
6301 Clouds 25 1014 100 10000 2.1 20 12:20 26.10.2020
6302 Clouds 26 1014 94 10000 2.1 10 11:46 26.10.2020
6303 Clouds 24 1014 94 10000 2.1 10 11:23 26.10.2020
6304 Clouds 24 1014 94 10000 2.1 10 10:57 26.10.2020
6305 Clouds 24 1014 94 10000 2.1 10 10:38 26.10.2020
6306 Clouds 24 1013 94 10000 2.1 20 10:18 26.10.2020
6307 Clouds 26 1013 94 10000 2.1 20 09:32 26.10.2020
6308 Clouds 26 1014 88 10000 2.1 20 08:58 26.10.2020
6309 Clouds 26 1014 88 10000 2.1 20 08:26 26.10.2020
6310 Clouds 26 1014 88 10000 2.1 20 07:48 26.10.2020
6311 Clouds 26 1014 88 10000 2.1 20 07:29 26.10.2020
6312 Clouds 26 1015 88 10000 1.5 60 05:46 26.10.2020
6313 Clouds 26 1015 94 10000 1.12 354 04:20 26.10.2020
6314 Clouds 26 1015 88 10000 0.85 338 03:21 26.10.2020
6315 Clouds 26 1015 88 10000 0.85 338 03:21 26.10.2020
6316 Clouds 26 1015 88 10000 0.85 338 03:21 26.10.2020
6317 Clouds 26 1014 94 10000 0.06 299 01:34 26.10.2020
6318 Clouds 29 1014 83 10000 0.8 156 00:39 26.10.2020
6319 Clouds 29 1016 96 10000 1.26 115 00:20 26.10.2020
6320 Clouds 29 1012 66 10000 4.1 150 23:37 25.10.2020
6321 Clouds 30 1012 66 10000 4.1 150 22:50 25.10.2020
6322 Clouds 30 1012 66 10000 4.1 150 22:30 25.10.2020
6323 Clouds 30 1013 66 10000 5.1 180 21:58 25.10.2020
6324 Clouds 30 1013 66 10000 5.1 180 21:39 25.10.2020
6325 Clouds 31 1013 62 10000 5.1 180 21:19 25.10.2020
6326 Clouds 31 1013 62 10000 5.1 180 20:43 25.10.2020
6327 Clouds 31 1013 62 10000 5.1 180 20:24 25.10.2020
6328 Clouds 31 1014 66 10000 5.1 180 19:56 25.10.2020
6329 Clouds 31 1014 66 10000 5.1 180 19:37 25.10.2020
6330 Clouds 32 1014 66 10000 5.1 180 19:19 25.10.2020
6331 Clouds 31 1014 66 10000 5.1 150 18:41 25.10.2020
6332 Clouds 31 1014 66 10000 5.1 150 18:22 25.10.2020
6333 Clouds 31 1014 66 10000 5.1 150 18:22 25.10.2020
6334 Clouds 31 1015 66 10000 5.1 130 17:56 25.10.2020
6335 Clouds 31 1015 66 10000 5.1 130 17:38 25.10.2020
6336 Clouds 31 1016 66 10000 5.1 110 17:19 25.10.2020
6337 Clouds 31 1016 66 10000 5.1 110 16:44 25.10.2020
6338 Clouds 31 1016 66 10000 5.1 110 16:25 25.10.2020
6339 Clouds 30 1016 74 10000 2.6 90 15:47 25.10.2020
6340 Clouds 30 1016 74 10000 2.6 90 15:27 25.10.2020
6341 Clouds 29 1016 79 10000 2.46 69 14:54 25.10.2020
6342 Clouds 28 1016 79 10000 2.46 69 14:30 25.10.2020
6343 Clouds 27 1018 100 10000 1.7 32 13:45 25.10.2020
6344 Clouds 27 1018 100 10000 1.71 358 13:25 25.10.2020
6345 Clouds 26 1014 94 10000 2.6 70 12:57 25.10.2020
6346 Clouds 25 1014 94 10000 2.6 70 12:39 25.10.2020
6347 Clouds 25 1014 94 10000 2.6 70 12:21 25.10.2020
6348 Clouds 25 1014 94 10000 3.1 60 11:42 25.10.2020
6349 Clouds 25 1014 94 10000 3.1 60 11:20 25.10.2020
6350 Clouds 25 1013 94 10000 2.6 50 10:47 25.10.2020
6351 Clouds 25 1013 94 10000 2.6 50 10:26 25.10.2020
6352 Clouds 25 1013 94 10000 2.1 50 09:52 25.10.2020
6353 Clouds 25 1013 94 10000 2.1 50 09:23 25.10.2020
6354 Clouds 25 1014 94 10000 2.1 40 08:59 25.10.2020
6355 Clouds 26 1014 94 10000 2.1 40 08:40 25.10.2020
6356 Clouds 26 1014 94 10000 2.1 40 08:22 25.10.2020
6357 Clouds 26 1014 94 10000 2.1 60 07:44 25.10.2020
6358 Clouds 26 1015 94 10000 2.1 40 06:53 25.10.2020
6359 Clouds 26 1015 94 10000 2.1 40 06:30 25.10.2020
6360 Clouds 26 1015 94 10000 2.1 60 05:22 25.10.2020
6361 Clouds 27 1014 88 10000 2.1 40 04:50 25.10.2020
6362 Clouds 29 1016 94 10000 2.15 120 02:37 25.10.2020
6363 Clouds 29 1012 79 10000 4.1 110 00:54 25.10.2020
6364 Clouds 29 1012 70 10000 5.1 150 00:29 25.10.2020
6365 Clouds 30 1012 70 10000 5.1 150 23:57 24.10.2020
6366 Clouds 30 1012 70 10000 5.1 150 23:36 24.10.2020
6367 Clouds 30 1012 66 10000 8.2 150 22:59 24.10.2020
6368 Clouds 30 1012 66 10000 8.2 150 22:41 24.10.2020
6369 Clouds 31 1012 66 10000 8.2 150 22:22 24.10.2020
6370 Clouds 31 1013 62 10000 5.1 180 21:55 24.10.2020
6371 Clouds 31 1013 62 10000 5.1 180 21:36 24.10.2020
6372 Rain 31 1015 91 10000 4.61 148 21:18 24.10.2020
6373 Clouds 31 1015 92 10000 4.61 148 20:42 24.10.2020
6374 Clouds 31 1014 62 10000 8.2 180 20:20 24.10.2020
6375 Clouds 32 1014 62 10000 8.2 180 19:41 24.10.2020
6376 Clouds 32 1014 62 10000 8.2 180 19:23 24.10.2020
6377 Clouds 31 1015 66 10000 5.1 120 18:51 24.10.2020
6378 Clouds 31 1015 66 10000 5.1 120 18:30 24.10.2020
6379 Clouds 30 1015 70 10000 4.1 180 17:44 24.10.2020
6380 Clouds 30 1015 70 10000 4.1 180 17:25 24.10.2020
6381 Clouds 30 1015 74 10000 1.7 120 16:53 24.10.2020
6382 Clouds 30 1015 74 10000 1.7 120 16:35 24.10.2020
6383 Clouds 29 1015 79 10000 1.11 64 15:57 24.10.2020
6384 Clouds 29 1015 79 10000 1.11 64 15:37 24.10.2020
6385 Clouds 29 1015 79 10000 1.25 13 15:18 24.10.2020
6386 Clouds 27 1014 94 10000 1.42 359 14:30 24.10.2020
6387 Clouds 27 1016 100 10000 1.35 346 13:55 24.10.2020
6388 Clouds 27 1016 100 10000 1.34 344 13:36 24.10.2020
6389 Clouds 26 1016 100 10000 1.61 331 13:18 24.10.2020
6390 Clouds 25 1013 94 10000 2.1 40 12:37 24.10.2020
6391 Clouds 25 1013 94 10000 2.1 40 12:19 24.10.2020
6392 Clouds 26 1013 88 10000 2.1 30 11:45 24.10.2020
6393 Clouds 26 1013 88 10000 2.1 30 11:19 24.10.2020
6394 Clouds 25 1013 88 10000 2.1 40 10:42 24.10.2020
6395 Clouds 25 1013 88 10000 2.1 40 10:24 24.10.2020
6396 Clouds 25 1013 88 10000 2.1 40 09:44 24.10.2020
6397 Clouds 26 1013 88 10000 2.1 40 09:25 24.10.2020
6398 Clouds 25 1013 94 10000 2.1 40 08:54 24.10.2020
6399 Clouds 26 1013 94 10000 2.1 40 08:18 24.10.2020
6400 Clouds 26 1013 94 10000 2.1 40 08:18 24.10.2020
6401 Clouds 27 1014 88 10000 2.1 30 07:49 24.10.2020
6402 Clouds 27 1014 88 10000 2.1 60 07:20 24.10.2020
6403 Clouds 27 1014 88 10000 2.1 60 06:49 24.10.2020
6404 Clouds 27 1014 83 10000 2.1 110 04:59 24.10.2020
6405 Clouds 29 1012 74 10000 3.1 150 02:20 24.10.2020
6406 Clouds 29 1012 66 10000 3.1 180 00:44 24.10.2020
6407 Clouds 30 1012 66 10000 3.1 180 00:23 24.10.2020
6408 Clouds 30 1012 59 10000 4.1 180 23:59 23.10.2020
6409 Clouds 30 1012 59 10000 4.1 180 23:38 23.10.2020
6410 Clouds 31 1012 59 10000 4.1 180 23:19 23.10.2020
6411 Clouds 31 1014 94 10000 3 149 22:42 23.10.2020
6412 Clouds 31 1012 59 10000 3.1 170 22:21 23.10.2020
6413 Clouds 31 1012 59 10000 3.1 170 21:53 23.10.2020
6414 Clouds 32 1012 59 10000 3.1 170 21:29 23.10.2020
6415 Clouds 32 1013 55 10000 4.1 150 20:57 23.10.2020
6416 Clouds 32 1013 55 10000 4.1 150 20:37 23.10.2020
6417 Clouds 31 1013 55 10000 4.1 150 20:18 23.10.2020
6418 Clouds 31 1013 59 10000 4.1 150 19:42 23.10.2020
6419 Clouds 31 1013 59 10000 4.1 150 19:24 23.10.2020
6420 Clouds 31 1014 62 10000 4.1 180 18:42 23.10.2020
6421 Clouds 31 1014 62 10000 4.1 180 18:22 23.10.2020
6422 Clouds 31 1015 66 10000 4.1 160 17:44 23.10.2020
6423 Clouds 31 1015 66 10000 4.1 160 17:21 23.10.2020
6424 Clouds 30 1015 74 10000 3.85 145 16:47 23.10.2020
6425 Clouds 30 1015 74 10000 3.11 142 16:26 23.10.2020
6426 Clouds 29 1015 78 10000 3.11 142 15:55 23.10.2020
6427 Clouds 29 1015 78 10000 3.11 142 15:36 23.10.2020
6428 Clouds 28 1017 100 10000 2.23 141 15:18 23.10.2020
6429 Clouds 27 1017 100 10000 2.23 141 14:40 23.10.2020
6430 Clouds 27 1017 100 10000 0.72 152 14:22 23.10.2020
6431 Clouds 25 1017 100 10000 0.72 152 13:39 23.10.2020
6432 Clouds 26 1014 100 10000 2.1 50 13:21 23.10.2020
6433 Clouds 27 1016 95 10000 0.41 204 12:48 23.10.2020
6434 Clouds 27 1016 95 10000 0.55 184 12:28 23.10.2020
6435 Clouds 26 1012 100 10000 0.55 184 11:48 23.10.2020
6436 Clouds 26 1012 100 10000 0.81 179 11:22 23.10.2020
6437 Clouds 26 1012 94 10000 0.81 179 10:47 23.10.2020
6438 Clouds 27 1015 95 10000 1.27 190 10:25 23.10.2020
6439 Clouds 27 1015 95 10000 1.27 190 09:48 23.10.2020
6440 Clouds 27 1015 95 10000 1.32 196 09:27 23.10.2020
6441 Clouds 27 1015 95 10000 1.32 196 08:53 23.10.2020
6442 Clouds 27 1015 95 10000 1.32 196 08:35 23.10.2020
6443 Clouds 27 1016 95 10000 1.74 185 07:46 23.10.2020
6444 Clouds 27 1016 95 10000 0.82 223 07:23 23.10.2020
6445 Clouds 27 1016 95 10000 0.82 223 06:31 23.10.2020
6446 Clouds 27 1017 95 10000 1.14 234 05:44 23.10.2020
6447 Clouds 27 1013 94 10000 1.23 209 02:33 23.10.2020
6448 Clouds 27 1013 94 10000 1.44 211 01:52 23.10.2020
6449 Clouds 27 1015 95 10000 1.6 202 00:48 23.10.2020
6450 Clouds 28 1012 78 10000 1.65 197 23:48 22.10.2020
6451 Clouds 27 1012 78 10000 1.65 197 23:30 22.10.2020
6452 Rain 27 1012 79 8000 4.1 180 22:50 22.10.2020
6453 Rain 27 1012 79 8000 4.1 180 22:28 22.10.2020
6454 Clouds 28 1012 74 10000 4.1 180 21:59 22.10.2020
6455 Clouds 28 1012 74 10000 4.1 180 21:59 22.10.2020
6456 Clouds 28 1012 74 10000 4.1 180 21:41 22.10.2020
6457 Clouds 28 1012 74 10000 4.1 180 21:23 22.10.2020
6458 Clouds 29 1013 79 10000 3.1 210 20:45 22.10.2020
6459 Clouds 29 1013 79 10000 3.1 210 20:45 22.10.2020
6460 Clouds 29 1013 79 10000 3.1 210 20:26 22.10.2020
6461 Clouds 28 1013 83 10000 3.28 159 19:58 22.10.2020
6462 Clouds 28 1013 83 10000 3.28 159 19:39 22.10.2020
6463 Clouds 26 1014 94 10000 3.41 154 19:18 22.10.2020
6464 Clouds 26 1014 94 10000 3.41 154 18:42 22.10.2020
6465 Clouds 27 1014 74 10000 2.55 146 18:20 22.10.2020
6466 Clouds 27 1014 74 10000 2.55 146 17:45 22.10.2020
6467 Clouds 27 1014 74 10000 1.57 131 17:22 22.10.2020
6468 Clouds 29 1014 74 10000 1.57 131 16:46 22.10.2020
6469 Clouds 29 1014 74 10000 0.97 97 16:25 22.10.2020
6470 Clouds 28 1014 88 10000 0.97 97 15:56 22.10.2020
6471 Clouds 28 1014 88 10000 0.97 97 15:38 22.10.2020
6472 Clouds 27 1013 94 10000 1.04 27 15:19 22.10.2020
6473 Clouds 26 1013 94 10000 1.04 27 14:42 22.10.2020
6474 Clouds 25 1013 94 10000 0.93 338 14:23 22.10.2020
6475 Clouds 26 1012 94 10000 2.1 40 13:45 22.10.2020
6476 Clouds 25 1012 94 10000 2.1 40 13:23 22.10.2020
6477 Clouds 27 1012 84 10000 0.45 289 12:44 22.10.2020
6478 Clouds 25 1011 94 10000 2.1 20 12:22 22.10.2020
6479 Clouds 25 1011 94 10000 2.1 20 11:47 22.10.2020
6480 Clouds 25 1011 100 10000 1.09 352 11:19 22.10.2020
6481 Clouds 25 1011 100 10000 1.09 352 10:49 22.10.2020
6482 Clouds 25 1011 100 10000 0.94 350 10:27 22.10.2020
6483 Clouds 25 1011 100 10000 0.94 350 09:46 22.10.2020
6484 Clouds 25 1011 100 10000 0.77 345 09:25 22.10.2020
6485 Clouds 25 1012 100 10000 0.77 345 08:47 22.10.2020
6486 Clouds 25 1012 100 10000 0.93 323 08:27 22.10.2020
6487 Clouds 26 1012 78 10000 0.77 340 07:48 22.10.2020
6488 Clouds 27 1012 78 10000 0.83 322 07:29 22.10.2020
6489 Clouds 27 1012 88 10000 1.5 0 06:46 22.10.2020
6490 Clouds 27 1012 88 10000 1.5 0 06:24 22.10.2020
6491 Clouds 27 1013 83 10000 4.6 200 05:39 22.10.2020
6492 Clouds 28 1013 88 10000 3.6 190 03:26 22.10.2020
6493 Clouds 28 1012 74 10000 0.84 165 01:35 22.10.2020
6494 Clouds 30 1011 70 10000 5.1 180 00:24 22.10.2020
6495 Clouds 30 1011 66 10000 2.1 150 23:44 21.10.2020
6496 Clouds 30 1011 66 10000 2.1 150 23:22 21.10.2020
6497 Clouds 31 1011 62 10000 3.1 180 22:39 21.10.2020
6498 Clouds 31 1011 62 10000 3.1 180 22:19 21.10.2020
6499 Clouds 31 1011 62 10000 3.1 180 21:46 21.10.2020
6500 Clouds 31 1011 62 10000 3.1 180 21:20 21.10.2020
6501 Clouds 31 1012 62 10000 3.86 159 20:59 21.10.2020
6502 Clouds 31 1012 62 10000 3.86 159 20:41 21.10.2020
6503 Clouds 31 1012 62 10000 3.28 153 20:18 21.10.2020
6504 Clouds 31 1012 62 10000 3.28 153 19:41 21.10.2020
6505 Clouds 31 1012 62 10000 2.78 145 19:23 21.10.2020
6506 Clouds 31 1013 66 10000 3.1 90 18:53 21.10.2020
6507 Clouds 31 1013 66 10000 3.1 90 18:31 21.10.2020
6508 Clouds 30 1014 74 10000 2.24 131 17:51 21.10.2020
6509 Clouds 30 1014 74 10000 1.69 106 17:22 21.10.2020
6510 Clouds 29 1014 78 10000 1.69 106 16:59 21.10.2020
6511 Clouds 29 1014 78 10000 1.69 106 16:40 21.10.2020
6512 Clouds 29 1014 78 10000 1.69 106 16:40 21.10.2020
6513 Clouds 29 1014 78 10000 1.35 53 16:20 21.10.2020
6514 Clouds 27 1013 83 10000 1.35 53 15:46 21.10.2020
6515 Clouds 27 1013 83 10000 1.3 7 15:22 21.10.2020
6516 Clouds 26 1013 94 10000 1.3 7 14:49 21.10.2020
6517 Clouds 26 1013 94 10000 1.2 337 14:29 21.10.2020
6518 Clouds 26 1013 80 10000 0.89 353 13:58 21.10.2020
6519 Clouds 25 1012 81 10000 0.89 345 13:40 21.10.2020
6520 Clouds 25 1012 83 10000 0.45 333 13:20 21.10.2020
6521 Clouds 25 1012 85 10000 0.89 342 12:40 21.10.2020
6522 Clouds 25 1011 85 10000 0.89 18 12:20 21.10.2020
6523 Clouds 25 1011 86 10000 0.89 6 11:46 21.10.2020
6524 Clouds 25 1011 86 10000 0.89 339 11:20 21.10.2020
6525 Clouds 24 1010 87 10000 1.34 335 10:49 21.10.2020
6526 Clouds 25 1010 86 10000 0.89 337 10:27 21.10.2020
6527 Clouds 25 1010 84 10000 0.89 19 09:58 21.10.2020
6528 Clouds 25 1011 94 10000 2.1 60 09:39 21.10.2020
6529 Clouds 25 1011 94 10000 2.1 60 08:57 21.10.2020
6530 Clouds 25 1011 94 10000 2.1 60 08:39 21.10.2020
6531 Clouds 25 1011 94 10000 2.1 60 08:21 21.10.2020
6532 Clouds 25 1011 94 10000 1.5 70 07:41 21.10.2020
6533 Clouds 25 1011 100 10000 1.5 70 06:58 21.10.2020
6534 Clouds 26 1011 100 10000 1.5 70 06:32 21.10.2020
6535 Clouds 23 1012 94 10000 1.19 343 04:48 21.10.2020
6536 Clouds 28 1009 78 10000 0.43 257 02:27 21.10.2020
6537 Clouds 29 1009 66 10000 5.1 180 23:55 20.10.2020
6538 Clouds 30 1009 66 10000 5.1 180 23:20 20.10.2020
6539 Clouds 31 1009 59 10000 5.1 180 22:36 20.10.2020
6540 Clouds 31 1009 59 10000 5.1 180 22:18 20.10.2020
6541 Clouds 31 1010 62 10000 5.1 90 21:45 20.10.2020
6542 Clouds 31 1010 62 10000 5.1 90 21:18 20.10.2020
6543 Clouds 31 1010 62 10000 3.1 90 20:42 20.10.2020
6544 Clouds 31 1010 62 10000 3.1 90 20:23 20.10.2020
6545 Clouds 32 1011 62 10000 3.1 90 19:44 20.10.2020
6546 Clouds 32 1011 62 10000 3.1 90 19:22 20.10.2020
6547 Clouds 31 1011 70 10000 2.32 121 18:56 20.10.2020
6548 Clouds 31 1011 70 10000 2.32 121 18:37 20.10.2020
6549 Clouds 30 1012 70 10000 3.1 90 17:50 20.10.2020
6550 Clouds 30 1012 70 10000 3.1 90 17:32 20.10.2020
6551 Clouds 29 1012 78 10000 2.6 40 16:56 20.10.2020
6552 Clouds 29 1012 78 10000 2.6 40 16:38 20.10.2020
6553 Clouds 29 1012 78 10000 2.6 40 16:20 20.10.2020
6554 Clouds 27 1012 88 10000 1.95 35 15:41 20.10.2020
6555 Clouds 27 1012 88 10000 1.71 11 15:22 20.10.2020
6556 Clouds 26 1012 88 10000 1.71 11 14:44 20.10.2020
6557 Clouds 26 1012 88 10000 1.47 353 14:24 20.10.2020
6558 Clouds 25 1010 100 10000 1.47 353 13:57 20.10.2020
6559 Clouds 24 1010 100 10000 1.4 346 13:38 20.10.2020
6560 Clouds 24 1010 100 10000 1.66 346 13:19 20.10.2020
6561 Clouds 24 1010 100 10000 1.66 346 12:46 20.10.2020
6562 Clouds 24 1010 100 10000 1.67 346 12:28 20.10.2020
6563 Clouds 25 1009 94 10000 1.67 346 11:46 20.10.2020
6564 Clouds 25 1009 94 10000 1.7 345 11:27 20.10.2020
6565 Clouds 25 1009 94 10000 1.7 345 10:40 20.10.2020
6566 Clouds 25 1009 94 10000 1.8 346 10:22 20.10.2020
6567 Clouds 25 1009 94 10000 1.8 346 09:44 20.10.2020
6568 Clouds 25 1009 94 10000 1.8 342 09:19 20.10.2020
6569 Clouds 25 1010 94 10000 2.1 10 08:39 20.10.2020
6570 Clouds 26 1010 94 10000 1.88 342 07:54 20.10.2020
6571 Clouds 26 1010 94 10000 1.97 339 07:26 20.10.2020
6572 Clouds 26 1010 94 10000 1 0 06:55 20.10.2020
6573 Clouds 26 1010 94 10000 1 0 06:18 20.10.2020
6574 Thunderstorm 26 1010 88 10000 3.1 50 03:59 20.10.2020
6575 Clouds 28 1009 83 10000 2.4 8 02:30 20.10.2020
6576 Clouds 29 1009 83 10000 2.5 36 01:21 20.10.2020
6577 Clouds 29 1009 74 10000 2.5 36 00:50 20.10.2020
6578 Clouds 29 1009 74 10000 1.65 54 00:23 20.10.2020
6579 Clouds 30 1008 66 10000 3.1 60 23:48 19.10.2020
6580 Clouds 30 1008 66 10000 3.1 60 23:48 19.10.2020
6581 Clouds 31 1008 66 10000 3.1 60 23:24 19.10.2020
6582 Clouds 31 1008 63 10000 2.6 60 22:47 19.10.2020
6583 Clouds 32 1008 63 10000 2.6 60 22:25 19.10.2020
6584 Clouds 32 1008 63 10000 2.6 60 22:25 19.10.2020
6585 Clouds 31 1008 70 10000 2.6 180 21:49 19.10.2020
6586 Clouds 31 1008 70 10000 2.6 180 21:23 19.10.2020
6587 Clouds 32 1009 62 10000 2.6 30 20:52 19.10.2020
6588 Clouds 32 1009 62 10000 2.6 30 20:33 19.10.2020
6589 Clouds 32 1011 66 10000 2.6 60 19:56 19.10.2020
6590 Clouds 32 1011 66 10000 2.6 60 19:38 19.10.2020
6591 Clouds 32 1011 66 10000 2.6 60 19:18 19.10.2020
6592 Clouds 31 1011 70 10000 3.1 60 18:42 19.10.2020
6593 Clouds 31 1011 70 10000 3.1 60 18:19 19.10.2020
6594 Clouds 30 1012 74 10000 3.1 40 17:45 19.10.2020
6595 Clouds 30 1012 74 10000 3.1 40 17:25 19.10.2020
6596 Clouds 29 1012 79 10000 2.6 360 16:48 19.10.2020
6597 Clouds 29 1012 79 10000 2.6 360 16:28 19.10.2020
6598 Clouds 28 1012 77 10000 1.34 33 15:44 19.10.2020
6599 Clouds 28 1012 80 10000 1.79 16 15:25 19.10.2020
6600 Clouds 27 1011 82 10000 1.34 352 14:52 19.10.2020
6601 Clouds 26 1011 84 10000 1.34 339 14:27 19.10.2020
6602 Clouds 26 1011 86 10000 0.89 2 13:54 19.10.2020
6603 Clouds 25 1011 88 10000 1.34 4 13:34 19.10.2020
6604 Clouds 24 1010 90 10000 0.89 348 12:59 19.10.2020
6605 Clouds 24 1010 90 10000 0.89 345 12:40 19.10.2020
6606 Clouds 24 1010 90 10000 1.34 350 12:22 19.10.2020
6607 Clouds 25 1010 89 10000 1.34 346 11:40 19.10.2020
6608 Clouds 24 1010 100 10000 2.1 30 11:19 19.10.2020
6609 Clouds 24 1010 100 10000 2.1 30 10:43 19.10.2020
6610 Clouds 24 1010 100 10000 2.1 30 10:21 19.10.2020
6611 Clouds 24 1010 94 10000 2.1 10 09:50 19.10.2020
6612 Clouds 25 1010 94 10000 2.1 10 09:23 19.10.2020
6613 Clouds 25 1011 94 10000 2.39 343 08:49 19.10.2020
6614 Clouds 25 1011 94 10000 2.28 341 08:23 19.10.2020
6615 Clouds 25 1012 94 10000 2.28 341 07:55 19.10.2020
6616 Clouds 25 1012 94 10000 2.04 353 07:20 19.10.2020
6617 Clouds 25 1012 94 10000 2.1 350 06:19 19.10.2020
6618 Thunderstorm 25 1012 94 10000 2.22 3 04:30 19.10.2020
6619 Thunderstorm 25 1010 88 10000 2.1 40 03:44 19.10.2020
6620 Clouds 27 1010 83 10000 2.1 130 00:59 19.10.2020
6621 Clouds 29 1011 74 10000 5.1 180 00:25 19.10.2020
6622 Clouds 29 1011 74 10000 5.1 180 23:48 18.10.2020
6623 Clouds 30 1011 74 10000 5.1 180 23:26 18.10.2020
6624 Clouds 30 1011 70 10000 5.1 180 22:53 18.10.2020
6625 Clouds 31 1011 70 10000 5.1 180